# Wetter Temperatur Luftdruck Luftfeuchtigkeit Sichtweite Windgeschwindigkeit Windrichtung Zeit
1 Clear 14 1017 15 0 4.96 52 19:44 02.04.2020
2 Clear 14 1017 15 0 4.96 52 19:21 02.04.2020
3 Clear 14 1017 15 0 4.96 52 19:21 02.04.2020
4 Clear 14 1017 15 0 4.96 52 18:58 02.04.2020
5 Clear 14 1017 15 0 4.96 52 18:39 02.04.2020
6 Clear 12 1021 19 0 3.21 70 18:20 02.04.2020
7 Clear 12 1021 19 0 3.21 70 17:56 02.04.2020
8 Clear 12 1021 19 0 3.21 70 17:38 02.04.2020
9 Clear 12 1021 19 0 3.21 70 17:19 02.04.2020
10 Clear 12 1021 19 0 3.21 70 16:55 02.04.2020
11 Clear 12 1021 19 0 3.21 70 16:37 02.04.2020
12 Clear 12 1021 19 0 3.21 70 16:19 02.04.2020
13 Clear 12 1021 19 0 3.21 70 15:44 02.04.2020
14 Clear 12 1021 19 0 3.21 70 15:21 02.04.2020
15 Clouds 8 1022 27 0 1.37 65 14:59 02.04.2020
16 Clouds 8 1022 27 0 1.37 65 14:40 02.04.2020
17 Clouds 8 1022 27 0 1.37 65 14:20 02.04.2020
18 Clouds 8 1023 27 0 1.31 54 13:57 02.04.2020
19 Clouds 8 1023 27 0 1.31 54 13:38 02.04.2020
20 Clouds 8 1023 27 0 1.31 54 13:38 02.04.2020
21 Clouds 8 1023 27 0 1.31 54 13:20 02.04.2020
22 Clouds 8 1023 27 0 1.31 54 12:55 02.04.2020
23 Clouds 8 1023 27 0 1.31 54 12:37 02.04.2020
24 Clouds 6 1020 29 0 0.65 36 12:19 02.04.2020
25 Clouds 6 1020 29 0 0.65 36 11:56 02.04.2020
26 Clouds 6 1020 29 0 0.65 36 11:37 02.04.2020
27 Clouds 6 1020 29 0 0.65 36 11:37 02.04.2020
28 Clouds 6 1020 29 0 0.65 36 11:18 02.04.2020
29 Clouds 6 1020 29 0 0.65 36 10:54 02.04.2020
30 Clouds 6 1020 29 0 0.65 36 10:36 02.04.2020
31 Clouds 6 1020 29 0 0.65 36 10:18 02.04.2020
32 Clouds 6 1020 29 0 0.65 36 09:43 02.04.2020
33 Clouds 6 1020 28 0 0.64 23 09:24 02.04.2020
34 Clouds 7 1020 27 0 0.79 8 08:58 02.04.2020
35 Clouds 7 1020 27 0 0.79 8 08:40 02.04.2020
36 Clouds 7 1020 27 0 0.79 8 08:20 02.04.2020
37 Clouds 7 1020 27 0 0.79 8 07:43 02.04.2020
38 Clouds 7 1020 27 0 0.79 8 07:20 02.04.2020
39 Clouds 7 1020 27 0 0.79 8 06:57 02.04.2020
40 Clouds 7 1020 27 0 0.79 8 06:21 02.04.2020
41 Clouds 8 1019 25 0 1.1 62 05:42 02.04.2020
42 Clouds 8 1019 25 0 1.1 62 03:24 02.04.2020
43 Clouds 10 1016 22 0 2.23 48 01:34 02.04.2020
44 Clouds 10 1016 22 0 2.23 48 00:46 02.04.2020
45 Clouds 10 1016 22 0 2.23 48 00:26 02.04.2020
46 Clouds 13 1012 16 0 4.5 50 23:54 01.04.2020
47 Clouds 13 1012 16 0 4.5 50 23:36 01.04.2020
48 Clouds 13 1012 16 0 4.5 50 23:18 01.04.2020
49 Clouds 13 1012 16 0 4.5 50 22:40 01.04.2020
50 Clouds 13 1012 16 0 4.5 50 22:21 01.04.2020
51 Clouds 13 1012 16 0 4.5 50 21:55 01.04.2020
52 Clouds 13 1012 16 0 4.5 50 21:36 01.04.2020
53 Clouds 15 1014 14 0 4.13 65 21:18 01.04.2020
54 Clouds 15 1014 14 0 4.13 65 20:54 01.04.2020
55 Clouds 15 1014 14 0 4.13 65 20:54 01.04.2020
56 Clouds 15 1014 14 0 4.13 65 20:54 01.04.2020
57 Clouds 15 1014 14 0 4.13 65 20:36 01.04.2020
58 Clouds 15 1014 14 0 4.13 65 20:18 01.04.2020
59 Clouds 15 1014 14 0 4.13 65 19:42 01.04.2020
60 Clouds 15 1014 14 0 4.13 65 19:21 01.04.2020
61 Clouds 15 1014 14 0 4.13 65 18:56 01.04.2020
62 Clouds 15 1014 14 0 4.13 65 18:38 01.04.2020
63 Clouds 12 1018 17 0 3.28 49 18:19 01.04.2020
64 Clouds 12 1018 17 0 3.28 49 17:55 01.04.2020
65 Clouds 12 1018 17 0 3.28 49 17:36 01.04.2020
66 Clouds 12 1018 17 0 3.28 49 17:18 01.04.2020
67 Clouds 12 1018 17 0 3.28 49 16:42 01.04.2020
68 Clouds 12 1018 17 0 3.28 49 16:24 01.04.2020
69 Clouds 12 1018 17 0 3.28 49 15:58 01.04.2020
70 Clouds 12 1018 17 0 3.28 49 15:40 01.04.2020
71 Clouds 8 1021 24 0 1.37 341 15:21 01.04.2020
72 Clouds 8 1021 24 0 1.37 341 14:57 01.04.2020
73 Clouds 8 1021 24 0 1.37 341 14:57 01.04.2020
74 Clouds 8 1021 24 0 1.37 341 14:38 01.04.2020
75 Clouds 8 1020 25 0 1.49 350 14:19 01.04.2020
76 Clouds 8 1020 25 0 1.49 350 13:58 01.04.2020
77 Clouds 8 1020 25 0 1.49 350 13:37 01.04.2020
78 Clouds 8 1020 25 0 1.49 350 13:19 01.04.2020
79 Clouds 8 1020 25 0 1.49 350 12:55 01.04.2020
80 Clouds 8 1020 25 0 1.49 350 12:36 01.04.2020
81 Clouds 6 1018 29 0 0.96 7 12:18 01.04.2020
82 Clouds 6 1018 29 0 0.96 7 11:42 01.04.2020
83 Clouds 6 1018 29 0 0.96 7 11:23 01.04.2020
84 Clouds 6 1018 29 0 0.96 7 10:58 01.04.2020
85 Clouds 6 1018 29 0 0.96 7 10:38 01.04.2020
86 Clouds 6 1018 29 0 0.96 7 10:19 01.04.2020
87 Clouds 6 1018 29 0 0.96 7 09:57 01.04.2020
88 Clouds 6 1018 29 0 0.96 7 09:39 01.04.2020
89 Clouds 7 1019 28 0 1.29 38 09:18 01.04.2020
90 Clouds 7 1019 28 0 1.29 38 08:41 01.04.2020
91 Clouds 7 1019 28 0 1.29 38 08:18 01.04.2020
92 Clouds 7 1019 28 0 1.29 38 07:46 01.04.2020
93 Clouds 7 1019 28 0 1.29 38 07:21 01.04.2020
94 Clouds 7 1019 28 0 1.29 38 06:52 01.04.2020
95 Clouds 7 1019 28 0 1.29 38 06:27 01.04.2020
96 Clouds 8 1019 26 0 1.93 39 05:58 01.04.2020
97 Clouds 8 1019 26 0 1.93 39 04:33 01.04.2020
98 Clouds 8 1019 26 0 1.93 39 03:33 01.04.2020
99 Clouds 10 1016 24 0 3.12 44 02:57 01.04.2020
100 Clouds 10 1016 24 0 2.87 46 01:59 01.04.2020
101 Clouds 10 1016 24 0 2.87 46 01:40 01.04.2020
102 Clouds 10 1016 24 0 2.87 46 01:40 01.04.2020
103 Clouds 10 1016 24 0 2.87 46 01:22 01.04.2020
104 Clouds 10 1016 24 0 2.87 46 00:46 01.04.2020
105 Clouds 10 1016 24 0 2.87 46 00:46 01.04.2020
106 Clouds 10 1016 24 0 2.87 46 00:21 01.04.2020
107 Clouds 13 1012 18 0 5.26 45 23:49 31.03.2020
108 Clouds 13 1012 18 0 5.26 45 23:28 31.03.2020
109 Clouds 13 1012 18 0 5.26 45 22:59 31.03.2020
110 Clouds 13 1012 18 0 5.26 45 22:37 31.03.2020
111 Clouds 13 1012 18 0 5.26 45 22:19 31.03.2020
112 Clouds 13 1012 18 0 5.26 45 21:57 31.03.2020
113 Clouds 13 1012 18 0 5.26 45 21:39 31.03.2020
114 -273 0 0 0 0 0 21:20 31.03.2020
115 Clouds 13 1012 18 0 5.26 45 21:20 31.03.2020
116 Clouds 13 1012 18 0 5.26 45 21:20 31.03.2020
117 Clouds 15 1014 16 0 4.79 53 20:56 31.03.2020
118 Clouds 15 1014 16 0 4.79 53 20:37 31.03.2020
119 Clouds 15 1014 16 0 4.79 53 20:37 31.03.2020
120 Clouds 15 1014 16 0 4.79 53 20:18 31.03.2020
121 Clouds 15 1014 16 0 4.79 53 19:42 31.03.2020
122 Clouds 15 1014 16 0 4.79 53 19:24 31.03.2020
123 Clouds 15 1014 16 0 4.79 53 18:59 31.03.2020
124 Clouds 15 1014 16 0 4.79 53 18:41 31.03.2020
125 Clouds 12 1018 18 0 3.64 58 18:19 31.03.2020
126 Clouds 12 1018 18 0 3.64 58 17:55 31.03.2020
127 Clouds 12 1018 18 0 3.64 58 17:37 31.03.2020
128 Clouds 12 1018 18 0 3.64 58 17:37 31.03.2020
129 Clouds 12 1042 66 10000 2.1 60 17:19 31.03.2020
130 Clouds 12 1042 66 10000 2.1 60 16:41 31.03.2020
131 Clouds 12 1042 66 10000 2.1 60 16:20 31.03.2020
132 Clouds 10 1043 81 10000 3.64 58 15:58 31.03.2020
133 Clouds 10 1043 81 10000 3.64 58 15:40 31.03.2020
134 Clouds 10 1043 81 10000 3.64 58 15:22 31.03.2020
135 Clouds 8 1020 27 0 0.94 45 14:58 31.03.2020
136 Clouds 8 1020 27 0 0.94 45 14:40 31.03.2020
137 Clouds 8 1020 27 0 0.94 45 14:21 31.03.2020
138 Clouds 8 1020 27 0 1.05 20 13:54 31.03.2020
139 Clouds 8 1020 27 0 1.05 20 13:36 31.03.2020
140 Clouds 8 1020 27 0 1.05 20 13:18 31.03.2020
141 Clouds 8 1020 27 0 1.05 20 12:42 31.03.2020
142 Clouds 6 1018 31 0 0.93 0 12:20 31.03.2020
143 Clouds 6 1018 31 0 0.93 0 11:55 31.03.2020
144 Clouds 6 1018 31 0 0.93 0 11:36 31.03.2020
145 Clouds 6 1018 31 0 0.93 0 11:18 31.03.2020
146 Clouds 6 1018 31 0 0.93 0 10:55 31.03.2020
147 Clouds 6 1018 31 0 0.93 0 10:37 31.03.2020
148 Clouds 6 1018 31 0 0.93 0 10:18 31.03.2020
149 Clouds 6 1018 31 0 0.93 0 09:43 31.03.2020
150 Clouds 6 1018 31 0 0.89 6 09:24 31.03.2020
151 Rain 7 1018 30 0 1.37 42 08:57 31.03.2020
152 Rain 7 1018 30 0 1.37 42 08:39 31.03.2020
153 Rain 7 1018 30 0 1.37 42 08:19 31.03.2020
154 Rain 7 1018 30 0 1.37 42 07:56 31.03.2020
155 Rain 7 1018 30 0 1.37 42 07:38 31.03.2020
156 Rain 7 1018 30 0 1.37 42 07:19 31.03.2020
157 Rain 7 1018 30 0 1.37 42 06:47 31.03.2020
158 Rain 7 1018 30 0 1.37 42 06:23 31.03.2020
159 Rain 8 1018 29 0 2.45 40 05:39 31.03.2020
160 Rain 8 1018 29 0 2.45 40 03:43 31.03.2020
161 Clouds 10 1016 25 0 3.07 53 02:19 31.03.2020
162 Clouds 10 1016 25 0 3.07 53 01:45 31.03.2020
163 Clouds 10 1016 25 0 3.07 53 00:51 31.03.2020
164 Clouds 10 1016 25 0 3.07 53 00:25 31.03.2020
165 Rain 13 1012 19 0 4.59 48 23:58 30.03.2020
166 Rain 13 1012 19 0 4.59 48 23:38 30.03.2020
167 Rain 13 1012 19 0 4.59 48 23:18 30.03.2020
168 Rain 13 1012 19 0 4.59 48 22:55 30.03.2020
169 Rain 13 1012 19 0 4.59 48 22:36 30.03.2020
170 Rain 13 1012 19 0 4.59 48 22:18 30.03.2020
171 Rain 13 1012 19 0 4.59 48 21:55 30.03.2020
172 Rain 13 1012 19 0 4.59 48 21:36 30.03.2020
173 Rain 14 1014 17 0 3.25 51 21:18 30.03.2020
174 Rain 14 1014 17 0 3.5 50 20:42 30.03.2020
175 Rain 14 1014 17 0 3.5 50 20:24 30.03.2020
176 Rain 14 1014 17 0 3.5 50 20:24 30.03.2020
177 Rain 14 1014 17 0 3.5 50 20:24 30.03.2020
178 Rain 14 1014 17 0 3.5 50 19:59 30.03.2020
179 Rain 14 1014 17 0 3.5 50 19:40 30.03.2020
180 Rain 14 1014 17 0 3.5 50 19:21 30.03.2020
181 Rain 14 1014 17 0 3.5 50 18:56 30.03.2020
182 Rain 14 1014 17 0 3.5 50 18:38 30.03.2020
183 Rain 14 1014 17 0 3.5 50 18:38 30.03.2020
184 Clouds 12 1019 20 0 2.72 56 18:19 30.03.2020
185 Clouds 12 1019 20 0 2.72 56 17:56 30.03.2020
186 Clouds 12 1019 20 0 2.72 56 17:56 30.03.2020
187 Clouds 12 1019 20 0 2.72 56 17:37 30.03.2020
188 Clouds 12 1019 20 0 2.72 56 17:37 30.03.2020
189 Clouds 12 1019 20 0 2.72 56 17:18 30.03.2020
190 Clouds 12 1019 20 0 2.72 56 16:55 30.03.2020
191 Clouds 12 1019 20 0 2.72 56 16:36 30.03.2020
192 Clouds 12 1019 20 0 2.72 56 16:18 30.03.2020
193 Clouds 12 1019 20 0 2.72 56 15:42 30.03.2020
194 Clouds 12 1019 20 0 2.72 56 15:22 30.03.2020
195 Clouds 7 1021 27 0 0.87 66 14:59 30.03.2020
196 Clouds 7 1021 27 0 0.87 66 14:39 30.03.2020
197 Clouds 7 1021 27 0 0.87 66 14:19 30.03.2020
198 Clouds 7 1021 28 0 0.72 63 14:19 30.03.2020
199 Clouds 7 1021 28 0 0.72 63 13:59 30.03.2020
200 Clouds 7 1021 28 0 0.72 63 13:40 30.03.2020
201 Clouds 7 1021 28 0 0.72 63 13:20 30.03.2020
202 Clouds 7 1021 28 0 0.72 63 12:54 30.03.2020
203 Clouds 7 1021 28 0 0.72 63 12:36 30.03.2020
204 Rain 6 1020 31 0 1.1 57 12:18 30.03.2020
205 Rain 6 1020 31 0 1.1 57 12:18 30.03.2020
206 Rain 6 1020 31 0 1.1 57 11:43 30.03.2020
207 Rain 6 1020 31 0 1.1 57 11:24 30.03.2020
208 Rain 6 1020 31 0 1.1 57 10:59 30.03.2020
209 Rain 6 1020 31 0 1.1 57 10:39 30.03.2020
210 Rain 6 1020 31 0 1.1 57 10:21 30.03.2020
211 Rain 6 1020 31 0 1.1 57 09:54 30.03.2020
212 Rain 6 1020 31 0 1.1 57 09:36 30.03.2020
213 Rain 7 1019 31 0 1.87 51 09:18 30.03.2020
214 Rain 7 1019 31 0 1.87 51 08:40 30.03.2020
215 Rain 7 1019 31 0 1.87 51 08:21 30.03.2020
216 Rain 7 1019 31 0 1.87 51 07:48 30.03.2020
217 Rain 7 1019 31 0 1.87 51 07:26 30.03.2020
218 Rain 7 1019 31 0 1.87 51 06:52 30.03.2020
219 Rain 7 1019 31 0 1.87 51 06:30 30.03.2020
220 Rain 8 1020 30 0 2.59 54 05:47 30.03.2020
221 Rain 8 1020 30 0 2.59 54 05:18 30.03.2020
222 Rain 8 1020 30 0 2.59 54 04:22 30.03.2020
223 Rain 8 1020 30 0 2.59 54 03:34 30.03.2020
224 Rain 10 1016 27 0 2.95 58 02:37 30.03.2020
225 Rain 10 1016 27 0 3.08 53 01:26 30.03.2020
226 Rain 10 1016 27 0 3.08 53 00:47 30.03.2020
227 Rain 10 1016 27 0 3.08 53 00:21 30.03.2020
228 Rain 14 1012 19 0 5.15 59 23:41 29.03.2020
229 Rain 14 1012 19 0 5.15 59 23:23 29.03.2020
230 Rain 14 1012 19 0 5.15 59 22:57 29.03.2020
231 Rain 14 1012 19 0 5.15 59 22:37 29.03.2020
232 Rain 14 1012 19 0 5.15 59 22:19 29.03.2020
233 Rain 14 1012 19 0 5.15 59 21:55 29.03.2020
234 Rain 14 1012 19 0 5.15 59 21:36 29.03.2020
235 Rain 14 1012 16 0 3.54 67 21:18 29.03.2020
236 Rain 14 1012 17 0 3.57 69 20:54 29.03.2020
237 Rain 14 1012 17 0 3.57 69 20:36 29.03.2020
238 Rain 14 1012 17 0 3.57 69 20:18 29.03.2020
239 Rain 14 1012 17 0 3.57 69 19:42 29.03.2020
240 Rain 14 1012 17 0 3.57 69 19:24 29.03.2020
241 Rain 14 1012 17 0 3.57 69 18:58 29.03.2020
242 Rain 14 1012 17 0 3.57 69 18:39 29.03.2020
243 Rain 14 1012 17 0 3.57 69 18:20 29.03.2020
244 Rain 14 1012 17 0 3.57 69 18:20 29.03.2020
245 Clouds 12 1017 21 0 2.56 49 17:57 29.03.2020
246 Clouds 12 1017 21 0 2.56 49 17:39 29.03.2020
247 Clouds 12 1017 21 0 2.56 49 17:20 29.03.2020
248 Clouds 12 1017 21 0 2.56 49 16:58 29.03.2020
249 Clouds 12 1017 21 0 2.56 49 16:39 29.03.2020
250 Clouds 12 1017 21 0 2.56 49 16:20 29.03.2020
251 Clouds 12 1017 21 0 2.56 49 15:56 29.03.2020
252 Clouds 12 1017 21 0 2.56 49 15:37 29.03.2020
253 Clouds 8 1018 27 0 0.93 348 15:19 29.03.2020
254 Clouds 8 1018 27 0 0.93 348 14:55 29.03.2020
255 Clouds 8 1018 27 0 0.93 348 14:36 29.03.2020
256 Clouds 8 1019 28 0 1.28 6 14:18 29.03.2020
257 Clouds 8 1019 28 0 1.28 6 13:41 29.03.2020
258 Clouds 8 1019 28 0 1.28 6 13:22 29.03.2020
259 Clouds 8 1019 28 0 1.28 6 12:58 29.03.2020
260 Clouds 8 1019 28 0 1.28 6 12:39 29.03.2020
261 Clouds 7 1017 30 0 1.08 39 12:19 29.03.2020
262 Clouds 7 1017 30 0 1.08 39 11:59 29.03.2020
263 Clouds 7 1017 30 0 1.08 39 11:38 29.03.2020
264 Clouds 7 1017 30 0 1.08 39 11:19 29.03.2020
265 Clouds 7 1017 30 0 1.08 39 10:39 29.03.2020
266 Clouds 7 1017 30 0 1.08 39 10:39 29.03.2020
267 Clouds 7 1017 30 0 1.08 39 10:21 29.03.2020
268 Clouds 7 1017 30 0 1.08 39 09:56 29.03.2020
269 Clouds 7 1017 30 0 1.08 39 09:38 29.03.2020
270 Rain 8 1016 30 0 1.64 50 09:18 29.03.2020
271 Rain 7 1016 30 0 1.52 33 08:45 29.03.2020
272 Rain 7 1016 30 0 1.52 33 08:26 29.03.2020
273 Rain 7 1016 30 0 1.52 33 07:47 29.03.2020
274 Rain 7 1016 30 0 1.52 33 07:23 29.03.2020
275 Rain 7 1016 30 0 1.52 33 06:55 29.03.2020
276 Rain 9 1015 28 0 1.57 37 04:57 29.03.2020
277 Rain 9 1015 28 0 1.57 37 03:41 29.03.2020
278 Rain 9 1015 28 0 1.57 37 03:22 29.03.2020
279 Rain 10 1011 27 0 2.75 53 01:44 29.03.2020
280 Rain 10 1011 27 0 2.75 53 01:23 29.03.2020
281 Rain 10 1011 26 0 2.96 42 00:46 29.03.2020
282 Rain 10 1011 26 0 2.96 42 00:28 29.03.2020
283 Rain 10 1011 26 0 2.96 42 23:41 28.03.2020
284 Rain 10 1011 26 0 2.96 42 23:23 28.03.2020
285 Rain 13 1008 19 0 2.68 52 22:54 28.03.2020
286 Rain 13 1008 19 0 2.68 52 22:36 28.03.2020
287 Rain 13 1008 19 0 2.68 52 22:18 28.03.2020
288 Rain 13 1008 19 0 2.68 52 21:40 28.03.2020
289 Rain 13 1008 19 0 2.68 52 21:40 28.03.2020
290 Rain 13 1008 19 0 2.68 52 21:21 28.03.2020
291 Rain 13 1008 19 0 2.68 52 20:58 28.03.2020
292 Rain 13 1008 19 0 2.68 52 20:39 28.03.2020
293 Rain 13 1007 20 0 2.77 46 20:20 28.03.2020
294 Rain 14 1009 18 0 2.44 40 19:56 28.03.2020
295 Rain 14 1009 18 0 2.44 40 19:36 28.03.2020
296 Rain 14 1009 18 0 2.44 40 19:18 28.03.2020
297 Rain 14 1009 18 0 2.44 40 18:47 28.03.2020
298 Rain 14 1009 18 0 2.44 40 18:22 28.03.2020
299 Rain 14 1009 18 0 2.44 40 17:58 28.03.2020
300 Rain 14 1009 18 0 2.44 40 17:38 28.03.2020
301 Clouds 12 1014 21 0 2.48 36 17:18 28.03.2020
302 Clouds 12 1014 21 0 2.48 36 16:42 28.03.2020
303 Clouds 12 1014 21 0 2.48 36 16:20 28.03.2020
304 Clouds 12 1014 21 0 2.48 36 15:56 28.03.2020
305 Clouds 12 1014 21 0 2.48 36 15:37 28.03.2020
306 Clouds 12 1014 21 0 2.48 36 15:18 28.03.2020
307 Clouds 12 1014 21 0 2.48 36 14:42 28.03.2020
308 Clouds 12 1014 21 0 2.48 36 14:22 28.03.2020
309 Clouds 8 1015 27 0 1.59 21 13:55 28.03.2020
310 Clouds 8 1015 27 0 1.59 21 13:36 28.03.2020
311 Clouds 8 1015 27 0 1.59 21 13:18 28.03.2020
312 Clouds 8 1015 26 0 1.61 28 12:38 28.03.2020
313 Clouds 8 1015 26 0 1.61 28 12:19 28.03.2020
314 Clouds 8 1015 26 0 1.61 28 11:42 28.03.2020
315 Clouds 8 1015 26 0 1.61 28 11:21 28.03.2020
316 Rain 7 1013 28 0 0.9 15 10:44 28.03.2020
317 Rain 7 1013 28 0 0.9 15 10:25 28.03.2020
318 Rain 7 1013 28 0 0.9 15 09:59 28.03.2020
319 Rain 7 1013 28 0 0.9 15 09:40 28.03.2020
320 Rain 7 1013 28 0 0.9 15 09:21 28.03.2020
321 Rain 7 1013 28 0 0.9 15 08:43 28.03.2020
322 Rain 6 1013 29 0 1.14 353 08:24 28.03.2020
323 Rain 8 1013 26 0 1.47 353 07:53 28.03.2020
324 Rain 8 1013 26 0 1.47 353 07:35 28.03.2020
325 Rain 8 1013 26 0 1.47 353 06:53 28.03.2020
326 Rain 8 1013 26 0 1.47 353 06:26 28.03.2020
327 Rain 8 1013 26 0 1.47 353 05:30 28.03.2020
328 Rain 8 1013 26 0 1.47 353 05:30 28.03.2020
329 Rain 9 1013 24 0 1.84 16 04:58 28.03.2020
330 Rain 9 1013 24 0 1.84 16 04:39 28.03.2020
331 Rain 9 1013 24 0 1.84 16 02:52 28.03.2020
332 Rain 10 1010 22 0 1.94 25 01:48 28.03.2020
333 Rain 10 1010 22 0 1.94 25 01:23 28.03.2020
334 Rain 11 1010 22 0 2.01 26 00:51 28.03.2020
335 Rain 11 1010 22 0 2.01 26 00:25 28.03.2020
336 Rain 11 1010 22 0 2.01 26 23:44 27.03.2020
337 Rain 11 1010 22 0 2.01 26 23:26 27.03.2020
338 Rain 14 1005 16 0 0.65 317 22:57 27.03.2020
339 Rain 14 1005 16 0 0.65 317 22:39 27.03.2020
340 Rain 14 1005 16 0 0.65 317 22:39 27.03.2020
341 Rain 14 1005 16 0 0.65 317 22:20 27.03.2020
342 Rain 14 1005 16 0 0.65 317 21:58 27.03.2020
343 Rain 14 1005 16 0 0.65 317 21:40 27.03.2020
344 Clouds 16 1032 55 10000 0.65 317 21:22 27.03.2020
345 Clouds 16 1032 55 10000 0.65 317 20:57 27.03.2020
346 Clouds 16 1032 55 10000 0.68 312 20:39 27.03.2020
347 Clouds 16 1032 55 10000 3.1 313 20:19 27.03.2020
348 Clouds 16 1032 55 10000 2.65 320 20:19 27.03.2020
349 Clouds 15 1033 58 10000 1.5 20 19:55 27.03.2020
350 Clouds 15 1033 58 10000 1.5 20 19:36 27.03.2020
351 Clouds 15 1033 58 10000 1.5 20 19:18 27.03.2020
352 Rain 15 1007 13 0 3.1 313 18:42 27.03.2020
353 Clouds 12 1034 76 10000 2.1 20 18:23 27.03.2020
354 Clouds 12 1034 76 10000 2.1 20 17:54 27.03.2020
355 Clouds 12 1034 76 10000 2.1 20 17:36 27.03.2020
356 Clouds 12 1034 76 10000 2.1 20 17:18 27.03.2020
357 Clouds 11 1034 81 10000 1.5 50 16:43 27.03.2020
358 Clouds 11 1034 81 10000 1.5 50 16:24 27.03.2020
359 Clouds 10 1035 87 10000 2.6 100 15:45 27.03.2020
360 Clouds 10 1035 87 10000 2.6 100 15:26 27.03.2020
361 Clouds 8 1034 93 10000 2.1 150 14:56 27.03.2020
362 Clouds 8 1034 93 10000 2.1 150 14:37 27.03.2020
363 Clouds 8 1034 93 10000 2.1 150 14:18 27.03.2020
364 Clouds 6 1034 93 10000 2.6 220 13:43 27.03.2020
365 Clouds 6 1034 93 10000 2.6 220 13:22 27.03.2020
366 Clouds 7 1015 26 0 1.43 350 12:59 27.03.2020
367 Clouds 7 1015 26 0 1.43 350 12:39 27.03.2020
368 Clouds 7 1015 26 0 1.43 350 12:19 27.03.2020
369 Clouds 7 1015 26 0 1.43 350 11:42 27.03.2020
370 Clouds 7 1015 26 0 1.43 350 11:24 27.03.2020
371 Clouds 7 1013 29 0 1.45 347 10:56 27.03.2020
372 Clouds 7 1013 29 0 1.45 347 10:38 27.03.2020
373 Clouds 7 1013 29 0 1.45 347 10:20 27.03.2020
374 Clouds 7 1013 29 0 1.45 347 09:58 27.03.2020
375 Clouds 7 1013 29 0 1.45 347 09:39 27.03.2020
376 Clouds 7 1013 29 0 1.45 347 09:21 27.03.2020
377 Clouds 7 1013 29 0 1.45 347 08:58 27.03.2020
378 Clouds 7 1013 29 0 1.45 347 08:39 27.03.2020
379 Clouds 7 1013 29 0 1.45 347 08:21 27.03.2020
380 Rain 7 1014 29 0 2.37 20 07:53 27.03.2020
381 Rain 7 1014 29 0 2.37 20 07:28 27.03.2020
382 Rain 7 1014 29 0 2.37 20 06:57 27.03.2020
383 Rain 7 1014 29 0 2.37 20 06:37 27.03.2020
384 Rain 7 1014 29 0 2.37 20 05:38 27.03.2020
385 Rain 8 1015 29 0 3.06 28 02:51 27.03.2020
386 Rain 9 1011 27 0 3.22 49 01:54 27.03.2020
387 Rain 9 1012 27 0 3.67 36 00:56 27.03.2020
388 Rain 9 1012 27 0 3.67 36 00:37 27.03.2020
389 Rain 9 1012 27 0 3.67 36 00:18 27.03.2020
390 Rain 9 1012 27 0 3.67 36 23:36 26.03.2020
391 Rain 11 1008 23 0 4.5 41 23:18 26.03.2020
392 Rain 11 1008 23 0 4.5 41 22:54 26.03.2020
393 Rain 11 1008 23 0 4.5 41 22:36 26.03.2020
394 Rain 11 1008 23 0 4.5 41 22:18 26.03.2020
395 Rain 11 1008 23 0 4.5 41 21:39 26.03.2020
396 Rain 11 1008 23 0 4.5 41 21:21 26.03.2020
397 Rain 11 1008 23 0 4.5 41 20:58 26.03.2020
398 Rain 11 1008 23 0 4.5 41 20:39 26.03.2020
399 Rain 11 1008 23 0 4.5 41 20:20 26.03.2020
400 Rain 13 1010 21 0 4.54 30 19:57 26.03.2020
401 Rain 13 1010 21 0 4.54 30 19:57 26.03.2020
402 Rain 13 1010 21 0 4.54 30 19:39 26.03.2020
403 Rain 13 1010 21 0 4.54 30 19:20 26.03.2020
404 Rain 13 1010 21 0 4.54 30 19:20 26.03.2020
405 Rain 13 1010 21 0 4.54 30 19:20 26.03.2020
406 Rain 13 1010 21 0 4.54 30 18:58 26.03.2020
407 Rain 13 1010 21 0 4.54 30 18:58 26.03.2020
408 Rain 13 1010 21 0 4.54 30 18:39 26.03.2020
409 Rain 13 1010 21 0 4.54 30 18:21 26.03.2020
410 Rain 13 1010 21 0 4.54 30 17:43 26.03.2020
411 Rain 12 1013 22 0 3.86 30 17:19 26.03.2020
412 Rain 12 1013 22 0 3.86 30 16:47 26.03.2020
413 Rain 12 1013 22 0 3.86 30 16:28 26.03.2020
414 Rain 12 1013 22 0 3.86 30 15:59 26.03.2020
415 Rain 12 1013 22 0 3.86 30 15:41 26.03.2020
416 Rain 12 1013 22 0 3.86 30 15:22 26.03.2020
417 Rain 12 1013 22 0 3.86 30 14:58 26.03.2020
418 Rain 12 1013 22 0 3.86 30 14:39 26.03.2020
419 Rain 9 1015 27 0 2.68 10 14:19 26.03.2020
420 Rain 9 1015 27 0 2.68 10 13:44 26.03.2020
421 Rain 9 1015 27 0 2.68 10 13:24 26.03.2020
422 Rain 9 1015 27 0 2.57 16 12:59 26.03.2020
423 Rain 9 1015 27 0 2.57 16 12:38 26.03.2020
424 Rain 9 1015 27 0 2.57 16 12:20 26.03.2020
425 Rain 9 1015 27 0 2.57 16 11:46 26.03.2020
426 Rain 9 1015 27 0 2.57 16 11:22 26.03.2020
427 Rain 8 1013 30 0 1.79 49 10:56 26.03.2020
428 Rain 8 1013 30 0 1.79 49 10:56 26.03.2020
429 Rain 8 1013 30 0 1.79 49 10:56 26.03.2020
430 Rain 8 1013 30 0 1.79 49 10:38 26.03.2020
431 Rain 8 1013 30 0 1.79 49 10:19 26.03.2020
432 Rain 8 1013 30 0 1.79 49 09:44 26.03.2020
433 Rain 8 1013 30 0 1.79 49 09:21 26.03.2020
434 Rain 8 1013 30 0 1.79 49 08:56 26.03.2020
435 Rain 8 1013 30 0 1.79 49 08:37 26.03.2020
436 Rain 8 1013 30 0 2.05 42 08:19 26.03.2020
437 Rain 8 1013 29 0 2.03 41 07:44 26.03.2020
438 Rain 8 1013 29 0 2.03 41 07:22 26.03.2020
439 Rain 8 1013 29 0 2.03 41 06:56 26.03.2020
440 Rain 8 1013 29 0 2.03 41 05:59 26.03.2020
441 Rain 10 1013 27 0 2.06 45 04:49 26.03.2020
442 Rain 10 1013 27 0 2.06 45 03:44 26.03.2020
443 Rain 10 1013 27 0 2.06 45 02:55 26.03.2020
444 Rain 11 1010 25 0 3.33 31 01:50 26.03.2020
445 Rain 11 1010 25 0 2.25 51 00:55 26.03.2020
446 Rain 11 1010 25 0 2.25 51 00:22 26.03.2020
447 Rain 11 1010 25 0 2.25 51 23:41 25.03.2020
448 Rain 11 1010 25 0 2.25 51 23:21 25.03.2020
449 Rain 15 1006 17 0 2.46 76 22:42 25.03.2020
450 Rain 15 1006 17 0 2.46 76 22:21 25.03.2020
451 Rain 15 1006 17 0 2.46 76 21:56 25.03.2020
452 Rain 15 1006 17 0 2.46 76 21:38 25.03.2020
453 Rain 15 1006 17 0 2.46 76 21:20 25.03.2020
454 Rain 15 1006 17 0 2.46 76 20:56 25.03.2020
455 Rain 15 1006 17 0 2.46 76 20:37 25.03.2020
456 Rain 16 1007 15 0 1.93 63 20:18 25.03.2020
457 Rain 16 1007 15 0 1.93 63 19:43 25.03.2020
458 Rain 16 1008 14 0 1.78 56 19:23 25.03.2020
459 Rain 16 1007 15 0 1.93 63 18:58 25.03.2020
460 Rain 16 1007 15 0 1.93 63 18:40 25.03.2020
461 Rain 16 1007 15 0 1.93 63 18:21 25.03.2020
462 Rain 16 1007 15 0 1.93 63 17:55 25.03.2020
463 Rain 16 1007 15 0 1.93 63 17:55 25.03.2020
464 Rain 16 1007 15 0 1.93 63 17:37 25.03.2020
465 Clear 14 1012 17 0 1.77 60 17:19 25.03.2020
466 Clear 14 1012 17 0 1.77 60 16:43 25.03.2020
467 Clear 14 1012 17 0 1.77 60 16:24 25.03.2020
468 Clear 14 1012 17 0 1.77 60 15:59 25.03.2020
469 Clear 14 1012 17 0 1.77 60 15:40 25.03.2020
470 Clear 14 1012 17 0 1.77 60 15:20 25.03.2020
471 Clear 14 1012 17 0 1.77 60 14:42 25.03.2020
472 Clear 14 1013 17 0 1.8 63 14:22 25.03.2020
473 Clear 9 1015 25 0 0.97 330 13:59 25.03.2020
474 Clear 9 1015 25 0 0.97 330 13:41 25.03.2020
475 Clear 9 1015 25 0 0.97 330 13:22 25.03.2020
476 Clear 9 1016 25 0 0.94 332 12:38 25.03.2020
477 Clear 9 1016 25 0 0.94 332 12:19 25.03.2020
478 Clear 9 1016 25 0 0.94 332 11:55 25.03.2020
479 Clear 9 1016 25 0 0.94 332 11:36 25.03.2020
480 Clear 7 1015 30 0 1.33 329 11:18 25.03.2020
481 Clear 7 1015 30 0 1.33 329 10:56 25.03.2020
482 Clear 7 1015 30 0 1.33 329 10:37 25.03.2020
483 Clear 7 1015 30 0 1.33 329 10:18 25.03.2020
484 Clear 7 1015 30 0 1.33 329 09:42 25.03.2020
485 Clear 7 1015 30 0 1.33 329 09:23 25.03.2020
486 Clear 7 1015 30 0 1.33 329 08:56 25.03.2020
487 Clear 7 1015 30 0 1.33 329 08:38 25.03.2020
488 Clear 8 1015 29 0 1.43 353 08:19 25.03.2020
489 Clear 8 1015 29 0 1.4 354 07:41 25.03.2020
490 Clear 8 1015 29 0 1.4 354 07:20 25.03.2020
491 Clear 8 1015 29 0 1.4 354 06:48 25.03.2020
492 Clear 8 1015 29 0 1.4 354 06:28 25.03.2020
493 Clear 8 1015 29 0 1.4 354 05:56 25.03.2020
494 Clear 8 1015 29 0 1.4 354 05:30 25.03.2020
495 Clear 9 1016 28 0 2.09 32 04:39 25.03.2020
496 Clear 9 1016 28 0 2.09 32 03:36 25.03.2020
497 Clear 9 1016 28 0 2.09 32 02:40 25.03.2020
498 Clouds 11 1013 24 0 3.17 48 01:23 25.03.2020
499 Clouds 11 1013 24 0 3.09 47 00:49 25.03.2020
500 Clouds 11 1013 24 0 3.09 47 00:24 25.03.2020
501 Clouds 11 1013 24 0 3.09 47 23:46 24.03.2020
502 Clouds 11 1013 24 0 3.09 47 23:28 24.03.2020
503 Clouds 15 1010 16 0 4.66 67 22:57 24.03.2020
504 Clouds 15 1010 16 0 4.66 67 22:38 24.03.2020
505 Clouds 15 1010 16 0 4.66 67 22:19 24.03.2020
506 Clouds 15 1010 16 0 4.66 67 22:19 24.03.2020
507 Clouds 15 1010 16 0 4.66 67 21:56 24.03.2020
508 Clouds 15 1010 16 0 4.66 67 21:38 24.03.2020
509 Clouds 15 1010 16 0 4.66 67 21:18 24.03.2020
510 Clouds 15 1010 16 0 4.66 67 20:57 24.03.2020
511 Clouds 15 1010 16 0 4.66 67 20:39 24.03.2020
512 Clouds 15 1010 16 0 4.66 67 20:21 24.03.2020
513 Clear 15 1012 14 0 3.21 70 19:45 24.03.2020
514 Clear 15 1012 14 0 3.21 70 19:19 24.03.2020
515 Clear 15 1012 14 0 3.21 70 18:56 24.03.2020
516 Clear 15 1012 14 0 3.21 70 18:56 24.03.2020
517 Clear 15 1012 14 0 3.21 70 18:37 24.03.2020
518 Clear 15 1012 14 0 3.21 70 18:19 24.03.2020
519 Clear 15 1012 14 0 3.21 70 17:43 24.03.2020
520 Clear 15 1012 14 0 3.21 70 17:24 24.03.2020
521 Clear 12 1017 40 0 3.08 84 16:59 24.03.2020
522 Clear 12 1017 40 0 3.08 84 16:41 24.03.2020
523 Clear 12 1017 40 0 3.08 84 16:23 24.03.2020
524 Clear 12 1017 40 0 3.08 84 16:23 24.03.2020
525 Clear 12 1017 40 0 3.08 84 15:59 24.03.2020
526 Clear 12 1017 40 0 3.08 84 15:39 24.03.2020
527 Clear 12 1017 40 0 3.08 84 15:21 24.03.2020
528 Clear 12 1017 40 0 3.08 84 14:43 24.03.2020
529 Clear 12 1017 40 0 3.08 84 14:43 24.03.2020
530 Clear 13 1017 17 0 2.82 81 14:22 24.03.2020
531 Clear 9 1019 25 0 0.56 11 13:55 24.03.2020
532 Clear 9 1019 25 0 0.56 11 13:36 24.03.2020
533 Clouds 9 1019 25 0 0.56 21 13:18 24.03.2020
534 Clouds 9 1019 25 0 0.56 21 12:41 24.03.2020
535 Clouds 9 1019 25 0 0.56 21 12:23 24.03.2020
536 Clouds 9 1019 25 0 0.56 21 11:41 24.03.2020
537 Clear 8 1019 74 0 0.42 325 11:21 24.03.2020
538 Clouds 5 1018 97 0 0.81 300 10:59 24.03.2020
539 Clouds 5 1018 97 0 0.81 300 10:40 24.03.2020
540 Clouds 5 1018 97 0 0.81 300 10:40 24.03.2020
541 Clouds 5 1018 97 0 0.81 300 10:18 24.03.2020
542 Clouds 5 1018 97 0 0.81 300 09:44 24.03.2020
543 Clouds 5 1018 97 0 0.81 300 09:25 24.03.2020
544 Clouds 5 1018 97 0 0.81 300 08:57 24.03.2020
545 Clouds 5 1018 97 0 0.81 300 08:37 24.03.2020
546 Clear 6 1018 92 0 0.8 0 08:18 24.03.2020
547 Clear 6 1018 92 0 0.97 2 07:44 24.03.2020
548 Clear 6 1018 92 0 0.97 2 07:22 24.03.2020
549 Clear 6 1018 92 0 0.97 2 06:40 24.03.2020
550 Clear 6 1018 92 0 0.97 2 06:18 24.03.2020
551 Rain 8 1019 82 0 2.05 50 04:52 24.03.2020
552 Rain 8 1019 82 0 2.05 50 03:32 24.03.2020
553 Rain 8 1019 82 0 2.05 50 02:43 24.03.2020
554 Rain 10 1016 70 0 2.94 59 00:57 24.03.2020
555 Rain 10 1016 70 0 2.94 59 00:28 24.03.2020
556 Rain 10 1016 70 0 2.94 59 00:28 24.03.2020
557 Rain 10 1016 70 0 2.94 59 23:59 23.03.2020
558 Rain 10 1016 70 0 2.94 59 23:38 23.03.2020
559 Clear 13 1014 44 0 4.03 52 23:19 23.03.2020
560 Clear 13 1014 44 0 4.03 52 22:45 23.03.2020
561 Clear 13 1014 44 0 4.03 52 22:23 23.03.2020
562 Clear 13 1014 44 0 4.03 52 21:55 23.03.2020
563 Clear 13 1014 44 0 4.03 52 21:37 23.03.2020
564 Clear 13 1014 44 0 4.03 52 21:37 23.03.2020
565 Clear 13 1014 44 0 4.03 52 21:37 23.03.2020
566 Clear 13 1014 44 0 4.03 52 21:19 23.03.2020
567 Clear 13 1014 44 0 4.03 52 20:56 23.03.2020
568 Clear 13 1014 44 0 4.03 52 20:38 23.03.2020
569 Clouds 13 1015 44 0 2.89 54 20:19 23.03.2020
570 Clouds 13 1015 44 0 2.89 54 19:42 23.03.2020
571 Clouds 13 1015 44 0 2.89 54 19:23 23.03.2020
572 Clouds 13 1015 44 0 2.89 54 18:56 23.03.2020
573 Clouds 13 1015 44 0 2.89 54 18:38 23.03.2020
574 Clouds 13 1015 44 0 2.89 54 18:19 23.03.2020
575 Clouds 13 1015 44 0 2.89 54 17:41 23.03.2020
576 Clouds 13 1015 44 0 2.89 54 17:20 23.03.2020
577 Clouds 9 1020 64 0 2.56 52 16:56 23.03.2020
578 Clouds 9 1020 64 0 2.56 52 16:37 23.03.2020
579 Clouds 9 1020 64 0 2.56 52 16:18 23.03.2020
580 Clouds 9 1020 64 0 2.56 52 15:41 23.03.2020
581 Clouds 9 1020 64 0 2.56 52 15:19 23.03.2020
582 Clouds 9 1020 64 0 2.56 52 14:38 23.03.2020
583 Clouds 5 1022 85 0 1.42 49 14:20 23.03.2020
584 Clouds 5 1022 85 0 1.42 49 14:20 23.03.2020
585 Clouds 5 1022 85 0 1.42 49 13:58 23.03.2020
586 Clouds 5 1022 85 0 1.42 49 13:40 23.03.2020
587 Clouds 5 1022 85 0 1.42 49 13:40 23.03.2020
588 Clouds 5 1022 85 0 1.42 49 13:20 23.03.2020
589 Clouds 5 1022 87 0 0.82 30 12:44 23.03.2020
590 Clouds 5 1022 87 0 0.82 30 12:25 23.03.2020
591 Clouds 5 1022 87 0 0.82 30 11:59 23.03.2020
592 Clouds 5 1022 87 0 0.82 30 11:59 23.03.2020
593 Clouds 5 1022 87 0 0.82 30 11:39 23.03.2020
594 Clouds 4 1020 94 0 1.29 98 11:19 23.03.2020
595 Clouds 4 1020 94 0 1.29 98 10:57 23.03.2020
596 Clouds 4 1020 94 0 1.29 98 10:38 23.03.2020
597 Clouds 4 1020 94 0 1.29 98 10:20 23.03.2020
598 Clouds 4 1020 94 0 1.29 98 09:44 23.03.2020
599 Clouds 4 1020 94 0 1.29 98 09:21 23.03.2020
600 Clouds 4 1020 94 0 1.29 98 08:57 23.03.2020
601 Clouds 4 1020 94 0 1.29 98 08:36 23.03.2020
602 Clouds 6 1019 95 0 2.02 70 08:18 23.03.2020
603 Rain 6 1020 94 0 1.96 79 07:42 23.03.2020
604 Rain 6 1020 94 0 1.96 79 07:23 23.03.2020
605 Rain 6 1020 94 0 1.96 79 06:49 23.03.2020
606 Rain 6 1020 94 0 1.96 79 05:54 23.03.2020
607 Rain 6 1020 94 0 1.96 79 05:29 23.03.2020
608 Clear 7 1020 89 0 2.59 58 03:28 23.03.2020
609 Rain 9 1016 66 0 3.65 56 01:51 23.03.2020
610 Rain 9 1016 66 0 3.65 56 01:33 23.03.2020
611 Rain 9 1016 68 0 3.86 54 00:39 23.03.2020
612 Rain 9 1016 68 0 3.86 54 23:47 22.03.2020
613 Rain 9 1016 68 0 3.86 54 23:26 22.03.2020
614 Rain 12 1012 53 0 4.82 58 22:45 22.03.2020
615 Rain 12 1012 53 0 4.82 58 22:26 22.03.2020
616 Rain 12 1012 53 0 4.82 58 21:56 22.03.2020
617 Rain 12 1012 53 0 4.82 58 21:37 22.03.2020
618 Rain 12 1012 53 0 4.82 58 21:19 22.03.2020
619 Rain 12 1012 53 0 4.82 58 20:54 22.03.2020
620 Rain 12 1012 53 0 4.82 58 20:36 22.03.2020
621 Clear 13 1013 46 0 3.99 55 20:18 22.03.2020
622 Clouds 13 1013 46 0 4.07 55 19:54 22.03.2020
623 Clouds 13 1013 46 0 4.07 55 19:36 22.03.2020
624 Clouds 13 1013 46 0 4.07 55 19:18 22.03.2020
625 Clouds 13 1013 46 0 4.07 55 18:41 22.03.2020
626 Clouds 13 1013 46 0 4.07 55 18:22 22.03.2020
627 Clouds 13 1013 46 0 4.07 55 17:59 22.03.2020
628 Clouds 13 1013 46 0 4.07 55 17:39 22.03.2020
629 Clouds 13 1013 46 0 4.07 55 17:21 22.03.2020
630 Clouds 10 1017 62 0 3.03 69 16:59 22.03.2020
631 Clouds 10 1017 62 0 3.03 69 16:41 22.03.2020
632 Clouds 10 1017 62 0 3.03 69 16:22 22.03.2020
633 Clouds 10 1017 62 0 3.03 69 15:58 22.03.2020
634 Clouds 10 1017 62 0 3.03 69 15:39 22.03.2020
635 Clouds 10 1017 62 0 3.03 69 14:47 22.03.2020
636 Clouds 5 1019 89 0 0.77 59 14:20 22.03.2020
637 Clouds 5 1019 89 0 0.77 59 13:58 22.03.2020
638 Clouds 5 1019 89 0 0.77 59 13:40 22.03.2020
639 Clouds 5 1019 89 0 0.77 59 13:19 22.03.2020
640 Clouds 6 1019 84 0 1.23 53 12:44 22.03.2020
641 Clouds 6 1019 84 0 1.23 53 12:44 22.03.2020
642 Clouds 6 1019 84 0 1.23 53 12:22 22.03.2020
643 Clouds 6 1019 84 0 1.23 53 12:22 22.03.2020
644 Clouds 6 1019 84 0 1.23 53 11:58 22.03.2020
645 Clouds 6 1019 84 0 1.23 53 11:39 22.03.2020
646 Clouds 6 1019 84 0 1.23 53 11:21 22.03.2020
647 Clouds 5 1017 95 0 0.97 59 10:44 22.03.2020
648 Clouds 5 1017 95 0 0.97 59 10:24 22.03.2020
649 Clouds 5 1017 95 0 0.97 59 10:00 22.03.2020
650 Clouds 5 1017 95 0 0.97 59 09:40 22.03.2020
651 Clouds 5 1017 95 0 0.97 59 09:19 22.03.2020
652 Clouds 5 1017 95 0 0.97 59 08:42 22.03.2020
653 Clouds 5 1017 95 0 0.97 59 08:23 22.03.2020
654 Clouds 6 1016 92 0 1.67 43 07:50 22.03.2020
655 Clouds 6 1016 92 0 1.67 43 07:22 22.03.2020
656 Clouds 6 1016 92 0 1.67 43 06:35 22.03.2020
657 Clouds 6 1016 92 0 1.67 43 05:31 22.03.2020
658 Rain 7 1016 82 0 1.8 62 03:25 22.03.2020
659 Rain 8 1013 72 0 2.33 100 01:26 22.03.2020
660 Rain 9 1013 74 0 2.15 64 00:47 22.03.2020
661 Rain 9 1013 74 0 2.15 64 00:25 22.03.2020
662 Rain 9 1013 74 0 2.15 64 23:43 21.03.2020
663 Rain 11 1009 53 0 1.95 100 23:19 21.03.2020
664 Rain 11 1009 53 0 1.95 100 22:55 21.03.2020
665 Rain 11 1009 53 0 1.95 100 22:36 21.03.2020
666 Rain 11 1009 53 0 1.95 100 22:18 21.03.2020
667 Rain 11 1009 53 0 1.95 100 21:41 21.03.2020
668 Rain 11 1009 53 0 1.95 100 21:23 21.03.2020
669 Rain 11 1009 53 0 1.95 100 20:59 21.03.2020
670 Rain 11 1009 53 0 1.95 100 20:41 21.03.2020
671 Clouds 13 1010 36 0 0.41 259 20:19 21.03.2020
672 Clouds 13 1010 36 0 0.41 259 19:44 21.03.2020
673 Clouds 13 1010 36 0 0.41 259 19:25 21.03.2020
674 Clouds 13 1010 36 0 0.41 259 18:57 21.03.2020
675 Clouds 13 1010 36 0 0.41 259 18:38 21.03.2020
676 Clouds 13 1010 36 0 0.41 259 18:20 21.03.2020
677 Clouds 13 1010 36 0 0.41 259 18:20 21.03.2020
678 Clouds 13 1010 36 0 0.41 259 17:55 21.03.2020
679 Clouds 13 1010 36 0 0.41 259 17:37 21.03.2020
680 Clear 11 1014 39 0 0.58 126 17:18 21.03.2020
681 Clear 11 1014 39 0 0.58 126 16:41 21.03.2020
682 Clear 11 1014 39 0 0.58 126 16:20 21.03.2020
683 Clear 11 1014 39 0 0.58 126 16:20 21.03.2020
684 Clear 11 1014 39 0 0.58 126 15:56 21.03.2020
685 Clear 11 1014 39 0 0.58 126 15:37 21.03.2020
686 Clear 11 1014 39 0 0.58 126 15:19 21.03.2020
687 Clear 11 1014 39 0 0.58 126 14:54 21.03.2020
688 Clear 11 1014 39 0 0.58 126 14:36 21.03.2020
689 Clouds 6 1017 63 0 1.36 263 14:18 21.03.2020
690 Clouds 6 1017 63 0 1.36 263 13:57 21.03.2020
691 Clouds 6 1017 63 0 1.36 263 13:38 21.03.2020
692 Clouds 6 1017 57 0 1.72 250 13:19 21.03.2020
693 Clouds 6 1017 57 0 1.72 250 12:40 21.03.2020
694 Clouds 6 1017 57 0 1.72 250 12:20 21.03.2020
695 Clouds 6 1017 57 0 1.72 250 11:59 21.03.2020
696 Clouds 6 1017 57 0 1.72 250 11:39 21.03.2020
697 Clouds 6 1017 57 0 1.72 250 11:39 21.03.2020
698 Clouds 5 1015 80 0 0.46 7 11:20 21.03.2020
699 Clouds 5 1015 80 0 0.46 7 10:58 21.03.2020
700 Clouds 5 1015 80 0 0.46 7 10:39 21.03.2020
701 Clouds 5 1015 80 0 0.46 7 10:21 21.03.2020
702 Clouds 5 1015 80 0 0.46 7 09:58 21.03.2020
703 Clouds 5 1015 80 0 0.46 7 09:39 21.03.2020
704 Clouds 5 1015 80 0 0.46 7 09:20 21.03.2020
705 Clouds 5 1015 80 0 0.46 7 08:55 21.03.2020
706 Clouds 5 1015 80 0 0.46 7 08:37 21.03.2020
707 Rain 5 1016 93 0 2.06 55 08:18 21.03.2020
708 Rain 5 1016 93 0 2.06 55 07:37 21.03.2020
709 Rain 5 1016 93 0 2.06 55 07:19 21.03.2020
710 Rain 5 1016 93 0 2.06 55 06:44 21.03.2020
711 Rain 5 1016 93 0 2.06 55 06:24 21.03.2020
712 Rain 5 1016 93 0 2.06 55 05:40 21.03.2020
713 Rain 6 1017 92 0 2.83 43 03:49 21.03.2020
714 Rain 6 1017 92 0 2.83 43 02:37 21.03.2020
715 Rain 7 1014 89 0 3.14 54 01:45 21.03.2020
716 Rain 7 1014 89 0 3.14 54 01:25 21.03.2020
717 Rain 7 1013 91 0 2.61 41 00:39 21.03.2020
718 Rain 7 1013 91 0 2.61 41 00:21 21.03.2020
719 Rain 7 1013 91 0 2.61 41 23:43 20.03.2020
720 Rain 7 1013 91 0 2.61 41 23:22 20.03.2020
721 Rain 10 1009 71 0 3.37 81 22:44 20.03.2020
722 Rain 10 1009 71 0 3.37 81 22:25 20.03.2020
723 Rain 10 1009 71 0 3.37 81 21:59 20.03.2020
724 Rain 10 1009 71 0 3.37 81 21:40 20.03.2020
725 Rain 10 1009 71 0 3.37 81 21:20 20.03.2020
726 Rain 10 1009 71 0 3.37 81 20:59 20.03.2020
727 Rain 10 1009 71 0 3.37 81 20:41 20.03.2020
728 Rain 11 1011 62 0 1.42 330 20:20 20.03.2020
729 Rain 11 1011 62 0 1.36 323 19:48 20.03.2020
730 Clouds 11 1036 81 10000 5.1 70 19:22 20.03.2020
731 Clouds 11 1036 81 10000 5.1 70 18:58 20.03.2020
732 Clouds 11 1036 81 10000 5.1 70 18:39 20.03.2020
733 Clouds 11 1036 81 10000 5.1 70 18:20 20.03.2020
734 Clouds 10 1037 87 10000 2.6 70 17:56 20.03.2020
735 Clouds 10 1037 87 10000 2.6 70 17:38 20.03.2020
736 Clouds 10 1038 81 10000 3.6 30 17:19 20.03.2020
737 Clouds 10 1038 81 10000 3.6 30 16:42 20.03.2020
738 Clouds 10 1038 81 10000 3.6 30 16:21 20.03.2020
739 Clouds 8 1039 87 10000 2.6 30 15:56 20.03.2020
740 Clouds 8 1039 87 10000 2.6 30 15:37 20.03.2020
741 Clouds 8 1039 87 10000 2.6 30 15:19 20.03.2020
742 Clouds 7 1039 93 10000 2.55 44 14:42 20.03.2020
743 Clouds 7 1039 93 10000 2.55 44 14:21 20.03.2020
744 Clouds 6 1039 93 10000 1.93 39 13:50 20.03.2020
745 Clouds 6 1039 93 10000 1.93 39 13:26 20.03.2020
746 Rain 6 1017 89 0 2.03 42 12:59 20.03.2020
747 Rain 6 1017 89 0 2.03 42 12:38 20.03.2020
748 Rain 6 1017 89 0 2.03 42 12:20 20.03.2020
749 Rain 6 1017 89 0 2.03 42 11:40 20.03.2020
750 Rain 6 1017 89 0 2.03 42 11:21 20.03.2020
751 Rain 6 1015 89 0 0.93 70 10:58 20.03.2020
752 Rain 6 1015 89 0 0.93 70 10:40 20.03.2020
753 Rain 6 1015 89 0 0.93 70 10:18 20.03.2020
754 Rain 6 1015 89 0 0.93 70 09:46 20.03.2020
755 Rain 6 1015 89 0 0.93 70 09:21 20.03.2020
756 Rain 6 1015 89 0 0.93 70 08:58 20.03.2020
757 Rain 6 1015 89 0 0.93 70 08:39 20.03.2020
758 Rain 6 1016 89 0 1.66 55 08:19 20.03.2020
759 Rain 6 1016 89 0 1.66 55 07:45 20.03.2020
760 Rain 6 1016 89 0 1.66 55 07:26 20.03.2020
761 Rain 6 1016 89 0 1.66 55 06:43 20.03.2020
762 Rain 6 1016 89 0 1.66 55 06:22 20.03.2020
763 Rain 7 1016 80 0 1.48 50 04:49 20.03.2020
764 Rain 7 1016 80 0 1.48 50 03:18 20.03.2020
765 Rain 9 1013 73 0 2.91 64 01:51 20.03.2020
766 Rain 8 1013 76 0 3.26 60 00:46 20.03.2020
767 Rain 8 1013 76 0 3.26 60 00:24 20.03.2020
768 Rain 8 1013 76 0 3.26 60 23:42 19.03.2020
769 Rain 8 1013 76 0 3.26 60 23:23 19.03.2020
770 Rain 11 1009 64 0 2.22 57 22:55 19.03.2020
771 Rain 11 1009 64 0 2.22 57 22:37 19.03.2020
772 Rain 11 1009 64 0 2.22 57 22:18 19.03.2020
773 Rain 11 1009 64 0 2.22 57 21:40 19.03.2020
774 Rain 11 1009 64 0 2.22 57 21:20 19.03.2020
775 Rain 11 1009 64 0 2.22 57 20:55 19.03.2020
776 Rain 11 1009 64 0 2.22 57 20:37 19.03.2020
777 Rain 11 1012 63 0 3.54 44 20:19 19.03.2020
778 Rain 10 1011 70 0 2.24 25 19:54 19.03.2020
779 Rain 10 1011 70 0 2.24 25 19:36 19.03.2020
780 Clouds 14 1038 71 10000 1.5 50 19:18 19.03.2020
781 Clouds 14 1038 71 10000 1.5 50 18:41 19.03.2020
782 Clouds 14 1038 71 10000 1.5 50 18:22 19.03.2020
783 Clouds 13 1040 71 10000 2.1 70 17:56 19.03.2020
784 Clouds 13 1040 71 10000 2.1 70 17:38 19.03.2020
785 Clouds 11 1041 81 10000 2.85 43 17:18 19.03.2020
786 Clouds 11 1041 81 10000 2.85 43 16:43 19.03.2020
787 Clouds 11 1041 81 10000 2.85 43 16:22 19.03.2020
788 Clouds 9 1042 87 10000 2.85 43 15:44 19.03.2020
789 Clouds 9 1042 87 10000 2.85 43 15:25 19.03.2020
790 Rain 6 1017 86 0 2.85 43 14:55 19.03.2020
791 Rain 6 1017 86 0 2.85 43 14:37 19.03.2020
792 Clouds 6 1042 100 10000 2.99 341 14:18 19.03.2020
793 Clouds 6 1042 100 10000 2.99 341 13:39 19.03.2020
794 Clouds 6 1042 100 10000 2.84 313 13:19 19.03.2020
795 Rain 3 1019 97 0 2.84 313 12:55 19.03.2020
796 Rain 3 1019 97 0 2.84 313 12:37 19.03.2020
797 Rain 3 1019 97 0 2.84 313 12:18 19.03.2020
798 Rain 3 1019 97 0 2.84 313 11:41 19.03.2020
799 Rain 3 1019 97 0 2.84 313 11:23 19.03.2020
800 Rain 7 1017 87 0 1.45 70 10:56 19.03.2020
801 Rain 7 1017 87 0 1.45 70 10:36 19.03.2020
802 Rain 7 1017 87 0 1.45 70 10:18 19.03.2020
803 Rain 7 1017 87 0 1.45 70 09:42 19.03.2020
804 Rain 7 1017 87 0 1.45 70 09:24 19.03.2020
805 Rain 7 1017 87 0 1.45 70 08:48 19.03.2020
806 Rain 7 1017 88 0 2.06 39 08:23 19.03.2020
807 Rain 7 1017 84 0 0.61 132 07:57 19.03.2020
808 Rain 7 1017 84 0 0.61 132 07:38 19.03.2020
809 Rain 7 1017 84 0 0.61 132 07:18 19.03.2020
810 Rain 7 1017 84 0 0.61 132 06:23 19.03.2020
811 Rain 7 1017 84 0 0.61 132 05:25 19.03.2020
812 Clouds 7 1017 82 0 1.65 64 04:47 19.03.2020
813 Clouds 7 1017 82 0 1.65 64 03:55 19.03.2020
814 Rain 7 1014 81 0 1.25 102 01:46 19.03.2020
815 Rain 7 1014 82 0 1.76 96 00:53 19.03.2020
816 Rain 7 1014 82 0 1.76 96 00:19 19.03.2020
817 Rain 7 1014 82 0 1.76 96 23:43 18.03.2020
818 Rain 7 1014 82 0 1.76 96 23:23 18.03.2020
819 Rain 10 1009 74 0 3.2 336 22:43 18.03.2020
820 Rain 10 1009 74 0 3.2 336 22:23 18.03.2020
821 Rain 10 1009 74 0 3.2 336 21:57 18.03.2020
822 Rain 10 1009 74 0 3.2 336 21:39 18.03.2020
823 Rain 10 1009 74 0 3.2 336 21:20 18.03.2020
824 Rain 10 1009 74 0 3.2 336 20:55 18.03.2020
825 Rain 10 1009 74 0 3.2 336 20:37 18.03.2020
826 Rain 13 1011 52 0 3.03 360 20:19 18.03.2020
827 Rain 13 1011 52 0 3.03 360 19:41 18.03.2020
828 Clouds 16 1038 55 10000 2.6 50 19:21 18.03.2020
829 Clouds 16 1038 55 10000 2.6 50 19:21 18.03.2020
830 Clouds 16 1038 55 10000 2.6 50 18:58 18.03.2020
831 Clouds 16 1038 55 10000 2.6 50 18:58 18.03.2020
832 Clouds 16 1038 55 10000 2.6 50 18:39 18.03.2020
833 Clouds 14 1039 67 10000 3.03 360 18:19 18.03.2020
834 Clouds 14 1039 67 10000 3.03 360 18:19 18.03.2020
835 Clouds 14 1039 67 10000 3.03 360 17:56 18.03.2020
836 Clouds 14 1039 67 10000 3.03 360 17:38 18.03.2020
837 Clouds 13 1018 66 10000 2.91 36 17:19 18.03.2020
838 Clouds 13 1018 66 10000 2.91 36 16:43 18.03.2020
839 Clouds 12 1041 71 10000 2.91 36 16:21 18.03.2020
840 Clouds 12 1041 71 10000 2.91 36 15:58 18.03.2020
841 Clouds 12 1041 71 10000 2.91 36 15:38 18.03.2020
842 Clouds 12 1041 71 10000 2.91 36 15:20 18.03.2020
843 Clouds 10 1040 81 10000 2.91 36 14:43 18.03.2020
844 Clouds 10 1040 81 10000 2.91 36 14:21 18.03.2020
845 Clouds 7 1040 87 10000 0.94 296 13:42 18.03.2020
846 Clouds 7 1040 87 10000 0.58 263 13:19 18.03.2020
847 Clouds 7 1040 87 10000 0.58 263 13:19 18.03.2020
848 Rain 8 1018 69 0 0.58 263 12:55 18.03.2020
849 Rain 8 1018 69 0 0.58 263 12:37 18.03.2020
850 Rain 8 1018 69 0 0.58 263 12:19 18.03.2020
851 Rain 8 1018 69 0 0.58 263 11:38 18.03.2020
852 Rain 7 1016 82 0 1.51 329 11:19 18.03.2020
853 Rain 7 1016 82 0 1.51 329 10:57 18.03.2020
854 Rain 7 1016 82 0 1.51 329 10:37 18.03.2020
855 Rain 7 1016 82 0 1.51 329 10:19 18.03.2020
856 Rain 7 1016 82 0 1.51 329 09:43 18.03.2020
857 Rain 7 1016 82 0 1.51 329 09:24 18.03.2020
858 Rain 7 1016 82 0 1.51 329 08:56 18.03.2020
859 Rain 7 1016 82 0 1.51 329 08:38 18.03.2020
860 Rain 8 1015 78 0 1.32 286 08:20 18.03.2020
861 Rain 8 1016 73 0 0.98 309 07:44 18.03.2020
862 Rain 8 1016 73 0 0.98 309 07:25 18.03.2020
863 Rain 8 1016 73 0 0.98 309 06:44 18.03.2020
864 Rain 8 1016 73 0 0.98 309 06:18 18.03.2020
865 Rain 8 1016 73 0 0.98 309 05:34 18.03.2020
866 Rain 8 1015 79 0 1.15 22 04:24 18.03.2020
867 Rain 8 1015 79 0 1.15 22 02:43 18.03.2020
868 Rain 6 1013 86 0 1.18 319 01:48 18.03.2020
869 Rain 7 1014 89 0 2.72 49 01:26 18.03.2020
870 Rain 6 1013 85 0 0.94 359 00:24 18.03.2020
871 Rain 7 1014 89 0 2.72 49 23:47 17.03.2020
872 Rain 6 1013 85 0 0.94 359 23:27 17.03.2020
873 Rain 9 1008 79 0 1.97 64 22:57 17.03.2020
874 Rain 9 1008 74 0 2.45 328 22:37 17.03.2020
875 Rain 9 1008 79 0 1.97 64 22:19 17.03.2020
876 Rain 9 1008 74 0 2.45 328 21:39 17.03.2020
877 Rain 9 1008 74 0 2.45 328 21:21 17.03.2020
878 Rain 9 1008 74 0 2.45 328 21:21 17.03.2020
879 Rain 9 1008 74 0 2.45 328 20:40 17.03.2020
880 Rain 9 1008 79 0 1.97 64 20:21 17.03.2020
881 Rain 13 1010 53 0 1.94 13 19:58 17.03.2020
882 Rain 13 1010 53 0 1.94 13 19:39 17.03.2020
883 Clouds 15 1036 58 10000 1.5 60 19:18 17.03.2020
884 Clouds 15 1036 58 10000 1.5 60 18:56 17.03.2020
885 Clouds 15 1036 58 10000 1.5 60 18:37 17.03.2020
886 Clouds 15 1036 58 10000 1.5 60 18:19 17.03.2020
887 Clouds 14 1038 62 10000 1.94 13 17:40 17.03.2020
888 Clouds 14 1038 62 10000 1.94 13 17:21 17.03.2020
889 Clouds 13 1038 66 10000 2.14 11 16:55 17.03.2020
890 Clouds 13 1038 66 10000 2.14 11 16:37 17.03.2020
891 Clouds 13 1038 66 10000 2.14 11 16:18 17.03.2020
892 Clouds 12 1039 71 10000 2.14 11 15:43 17.03.2020
893 Clouds 12 1039 71 10000 2.14 11 15:20 17.03.2020
894 Clouds 10 1038 76 10000 2.14 11 14:42 17.03.2020
895 Clouds 10 1038 76 10000 2.14 11 14:21 17.03.2020
896 Clouds 7 1037 87 10000 1.04 324 13:44 17.03.2020
897 Clouds 7 1037 87 10000 1.04 341 13:26 17.03.2020
898 Clouds 6 1037 93 10000 0.92 274 12:58 17.03.2020
899 Clouds 6 1037 93 10000 0.92 274 12:40 17.03.2020
900 Clouds 6 1037 93 10000 0.92 274 12:21 17.03.2020
901 Clouds 5 1037 100 10000 0.92 274 11:46 17.03.2020
902 Clouds 5 1037 100 10000 1.04 341 11:28 17.03.2020
903 Rain 6 1016 88 0 1.28 359 10:58 17.03.2020
904 Rain 6 1016 88 0 1.28 359 10:58 17.03.2020
905 Rain 6 1016 88 0 1.28 359 10:38 17.03.2020
906 Rain 6 1016 88 0 1.28 359 10:20 17.03.2020
907 Rain 7 1015 85 0 1.42 359 09:57 17.03.2020
908 Rain 7 1015 85 0 1.42 359 09:39 17.03.2020
909 Rain 7 1015 85 0 1.42 359 09:18 17.03.2020
910 Rain 7 1015 85 0 1.42 359 08:43 17.03.2020
911 Rain 6 1016 88 0 1.28 359 08:22 17.03.2020
912 Rain 7 1016 84 0 1.54 39 07:50 17.03.2020
913 Rain 7 1016 84 0 1.54 39 07:26 17.03.2020
914 Rain 7 1016 84 0 1.54 39 06:58 17.03.2020
915 Rain 7 1016 84 0 1.54 39 06:33 17.03.2020
916 Rain 7 1016 84 0 1.54 39 05:49 17.03.2020
917 Rain 8 1017 71 0 1.52 240 03:43 17.03.2020
918 Rain 8 1017 71 0 1.52 240 02:46 17.03.2020
919 Rain 8 1014 82 0 2.63 38 01:43 17.03.2020
920 Rain 8 1014 81 0 1.03 225 01:24 17.03.2020
921 Rain 8 1014 81 0 1.03 225 00:31 17.03.2020
922 Rain 8 1014 81 0 1.03 225 23:45 16.03.2020
923 Rain 8 1014 81 0 1.03 225 23:27 16.03.2020
924 Rain 11 1009 68 0 3.29 48 22:41 16.03.2020
925 Rain 11 1009 68 0 3.29 48 22:41 16.03.2020
926 Rain 11 1009 68 0 3.29 48 22:23 16.03.2020
927 Rain 11 1009 68 0 3.29 48 21:57 16.03.2020
928 Rain 11 1009 68 0 3.29 48 21:39 16.03.2020
929 Rain 11 1009 68 0 3.29 48 21:21 16.03.2020
930 Rain 11 1009 68 0 3.29 48 20:55 16.03.2020
931 Rain 11 1009 68 0 3.29 48 20:37 16.03.2020
932 Rain 12 1011 59 0 3.95 42 20:18 16.03.2020
933 Rain 12 1011 61 0 3.8 42 19:40 16.03.2020
934 Rain 9 1040 100 8000 2.1 60 19:20 16.03.2020
935 Rain 9 1040 100 8000 2.1 60 18:43 16.03.2020
936 Rain 9 1040 100 8000 2.1 60 18:21 16.03.2020
937 Clouds 10 1040 87 10000 3.8 42 17:55 16.03.2020
938 Clouds 10 1040 87 10000 3.8 42 17:37 16.03.2020
939 Clouds 10 1040 87 10000 3.25 29 17:18 16.03.2020
940 Clouds 10 1041 87 10000 3.25 29 16:42 16.03.2020
941 Clouds 10 1041 87 10000 3.25 29 16:24 16.03.2020
942 Clouds 11 1041 81 10000 3.25 29 15:44 16.03.2020
943 Clouds 11 1041 81 10000 3.25 29 15:26 16.03.2020
944 Clouds 9 1041 87 10000 3.25 29 14:49 16.03.2020
945 Clouds 9 1041 87 10000 3.25 29 14:27 16.03.2020
946 Clouds 8 1041 87 10000 1.93 29 13:58 16.03.2020
947 Clouds 8 1041 87 10000 1.93 29 13:40 16.03.2020
948 Clouds 8 1041 87 10000 1.69 5 13:21 16.03.2020
949 Clouds 7 1040 93 10000 1.69 5 12:44 16.03.2020
950 Clouds 7 1040 93 10000 1.69 5 12:23 16.03.2020
951 Clouds 7 1040 93 10000 1.5 60 11:47 16.03.2020
952 Clouds 7 1040 93 10000 1.5 60 11:28 16.03.2020
953 Rain 6 1018 89 0 1.67 23 10:56 16.03.2020
954 Rain 6 1018 89 0 1.67 23 10:37 16.03.2020
955 Rain 6 1018 89 0 1.67 23 10:18 16.03.2020
956 Rain 6 1018 89 0 1.67 23 09:42 16.03.2020
957 Rain 6 1018 89 0 1.67 23 09:21 16.03.2020
958 Rain 6 1018 89 0 1.67 23 08:52 16.03.2020
959 Rain 6 1018 89 0 1.67 23 08:25 16.03.2020
960 Rain 7 1018 83 0 2.48 20 07:49 16.03.2020
961 Rain 7 1018 83 0 2.48 20 07:25 16.03.2020
962 Rain 7 1018 83 0 2.48 20 06:54 16.03.2020
963 Rain 7 1018 83 0 2.48 20 06:25 16.03.2020
964 Rain 7 1018 77 0 1.31 285 04:55 16.03.2020
965 Rain 7 1018 77 0 1.31 285 02:44 16.03.2020
966 Rain 8 1016 80 0 2.87 298 01:20 16.03.2020
967 Rain 8 1016 80 0 2.87 298 00:39 16.03.2020
968 Rain 8 1016 80 0 2.87 298 00:39 16.03.2020
969 Rain 8 1016 80 0 2.87 298 23:47 15.03.2020
970 Rain 10 1012 74 0 4.25 20 23:20 15.03.2020
971 Rain 10 1012 74 0 4.25 20 22:43 15.03.2020
972 Rain 10 1012 74 0 4.25 20 22:23 15.03.2020
973 Rain 10 1012 74 0 4.25 20 21:59 15.03.2020
974 Rain 10 1012 74 0 4.25 20 21:38 15.03.2020
975 Rain 10 1012 74 0 4.25 20 21:19 15.03.2020
976 Rain 10 1012 74 0 4.25 20 20:43 15.03.2020
977 Rain 9 1012 77 0 4.13 349 20:22 15.03.2020
978 Rain 12 1013 58 0 3.16 45 19:58 15.03.2020
979 Rain 12 1013 58 0 3.16 45 19:40 15.03.2020
980 Rain 12 1013 58 0 3.16 45 19:21 15.03.2020
981 Rain 12 1013 58 0 3.16 45 18:56 15.03.2020
982 Rain 12 1013 58 0 3.16 45 18:37 15.03.2020
983 Rain 12 1013 58 0 3.16 45 18:37 15.03.2020
984 Rain 12 1013 58 0 3.16 45 18:19 15.03.2020
985 Rain 12 1013 58 0 3.16 45 17:41 15.03.2020
986 Rain 12 1013 58 0 3.16 45 17:21 15.03.2020
987 Rain 11 1018 62 0 3.32 39 16:59 15.03.2020
988 Rain 11 1018 62 0 3.32 39 16:40 15.03.2020
989 Clouds 12 1042 76 10000 2.6 50 16:21 15.03.2020
990 Clouds 12 1042 76 10000 2.6 50 15:54 15.03.2020
991 Clouds 12 1042 76 10000 2.6 50 15:36 15.03.2020
992 Clouds 12 1042 76 10000 2.6 50 15:18 15.03.2020
993 Rain 11 1018 62 0 3.32 39 14:39 15.03.2020
994 Clouds 7 1042 87 10000 3.32 39 14:21 15.03.2020
995 Clouds 7 1042 87 10000 2.01 33 13:56 15.03.2020
996 Clouds 7 1042 87 10000 2.01 33 13:37 15.03.2020
997 Clouds 7 1042 87 10000 2.16 32 13:18 15.03.2020
998 Clouds 6 1042 93 10000 2.1 60 12:40 15.03.2020
999 Clouds 6 1042 93 10000 2.1 60 12:22 15.03.2020
1000 Clouds 6 1041 93 10000 2.16 32 11:44 15.03.2020
1001 Clouds 6 1041 93 10000 2.16 32 11:25 15.03.2020
1002 Rain 7 1018 81 0 1.84 82 10:59 15.03.2020
1003 Rain 7 1018 81 0 1.84 82 10:40 15.03.2020
1004 Rain 7 1018 81 0 1.84 82 10:22 15.03.2020
1005 Rain 7 1018 81 0 1.84 82 09:59 15.03.2020
1006 Rain 7 1018 81 0 1.84 82 09:38 15.03.2020
1007 Rain 7 1018 81 0 1.84 82 09:20 15.03.2020
1008 Rain 7 1018 81 0 1.84 82 08:41 15.03.2020
1009 Rain 7 1019 80 0 1.18 86 08:19 15.03.2020
1010 Rain 7 1019 80 0 1.18 86 07:49 15.03.2020
1011 Rain 7 1019 80 0 1.18 86 07:23 15.03.2020
1012 Rain 7 1019 80 0 1.18 86 06:44 15.03.2020
1013 Rain 7 1019 80 0 1.18 86 05:49 15.03.2020
1014 Rain 8 1019 78 0 2.22 67 04:58 15.03.2020
1015 Rain 8 1019 78 0 2.22 67 04:40 15.03.2020
1016 Rain 8 1019 78 0 2.22 67 04:20 15.03.2020
1017 Rain 8 1019 78 0 2.22 67 03:24 15.03.2020
1018 Rain 8 1019 78 0 2.22 67 02:36 15.03.2020
1019 Rain 10 1016 72 0 3.38 48 01:19 15.03.2020
1020 Rain 10 1016 72 0 2.97 41 00:42 15.03.2020
1021 Rain 10 1016 72 0 2.97 41 00:19 15.03.2020
1022 Rain 10 1016 72 0 2.97 41 23:41 14.03.2020
1023 Rain 12 1011 60 0 5.67 50 23:20 14.03.2020
1024 Rain 12 1011 60 0 5.67 50 22:57 14.03.2020
1025 Rain 12 1011 60 0 5.67 50 22:38 14.03.2020
1026 Rain 12 1011 60 0 5.67 50 22:20 14.03.2020
1027 Rain 12 1011 60 0 5.67 50 21:56 14.03.2020
1028 Rain 12 1011 60 0 5.67 50 21:36 14.03.2020
1029 Rain 12 1011 60 0 5.67 50 21:18 14.03.2020
1030 Rain 12 1011 60 0 5.67 50 21:18 14.03.2020
1031 Rain 12 1011 60 0 5.67 50 20:58 14.03.2020
1032 Rain 12 1011 60 0 5.67 50 20:39 14.03.2020
1033 Clouds 14 1013 43 0 3.18 56 20:18 14.03.2020
1034 Clouds 14 1013 43 0 4.18 46 19:42 14.03.2020
1035 Clouds 14 1013 43 0 4.18 46 19:24 14.03.2020
1036 Clouds 14 1013 43 0 4.18 46 18:41 14.03.2020
1037 Clouds 14 1013 43 0 4.18 46 18:22 14.03.2020
1038 Clouds 14 1013 43 0 4.18 46 17:55 14.03.2020
1039 Clouds 14 1013 43 0 4.18 46 17:37 14.03.2020
1040 Clouds 11 1018 57 0 3.29 48 17:18 14.03.2020
1041 Clouds 11 1018 57 0 3.29 48 16:40 14.03.2020
1042 Clouds 12 1043 71 10000 3.29 48 16:21 14.03.2020
1043 Clouds 12 1043 71 10000 3.29 48 15:52 14.03.2020
1044 Clouds 12 1043 71 10000 3.29 48 15:25 14.03.2020
1045 Clouds 10 1043 81 10000 3.29 48 14:46 14.03.2020
1046 Clouds 10 1043 81 10000 3.29 48 14:23 14.03.2020
1047 Clouds 8 1043 87 10000 0.8 325 13:58 14.03.2020
1048 Clouds 8 1043 87 10000 0.8 325 13:39 14.03.2020
1049 Clouds 8 1043 87 10000 0.8 325 13:21 14.03.2020
1050 Clouds 5 1043 93 10000 1.18 4 12:46 14.03.2020
1051 Clouds 5 1043 93 10000 1.18 4 12:27 14.03.2020
1052 Clouds 5 1043 93 10000 1.18 4 11:56 14.03.2020
1053 Clouds 5 1043 93 10000 1.18 4 11:38 14.03.2020
1054 Clouds 6 1019 92 0 1.01 49 11:19 14.03.2020
1055 Clouds 6 1019 92 0 1.01 49 10:44 14.03.2020
1056 Clouds 6 1019 92 0 1.01 49 10:25 14.03.2020
1057 Clouds 6 1019 92 0 1.01 49 09:57 14.03.2020
1058 Clouds 6 1019 92 0 1.01 49 09:39 14.03.2020
1059 Clouds 6 1019 92 0 1.01 49 09:19 14.03.2020
1060 Clouds 6 1019 92 0 1.01 49 08:42 14.03.2020
1061 Clouds 5 1019 94 0 1.11 36 08:21 14.03.2020
1062 Clouds 6 1019 89 0 1.89 39 07:39 14.03.2020
1063 Clouds 6 1019 89 0 1.89 39 07:20 14.03.2020
1064 Clouds 6 1019 89 0 1.89 39 06:41 14.03.2020
1065 Clouds 6 1019 89 0 1.89 39 05:47 14.03.2020
1066 Clouds 6 1019 89 0 1.89 39 05:47 14.03.2020
1067 Clouds 7 1019 81 0 3.03 57 04:42 14.03.2020
1068 Clouds 7 1019 81 0 3.03 57 03:24 14.03.2020
1069 Clouds 7 1019 81 0 3.03 57 02:25 14.03.2020
1070 Rain 9 1015 75 0 4.4 52 00:57 14.03.2020
1071 Rain 9 1015 75 0 4.4 52 23:56 13.03.2020
1072 Rain 9 1015 75 0 4.4 52 23:31 13.03.2020
1073 Clouds 13 1011 49 0 5.55 55 22:52 13.03.2020
1074 Clouds 13 1011 49 0 5.55 55 22:27 13.03.2020
1075 Clouds 13 1011 49 0 5.55 55 21:54 13.03.2020
1076 Clouds 13 1011 49 0 5.55 55 21:36 13.03.2020
1077 Clouds 13 1011 49 0 5.55 55 21:18 13.03.2020
1078 Clouds 13 1011 49 0 5.55 55 20:41 13.03.2020
1079 Clouds 13 1011 52 0 5.88 50 20:22 13.03.2020
1080 Clouds 13 1014 43 0 3.33 45 19:49 13.03.2020
1081 Clouds 13 1014 43 0 3.33 45 19:31 13.03.2020
1082 Clouds 15 1041 51 10000 3.6 60 18:57 13.03.2020
1083 Clouds 15 1041 51 10000 3.6 60 18:39 13.03.2020
1084 Clouds 15 1041 51 10000 3.6 60 18:21 13.03.2020
1085 Clouds 14 1042 54 10000 1.5 60 17:42 13.03.2020
1086 Clouds 14 1042 54 10000 1.5 60 17:21 13.03.2020
1087 Clouds 14 1042 54 10000 1.5 60 17:21 13.03.2020
1088 Clouds 13 1043 62 10000 2.6 60 16:56 13.03.2020
1089 Clouds 13 1043 62 10000 2.6 60 16:37 13.03.2020
1090 Clouds 13 1043 62 10000 2.6 60 16:19 13.03.2020
1091 Clouds 11 1043 76 10000 2.89 41 15:41 13.03.2020
1092 Clouds 11 1043 76 10000 2.89 41 15:21 13.03.2020
1093 Clouds 9 1043 81 10000 2.89 41 14:44 13.03.2020
1094 Clouds 9 1043 81 10000 2.89 41 14:23 13.03.2020
1095 Clouds 8 1042 81 10000 0.14 310 13:59 13.03.2020
1096 Clouds 8 1042 81 10000 0.14 310 13:40 13.03.2020
1097 Clouds 8 1042 81 10000 0.6 55 13:21 13.03.2020
1098 Clouds 6 1042 87 10000 0.6 55 12:57 13.03.2020
1099 Clouds 6 1042 87 10000 0.6 55 12:38 13.03.2020
1100 Clouds 6 1042 87 10000 0.6 55 12:19 13.03.2020
1101 Clouds 6 1042 87 10000 0.6 55 11:46 13.03.2020
1102 Clouds 6 1042 87 10000 0.6 55 11:26 13.03.2020
1103 Clouds 5 1019 94 0 0.94 38 10:59 13.03.2020
1104 Clouds 5 1019 94 0 0.94 38 10:41 13.03.2020
1105 Clouds 5 1019 94 0 0.94 38 10:23 13.03.2020
1106 Clouds 5 1019 94 0 0.94 38 09:45 13.03.2020
1107 Clouds 5 1019 94 0 0.94 38 09:26 13.03.2020
1108 Clouds 5 1019 94 0 0.94 38 08:56 13.03.2020
1109 Clouds 5 1019 94 0 0.94 38 08:37 13.03.2020
1110 Clouds 5 1019 91 0 2.12 38 08:18 13.03.2020
1111 Clouds 5 1019 90 0 2.16 37 07:43 13.03.2020
1112 Clouds 5 1019 90 0 2.16 37 07:22 13.03.2020
1113 Clouds 5 1019 90 0 2.16 37 06:46 13.03.2020
1114 Clouds 5 1019 90 0 2.16 37 06:20 13.03.2020
1115 Clouds 5 1019 90 0 2.16 37 05:43 13.03.2020
1116 Clouds 7 1018 79 0 2.41 49 04:39 13.03.2020
1117 -273 0 0 0 0 0 03:51 13.03.2020
1118 Clouds 7 1018 79 0 2.41 49 02:29 13.03.2020
1119 Clouds 8 1015 66 0 4.12 55 01:20 13.03.2020
1120 Clouds 8 1015 66 0 4.12 55 00:59 13.03.2020
1121 Clouds 8 1015 66 0 4.12 55 00:39 13.03.2020
1122 Clouds 8 1015 66 0 4.12 55 00:18 13.03.2020
1123 Clouds 8 1015 66 0 4.12 55 23:38 12.03.2020
1124 Clouds 13 1009 39 0 5.79 44 23:19 12.03.2020
1125 Clouds 13 1009 39 0 5.79 44 22:44 12.03.2020
1126 Clouds 13 1009 39 0 5.79 44 22:25 12.03.2020
1127 Clouds 13 1009 39 0 5.79 44 21:55 12.03.2020
1128 Clouds 13 1009 39 0 5.79 44 21:37 12.03.2020
1129 Clouds 13 1009 39 0 5.79 44 21:18 12.03.2020
1130 Clouds 13 1009 39 0 5.79 44 20:42 12.03.2020
1131 Clouds 13 1012 30 0 4.34 46 20:20 12.03.2020
1132 Clouds 13 1012 30 0 4.34 46 19:42 12.03.2020
1133 Clouds 15 1039 51 10000 6.2 60 19:21 12.03.2020
1134 Clouds 15 1039 51 10000 6.2 60 18:59 12.03.2020
1135 Clouds 15 1039 51 10000 6.2 60 18:41 12.03.2020
1136 Clouds 15 1039 51 10000 6.2 60 18:22 12.03.2020
1137 Clouds 14 1040 54 10000 5.1 50 17:41 12.03.2020
1138 Clouds 14 1040 54 10000 5.1 50 17:22 12.03.2020
1139 Clouds 12 1040 66 10000 4.1 60 16:59 12.03.2020
1140 Clouds 12 1040 66 10000 4.1 60 16:41 12.03.2020
1141 Clouds 12 1040 66 10000 4.1 60 16:22 12.03.2020
1142 Clouds 10 1040 76 10000 3.25 49 15:49 12.03.2020
1143 Clouds 10 1040 76 10000 3.25 49 15:28 12.03.2020
1144 Clouds 10 1040 76 10000 3.25 49 15:28 12.03.2020
1145 Clouds 9 1040 81 10000 3.25 49 14:56 12.03.2020
1146 Clouds 9 1040 81 10000 3.25 49 14:37 12.03.2020
1147 Clouds 9 1040 81 10000 1 53 14:18 12.03.2020
1148 Clouds 7 1040 87 10000 1 53 13:40 12.03.2020
1149 Clouds 7 1040 87 10000 1.39 59 13:21 12.03.2020
1150 Clouds 6 1038 87 10000 1.39 59 12:55 12.03.2020
1151 Clouds 6 1038 87 10000 1.39 59 12:37 12.03.2020
1152 Clouds 6 1038 87 10000 1.39 59 12:37 12.03.2020
1153 Clouds 5 1038 93 10000 1.39 59 12:18 12.03.2020
1154 Clouds 5 1038 93 10000 1.39 59 12:18 12.03.2020
1155 Clouds 5 1038 93 10000 1.39 59 11:55 12.03.2020
1156 Clouds 5 1038 93 10000 1.39 59 11:36 12.03.2020
1157 Rain 5 1016 94 0 0.86 53 11:18 12.03.2020
1158 Rain 5 1016 94 0 0.86 53 10:43 12.03.2020
1159 Rain 5 1016 94 0 0.86 53 10:23 12.03.2020
1160 Rain 5 1016 94 0 0.86 53 09:55 12.03.2020
1161 Rain 5 1016 94 0 0.86 53 09:37 12.03.2020
1162 Rain 5 1016 94 0 0.86 53 09:19 12.03.2020
1163 Rain 5 1016 94 0 0.86 53 08:38 12.03.2020
1164 Rain 6 1015 88 0 1.51 23 08:18 12.03.2020
1165 Rain 6 1015 87 0 1.4 48 07:47 12.03.2020
1166 Rain 6 1015 87 0 1.4 48 07:22 12.03.2020
1167 Rain 6 1015 87 0 1.4 48 06:20 12.03.2020
1168 Rain 6 1015 87 0 1.4 48 05:34 12.03.2020
1169 Rain 7 1015 85 0 2.1 44 03:34 12.03.2020
1170 Rain 9 1012 69 0 2.67 27 01:58 12.03.2020
1171 Rain 9 1012 69 0 2.67 27 01:23 12.03.2020
1172 Rain 9 1012 69 0 3.3 40 00:42 12.03.2020
1173 Rain 9 1012 69 0 3.3 40 23:58 11.03.2020
1174 Rain 9 1012 69 0 3.3 40 23:29 11.03.2020
1175 Clouds 12 1009 48 0 3.95 71 22:59 11.03.2020
1176 Clouds 12 1009 48 0 3.95 71 22:40 11.03.2020
1177 Clouds 12 1009 48 0 3.95 71 22:21 11.03.2020
1178 Clouds 12 1009 48 0 3.95 71 21:58 11.03.2020
1179 Clouds 12 1009 48 0 3.95 71 21:39 11.03.2020
1180 Clouds 16 1035 41 10000 5.1 60 21:21 11.03.2020
1181 Clouds 16 1035 41 10000 5.1 60 20:56 11.03.2020
1182 Clouds 16 1035 41 10000 5.1 60 20:37 11.03.2020
1183 Clouds 16 1035 41 10000 5.1 60 20:19 11.03.2020
1184 Clouds 15 1037 44 10000 5.1 50 19:42 11.03.2020
1185 Clouds 15 1037 44 10000 5.1 50 19:24 11.03.2020
1186 Clouds 14 1038 47 10000 4.1 60 18:57 11.03.2020
1187 Clouds 14 1038 47 10000 4.1 60 18:38 11.03.2020
1188 Clouds 14 1038 47 10000 4.1 60 18:18 11.03.2020
1189 Clouds 13 1040 50 10000 3.6 40 17:55 11.03.2020
1190 Clouds 13 1040 50 10000 3.6 40 17:37 11.03.2020
1191 Clouds 12 1040 58 10000 2.6 60 17:18 11.03.2020
1192 Clouds 12 1040 58 10000 2.6 60 16:43 11.03.2020
1193 Clouds 12 1040 58 10000 2.6 60 16:20 11.03.2020
1194 Clouds 11 1040 66 10000 1.5 70 15:43 11.03.2020
1195 Clouds 11 1040 66 10000 1.5 70 15:23 11.03.2020
1196 Clouds 9 1041 81 10000 1.66 51 14:56 11.03.2020
1197 Clouds 9 1041 81 10000 1.66 51 14:37 11.03.2020
1198 Clouds 9 1041 81 10000 0.9 6 14:18 11.03.2020
1199 Clouds 7 1040 81 10000 0.9 6 13:42 11.03.2020
1200 Clouds 7 1040 81 10000 0.9 6 13:24 11.03.2020
1201 Clouds 6 1040 81 10000 0.48 14 12:56 11.03.2020
1202 Clouds 6 1040 81 10000 0.48 14 12:38 11.03.2020
1203 Clouds 6 1040 81 10000 0.48 14 12:19 11.03.2020
1204 Clouds 5 1040 86 10000 0.48 14 11:41 11.03.2020
1205 Clouds 5 1040 86 10000 0.48 14 11:21 11.03.2020
1206 Clouds 3 1019 94 0 0.49 349 10:49 11.03.2020
1207 Clouds 3 1019 94 0 0.49 349 10:21 11.03.2020
1208 Clouds 3 1019 94 0 0.49 349 10:21 11.03.2020
1209 Clouds 3 1019 94 0 0.49 349 10:21 11.03.2020
1210 Clouds 3 1019 94 0 0.49 349 09:59 11.03.2020
1211 Clouds 3 1019 94 0 0.49 349 09:40 11.03.2020
1212 Clouds 3 1019 94 0 0.49 349 09:21 11.03.2020
1213 Clouds 3 1019 94 0 0.49 349 08:43 11.03.2020
1214 Clouds 3 1019 94 0 0.49 349 08:25 11.03.2020
1215 Rain 4 1020 91 0 1.25 38 07:48 11.03.2020
1216 Rain 4 1020 91 0 1.25 38 07:48 11.03.2020
1217 Rain 4 1020 91 0 1.25 38 07:21 11.03.2020
1218 Rain 4 1020 91 0 1.25 38 06:53 11.03.2020
1219 Rain 4 1020 91 0 1.25 38 06:33 11.03.2020
1220 Rain 4 1020 91 0 1.25 38 05:33 11.03.2020
1221 Clouds 5 1019 86 0 1.95 51 03:34 11.03.2020
1222 Rain 7 1017 80 0 3.95 45 01:56 11.03.2020
1223 Rain 7 1017 80 0 3.95 45 01:25 11.03.2020
1224 Rain 7 1017 79 0 3.89 46 00:44 11.03.2020
1225 Rain 7 1017 79 0 3.89 46 23:50 10.03.2020
1226 Rain 7 1017 79 0 3.89 46 23:28 10.03.2020
1227 Rain 10 1014 62 0 5.1 59 22:58 10.03.2020
1228 Rain 10 1014 62 0 5.1 59 22:38 10.03.2020
1229 Rain 10 1014 62 0 5.1 59 22:19 10.03.2020
1230 Rain 10 1014 62 0 5.1 59 21:56 10.03.2020
1231 Rain 10 1014 62 0 5.1 59 21:38 10.03.2020
1232 Rain 10 1014 62 0 5.1 59 21:19 10.03.2020
1233 Rain 10 1014 62 0 5.1 59 20:54 10.03.2020
1234 Rain 10 1014 62 0 5.1 59 20:36 10.03.2020
1235 Rain 10 1016 58 0 5.04 74 20:18 10.03.2020
1236 Rain 10 1016 58 0 5.04 74 19:42 10.03.2020
1237 Rain 10 1016 58 0 5.04 74 19:42 10.03.2020
1238 Clouds 14 1043 44 10000 7.7 60 19:23 10.03.2020
1239 Clouds 14 1043 44 10000 7.7 60 18:58 10.03.2020
1240 Clouds 14 1043 44 10000 7.7 60 18:40 10.03.2020
1241 Clouds 14 1043 44 10000 7.7 60 18:21 10.03.2020
1242 Clouds 12 1043 54 10000 6.2 70 17:56 10.03.2020
1243 Clouds 12 1043 54 10000 6.2 70 17:37 10.03.2020
1244 Clouds 12 1043 54 10000 6.2 70 17:19 10.03.2020
1245 Clouds 11 1044 57 10000 5.1 50 16:38 10.03.2020
1246 Clouds 11 1044 57 10000 5.1 50 16:18 10.03.2020
1247 Clouds 10 1044 57 10000 4.1 60 15:55 10.03.2020
1248 Clouds 10 1044 57 10000 4.1 60 15:36 10.03.2020
1249 Clouds 10 1044 57 10000 4.1 60 15:18 10.03.2020
1250 Clouds 9 1044 70 10000 2.6 60 14:40 10.03.2020
1251 Clouds 9 1044 70 10000 2.6 60 14:19 10.03.2020
1252 Clouds 7 1044 81 10000 1.47 92 13:54 10.03.2020
1253 Clouds 7 1044 81 10000 1.47 92 13:36 10.03.2020
1254 Clouds 7 1044 81 10000 1.24 129 13:18 10.03.2020
1255 Clouds 5 1044 86 10000 1.24 129 12:39 10.03.2020
1256 Clouds 5 1044 86 10000 1.24 129 12:19 10.03.2020
1257 Clouds 5 1043 86 10000 3.6 60 11:43 10.03.2020
1258 Clouds 5 1043 86 10000 3.6 60 11:25 10.03.2020
1259 Rain 4 1022 90 0 1.25 99 10:59 10.03.2020
1260 Rain 4 1022 90 0 1.25 99 10:41 10.03.2020
1261 Rain 4 1022 90 0 1.25 99 10:22 10.03.2020
1262 Rain 4 1022 90 0 1.25 99 09:57 10.03.2020
1263 Rain 4 1022 90 0 1.25 99 09:38 10.03.2020
1264 Rain 4 1022 90 0 1.25 99 09:18 10.03.2020
1265 Rain 4 1022 90 0 1.25 99 08:45 10.03.2020
1266 Rain 4 1022 91 0 1.25 79 08:26 10.03.2020
1267 Rain 5 1021 89 0 1.49 65 07:49 10.03.2020
1268 Rain 5 1021 89 0 1.49 65 07:30 10.03.2020
1269 Rain 5 1021 89 0 1.49 65 06:44 10.03.2020
1270 Rain 5 1021 89 0 1.49 65 06:25 10.03.2020
1271 Rain 5 1021 89 0 1.49 65 05:41 10.03.2020
1272 Clear 6 1021 83 0 1.72 49 04:40 10.03.2020
1273 Clear 6 1021 83 0 1.72 49 03:37 10.03.2020
1274 Clear 6 1021 83 0 1.72 49 02:26 10.03.2020
1275 Clouds 7 1018 75 0 3.92 49 01:22 10.03.2020
1276 Rain 8 1018 73 0 4.17 52 00:42 10.03.2020
1277 Rain 8 1018 73 0 4.17 52 00:22 10.03.2020
1278 Rain 8 1018 73 0 4.17 52 23:40 09.03.2020
1279 Rain 8 1018 73 0 4.17 52 23:21 09.03.2020
1280 Rain 11 1014 47 0 6.08 58 22:41 09.03.2020
1281 Rain 11 1014 47 0 6.08 58 22:22 09.03.2020
1282 Rain 11 1014 47 0 6.08 58 21:57 09.03.2020
1283 Rain 11 1014 47 0 6.08 58 21:39 09.03.2020
1284 Rain 11 1014 47 0 6.08 58 21:20 09.03.2020
1285 Rain 11 1014 47 0 6.08 58 20:56 09.03.2020
1286 Rain 11 1014 47 0 6.08 58 20:38 09.03.2020
1287 Clouds 13 1016 37 0 5.62 64 20:20 09.03.2020
1288 Clouds 13 1016 37 0 5.59 64 19:44 09.03.2020
1289 Clouds 15 1043 38 10000 9.3 60 19:25 09.03.2020
1290 Clouds 15 1043 38 10000 9.3 60 18:58 09.03.2020
1291 Clouds 15 1043 38 10000 9.3 60 18:58 09.03.2020
1292 Clouds 15 1043 38 10000 9.3 60 18:38 09.03.2020
1293 Clouds 15 1043 38 10000 9.3 60 18:20 09.03.2020
1294 Clouds 14 1043 44 10000 7.7 60 17:57 09.03.2020
1295 Clouds 14 1043 44 10000 7.7 60 17:38 09.03.2020
1296 Clouds 12 1044 62 10000 5.1 40 17:20 09.03.2020
1297 Clouds 12 1044 62 10000 5.1 40 16:58 09.03.2020
1298 Clouds 10 1021 47 0 3.59 75 16:39 09.03.2020
1299 Clouds 34 1013 49 10000 3.59 75 16:21 09.03.2020
1300 Clouds 34 1013 49 10000 3.59 75 16:21 09.03.2020
1301 Clouds 34 1013 49 10000 3.59 75 15:58 09.03.2020
1302 Clouds 34 1013 49 10000 3.59 75 15:38 09.03.2020
1303 Clouds 34 1013 49 10000 3.59 75 15:20 09.03.2020
1304 Clouds 9 1044 87 10000 3.59 75 14:55 09.03.2020
1305 Clouds 9 1044 87 10000 3.59 75 14:36 09.03.2020
1306 Clouds 9 1044 87 10000 1.4 106 14:18 09.03.2020
1307 Clouds 6 1044 87 10000 1.4 106 13:55 09.03.2020
1308 Clouds 6 1044 87 10000 1.4 106 13:36 09.03.2020
1309 Clouds 6 1044 87 10000 1.4 106 13:18 09.03.2020
1310 Clouds 4 1043 86 10000 0.97 125 12:41 09.03.2020
1311 Clouds 4 1043 86 10000 0.97 125 12:22 09.03.2020
1312 Clouds 3 1043 93 10000 0.97 125 11:42 09.03.2020
1313 Clouds 3 1043 93 10000 0.97 125 11:22 09.03.2020
1314 Clouds 4 1020 96 0 0.12 95 10:59 09.03.2020
1315 Clouds 4 1020 96 0 0.12 95 10:40 09.03.2020
1316 Clouds 4 1020 96 0 0.12 95 10:20 09.03.2020
1317 Clouds 4 1020 96 0 0.12 95 09:59 09.03.2020
1318 Clouds 4 1020 96 0 0.12 95 09:37 09.03.2020
1319 Clouds 4 1020 96 0 0.12 95 09:19 09.03.2020
1320 Clouds 4 1020 96 0 0.12 95 08:43 09.03.2020
1321 Clouds 4 1021 92 0 0.42 230 08:25 09.03.2020
1322 Clouds 5 1020 92 0 0.95 40 07:41 09.03.2020
1323 Clouds 5 1020 92 0 0.95 40 07:22 09.03.2020
1324 Clouds 5 1020 92 0 0.95 40 06:46 09.03.2020
1325 Clouds 5 1020 92 0 0.95 40 06:25 09.03.2020
1326 Clouds 5 1020 92 0 0.95 40 05:52 09.03.2020
1327 Clouds 5 1020 92 0 0.95 40 05:34 09.03.2020
1328 Clouds 6 1019 85 0 1.42 54 04:43 09.03.2020
1329 Clouds 6 1019 85 0 1.42 54 04:22 09.03.2020
1330 Clouds 6 1019 85 0 1.42 54 03:20 09.03.2020
1331 Rain 7 1016 75 0 3.76 52 01:41 09.03.2020
1332 Rain 7 1017 80 0 3.14 34 00:39 09.03.2020
1333 Rain 7 1017 80 0 3.14 34 00:20 09.03.2020
1334 Rain 7 1017 80 0 3.14 34 23:51 08.03.2020
1335 Rain 7 1017 80 0 3.14 34 23:23 08.03.2020
1336 Rain 12 1010 47 0 5.23 80 22:57 08.03.2020
1337 Rain 12 1010 47 0 5.23 80 22:38 08.03.2020
1338 Rain 12 1010 47 0 5.23 80 22:20 08.03.2020
1339 Rain 12 1010 47 0 5.23 80 21:54 08.03.2020
1340 Rain 12 1010 47 0 5.23 80 21:36 08.03.2020
1341 Rain 12 1010 47 0 5.23 80 21:36 08.03.2020
1342 Rain 12 1010 47 0 5.23 80 21:18 08.03.2020
1343 Rain 12 1010 47 0 5.23 80 20:39 08.03.2020
1344 Rain 11 1011 53 0 3.38 45 20:21 08.03.2020
1345 Rain 11 1011 53 0 3.38 45 20:21 08.03.2020
1346 Clouds 14 1011 32 0 5.06 85 19:56 08.03.2020
1347 Clouds 14 1011 32 0 5.06 85 19:37 08.03.2020
1348 Clouds 14 1011 32 0 5.06 85 19:18 08.03.2020
1349 Clouds 14 1011 32 0 5.06 85 18:42 08.03.2020
1350 Clouds 14 1011 32 0 5.06 85 18:42 08.03.2020
1351 Clouds 14 1011 32 0 5.06 85 18:24 08.03.2020
1352 Clouds 14 1011 32 0 5.06 85 17:56 08.03.2020
1353 Clouds 14 1011 32 0 5.06 85 17:38 08.03.2020
1354 Clear 12 1016 39 0 2.67 92 17:19 08.03.2020
1355 Clear 12 1016 39 0 2.67 92 16:46 08.03.2020
1356 Clear 12 1016 39 0 2.67 92 16:27 08.03.2020
1357 Clear 12 1016 39 0 2.67 92 15:57 08.03.2020
1358 Clear 12 1016 39 0 2.67 92 15:39 08.03.2020
1359 Clear 12 1016 39 0 2.67 92 15:20 08.03.2020
1360 Clear 12 1016 39 0 2.67 92 14:41 08.03.2020
1361 Clear 12 1016 39 0 2.67 92 14:21 08.03.2020
1362 Clouds 8 1018 63 0 1.2 78 13:58 08.03.2020
1363 Clouds 8 1018 63 0 1.2 78 13:39 08.03.2020
1364 Clear 8 1018 60 0 0.75 57 13:19 08.03.2020
1365 Clear 8 1018 60 0 0.75 57 12:41 08.03.2020
1366 Clear 8 1018 60 0 0.75 57 12:23 08.03.2020
1367 Clear 8 1018 60 0 0.75 57 11:56 08.03.2020
1368 Clear 8 1018 60 0 0.75 57 11:37 08.03.2020
1369 Clear 8 1018 60 0 0.75 57 11:37 08.03.2020
1370 Clear 5 1016 81 0 0.51 285 11:19 08.03.2020
1371 Clear 5 1016 81 0 0.51 285 10:41 08.03.2020
1372 Clear 5 1016 81 0 0.51 285 10:23 08.03.2020
1373 Clear 5 1016 81 0 0.51 285 09:43 08.03.2020
1374 Clear 5 1016 81 0 0.51 285 09:25 08.03.2020
1375 Clear 5 1016 81 0 0.51 285 08:57 08.03.2020
1376 Clear 5 1016 81 0 0.51 285 08:39 08.03.2020
1377 Rain 6 1017 82 0 1.09 280 08:19 08.03.2020
1378 Rain 6 1017 82 0 1.09 280 07:42 08.03.2020
1379 Rain 6 1017 82 0 1.09 280 07:23 08.03.2020
1380 Rain 6 1017 82 0 1.09 280 06:42 08.03.2020
1381 Rain 6 1017 82 0 1.09 280 06:22 08.03.2020
1382 Rain 6 1017 82 0 1.09 280 05:35 08.03.2020
1383 Clear 7 1017 80 0 1.78 54 03:52 08.03.2020
1384 Clear 7 1017 80 0 1.78 54 02:29 08.03.2020
1385 Rain 9 1014 69 0 3.62 37 01:23 08.03.2020
1386 Rain 9 1014 69 0 3.62 37 00:52 08.03.2020
1387 Rain 9 1014 69 0 3.62 37 00:27 08.03.2020
1388 Rain 9 1014 69 0 3.62 37 23:46 07.03.2020
1389 Rain 9 1014 69 0 3.62 37 23:23 07.03.2020
1390 Clouds 14 1009 31 0 5.16 111 22:54 07.03.2020
1391 Clouds 14 1009 31 0 5.16 111 22:36 07.03.2020
1392 Clouds 14 1009 31 0 5.16 111 22:18 07.03.2020
1393 Clouds 14 1009 31 0 5.16 111 21:42 07.03.2020
1394 Clouds 14 1009 31 0 5.16 111 21:19 07.03.2020
1395 Clouds 14 1009 31 0 5.16 111 20:39 07.03.2020
1396 Clouds 15 1011 27 0 4.68 112 20:19 07.03.2020
1397 Clouds 15 1011 28 0 4.55 115 20:19 07.03.2020
1398 Clouds 15 1011 28 0 4.55 115 19:41 07.03.2020
1399 Clouds 15 1011 28 0 4.55 115 19:22 07.03.2020
1400 Clouds 15 1011 28 0 4.55 115 18:47 07.03.2020
1401 Clouds 15 1011 28 0 4.55 115 18:28 07.03.2020
1402 Clouds 15 1011 28 0 4.55 115 17:59 07.03.2020
1403 Clouds 15 1011 28 0 4.55 115 17:40 07.03.2020
1404 Clouds 15 1011 28 0 4.55 115 17:40 07.03.2020
1405 Clear 12 1016 32 0 3.18 135 17:19 07.03.2020
1406 Clear 12 1016 32 0 3.18 135 16:55 07.03.2020
1407 Clear 12 1016 32 0 3.18 135 16:36 07.03.2020
1408 Clear 12 1016 32 0 3.18 135 16:18 07.03.2020
1409 Clear 12 1016 32 0 3.18 135 15:41 07.03.2020
1410 Clear 12 1016 32 0 3.18 135 15:22 07.03.2020
1411 Clear 12 1016 32 0 3.18 135 14:59 07.03.2020
1412 Clear 12 1016 32 0 3.18 135 14:40 07.03.2020
1413 Clear 12 1016 32 0 3.18 135 14:22 07.03.2020
1414 Clear 7 1019 53 0 0.9 209 13:42 07.03.2020
1415 Clear 7 1020 54 0 0.92 204 13:21 07.03.2020
1416 Clear 7 1020 54 0 0.92 204 12:55 07.03.2020
1417 Clear 7 1020 54 0 0.92 204 12:37 07.03.2020
1418 Clear 7 1020 54 0 0.92 204 12:18 07.03.2020
1419 Clear 7 1020 54 0 0.92 204 11:42 07.03.2020
1420 Clear 7 1020 54 0 0.92 204 11:23 07.03.2020
1421 Clear 4 1018 86 0 1.37 280 10:57 07.03.2020
1422 Clear 4 1018 86 0 1.37 280 10:37 07.03.2020
1423 Clear 4 1018 86 0 1.37 280 10:18 07.03.2020
1424 Clear 4 1018 86 0 1.37 280 09:40 07.03.2020
1425 Clear 4 1018 86 0 1.37 280 09:19 07.03.2020
1426 Clear 4 1018 86 0 1.37 280 08:57 07.03.2020
1427 Clear 4 1018 86 0 1.37 280 08:39 07.03.2020
1428 Clear 4 1019 87 0 1.34 300 08:20 07.03.2020
1429 Clear 4 1019 87 0 1.34 300 07:44 07.03.2020
1430 Clear 4 1019 87 0 1.34 300 07:21 07.03.2020
1431 Clear 4 1019 87 0 1.34 300 06:42 07.03.2020
1432 Clear 4 1019 87 0 1.34 300 06:23 07.03.2020
1433 Clear 4 1019 87 0 1.34 300 05:40 07.03.2020
1434 Clear 5 1020 84 0 1.44 15 03:47 07.03.2020
1435 Clear 5 1020 84 0 1.44 15 02:44 07.03.2020
1436 Clouds 7 1018 74 0 3.6 47 01:56 07.03.2020
1437 Clouds 7 1018 74 0 3.6 47 01:18 07.03.2020
1438 Rain 7 1018 75 0 2.92 42 00:24 07.03.2020
1439 Rain 7 1018 75 0 2.92 42 23:59 06.03.2020
1440 Rain 7 1018 75 0 2.92 42 23:40 06.03.2020
1441 Rain 7 1018 75 0 2.92 42 23:22 06.03.2020
1442 Clouds 12 1014 38 0 8.16 117 22:46 06.03.2020
1443 Clouds 12 1014 38 0 8.16 117 22:20 06.03.2020
1444 Clouds 12 1014 38 0 8.16 117 21:47 06.03.2020
1445 Clouds 12 1014 38 0 8.16 117 21:21 06.03.2020
1446 Clouds 12 1014 38 0 8.16 117 20:45 06.03.2020
1447 Clouds 12 1014 38 0 8.16 117 20:23 06.03.2020
1448 Clouds 13 1015 34 0 5.11 106 19:59 06.03.2020
1449 Clouds 13 1015 34 0 5.11 106 19:40 06.03.2020
1450 Clouds 13 1015 34 0 5.11 106 19:22 06.03.2020
1451 Clouds 13 1015 34 0 5.11 106 18:42 06.03.2020
1452 Clouds 13 1015 34 0 5.11 106 18:20 06.03.2020
1453 Clouds 13 1015 34 0 5.11 106 17:57 06.03.2020
1454 Clouds 13 1015 34 0 5.11 106 17:39 06.03.2020
1455 Clouds 13 1015 34 0 5.11 106 17:39 06.03.2020
1456 Clear 11 1019 40 0 3.99 126 17:20 06.03.2020
1457 Clear 11 1019 40 0 3.99 126 16:54 06.03.2020
1458 Clear 11 1019 40 0 3.99 126 16:36 06.03.2020
1459 Clear 11 1019 40 0 3.99 126 16:18 06.03.2020
1460 Clear 11 1019 40 0 3.99 126 15:42 06.03.2020
1461 Clear 11 1019 40 0 3.99 126 15:22 06.03.2020
1462 Clear 11 1019 40 0 3.99 126 14:41 06.03.2020
1463 Clear 11 1019 40 0 3.99 126 14:23 06.03.2020
1464 Clouds 5 1022 85 0 0.5 18 13:57 06.03.2020
1465 Clouds 5 1022 85 0 0.5 18 13:39 06.03.2020
1466 Clouds 5 1022 85 0 0.5 18 13:19 06.03.2020
1467 Clouds 5 1022 80 0 0.52 72 12:54 06.03.2020
1468 Clouds 5 1022 80 0 0.52 72 12:36 06.03.2020
1469 Clouds 5 1022 80 0 0.52 72 12:18 06.03.2020
1470 Clouds 5 1022 80 0 0.52 72 11:42 06.03.2020
1471 Clouds 4 1022 91 0 1.14 39 11:20 06.03.2020
1472 Clouds 4 1022 91 0 1.14 39 10:56 06.03.2020
1473 Clouds 4 1022 91 0 1.14 39 10:36 06.03.2020
1474 Clouds 4 1022 91 0 1.14 39 10:18 06.03.2020
1475 Clouds 4 1022 91 0 1.14 39 09:42 06.03.2020
1476 Clouds 4 1022 91 0 1.14 39 09:23 06.03.2020
1477 Clouds 4 1022 91 0 1.14 39 09:23 06.03.2020
1478 Clouds 4 1022 91 0 1.14 39 08:56 06.03.2020
1479 Clouds 4 1022 91 0 1.14 39 08:37 06.03.2020
1480 Rain 4 1022 87 0 2.19 308 08:18 06.03.2020
1481 Rain 4 1022 85 0 2.17 300 07:42 06.03.2020
1482 Rain 4 1022 85 0 2.17 300 07:22 06.03.2020
1483 Rain 4 1022 85 0 2.17 300 06:42 06.03.2020
1484 Rain 4 1022 85 0 2.17 300 06:18 06.03.2020
1485 Rain 4 1022 85 0 2.17 300 05:38 06.03.2020
1486 Rain 5 1023 87 0 1.88 80 05:19 06.03.2020
1487 Rain 5 1023 87 0 1.88 80 04:35 06.03.2020
1488 Rain 4 1020 86 0 1.09 350 01:44 06.03.2020
1489 Rain 4 1020 86 0 1.09 350 01:25 06.03.2020
1490 Rain 5 1020 84 0 2.14 24 00:50 06.03.2020
1491 Rain 5 1020 84 0 2.14 24 00:30 06.03.2020
1492 Rain 5 1020 84 0 2.14 24 23:44 05.03.2020
1493 Rain 5 1020 84 0 2.14 24 23:25 05.03.2020
1494 Rain 5 1016 90 0 4 66 22:56 05.03.2020
1495 Rain 5 1016 90 0 4 66 22:37 05.03.2020
1496 Rain 5 1016 90 0 4 66 22:18 05.03.2020
1497 Rain 5 1016 90 0 4 66 21:55 05.03.2020
1498 Rain 5 1016 90 0 4 66 21:37 05.03.2020
1499 Rain 5 1016 90 0 4 66 21:19 05.03.2020
1500 Rain 5 1016 90 0 4 66 21:19 05.03.2020
1501 Rain 5 1016 90 0 4 66 20:42 05.03.2020
1502 Rain 5 1016 90 0 4 66 20:21 05.03.2020
1503 Rain 12 1016 42 0 2.58 87 19:59 05.03.2020
1504 Rain 12 1016 42 0 2.58 87 19:40 05.03.2020
1505 Rain 12 1016 42 0 2.58 87 19:21 05.03.2020
1506 Rain 12 1016 42 0 2.58 87 18:59 05.03.2020
1507 Rain 12 1016 42 0 2.58 87 18:38 05.03.2020
1508 Rain 12 1016 42 0 2.58 87 18:19 05.03.2020
1509 Rain 12 1016 42 0 2.58 87 17:57 05.03.2020
1510 Rain 12 1016 42 0 2.58 87 17:39 05.03.2020
1511 Rain 12 1016 42 0 2.58 87 17:21 05.03.2020
1512 Rain 9 1020 65 0 2.44 66 16:42 05.03.2020
1513 Rain 9 1020 65 0 2.44 66 16:24 05.03.2020
1514 Rain 9 1020 65 0 2.44 66 15:59 05.03.2020
1515 Rain 9 1020 65 0 2.44 66 15:40 05.03.2020
1516 Rain 9 1020 65 0 2.44 66 15:21 05.03.2020
1517 Rain 9 1020 65 0 2.44 66 14:54 05.03.2020
1518 Rain 9 1020 65 0 2.44 66 14:36 05.03.2020
1519 Clouds 5 1023 85 0 1.49 58 14:18 05.03.2020
1520 Clouds 5 1023 85 0 1.49 58 13:41 05.03.2020
1521 Clouds 5 1023 84 0 1.59 72 13:21 05.03.2020
1522 -273 0 0 0 0 0 13:21 05.03.2020
1523 Clouds 5 1023 84 0 1.59 72 12:56 05.03.2020
1524 Clouds 5 1023 84 0 1.59 72 12:38 05.03.2020
1525 Clouds 5 1023 84 0 1.59 72 12:18 05.03.2020
1526 Clouds 5 1023 84 0 1.59 72 11:56 05.03.2020
1527 Clouds 5 1023 84 0 1.59 72 11:37 05.03.2020
1528 Clouds 4 1022 80 0 1.54 295 11:18 05.03.2020
1529 Clouds 4 1022 80 0 1.54 295 11:18 05.03.2020
1530 Clouds 4 1022 80 0 1.54 295 10:56 05.03.2020
1531 Clouds 4 1022 80 0 1.54 295 10:38 05.03.2020
1532 Clouds 4 1022 80 0 1.54 295 10:19 05.03.2020
1533 Clouds 4 1022 80 0 1.54 295 09:44 05.03.2020
1534 Clouds 4 1022 80 0 1.54 295 09:26 05.03.2020
1535 Clouds 4 1022 80 0 1.54 295 08:44 05.03.2020
1536 Clouds 4 1022 80 0 1.54 295 08:25 05.03.2020
1537 Clouds 4 1022 87 0 0.81 108 07:47 05.03.2020
1538 Clouds 4 1022 87 0 0.81 108 07:22 05.03.2020
1539 Clouds 4 1022 87 0 0.81 108 06:48 05.03.2020
1540 Clouds 4 1022 87 0 0.81 108 06:22 05.03.2020
1541 Clouds 4 1022 87 0 0.81 108 05:39 05.03.2020
1542 Clouds 4 1023 89 0 1.38 70 04:55 05.03.2020
1543 Clouds 4 1023 89 0 1.38 70 04:22 05.03.2020
1544 Clouds 4 1023 89 0 1.38 70 03:51 05.03.2020
1545 Clouds 7 1018 73 0 3.59 56 01:58 05.03.2020
1546 Clouds 6 1019 77 0 3.73 64 01:22 05.03.2020
1547 Clouds 6 1019 77 0 3.73 64 00:26 05.03.2020
1548 Clouds 6 1019 77 0 3.73 64 23:43 04.03.2020
1549 Clouds 6 1019 77 0 3.73 64 23:23 04.03.2020
1550 Clouds 9 1014 52 0 4.92 60 22:58 04.03.2020
1551 Clouds 9 1014 52 0 4.92 60 22:39 04.03.2020
1552 Clouds 9 1014 52 0 4.92 60 22:19 04.03.2020
1553 Clouds 9 1014 52 0 4.92 60 21:58 04.03.2020
1554 Clouds 9 1014 52 0 4.92 60 21:40 04.03.2020
1555 Clouds 9 1014 52 0 4.92 60 21:20 04.03.2020
1556 Clouds 9 1014 52 0 4.92 60 20:56 04.03.2020
1557 Clouds 9 1014 52 0 4.92 60 20:37 04.03.2020
1558 Clear 11 1015 41 0 1.27 25 20:18 04.03.2020
1559 Clear 11 1015 41 0 1.27 25 19:42 04.03.2020
1560 Clear 11 1015 41 0 1.27 25 19:23 04.03.2020
1561 Clear 11 1015 41 0 1.27 25 18:56 04.03.2020
1562 Clear 11 1015 41 0 1.27 25 18:36 04.03.2020
1563 Clear 11 1015 41 0 1.27 25 18:18 04.03.2020
1564 Clear 11 1015 41 0 1.27 25 17:55 04.03.2020
1565 Clear 11 1015 41 0 1.27 25 17:37 04.03.2020
1566 Clear 8 1020 56 0 1.29 96 17:18 04.03.2020
1567 Clear 8 1020 56 0 1.29 96 16:42 04.03.2020
1568 Clear 8 1020 56 0 1.29 96 16:24 04.03.2020
1569 Clear 8 1020 56 0 1.29 96 15:59 04.03.2020
1570 Clear 8 1020 56 0 1.29 96 15:40 04.03.2020
1571 Clear 8 1020 56 0 1.29 96 15:21 04.03.2020
1572 Clear 8 1020 56 0 1.29 96 14:55 04.03.2020
1573 Clear 8 1020 56 0 1.29 96 14:36 04.03.2020
1574 Clear 4 1022 82 0 0.5 228 14:18 04.03.2020
1575 Clear 4 1022 82 0 0.5 228 13:55 04.03.2020
1576 Clear 4 1022 82 0 0.5 228 13:36 04.03.2020
1577 Clouds 4 1022 79 0 0.58 177 13:18 04.03.2020
1578 Clouds 4 1022 79 0 0.58 177 12:42 04.03.2020
1579 Clouds 4 1022 79 0 0.58 177 12:23 04.03.2020
1580 Clouds 4 1022 79 0 0.58 177 11:55 04.03.2020
1581 Clouds 4 1022 79 0 0.58 177 11:37 04.03.2020
1582 Clear 2 1021 88 0 0.73 217 11:19 04.03.2020
1583 Clear 2 1021 88 0 0.73 217 10:47 04.03.2020
1584 Clear 2 1021 88 0 0.73 217 10:26 04.03.2020
1585 Clear 2 1021 88 0 0.73 217 09:58 04.03.2020
1586 Clear 2 1021 88 0 0.73 217 09:40 04.03.2020
1587 Clear 2 1021 88 0 0.73 217 09:20 04.03.2020
1588 Clear 2 1021 88 0 0.73 217 08:43 04.03.2020
1589 Clear 2 1021 88 0 0.73 217 08:24 04.03.2020
1590 Rain 4 1022 90 0 2.15 301 07:48 04.03.2020
1591 Rain 4 1022 90 0 2.15 301 07:30 04.03.2020
1592 Rain 4 1022 90 0 2.15 301 06:54 04.03.2020
1593 Rain 4 1022 90 0 2.15 301 06:27 04.03.2020
1594 Rain 4 1022 90 0 2.15 301 05:59 04.03.2020
1595 Rain 4 1022 90 0 2.15 301 05:32 04.03.2020
1596 Clouds 3 1022 91 0 1.59 185 03:58 04.03.2020
1597 Clouds 3 1022 91 0 1.59 185 03:37 04.03.2020
1598 Clouds 3 1022 91 0 1.59 185 02:59 04.03.2020
1599 Clouds 3 1022 91 0 1.59 185 02:31 04.03.2020
1600 Rain 3 1018 91 0 1.64 317 01:57 04.03.2020
1601 Rain 3 1018 91 0 1.64 317 01:37 04.03.2020
1602 Rain 3 1019 92 0 0.59 331 00:42 04.03.2020
1603 Rain 3 1019 92 0 0.59 331 00:24 04.03.2020
1604 Rain 3 1019 92 0 0.59 331 23:44 03.03.2020
1605 Rain 3 1019 92 0 0.59 331 23:24 03.03.2020
1606 Rain 3 1014 94 0 1.35 145 22:56 03.03.2020
1607 Rain 3 1014 94 0 1.35 145 22:37 03.03.2020
1608 Rain 3 1014 94 0 1.35 145 22:19 03.03.2020
1609 Rain 3 1014 94 0 1.35 145 21:56 03.03.2020
1610 Rain 3 1014 94 0 1.35 145 21:36 03.03.2020
1611 Rain 3 1014 94 0 1.35 145 21:18 03.03.2020
1612 Rain 3 1014 94 0 1.35 145 20:40 03.03.2020
1613 Rain 7 1015 79 0 4.08 278 20:19 03.03.2020
1614 Rain 9 1015 68 0 1.32 231 20:19 03.03.2020
1615 Rain 8 1015 70 0 1.22 249 19:58 03.03.2020
1616 Rain 9 1015 68 0 1.32 231 19:37 03.03.2020
1617 Rain 9 1015 68 0 1.32 231 19:19 03.03.2020
1618 Rain 8 1015 70 0 1.22 249 18:58 03.03.2020
1619 Rain 9 1015 68 0 1.32 231 18:40 03.03.2020
1620 Rain 8 1015 70 0 1.22 249 18:19 03.03.2020
1621 Rain 8 1015 70 0 1.22 249 17:55 03.03.2020
1622 Rain 8 1015 70 0 1.22 249 17:37 03.03.2020
1623 Rain 10 1019 54 0 1.74 35 17:19 03.03.2020
1624 Rain 10 1019 54 0 1.74 35 16:55 03.03.2020
1625 Rain 10 1019 54 0 1.74 35 16:36 03.03.2020
1626 Rain 10 1019 54 0 1.74 35 16:18 03.03.2020
1627 Rain 10 1019 54 0 1.74 35 15:43 03.03.2020
1628 Rain 10 1019 59 0 2.22 40 15:21 03.03.2020
1629 Rain 10 1019 59 0 2.22 40 14:55 03.03.2020
1630 Rain 10 1019 54 0 1.74 35 14:37 03.03.2020
1631 Rain 5 1020 86 0 1.73 58 14:18 03.03.2020
1632 Rain 5 1021 89 0 1.36 56 13:42 03.03.2020
1633 Rain 5 1021 89 0 1.36 56 13:24 03.03.2020
1634 Rain 5 1021 89 0 1.36 56 12:55 03.03.2020
1635 Rain 5 1021 89 0 1.36 56 12:37 03.03.2020
1636 Rain 5 1021 89 0 1.36 56 12:19 03.03.2020
1637 Rain 5 1021 89 0 1.36 56 11:55 03.03.2020
1638 Rain 5 1021 89 0 1.36 56 11:36 03.03.2020
1639 Rain 5 1019 88 0 2.18 66 11:18 03.03.2020
1640 Rain 5 1019 88 0 2.18 66 10:54 03.03.2020
1641 Rain 5 1019 88 0 2.18 66 10:36 03.03.2020
1642 Rain 5 1019 88 0 2.18 66 10:18 03.03.2020
1643 Rain 5 1019 88 0 2.18 66 10:18 03.03.2020
1644 Rain 5 1019 88 0 2.18 66 09:41 03.03.2020
1645 Rain 5 1019 88 0 2.18 66 09:20 03.03.2020
1646 Rain 5 1019 88 0 2.18 66 08:42 03.03.2020
1647 Rain 5 1019 90 0 1.97 57 08:22 03.03.2020
1648 Rain 5 1020 90 0 2.17 50 07:55 03.03.2020
1649 Rain 5 1020 90 0 2.17 50 07:37 03.03.2020
1650 Rain 5 1020 90 0 2.17 50 07:18 03.03.2020
1651 Rain 5 1020 90 0 2.17 50 06:40 03.03.2020
1652 Rain 5 1020 90 0 2.17 50 06:20 03.03.2020
1653 Rain 5 1020 90 0 2.17 50 05:42 03.03.2020
1654 Rain 6 1020 90 0 2.82 39 04:54 03.03.2020
1655 Rain 6 1020 90 0 2.82 39 02:38 03.03.2020
1656 Rain 7 1016 80 0 4.9 62 01:29 03.03.2020
1657 Rain 7 1016 83 0 4.32 71 00:42 03.03.2020
1658 Rain 7 1016 83 0 4.32 71 00:23 03.03.2020
1659 Rain 7 1016 83 0 4.32 71 23:50 02.03.2020
1660 Rain 7 1016 83 0 4.32 71 23:23 02.03.2020
1661 Rain 10 1013 67 0 2.95 75 22:58 02.03.2020
1662 Rain 10 1013 67 0 2.95 75 22:38 02.03.2020
1663 Rain 10 1013 67 0 2.95 75 22:20 02.03.2020
1664 Rain 10 1013 67 0 2.95 75 21:56 02.03.2020
1665 Rain 10 1013 67 0 2.95 75 21:38 02.03.2020
1666 Rain 10 1013 67 0 2.95 75 21:20 02.03.2020
1667 Rain 10 1013 67 0 2.95 75 20:56 02.03.2020
1668 Rain 10 1013 67 0 2.95 75 20:38 02.03.2020
1669 Rain 11 1014 55 0 1.28 21 20:19 02.03.2020
1670 Rain 11 1014 55 0 1.28 21 19:54 02.03.2020
1671 Rain 11 1014 55 0 1.28 21 19:36 02.03.2020
1672 Rain 11 1014 55 0 1.28 21 19:18 02.03.2020
1673 Rain 11 1014 55 0 1.28 21 18:43 02.03.2020
1674 Rain 11 1014 55 0 1.28 21 18:19 02.03.2020
1675 Rain 11 1014 55 0 1.28 21 17:57 02.03.2020
1676 -273 0 0 0 0 0 17:39 02.03.2020
1677 Rain 7 1019 78 0 1.64 67 17:21 02.03.2020
1678 Rain 7 1019 78 0 1.64 67 16:54 02.03.2020
1679 Rain 7 1019 78 0 1.64 67 16:36 02.03.2020
1680 Rain 7 1019 78 0 1.64 67 16:18 02.03.2020
1681 Rain 7 1019 78 0 1.64 67 15:42 02.03.2020
1682 Rain 7 1019 78 0 1.64 67 15:19 02.03.2020
1683 Rain 7 1019 78 0 1.64 67 14:40 02.03.2020
1684 Rain 4 1021 90 0 1.58 304 14:20 02.03.2020
1685 Rain 4 1021 90 0 1.58 304 13:58 02.03.2020
1686 Rain 4 1021 90 0 1.58 304 13:38 02.03.2020
1687 Rain 4 1021 90 0 1.58 304 13:18 02.03.2020
1688 Rain 4 1021 89 0 2.47 293 12:43 02.03.2020
1689 Rain 4 1021 89 0 2.47 293 12:19 02.03.2020
1690 Rain 4 1021 89 0 2.47 293 11:55 02.03.2020
1691 Rain 4 1021 89 0 2.47 293 11:36 02.03.2020
1692 Rain 5 1020 91 0 2.18 353 11:18 02.03.2020
1693 Rain 5 1020 91 0 2.18 353 10:42 02.03.2020
1694 Rain 5 1020 91 0 2.18 353 10:20 02.03.2020
1695 Rain 5 1020 91 0 2.18 353 09:58 02.03.2020
1696 Rain 5 1020 91 0 2.18 353 09:39 02.03.2020
1697 Rain 5 1020 91 0 2.18 353 09:20 02.03.2020
1698 Rain 5 1020 91 0 2.18 353 08:41 02.03.2020
1699 Rain 5 1020 92 0 1.79 71 08:19 02.03.2020
1700 Rain 5 1021 91 0 2.58 65 07:42 02.03.2020
1701 Rain 5 1021 91 0 2.58 65 06:57 02.03.2020
1702 Rain 5 1021 91 0 2.58 65 06:38 02.03.2020
1703 Rain 5 1021 91 0 2.58 65 05:53 02.03.2020
1704 Clouds 5 1021 87 0 2.44 82 04:25 02.03.2020
1705 Clouds 5 1021 87 0 2.44 82 03:22 02.03.2020
1706 Clouds 5 1021 87 0 2.44 82 02:46 02.03.2020
1707 Rain 7 1018 79 0 3.8 30 01:49 02.03.2020
1708 Rain 7 1018 75 0 4.01 25 01:30 02.03.2020
1709 Rain 7 1018 75 0 4.01 25 00:23 02.03.2020
1710 Rain 7 1018 75 0 4.01 25 23:57 01.03.2020
1711 Rain 7 1018 75 0 4.01 25 23:39 01.03.2020
1712 Rain 9 1015 65 0 4.72 56 23:19 01.03.2020
1713 Rain 9 1015 65 0 4.72 56 22:43 01.03.2020
1714 Rain 9 1015 65 0 4.72 56 22:20 01.03.2020
1715 Rain 9 1015 65 0 4.72 56 21:56 01.03.2020
1716 Rain 9 1015 65 0 4.72 56 21:38 01.03.2020
1717 Rain 9 1015 65 0 4.72 56 21:19 01.03.2020
1718 Rain 9 1015 65 0 4.72 56 20:44 01.03.2020
1719 Rain 9 1015 63 0 4.53 62 20:25 01.03.2020
1720 Clouds 12 1017 50 0 3.97 62 19:56 01.03.2020
1721 Clouds 12 1017 50 0 3.97 62 19:37 01.03.2020
1722 Clouds 12 1017 50 0 3.97 62 19:19 01.03.2020
1723 Clouds 12 1017 50 0 3.97 62 18:41 01.03.2020
1724 Clouds 12 1017 50 0 3.97 62 18:20 01.03.2020
1725 Clouds 12 1017 50 0 3.97 62 17:58 01.03.2020
1726 Clouds 12 1017 50 0 3.97 62 17:40 01.03.2020
1727 Clouds 12 1017 50 0 3.97 62 17:21 01.03.2020
1728 Clouds 7 1022 70 0 1.88 64 16:58 01.03.2020
1729 Clouds 7 1022 70 0 1.88 64 16:39 01.03.2020
1730 Clouds 7 1022 70 0 1.88 64 16:19 01.03.2020
1731 Clouds 7 1022 70 0 1.88 64 15:58 01.03.2020
1732 Clouds 7 1022 70 0 1.88 64 15:40 01.03.2020
1733 Clouds 7 1022 70 0 1.88 64 15:20 01.03.2020
1734 Clouds 7 1022 70 0 1.88 64 14:57 01.03.2020
1735 Clouds 7 1022 70 0 1.88 64 14:39 01.03.2020
1736 Rain 4 1023 89 0 1.61 51 14:20 01.03.2020
1737 Rain 4 1023 89 0 1.61 51 13:56 01.03.2020
1738 Rain 4 1023 89 0 1.61 51 13:38 01.03.2020
1739 Rain 4 1024 88 0 1.72 70 13:19 01.03.2020
1740 Rain 4 1024 88 0 1.72 70 12:43 01.03.2020
1741 Rain 4 1024 88 0 1.72 70 12:23 01.03.2020
1742 Clouds 4 1024 90 0 1.91 73 11:58 01.03.2020
1743 Rain 4 1024 88 0 1.72 70 11:39 01.03.2020
1744 Rain 4 1022 90 0 1.52 54 11:19 01.03.2020
1745 Clouds 4 1022 88 0 1.86 42 10:55 01.03.2020
1746 Clouds 4 1022 88 0 1.86 42 10:36 01.03.2020
1747 Clouds 4 1022 88 0 1.86 42 10:18 01.03.2020
1748 Clouds 4 1022 88 0 1.86 42 09:41 01.03.2020
1749 Rain 4 1022 90 0 1.52 54 09:22 01.03.2020
1750 Clouds 4 1022 88 0 1.86 42 08:46 01.03.2020
1751 Clouds 4 1022 88 0 1.86 42 08:27 01.03.2020
1752 Rain 5 1022 91 0 3.98 54 07:47 01.03.2020
1753 Rain 5 1022 91 0 3.98 54 07:28 01.03.2020
1754 Rain 5 1022 91 0 3.98 54 06:58 01.03.2020
1755 Rain 5 1022 91 0 3.98 54 06:40 01.03.2020
1756 Rain 5 1022 91 0 3.98 54 05:35 01.03.2020
1757 Rain 6 1022 87 0 3.65 43 02:59 01.03.2020
1758 Rain 7 1018 84 0 4.13 60 02:18 01.03.2020
1759 Rain 7 1018 84 0 4.13 60 01:36 01.03.2020
1760 Rain 7 1018 85 0 4.8 56 00:51 01.03.2020
1761 Rain 7 1018 85 0 4.8 56 00:25 01.03.2020
1762 Rain 7 1018 85 0 4.8 56 23:58 29.02.2020
1763 Rain 7 1018 85 0 4.8 56 23:40 29.02.2020
1764 Rain 7 1018 85 0 4.8 56 23:22 29.02.2020
1765 Rain 10 1015 70 0 4.18 53 22:38 29.02.2020
1766 Rain 10 1015 70 0 4.18 53 22:20 29.02.2020
1767 Rain 10 1015 70 0 4.18 53 21:39 29.02.2020
1768 Rain 10 1015 70 0 4.18 53 21:20 29.02.2020
1769 Rain 10 1015 70 0 4.18 53 20:42 29.02.2020
1770 Rain 10 1015 71 0 4.31 57 20:21 29.02.2020
1771 Rain 12 1017 61 0 4.52 58 19:56 29.02.2020
1772 Rain 12 1017 61 0 4.52 58 19:37 29.02.2020
1773 Rain 12 1017 61 0 4.52 58 19:18 29.02.2020
1774 Rain 12 1017 61 0 4.52 58 18:42 29.02.2020
1775 Rain 12 1017 61 0 4.52 58 18:23 29.02.2020
1776 Rain 12 1017 61 0 4.52 58 17:56 29.02.2020
1777 Rain 12 1017 61 0 4.52 58 17:37 29.02.2020
1778 Rain 8 1021 75 0 4.03 63 17:19 29.02.2020
1779 Rain 8 1021 75 0 4.03 63 16:45 29.02.2020
1780 Rain 8 1021 75 0 4.03 63 16:20 29.02.2020
1781 Rain 8 1021 75 0 4.03 63 15:58 29.02.2020
1782 Rain 8 1021 75 0 4.03 63 15:38 29.02.2020
1783 Rain 8 1021 75 0 4.03 63 15:20 29.02.2020
1784 Rain 8 1021 75 0 4.03 63 14:40 29.02.2020
1785 Rain 8 1021 75 0 4.03 63 14:22 29.02.2020
1786 Rain 6 1022 90 0 3.05 57 13:46 29.02.2020
1787 Rain 6 1022 90 0 3.05 57 13:28 29.02.2020
1788 Rain 6 1023 92 0 3 50 12:58 29.02.2020
1789 Rain 6 1023 92 0 3 50 12:38 29.02.2020
1790 Rain 6 1023 92 0 3 50 12:20 29.02.2020
1791 Rain 6 1023 92 0 3 50 11:45 29.02.2020
1792 Rain 6 1023 92 0 3 50 11:27 29.02.2020
1793 Rain 7 1020 84 0 2.16 51 10:55 29.02.2020
1794 Rain 7 1020 84 0 2.16 51 10:36 29.02.2020
1795 Rain 7 1020 84 0 2.16 51 10:18 29.02.2020
1796 Rain 7 1020 84 0 2.16 51 09:46 29.02.2020
1797 Rain 7 1020 84 0 2.16 51 09:18 29.02.2020
1798 Rain 7 1020 84 0 2.16 51 08:40 29.02.2020
1799 Rain 7 1020 86 0 2.1 51 08:21 29.02.2020
1800 Rain 7 1020 84 0 2.59 39 07:53 29.02.2020
1801 Rain 7 1020 84 0 2.59 39 07:25 29.02.2020
1802 Rain 7 1020 84 0 2.59 39 06:56 29.02.2020
1803 Rain 7 1020 84 0 2.59 39 06:29 29.02.2020
1804 Rain 7 1020 84 0 2.59 39 05:52 29.02.2020
1805 Rain 7 1020 84 0 2.59 39 05:32 29.02.2020
1806 Rain 7 1019 91 0 2.53 52 04:18 29.02.2020
1807 Rain 7 1019 91 0 2.53 52 03:24 29.02.2020
1808 Rain 7 1019 91 0 2.53 52 02:59 29.02.2020
1809 Rain 7 1019 91 0 2.53 52 02:26 29.02.2020
1810 Rain 9 1015 79 0 2.87 58 00:52 29.02.2020
1811 Rain 9 1015 79 0 2.87 58 00:28 29.02.2020
1812 Rain 9 1015 79 0 2.87 58 23:42 28.02.2020
1813 Rain 9 1015 79 0 2.87 58 23:24 28.02.2020
1814 Rain 11 1011 66 0 3.09 46 22:44 28.02.2020
1815 Rain 11 1011 66 0 3.09 46 22:23 28.02.2020
1816 Rain 11 1011 66 0 3.09 46 21:56 28.02.2020
1817 Rain 11 1011 66 0 3.09 46 21:38 28.02.2020
1818 Rain 11 1011 66 0 3.09 46 21:20 28.02.2020
1819 Rain 11 1011 66 0 3.09 46 20:39 28.02.2020
1820 Rain 14 1013 45 0 3.29 100 20:21 28.02.2020
1821 Rain 14 1013 45 0 3.29 100 19:57 28.02.2020
1822 Rain 14 1013 45 0 3.29 100 19:39 28.02.2020
1823 Rain 14 1013 45 0 3.29 100 19:20 28.02.2020
1824 Rain 14 1013 45 0 3.29 100 18:55 28.02.2020
1825 Rain 14 1013 45 0 3.29 100 18:37 28.02.2020
1826 Rain 14 1013 45 0 3.29 100 18:19 28.02.2020
1827 Rain 14 1013 45 0 3.29 100 17:40 28.02.2020
1828 Rain 14 1013 45 0 3.29 100 17:22 28.02.2020
1829 Rain 12 1017 47 0 1.57 44 16:44 28.02.2020
1830 Rain 12 1017 47 0 1.57 44 16:20 28.02.2020
1831 Rain 12 1017 47 0 1.57 44 15:58 28.02.2020
1832 Rain 12 1017 47 0 1.57 44 15:40 28.02.2020
1833 Rain 12 1017 47 0 1.57 44 15:19 28.02.2020
1834 Rain 12 1017 47 0 1.57 44 14:57 28.02.2020
1835 Rain 12 1017 47 0 1.57 44 14:38 28.02.2020
1836 Rain 12 1017 47 0 1.57 44 14:38 28.02.2020
1837 Clouds 8 1019 75 0 1.13 324 14:18 28.02.2020
1838 Clouds 8 1019 75 0 1.13 324 13:41 28.02.2020
1839 Clouds 8 1019 80 0 1.18 337 13:21 28.02.2020
1840 Clouds 8 1019 80 0 1.18 337 13:21 28.02.2020
1841 Clouds 8 1019 80 0 1.18 337 12:59 28.02.2020
1842 Clouds 8 1019 80 0 1.18 337 12:40 28.02.2020
1843 Clouds 8 1019 80 0 1.18 337 12:22 28.02.2020
1844 Clouds 8 1019 80 0 1.18 337 11:42 28.02.2020
1845 Clouds 8 1019 80 0 1.18 337 11:23 28.02.2020
1846 Clouds 6 1017 91 0 1 332 10:57 28.02.2020
1847 Clouds 6 1017 91 0 1 332 10:37 28.02.2020
1848 Clouds 6 1017 91 0 1 332 10:19 28.02.2020
1849 Clouds 6 1017 91 0 1 332 09:44 28.02.2020
1850 Clouds 6 1017 91 0 1 332 09:21 28.02.2020
1851 Clouds 6 1017 91 0 1 332 08:56 28.02.2020
1852 Clouds 6 1017 91 0 1 332 08:36 28.02.2020
1853 Clouds 6 1018 92 0 2.22 43 08:18 28.02.2020
1854 Clouds 6 1018 92 0 2.22 43 07:39 28.02.2020
1855 Clouds 6 1018 92 0 2.22 43 07:19 28.02.2020
1856 Clouds 6 1018 92 0 2.22 43 06:41 28.02.2020
1857 Clouds 6 1018 92 0 2.22 43 05:50 28.02.2020
1858 Clouds 7 1018 89 0 2.29 20 04:34 28.02.2020
1859 Clouds 7 1018 89 0 2.29 20 03:48 28.02.2020
1860 Clouds 7 1018 89 0 2.29 20 02:45 28.02.2020
1861 Clouds 7 1018 89 0 2.29 20 02:25 28.02.2020
1862 Rain 8 1014 80 0 3.22 38 00:46 28.02.2020
1863 Rain 8 1014 80 0 3.22 38 00:25 28.02.2020
1864 Rain 8 1014 80 0 3.22 38 23:42 27.02.2020
1865 Rain 11 1010 70 0 3.35 56 23:19 27.02.2020
1866 Rain 11 1010 70 0 3.35 56 22:43 27.02.2020
1867 Rain 11 1010 70 0 3.35 56 22:25 27.02.2020
1868 Rain 11 1010 70 0 3.35 56 21:57 27.02.2020
1869 Rain 11 1010 70 0 3.35 56 21:39 27.02.2020
1870 Rain 11 1010 70 0 3.35 56 21:19 27.02.2020
1871 Rain 11 1010 70 0 3.35 56 20:56 27.02.2020
1872 Rain 11 1010 70 0 3.35 56 20:38 27.02.2020
1873 Rain 12 1012 58 0 3.19 63 20:19 27.02.2020
1874 Rain 12 1013 60 0 3.13 57 19:42 27.02.2020
1875 Rain 12 1013 60 0 3.13 57 19:24 27.02.2020
1876 Rain 12 1013 60 0 3.13 57 18:58 27.02.2020
1877 Rain 12 1013 60 0 3.13 57 18:40 27.02.2020
1878 Rain 12 1013 60 0 3.13 57 18:21 27.02.2020
1879 Rain 12 1013 60 0 3.13 57 17:57 27.02.2020
1880 Rain 12 1013 60 0 3.13 57 17:38 27.02.2020
1881 Clouds 11 1017 60 0 2.66 33 17:19 27.02.2020
1882 Clouds 11 1017 60 0 2.66 33 16:55 27.02.2020
1883 Clouds 11 1017 60 0 2.66 33 16:37 27.02.2020
1884 Clouds 11 1017 60 0 2.66 33 16:18 27.02.2020
1885 Clouds 11 1017 60 0 2.66 33 15:54 27.02.2020
1886 Clouds 11 1017 60 0 2.66 33 15:36 27.02.2020
1887 Clouds 11 1017 60 0 2.66 33 15:18 27.02.2020
1888 Clouds 11 1017 60 0 2.66 33 14:40 27.02.2020
1889 Clouds 11 1017 60 0 2.66 33 14:22 27.02.2020
1890 Clouds 7 1019 78 0 1.67 24 13:56 27.02.2020
1891 Clouds 7 1019 78 0 1.67 24 13:37 27.02.2020
1892 Clouds 6 1019 81 0 1.27 16 13:19 27.02.2020
1893 Clouds 6 1019 81 0 1.27 16 12:45 27.02.2020
1894 Clouds 6 1019 81 0 1.27 16 12:22 27.02.2020
1895 Clouds 6 1019 81 0 1.27 16 11:47 27.02.2020
1896 Clouds 6 1019 81 0 1.27 16 11:23 27.02.2020
1897 Clouds 5 1018 92 0 1.56 34 10:58 27.02.2020
1898 Clouds 5 1018 92 0 1.56 34 10:40 27.02.2020
1899 Clouds 5 1018 92 0 1.56 34 10:20 27.02.2020
1900 Clouds 5 1018 92 0 1.56 34 09:42 27.02.2020
1901 Clouds 5 1018 92 0 1.56 34 09:23 27.02.2020
1902 Clouds 5 1018 92 0 1.56 34 08:55 27.02.2020
1903 Clouds 5 1018 92 0 1.56 34 08:37 27.02.2020
1904 Clouds 6 1019 90 0 2.05 64 08:18 27.02.2020
1905 Clouds 6 1019 90 0 2.05 64 07:41 27.02.2020
1906 Clouds 6 1019 90 0 2.05 64 07:20 27.02.2020
1907 Clouds 6 1019 90 0 2.05 64 06:23 27.02.2020
1908 Clouds 6 1021 87 0 1.64 29 05:19 27.02.2020
1909 Clouds 6 1021 87 0 1.64 29 02:58 27.02.2020
1910 Rain 6 1017 89 0 2.95 39 01:34 27.02.2020
1911 Rain 6 1017 88 0 2.28 76 00:41 27.02.2020
1912 Rain 6 1017 88 0 2.28 76 23:56 26.02.2020
1913 Rain 6 1017 88 0 2.28 76 23:37 26.02.2020
1914 Rain 8 1013 81 0 4.69 56 23:18 26.02.2020
1915 Rain 8 1013 81 0 4.69 56 23:18 26.02.2020
1916 Rain 8 1013 81 0 4.69 56 22:55 26.02.2020
1917 Rain 8 1013 81 0 4.69 56 22:37 26.02.2020
1918 Rain 8 1013 81 0 4.69 56 22:18 26.02.2020
1919 Rain 8 1013 81 0 4.69 56 21:39 26.02.2020
1920 Rain 8 1013 81 0 4.69 56 21:20 26.02.2020
1921 Rain 8 1013 81 0 4.69 56 20:56 26.02.2020
1922 Rain 8 1013 81 0 4.69 56 20:38 26.02.2020
1923 Rain 11 1014 69 0 4.39 52 20:19 26.02.2020
1924 Rain 11 1015 70 0 4.32 51 19:56 26.02.2020
1925 Rain 11 1015 70 0 4.32 51 19:37 26.02.2020
1926 Rain 11 1015 70 0 4.32 51 19:19 26.02.2020
1927 Rain 11 1015 70 0 4.32 51 18:57 26.02.2020
1928 Rain 11 1015 70 0 4.32 51 18:37 26.02.2020
1929 Rain 11 1015 70 0 4.32 51 18:19 26.02.2020
1930 Rain 11 1015 70 0 4.32 51 17:41 26.02.2020
1931 Rain 11 1015 70 0 4.32 51 17:41 26.02.2020
1932 Rain 11 1017 61 0 3.29 29 17:20 26.02.2020
1933 Rain 11 1017 61 0 3.29 29 17:20 26.02.2020
1934 Rain 11 1017 61 0 3.29 29 16:57 26.02.2020
1935 Rain 11 1017 61 0 3.29 29 16:38 26.02.2020
1936 Rain 11 1017 61 0 3.29 29 16:20 26.02.2020
1937 Rain 11 1017 61 0 3.29 29 15:45 26.02.2020
1938 Rain 11 1017 61 0 3.29 29 15:27 26.02.2020
1939 Rain 11 1017 61 0 3.29 29 14:55 26.02.2020
1940 Rain 11 1017 61 0 3.29 29 14:37 26.02.2020
1941 Clouds 7 1018 80 0 0.77 65 14:18 26.02.2020
1942 Clouds 7 1018 80 0 0.77 65 13:41 26.02.2020
1943 Clouds 7 1018 80 0 1.37 75 13:19 26.02.2020
1944 Clouds 7 1018 80 0 1.37 75 12:39 26.02.2020
1945 Clouds 7 1018 80 0 1.37 75 12:19 26.02.2020
1946 Clouds 7 1018 80 0 1.37 75 11:56 26.02.2020
1947 Clouds 7 1018 80 0 1.37 75 11:38 26.02.2020
1948 Clouds 5 1016 94 0 0.63 79 11:20 26.02.2020
1949 Clouds 5 1016 94 0 0.63 79 10:41 26.02.2020
1950 Clouds 5 1016 94 0 0.63 79 10:41 26.02.2020
1951 Clouds 5 1016 94 0 0.63 79 10:22 26.02.2020
1952 Clouds 5 1016 94 0 0.63 79 09:57 26.02.2020
1953 Clouds 5 1016 94 0 0.63 79 09:39 26.02.2020
1954 Clouds 5 1016 94 0 0.63 79 09:19 26.02.2020
1955 Clouds 5 1016 94 0 0.63 79 08:39 26.02.2020
1956 Rain 6 1016 89 0 1.79 37 08:19 26.02.2020
1957 Rain 6 1016 89 0 1.79 37 07:50 26.02.2020
1958 Rain 6 1016 89 0 1.79 37 07:29 26.02.2020
1959 Rain 6 1016 89 0 1.79 37 06:57 26.02.2020
1960 Rain 6 1016 89 0 1.79 37 06:39 26.02.2020
1961 Rain 6 1016 89 0 1.79 37 06:18 26.02.2020
1962 Rain 6 1016 89 0 1.79 37 05:47 26.02.2020
1963 Rain 6 1016 92 0 1.26 40 04:49 26.02.2020
1964 Rain 6 1016 92 0 1.26 40 02:55 26.02.2020
1965 Rain 6 1012 91 0 1.91 53 01:51 26.02.2020
1966 Rain 6 1012 93 0 2.68 49 01:21 26.02.2020
1967 Rain 6 1012 93 0 2.68 49 00:28 26.02.2020
1968 Rain 6 1012 93 0 2.68 49 00:28 26.02.2020
1969 Rain 6 1012 93 0 2.68 49 23:59 25.02.2020
1970 Rain 6 1012 93 0 2.68 49 23:39 25.02.2020
1971 Rain 6 1012 93 0 2.68 49 23:21 25.02.2020
1972 Rain 10 1005 73 0 3.87 51 22:43 25.02.2020
1973 Rain 10 1005 73 0 3.87 51 22:20 25.02.2020
1974 Rain 10 1005 73 0 3.87 51 21:58 25.02.2020
1975 Rain 10 1005 73 0 3.87 51 21:37 25.02.2020
1976 Rain 10 1005 73 0 3.87 51 21:19 25.02.2020
1977 Rain 10 1005 73 0 3.87 51 20:56 25.02.2020
1978 Rain 10 1005 73 0 3.87 51 20:37 25.02.2020
1979 Rain 10 1005 73 0 3.87 51 20:37 25.02.2020
1980 Rain 15 1006 42 0 0.73 80 20:19 25.02.2020
1981 Rain 15 1006 42 0 0.73 80 19:43 25.02.2020
1982 Rain 15 1006 42 0 0.73 80 19:22 25.02.2020
1983 Rain 15 1006 42 0 0.73 80 18:59 25.02.2020
1984 Rain 15 1006 42 0 0.73 80 18:39 25.02.2020
1985 Rain 15 1006 42 0 0.73 80 18:20 25.02.2020
1986 Rain 15 1006 42 0 0.73 80 17:55 25.02.2020
1987 Rain 15 1006 42 0 0.73 80 17:36 25.02.2020
1988 Rain 13 1011 50 0 1.83 26 17:18 25.02.2020
1989 Rain 13 1011 50 0 1.83 26 16:55 25.02.2020
1990 Rain 13 1011 50 0 1.83 26 16:36 25.02.2020
1991 Rain 13 1011 50 0 1.83 26 16:18 25.02.2020
1992 Rain 13 1011 50 0 1.83 26 15:44 25.02.2020
1993 Rain 13 1011 50 0 1.83 26 15:20 25.02.2020
1994 Rain 13 1011 50 0 1.83 26 14:59 25.02.2020
1995 Rain 13 1011 50 0 1.83 26 14:39 25.02.2020
1996 Rain 10 1013 62 0 0.56 262 14:18 25.02.2020
1997 Rain 10 1013 62 0 0.56 262 13:58 25.02.2020
1998 Rain 10 1013 62 0 0.56 262 13:39 25.02.2020
1999 Rain 10 1013 61 0 0.43 261 13:20 25.02.2020
2000 Rain 10 1013 61 0 0.43 261 12:56 25.02.2020
2001 Rain 10 1013 61 0 0.43 261 12:37 25.02.2020
2002 Rain 10 1013 61 0 0.43 261 12:19 25.02.2020
2003 Rain 10 1013 61 0 0.43 261 11:55 25.02.2020
2004 Rain 10 1013 61 0 0.43 261 11:37 25.02.2020
2005 Rain 8 1011 81 0 0.44 207 11:18 25.02.2020
2006 Rain 8 1011 81 0 0.44 207 10:41 25.02.2020
2007 Rain 8 1011 81 0 0.44 207 10:23 25.02.2020
2008 Rain 8 1011 81 0 0.44 207 09:42 25.02.2020
2009 Rain 8 1011 81 0 0.44 207 09:23 25.02.2020
2010 Rain 8 1011 81 0 0.44 207 08:58 25.02.2020
2011 Rain 8 1011 81 0 0.44 207 08:39 25.02.2020
2012 Clouds 8 1011 81 0 0.27 237 08:21 25.02.2020
2013 Clouds 9 1011 78 0 1.07 310 07:48 25.02.2020
2014 Clouds 9 1011 78 0 1.07 310 07:21 25.02.2020
2015 Clouds 9 1011 78 0 1.07 310 06:53 25.02.2020
2016 Clouds 9 1011 78 0 1.07 310 05:44 25.02.2020
2017 Clouds 9 1011 69 0 0.9 241 03:54 25.02.2020
2018 Clouds 9 1011 69 0 0.9 241 02:32 25.02.2020
2019 Rain 7 1008 81 0 4.35 249 00:57 25.02.2020
2020 Rain 7 1008 81 0 4.35 249 00:31 25.02.2020
2021 Rain 7 1008 81 0 4.35 249 23:47 24.02.2020
2022 Rain 7 1008 81 0 4.35 249 23:28 24.02.2020
2023 Rain 8 1004 88 0 4.3 79 22:56 24.02.2020
2024 Rain 8 1004 88 0 4.3 79 22:37 24.02.2020
2025 Rain 8 1004 88 0 4.3 79 22:18 24.02.2020
2026 Rain 8 1004 88 0 4.3 79 21:54 24.02.2020
2027 Rain 8 1004 88 0 4.3 79 21:36 24.02.2020
2028 Rain 8 1004 88 0 4.3 79 21:18 24.02.2020
2029 Rain 8 1004 88 0 4.3 79 20:41 24.02.2020
2030 Rain 14 1006 49 0 0.89 215 20:20 24.02.2020
2031 Rain 14 1006 49 0 0.89 215 19:59 24.02.2020
2032 Rain 14 1006 49 0 0.89 215 19:41 24.02.2020
2033 Rain 14 1006 49 0 0.89 215 19:22 24.02.2020
2034 Rain 14 1006 49 0 0.89 215 18:58 24.02.2020
2035 Rain 14 1006 49 0 0.89 215 18:40 24.02.2020
2036 Rain 14 1006 49 0 0.89 215 18:21 24.02.2020
2037 Rain 14 1006 49 0 0.89 215 17:54 24.02.2020
2038 Rain 14 1006 49 0 0.89 215 17:36 24.02.2020
2039 Rain 13 1010 52 0 0.65 63 17:18 24.02.2020
2040 -273 0 0 0 0 0 16:54 24.02.2020
2041 Rain 13 1010 52 0 0.65 63 16:36 24.02.2020
2042 Rain 13 1010 52 0 0.65 63 16:18 24.02.2020
2043 Rain 13 1010 52 0 0.65 63 15:54 24.02.2020
2044 Rain 13 1010 52 0 0.65 63 15:36 24.02.2020
2045 Rain 13 1010 52 0 0.65 63 15:18 24.02.2020
2046 Rain 13 1010 52 0 0.65 63 14:40 24.02.2020
2047 Rain 10 1014 69 0 1.7 193 14:19 24.02.2020
2048 Rain 10 1014 69 0 1.7 193 13:57 24.02.2020
2049 Rain 10 1014 69 0 1.7 193 13:57 24.02.2020
2050 Rain 10 1014 69 0 1.7 193 13:38 24.02.2020
2051 Rain 10 1014 70 0 1.15 206 13:20 24.02.2020
2052 Rain 10 1014 70 0 1.15 206 12:57 24.02.2020
2053 Rain 10 1014 70 0 1.15 206 12:38 24.02.2020
2054 Rain 10 1014 70 0 1.15 206 12:19 24.02.2020
2055 Rain 10 1014 70 0 1.15 206 11:45 24.02.2020
2056 Rain 10 1014 70 0 1.15 206 11:26 24.02.2020
2057 Rain 8 1012 82 0 0.64 82 10:45 24.02.2020
2058 Rain 8 1012 82 0 0.64 82 10:27 24.02.2020
2059 Rain 8 1012 82 0 0.64 82 09:54 24.02.2020
2060 Rain 8 1012 82 0 0.64 82 09:36 24.02.2020
2061 Rain 8 1012 82 0 0.64 82 09:18 24.02.2020
2062 Rain 8 1012 82 0 0.64 82 08:46 24.02.2020
2063 Rain 8 1012 82 0 0.64 82 08:27 24.02.2020
2064 Rain 8 1014 82 0 1.38 34 07:46 24.02.2020
2065 Rain 8 1014 82 0 1.38 34 07:27 24.02.2020
2066 Rain 8 1014 82 0 1.38 34 06:37 24.02.2020
2067 Rain 8 1014 82 0 1.38 34 06:18 24.02.2020
2068 Rain 8 1014 82 0 1.38 34 05:30 24.02.2020
2069 Rain 8 1015 79 0 1.97 19 04:42 24.02.2020
2070 Rain 8 1015 79 0 1.97 19 02:56 24.02.2020
2071 Rain 8 1011 78 0 1.55 158 01:47 24.02.2020
2072 Rain 8 1011 71 0 2.88 208 01:18 24.02.2020
2073 Rain 8 1011 71 0 2.88 208 00:36 24.02.2020
2074 Rain 8 1011 71 0 2.88 208 00:18 24.02.2020
2075 Rain 8 1011 71 0 2.88 208 23:42 23.02.2020
2076 Rain 13 1007 52 0 2.63 96 23:20 23.02.2020
2077 Rain 13 1007 52 0 2.63 96 22:57 23.02.2020
2078 Rain 13 1007 52 0 2.63 96 22:39 23.02.2020
2079 Rain 13 1007 52 0 2.63 96 22:19 23.02.2020
2080 Rain 13 1007 52 0 2.63 96 21:46 23.02.2020
2081 Rain 13 1007 52 0 2.63 96 21:46 23.02.2020
2082 Rain 13 1007 52 0 2.63 96 21:20 23.02.2020
2083 Rain 13 1007 52 0 2.63 96 21:20 23.02.2020
2084 Rain 13 1007 52 0 2.63 96 20:57 23.02.2020
2085 Rain 13 1007 52 0 2.63 96 20:57 23.02.2020
2086 Rain 13 1007 52 0 2.63 96 20:57 23.02.2020
2087 Rain 13 1007 52 0 2.63 96 20:57 23.02.2020
2088 Rain 13 1007 52 0 2.63 96 20:39 23.02.2020
2089 Rain 15 1009 44 0 1.42 61 20:20 23.02.2020
2090 Rain 15 1010 41 0 1.98 55 19:58 23.02.2020
2091 Rain 15 1010 41 0 1.98 55 19:39 23.02.2020
2092 Rain 15 1010 41 0 1.98 55 19:19 23.02.2020
2093 Rain 15 1010 41 0 1.98 55 18:57 23.02.2020
2094 Rain 15 1010 41 0 1.98 55 18:37 23.02.2020
2095 Rain 15 1010 41 0 1.98 55 18:18 23.02.2020
2096 Rain 15 1010 41 0 1.98 55 17:57 23.02.2020
2097 Rain 15 1010 41 0 1.98 55 17:38 23.02.2020
2098 Clear 12 1014 52 0 1.91 53 17:19 23.02.2020
2099 Clear 12 1014 52 0 1.91 53 16:46 23.02.2020
2100 Clear 12 1014 52 0 1.91 53 16:27 23.02.2020
2101 Clear 12 1014 52 0 1.91 53 15:59 23.02.2020
2102 Clear 12 1014 52 0 1.91 53 15:39 23.02.2020
2103 Clear 12 1014 52 0 1.91 53 15:20 23.02.2020
2104 Clear 12 1014 52 0 1.91 53 14:58 23.02.2020
2105 Clear 12 1014 52 0 1.91 53 14:58 23.02.2020
2106 Clear 12 1014 52 0 1.91 53 14:40 23.02.2020
2107 Clear 12 1014 52 0 1.91 53 14:21 23.02.2020
2108 Clouds 7 1018 73 0 1.57 349 13:57 23.02.2020
2109 Clouds 7 1018 73 0 1.57 349 13:38 23.02.2020
2110 Clouds 7 1018 72 0 1.65 333 13:20 23.02.2020
2111 Clouds 7 1018 72 0 1.65 333 13:20 23.02.2020
2112 Clouds 7 1018 72 0 1.65 333 12:42 23.02.2020
2113 Clouds 7 1018 72 0 1.65 333 12:22 23.02.2020
2114 Clouds 7 1018 72 0 1.65 333 11:57 23.02.2020
2115 Clouds 7 1018 72 0 1.65 333 11:37 23.02.2020
2116 Clouds 6 1017 84 0 1.71 20 11:18 23.02.2020
2117 Clouds 6 1017 84 0 1.71 20 10:54 23.02.2020
2118 Clouds 6 1017 84 0 1.71 20 10:36 23.02.2020
2119 Clouds 6 1017 84 0 1.71 20 10:18 23.02.2020
2120 Clouds 6 1017 84 0 1.71 20 09:40 23.02.2020
2121 -273 0 0 0 0 0 09:21 23.02.2020
2122 Clouds 6 1017 84 0 1.71 20 08:56 23.02.2020
2123 Clouds 6 1017 84 0 1.71 20 08:36 23.02.2020
2124 Clouds 5 1019 90 0 2.3 37 08:18 23.02.2020
2125 Clouds 5 1019 90 0 2.3 37 08:18 23.02.2020
2126 Clouds 5 1019 90 0 2.3 37 07:40 23.02.2020
2127 Clouds 5 1019 90 0 2.3 37 06:52 23.02.2020
2128 Clouds 5 1019 90 0 2.3 37 05:50 23.02.2020
2129 Clouds 6 1019 89 0 2.12 57 04:42 23.02.2020
2130 Clouds 6 1019 89 0 2.12 57 04:42 23.02.2020
2131 Clouds 6 1019 89 0 2.12 57 03:21 23.02.2020
2132 Clouds 6 1019 89 0 2.12 57 02:27 23.02.2020
2133 Rain 7 1015 82 0 4.04 45 01:25 23.02.2020
2134 Rain 8 1015 82 0 3.58 48 00:48 23.02.2020
2135 Rain 8 1015 82 0 3.58 48 00:26 23.02.2020
2136 Rain 8 1015 82 0 3.58 48 23:47 22.02.2020
2137 Rain 8 1015 82 0 3.58 48 23:29 22.02.2020
2138 Rain 11 1012 66 0 4.35 53 22:59 22.02.2020
2139 Rain 11 1012 66 0 4.35 53 22:39 22.02.2020
2140 Rain 11 1012 66 0 4.35 53 22:18 22.02.2020
2141 Rain 11 1012 66 0 4.35 53 21:41 22.02.2020
2142 Rain 11 1012 66 0 4.35 53 21:23 22.02.2020
2143 Rain 11 1012 66 0 4.35 53 20:46 22.02.2020
2144 Rain 11 1012 66 0 4.35 53 20:25 22.02.2020
2145 Rain 11 1015 68 0 4.2 59 19:59 22.02.2020
2146 Rain 11 1015 68 0 4.2 59 19:41 22.02.2020
2147 Rain 11 1015 68 0 4.2 59 19:21 22.02.2020
2148 Rain 11 1015 68 0 4.2 59 18:40 22.02.2020
2149 Rain 11 1015 68 0 4.2 59 18:22 22.02.2020
2150 Rain 11 1015 68 0 4.2 59 17:58 22.02.2020
2151 Rain 11 1015 68 0 4.2 59 17:40 22.02.2020
2152 Rain 11 1015 68 0 4.2 59 17:21 22.02.2020
2153 Rain 9 1021 68 0 3.08 67 16:58 22.02.2020
2154 Rain 9 1021 68 0 3.08 67 16:39 22.02.2020
2155 Rain 9 1021 68 0 3.08 67 16:20 22.02.2020
2156 Rain 9 1021 68 0 3.08 67 15:45 22.02.2020
2157 Rain 9 1021 68 0 3.08 67 15:26 22.02.2020
2158 Rain 9 1021 68 0 3.08 67 14:56 22.02.2020
2159 Rain 9 1021 68 0 3.08 67 14:38 22.02.2020
2160 Rain 6 1022 85 0 1.78 60 14:19 22.02.2020
2161 Rain 6 1022 85 0 1.78 60 13:41 22.02.2020
2162 Rain 6 1022 85 0 1.78 60 13:19 22.02.2020
2163 Rain 6 1022 81 0 2.24 65 12:47 22.02.2020
2164 Rain 6 1022 81 0 2.24 65 12:24 22.02.2020
2165 Rain 6 1022 81 0 2.24 65 11:56 22.02.2020
2166 Rain 6 1022 81 0 2.24 65 11:37 22.02.2020
2167 Rain 5 1020 87 0 0.87 129 11:18 22.02.2020
2168 Rain 5 1020 87 0 0.87 129 10:41 22.02.2020
2169 Rain 5 1020 87 0 0.87 129 10:20 22.02.2020
2170 Rain 5 1020 87 0 0.87 129 09:59 22.02.2020
2171 Rain 5 1020 87 0 0.87 129 09:39 22.02.2020
2172 Rain 5 1020 87 0 0.87 129 09:21 22.02.2020
2173 Rain 5 1020 87 0 0.87 129 08:51 22.02.2020
2174 Rain 5 1020 87 0 0.87 129 08:28 22.02.2020
2175 Rain 5 1021 94 0 2.24 47 07:54 22.02.2020
2176 Rain 5 1021 94 0 2.24 47 07:20 22.02.2020
2177 Rain 5 1021 94 0 2.24 47 06:53 22.02.2020
2178 Rain 5 1021 94 0 2.24 47 06:34 22.02.2020
2179 Rain 6 1021 87 0 4.3 42 04:44 22.02.2020
2180 Rain 6 1021 87 0 4.3 42 03:47 22.02.2020
2181 Rain 6 1021 87 0 4.3 42 02:34 22.02.2020
2182 Rain 7 1017 85 0 3.59 56 01:47 22.02.2020
2183 Rain 7 1017 85 0 3.59 56 01:28 22.02.2020
2184 Rain 8 1017 86 0 4.16 55 00:46 22.02.2020
2185 Rain 8 1017 86 0 4.16 55 00:28 22.02.2020
2186 Rain 8 1017 86 0 4.16 55 23:53 21.02.2020
2187 Rain 8 1017 86 0 4.16 55 23:25 21.02.2020
2188 Rain 10 1013 74 0 4.14 83 22:59 21.02.2020
2189 Rain 10 1013 74 0 4.14 83 22:40 21.02.2020
2190 Rain 10 1013 74 0 4.14 83 22:21 21.02.2020
2191 Rain 10 1013 74 0 4.14 83 21:42 21.02.2020
2192 Rain 10 1013 74 0 4.14 83 21:24 21.02.2020
2193 Rain 10 1013 74 0 4.14 83 20:58 21.02.2020
2194 Rain 10 1013 74 0 4.14 83 20:38 21.02.2020
2195 Rain 11 1015 61 0 4.11 59 20:19 21.02.2020
2196 Rain 11 1015 61 0 4.11 59 19:39 21.02.2020
2197 Rain 11 1015 61 0 4.11 59 19:19 21.02.2020
2198 Rain 11 1015 61 0 4.11 59 18:43 21.02.2020
2199 Rain 11 1015 61 0 4.11 59 18:23 21.02.2020
2200 Rain 11 1015 61 0 4.11 59 17:57 21.02.2020
2201 Rain 11 1015 61 0 4.11 59 17:37 21.02.2020
2202 Rain 8 1020 77 0 4.2 73 17:19 21.02.2020
2203 Rain 8 1020 77 0 4.2 73 16:54 21.02.2020
2204 Rain 8 1020 77 0 4.2 73 16:36 21.02.2020
2205 Rain 8 1020 77 0 4.2 73 16:18 21.02.2020
2206 Rain 8 1020 77 0 4.2 73 15:39 21.02.2020
2207 Rain 8 1020 77 0 4.2 73 15:19 21.02.2020
2208 Rain 8 1020 77 0 4.2 73 14:43 21.02.2020
2209 Rain 8 1020 77 0 4.2 73 14:22 21.02.2020
2210 Rain 5 1021 90 0 1.26 55 13:59 21.02.2020
2211 Rain 5 1021 90 0 1.26 55 13:40 21.02.2020
2212 Rain 5 1021 90 0 1.57 54 13:21 21.02.2020
2213 Rain 5 1021 90 0 1.57 54 12:46 21.02.2020
2214 Rain 5 1021 90 0 1.57 54 12:27 21.02.2020
2215 Rain 5 1021 90 0 1.57 54 11:58 21.02.2020
2216 Rain 5 1021 90 0 1.57 54 11:38 21.02.2020
2217 Rain 5 1020 94 0 1.37 73 11:20 21.02.2020
2218 Rain 5 1020 94 0 1.37 73 10:42 21.02.2020
2219 Rain 5 1020 94 0 1.37 73 10:23 21.02.2020
2220 Rain 5 1020 94 0 1.37 73 09:58 21.02.2020
2221 Rain 5 1020 94 0 1.37 73 09:40 21.02.2020
2222 Rain 5 1020 94 0 1.37 73 09:22 21.02.2020
2223 Rain 5 1020 94 0 1.37 73 08:56 21.02.2020
2224 Rain 5 1020 94 0 1.37 73 08:37 21.02.2020
2225 Clouds 5 1020 92 0 1.25 68 08:18 21.02.2020
2226 Clouds 5 1020 92 0 1.25 68 07:43 21.02.2020
2227 Clouds 5 1020 92 0 1.25 68 07:22 21.02.2020
2228 Clouds 5 1020 92 0 1.25 68 06:57 21.02.2020
2229 Clouds 5 1020 92 0 1.25 68 06:33 21.02.2020
2230 Clouds 5 1020 92 0 1.25 68 05:58 21.02.2020
2231 Clouds 5 1020 92 0 1.25 68 05:35 21.02.2020
2232 Clouds 5 1021 88 0 1.62 81 04:26 21.02.2020
2233 Clouds 5 1021 88 0 1.62 81 03:52 21.02.2020
2234 Clouds 5 1021 88 0 1.62 81 02:59 21.02.2020
2235 Rain 5 1020 95 0 2.32 60 01:45 21.02.2020
2236 Rain 5 1020 95 0 2.32 60 01:23 21.02.2020
2237 Rain 4 1020 93 0 1.87 105 00:40 21.02.2020
2238 Rain 4 1020 93 0 1.87 105 00:20 21.02.2020
2239 Rain 4 1020 93 0 1.87 105 23:43 20.02.2020
2240 Rain 4 1020 93 0 1.87 105 23:22 20.02.2020
2241 Rain 5 1018 92 0 4.64 81 22:55 20.02.2020
2242 Rain 5 1018 92 0 4.64 81 22:37 20.02.2020
2243 Rain 5 1018 92 0 4.64 81 22:18 20.02.2020
2244 Rain 5 1018 92 0 4.64 81 21:54 20.02.2020
2245 Rain 5 1018 92 0 4.64 81 21:36 20.02.2020
2246 Rain 5 1018 92 0 4.64 81 21:18 20.02.2020
2247 Rain 5 1018 92 0 4.64 81 20:54 20.02.2020
2248 Rain 5 1018 92 0 4.64 81 20:36 20.02.2020
2249 Rain 4 1018 91 0 1.45 226 20:18 20.02.2020
2250 Rain 5 1018 88 0 0.99 199 19:41 20.02.2020
2251 Rain 5 1018 88 0 0.99 199 19:23 20.02.2020
2252 Rain 5 1018 88 0 0.99 199 18:58 20.02.2020
2253 Rain 5 1018 88 0 0.99 199 18:37 20.02.2020
2254 Rain 5 1018 88 0 0.99 199 18:19 20.02.2020
2255 Rain 5 1018 88 0 0.99 199 17:40 20.02.2020
2256 Rain 5 1018 88 0 0.99 199 17:22 20.02.2020
2257 Rain 5 1019 95 0 4.62 82 16:58 20.02.2020
2258 Rain 5 1019 95 0 4.62 82 16:39 20.02.2020
2259 Rain 5 1019 95 0 4.62 82 16:19 20.02.2020
2260 Rain 5 1019 95 0 4.62 82 15:57 20.02.2020
2261 Rain 5 1019 95 0 4.62 82 15:39 20.02.2020
2262 Rain 5 1019 95 0 4.62 82 15:20 20.02.2020
2263 Rain 5 1019 95 0 4.62 82 14:54 20.02.2020
2264 Rain 5 1019 95 0 4.62 82 14:36 20.02.2020
2265 Rain 6 1016 88 0 2.27 76 14:18 20.02.2020
2266 Rain 6 1016 88 0 2.27 76 13:42 20.02.2020
2267 Rain 6 1016 88 0 2.27 76 13:19 20.02.2020
2268 Rain 5 1017 88 0 1.52 45 12:43 20.02.2020
2269 Rain 5 1017 88 0 1.52 45 12:22 20.02.2020
2270 Rain 5 1017 88 0 1.52 45 11:59 20.02.2020
2271 Rain 5 1017 88 0 1.52 45 11:41 20.02.2020
2272 Rain 5 1017 88 0 1.52 45 11:41 20.02.2020
2273 Rain 5 1017 88 0 1.52 45 11:22 20.02.2020
2274 Rain 5 1014 89 0 1.77 155 10:57 20.02.2020
2275 Rain 5 1014 89 0 1.77 155 10:38 20.02.2020
2276 Rain 5 1014 89 0 1.77 155 10:20 20.02.2020
2277 Rain 5 1014 89 0 1.77 155 09:45 20.02.2020
2278 Rain 5 1014 89 0 1.77 155 09:25 20.02.2020
2279 Rain 5 1014 89 0 1.77 155 08:57 20.02.2020
2280 Rain 5 1014 89 0 1.77 155 08:38 20.02.2020
2281 Rain 8 1013 80 0 3.12 179 08:20 20.02.2020
2282 Rain 9 1013 75 0 2.41 136 07:45 20.02.2020
2283 Rain 9 1013 75 0 2.41 136 07:21 20.02.2020
2284 Rain 9 1013 75 0 2.41 136 06:52 20.02.2020
2285 Rain 9 1013 75 0 2.41 136 06:26 20.02.2020
2286 Rain 9 1013 75 0 2.41 136 05:45 20.02.2020
2287 Rain 10 1014 74 0 1.41 176 04:51 20.02.2020
2288 Rain 10 1014 74 0 1.41 176 03:58 20.02.2020
2289 Rain 10 1014 74 0 1.41 176 03:28 20.02.2020
2290 Rain 10 1014 74 0 1.41 176 02:25 20.02.2020
2291 Rain 12 1010 65 0 1.24 4 00:59 20.02.2020
2292 Rain 12 1010 65 0 1.24 4 00:32 20.02.2020
2293 Rain 12 1010 65 0 1.24 4 23:49 19.02.2020
2294 Rain 12 1010 65 0 1.24 4 23:22 19.02.2020
2295 Rain 15 1007 43 0 0.45 57 22:47 19.02.2020
2296 Rain 15 1007 43 0 0.45 57 22:28 19.02.2020
2297 Rain 15 1007 43 0 0.45 57 21:59 19.02.2020
2298 Rain 15 1007 43 0 0.45 57 21:41 19.02.2020
2299 Rain 15 1007 43 0 0.45 57 21:19 19.02.2020
2300 Rain 15 1007 43 0 0.45 57 20:58 19.02.2020
2301 Rain 15 1007 43 0 0.45 57 20:39 19.02.2020
2302 Rain 15 1010 40 0 2.56 324 20:20 19.02.2020
2303 Rain 16 1010 36 0 2.43 340 19:59 19.02.2020
2304 Rain 16 1010 36 0 2.43 340 19:39 19.02.2020
2305 Rain 16 1010 36 0 2.43 340 19:21 19.02.2020
2306 Rain 16 1010 36 0 2.43 340 18:59 19.02.2020
2307 Rain 16 1010 36 0 2.43 340 18:40 19.02.2020
2308 Rain 16 1010 36 0 2.43 340 18:22 19.02.2020
2309 Rain 16 1010 36 0 2.43 340 17:59 19.02.2020
2310 Rain 16 1010 36 0 2.43 340 17:41 19.02.2020
2311 Clouds 12 1016 52 0 2.49 346 17:19 19.02.2020
2312 Clouds 12 1016 52 0 2.49 346 16:43 19.02.2020
2313 Clouds 12 1016 52 0 2.49 346 16:19 19.02.2020
2314 Clouds 12 1016 52 0 2.49 346 15:57 19.02.2020
2315 Clouds 12 1016 52 0 2.49 346 15:38 19.02.2020
2316 Clouds 12 1016 52 0 2.49 346 15:20 19.02.2020
2317 Clouds 12 1016 52 0 2.49 346 14:41 19.02.2020
2318 Clouds 12 1016 52 0 2.49 346 14:23 19.02.2020
2319 Clouds 7 1018 78 0 1.16 286 13:59 19.02.2020
2320 Clouds 7 1018 78 0 1.16 286 13:39 19.02.2020
2321 Clouds 7 1019 82 0 0.53 61 13:19 19.02.2020
2322 Clouds 7 1019 82 0 0.53 61 12:40 19.02.2020
2323 Clouds 7 1019 82 0 0.53 61 12:19 19.02.2020
2324 Clouds 7 1019 82 0 0.53 61 11:58 19.02.2020
2325 Clouds 7 1019 82 0 0.53 61 11:37 19.02.2020
2326 Clouds 6 1017 91 0 0.97 14 11:19 19.02.2020
2327 Clouds 6 1017 91 0 0.97 14 10:56 19.02.2020
2328 Clouds 6 1017 91 0 0.97 14 10:37 19.02.2020
2329 Clouds 6 1017 91 0 0.97 14 10:19 19.02.2020
2330 Clouds 6 1017 91 0 0.97 14 09:56 19.02.2020
2331 Clouds 6 1017 91 0 0.97 14 09:37 19.02.2020
2332 Clouds 6 1017 91 0 0.97 14 09:18 19.02.2020
2333 Clouds 6 1017 91 0 0.97 14 08:42 19.02.2020
2334 Clouds 6 1017 91 0 0.97 14 08:23 19.02.2020
2335 Rain 7 1017 88 0 3.04 33 07:41 19.02.2020
2336 Rain 7 1017 88 0 3.04 33 07:20 19.02.2020
2337 Rain 7 1017 88 0 3.04 33 06:47 19.02.2020
2338 Rain 7 1017 88 0 3.04 33 06:19 19.02.2020
2339 Rain 8 1017 86 0 4.63 43 04:18 19.02.2020
2340 Rain 8 1017 86 0 4.63 43 02:54 19.02.2020
2341 Rain 8 1017 86 0 4.63 43 02:29 19.02.2020
2342 Rain 9 1013 78 0 2.95 83 01:23 19.02.2020
2343 Rain 9 1013 78 0 2.95 83 00:49 19.02.2020
2344 Rain 9 1013 78 0 2.95 83 00:29 19.02.2020
2345 Rain 9 1013 78 0 2.95 83 23:44 18.02.2020
2346 Rain 11 1009 67 0 3.1 58 23:21 18.02.2020
2347 Rain 11 1009 67 0 3.1 58 22:59 18.02.2020
2348 Rain 11 1009 67 0 3.1 58 22:41 18.02.2020
2349 Rain 11 1009 67 0 3.1 58 22:19 18.02.2020
2350 Rain 11 1009 67 0 3.1 58 21:56 18.02.2020
2351 Rain 11 1009 67 0 3.1 58 21:37 18.02.2020
2352 Rain 11 1009 67 0 3.1 58 21:19 18.02.2020
2353 Rain 11 1009 67 0 3.1 58 20:57 18.02.2020
2354 Rain 11 1009 67 0 3.1 58 20:38 18.02.2020
2355 Rain 11 1009 67 0 3.1 58 20:38 18.02.2020
2356 Rain 14 1011 55 0 3.75 52 20:20 18.02.2020
2357 Rain 14 1011 55 0 3.75 52 19:43 18.02.2020
2358 Rain 14 1011 55 0 3.75 52 19:20 18.02.2020
2359 Rain 14 1011 55 0 3.75 52 18:59 18.02.2020
2360 Rain 14 1011 55 0 3.75 52 18:41 18.02.2020
2361 Rain 14 1011 55 0 3.75 52 18:20 18.02.2020
2362 Rain 14 1011 55 0 3.75 52 18:20 18.02.2020
2363 Rain 14 1011 55 0 3.75 52 17:56 18.02.2020
2364 Rain 14 1011 55 0 3.75 52 17:37 18.02.2020
2365 Rain 9 1015 74 0 3.85 172 17:18 18.02.2020
2366 Rain 9 1015 74 0 3.85 172 16:39 18.02.2020
2367 Rain 9 1015 74 0 3.85 172 16:20 18.02.2020
2368 Rain 9 1015 74 0 3.85 172 15:41 18.02.2020
2369 Rain 9 1015 74 0 3.85 172 15:20 18.02.2020
2370 Rain 9 1015 74 0 3.85 172 14:58 18.02.2020
2371 Rain 9 1015 74 0 3.85 172 14:39 18.02.2020
2372 Rain 9 1017 72 0 1.06 64 14:20 18.02.2020
2373 Rain 9 1017 72 0 1.06 64 13:56 18.02.2020
2374 Rain 9 1017 72 0 1.06 64 13:37 18.02.2020
2375 Rain 9 1017 72 0 1.06 64 13:37 18.02.2020
2376 Rain 9 1017 72 0 1.06 64 13:19 18.02.2020
2377 Rain 7 1018 88 0 2.17 61 12:42 18.02.2020
2378 Rain 7 1018 88 0 2.17 61 12:23 18.02.2020
2379 Rain 7 1018 88 0 2.17 61 11:56 18.02.2020
2380 Rain 7 1018 88 0 2.17 61 11:37 18.02.2020
2381 Rain 8 1015 80 0 2.65 333 11:18 18.02.2020
2382 Rain 8 1015 80 0 2.65 333 10:42 18.02.2020
2383 Rain 8 1015 80 0 2.65 333 10:22 18.02.2020
2384 Rain 8 1015 80 0 2.65 333 09:56 18.02.2020
2385 Rain 8 1015 80 0 2.65 333 09:38 18.02.2020
2386 Rain 8 1015 80 0 2.65 333 09:19 18.02.2020
2387 Rain 8 1015 80 0 2.65 333 08:54 18.02.2020
2388 Rain 8 1015 80 0 2.65 333 08:36 18.02.2020
2389 Rain 8 1014 84 0 3.09 10 08:18 18.02.2020
2390 Rain 8 1014 84 0 3.09 10 07:42 18.02.2020
2391 Rain 8 1014 84 0 3.09 10 07:23 18.02.2020
2392 Rain 8 1014 84 0 3.09 10 06:48 18.02.2020
2393 Rain 8 1014 84 0 3.09 10 06:27 18.02.2020
2394 Rain 8 1014 84 0 3.09 10 05:47 18.02.2020
2395 Rain 9 1014 75 0 2.48 86 04:52 18.02.2020
2396 Rain 9 1014 75 0 2.48 86 03:41 18.02.2020
2397 Rain 9 1014 75 0 2.48 86 02:58 18.02.2020
2398 Rain 10 1008 67 0 2.35 201 01:25 18.02.2020
2399 Rain 10 1008 67 0 2.35 201 00:23 18.02.2020
2400 Rain 10 1008 67 0 2.35 201 23:59 17.02.2020
2401 Rain 10 1008 67 0 2.35 201 23:39 17.02.2020
2402 Rain 13 1004 52 0 3.81 60 23:19 17.02.2020
2403 Rain 13 1004 52 0 3.81 60 22:57 17.02.2020
2404 Rain 13 1004 52 0 3.81 60 22:38 17.02.2020
2405 Rain 13 1004 52 0 3.81 60 22:18 17.02.2020
2406 Rain 13 1004 52 0 3.81 60 21:39 17.02.2020
2407 Rain 13 1004 52 0 3.81 60 21:19 17.02.2020
2408 Rain 13 1004 52 0 3.81 60 20:55 17.02.2020
2409 Rain 13 1004 52 0 3.81 60 20:37 17.02.2020
2410 Rain 15 1006 38 0 2.13 153 20:18 17.02.2020
2411 Rain 15 1007 34 0 1.36 185 20:18 17.02.2020
2412 Rain 15 1007 34 0 1.36 185 19:42 17.02.2020
2413 Rain 15 1007 34 0 1.36 185 19:21 17.02.2020
2414 Rain 15 1007 34 0 1.36 185 18:56 17.02.2020
2415 Rain 15 1007 34 0 1.36 185 18:36 17.02.2020
2416 Rain 15 1007 34 0 1.36 185 18:36 17.02.2020
2417 Rain 15 1007 34 0 1.36 185 18:36 17.02.2020
2418 Rain 15 1007 34 0 1.36 185 18:18 17.02.2020
2419 Rain 15 1007 34 0 1.36 185 17:38 17.02.2020
2420 Rain 15 1011 36 0 2.68 300 17:19 17.02.2020
2421 Rain 15 1011 36 0 2.68 300 16:58 17.02.2020
2422 Rain 15 1011 36 0 2.68 300 16:40 17.02.2020
2423 Rain 15 1011 36 0 2.68 300 16:22 17.02.2020
2424 Rain 15 1011 36 0 2.68 300 15:46 17.02.2020
2425 Rain 15 1011 36 0 2.68 300 15:46 17.02.2020
2426 Rain 15 1011 36 0 2.68 300 15:28 17.02.2020
2427 Rain 15 1011 36 0 2.68 300 14:58 17.02.2020
2428 Rain 15 1011 36 0 2.68 300 14:40 17.02.2020
2429 Rain 15 1011 36 0 2.68 300 14:22 17.02.2020
2430 Rain 15 1011 36 0 2.68 300 14:22 17.02.2020
2431 Rain 10 1013 57 0 2.55 271 13:56 17.02.2020
2432 Rain 10 1013 57 0 2.55 271 13:56 17.02.2020
2433 Rain 10 1013 57 0 2.55 271 13:38 17.02.2020
2434 Rain 10 1013 57 0 2.55 271 13:18 17.02.2020
2435 Rain 10 1013 56 0 1.96 286 12:42 17.02.2020
2436 Rain 10 1013 56 0 1.96 286 12:23 17.02.2020
2437 Rain 10 1013 56 0 1.96 286 11:57 17.02.2020
2438 Rain 10 1013 56 0 1.96 286 11:39 17.02.2020
2439 Rain 10 1013 56 0 1.96 286 11:39 17.02.2020
2440 Rain 8 1012 71 0 1.74 315 11:20 17.02.2020
2441 Rain 8 1012 71 0 1.74 315 10:41 17.02.2020
2442 Rain 8 1012 71 0 1.74 315 10:41 17.02.2020
2443 Rain 8 1012 71 0 1.74 315 10:22 17.02.2020
2444 Rain 8 1012 71 0 1.74 315 10:22 17.02.2020
2445 Rain 8 1012 71 0 1.74 315 09:59 17.02.2020
2446 Rain 8 1012 71 0 1.74 315 09:41 17.02.2020
2447 Rain 8 1012 71 0 1.74 315 09:21 17.02.2020
2448 Rain 8 1012 71 0 1.74 315 08:56 17.02.2020
2449 Rain 8 1012 71 0 1.74 315 08:38 17.02.2020
2450 Rain 9 1012 67 0 1.99 298 08:19 17.02.2020
2451 Rain 9 1012 67 0 1.99 298 08:19 17.02.2020
2452 Rain 9 1012 67 0 1.99 298 07:42 17.02.2020
2453 Rain 9 1012 67 0 1.99 298 07:23 17.02.2020
2454 -273 0 0 0 0 0 06:51 17.02.2020
2455 Rain 9 1012 67 0 1.99 298 06:32 17.02.2020
2456 Rain 9 1012 67 0 1.99 298 05:41 17.02.2020
2457 Rain 10 1012 67 0 1.14 344 04:59 17.02.2020
2458 Rain 10 1012 67 0 1.14 344 03:21 17.02.2020
2459 Rain 13 1009 51 0 2.48 356 01:47 17.02.2020
2460 Rain 13 1009 51 0 2.68 320 00:44 17.02.2020
2461 Rain 13 1009 51 0 2.68 320 00:21 17.02.2020
2462 Rain 13 1009 51 0 2.68 320 00:21 17.02.2020
2463 Rain 13 1009 51 0 2.68 320 23:53 16.02.2020
2464 Rain 13 1009 51 0 2.68 320 23:32 16.02.2020
2465 Rain 16 1005 33 0 5.13 319 22:57 16.02.2020
2466 Rain 16 1005 33 0 5.13 319 22:39 16.02.2020
2467 Rain 16 1005 33 0 5.13 319 22:39 16.02.2020
2468 Rain 16 1005 33 0 5.13 319 22:21 16.02.2020
2469 Rain 16 1005 33 0 5.13 319 21:57 16.02.2020
2470 Rain 16 1005 33 0 5.13 319 21:57 16.02.2020
2471 Rain 16 1005 33 0 5.13 319 21:39 16.02.2020
2472 Rain 16 1005 33 0 5.13 319 21:21 16.02.2020
2473 Rain 16 1005 33 0 5.13 319 20:57 16.02.2020
2474 Rain 16 1005 33 0 5.13 319 20:39 16.02.2020
2475 Rain 15 1008 42 0 4.16 356 20:20 16.02.2020
2476 Rain 15 1008 41 0 3.68 338 19:58 16.02.2020
2477 Rain 15 1008 41 0 3.68 338 19:38 16.02.2020
2478 Rain 15 1008 41 0 3.68 338 19:18 16.02.2020
2479 Rain 15 1008 41 0 3.68 338 18:43 16.02.2020
2480 Rain 15 1008 41 0 3.68 338 18:23 16.02.2020
2481 Rain 15 1008 41 0 3.68 338 17:55 16.02.2020
2482 Rain 15 1008 41 0 3.68 338 17:55 16.02.2020
2483 Rain 15 1008 41 0 3.68 338 17:36 16.02.2020
2484 Rain 14 1012 44 0 3.3 356 17:18 16.02.2020
2485 Rain 14 1012 44 0 3.3 356 17:18 16.02.2020
2486 Rain 14 1012 44 0 3.3 356 16:54 16.02.2020
2487 Rain 14 1012 44 0 3.3 356 16:36 16.02.2020
2488 Rain 14 1012 44 0 3.3 356 16:18 16.02.2020
2489 Rain 14 1012 44 0 3.3 356 15:41 16.02.2020
2490 Rain 14 1012 44 0 3.3 356 15:21 16.02.2020
2491 Rain 14 1012 44 0 3.3 356 14:44 16.02.2020
2492 Rain 14 1012 44 0 3.3 356 14:24 16.02.2020
2493 Rain 10 1014 63 0 1.5 1 13:59 16.02.2020
2494 Rain 10 1014 63 0 1.5 1 13:41 16.02.2020
2495 Rain 10 1015 63 0 1.36 358 13:22 16.02.2020
2496 Rain 10 1015 63 0 1.36 358 12:39 16.02.2020
2497 Rain 10 1015 63 0 1.36 358 12:20 16.02.2020
2498 Rain 10 1015 63 0 1.36 358 11:41 16.02.2020
2499 Rain 9 1013 69 0 0.85 325 11:20 16.02.2020
2500 Rain 9 1013 69 0 0.85 325 11:20 16.02.2020
2501 Rain 9 1013 69 0 0.85 325 10:59 16.02.2020
2502 Rain 9 1013 69 0 0.85 325 10:41 16.02.2020
2503 Rain 9 1013 69 0 0.85 325 10:22 16.02.2020
2504 Rain 9 1013 69 0 0.85 325 09:59 16.02.2020
2505 Rain 9 1013 69 0 0.85 325 09:39 16.02.2020
2506 Rain 9 1013 69 0 0.85 325 09:20 16.02.2020
2507 Rain 9 1013 69 0 0.85 325 08:57 16.02.2020
2508 Rain 9 1013 69 0 0.85 325 08:57 16.02.2020
2509 Rain 9 1013 69 0 0.85 325 08:39 16.02.2020
2510 Rain 9 1014 76 0 1.28 340 08:19 16.02.2020
2511 Rain 9 1014 76 0 1.28 340 07:42 16.02.2020
2512 Rain 9 1014 76 0 1.28 340 07:23 16.02.2020
2513 Rain 9 1014 76 0 1.28 340 06:31 16.02.2020
2514 Rain 10 1014 76 0 1.35 351 04:37 16.02.2020
2515 Rain 10 1014 76 0 1.35 351 03:23 16.02.2020
2516 Rain 10 1014 76 0 1.35 351 02:24 16.02.2020
2517 Rain 10 1010 77 0 3.1 39 01:40 16.02.2020
2518 Rain 10 1010 77 0 3.1 39 01:21 16.02.2020
2519 Rain 10 1010 75 0 2.02 48 00:51 16.02.2020
2520 Rain 10 1010 75 0 2.02 48 00:28 16.02.2020
2521 Rain 10 1010 75 0 2.02 48 23:44 15.02.2020
2522 Rain 10 1010 75 0 2.02 48 23:26 15.02.2020
2523 Rain 14 1007 52 0 5.15 37 22:59 15.02.2020
2524 Rain 14 1007 52 0 5.15 37 22:41 15.02.2020
2525 Rain 14 1007 52 0 5.15 37 22:21 15.02.2020
2526 Rain 14 1007 52 0 5.15 37 21:58 15.02.2020
2527 Rain 14 1007 52 0 5.15 37 21:39 15.02.2020
2528 Rain 14 1007 52 0 5.15 37 21:20 15.02.2020
2529 Rain 14 1007 52 0 5.15 37 20:39 15.02.2020
2530 Rain 15 1010 44 0 4.56 25 20:21 15.02.2020
2531 Rain 15 1011 48 0 4.49 35 19:44 15.02.2020
2532 Rain 15 1011 48 0 4.49 35 19:22 15.02.2020
2533 Rain 15 1011 48 0 4.49 35 18:45 15.02.2020
2534 Rain 15 1011 48 0 4.49 35 18:24 15.02.2020
2535 Rain 15 1011 48 0 4.49 35 17:59 15.02.2020
2536 Rain 15 1011 48 0 4.49 35 17:41 15.02.2020
2537 Rain 15 1011 48 0 4.49 35 17:22 15.02.2020
2538 Clouds 12 1016 57 0 3.45 28 16:55 15.02.2020
2539 Clouds 12 1016 57 0 3.45 28 16:36 15.02.2020
2540 Clouds 12 1016 57 0 3.45 28 16:18 15.02.2020
2541 Clouds 12 1016 57 0 3.45 28 15:41 15.02.2020
2542 Clouds 12 1016 57 0 3.45 28 15:23 15.02.2020
2543 Clouds 12 1016 57 0 3.45 28 14:45 15.02.2020
2544 Clouds 12 1016 57 0 3.45 28 14:21 15.02.2020
2545 Rain 8 1018 80 0 1.67 41 13:57 15.02.2020
2546 Rain 8 1018 80 0 1.67 41 13:39 15.02.2020
2547 Rain 7 1018 89 0 1.56 10 13:20 15.02.2020
2548 Rain 7 1018 89 0 1.56 10 12:43 15.02.2020
2549 Rain 7 1018 89 0 1.56 10 12:25 15.02.2020
2550 Rain 7 1018 89 0 1.56 10 11:55 15.02.2020
2551 Rain 7 1018 89 0 1.56 10 11:36 15.02.2020
2552 Rain 7 1016 97 0 2.2 59 11:18 15.02.2020
2553 Rain 7 1016 97 0 2.2 59 10:39 15.02.2020
2554 Rain 7 1016 97 0 2.2 59 10:21 15.02.2020
2555 Rain 7 1016 97 0 2.2 59 09:44 15.02.2020
2556 Rain 7 1016 97 0 2.2 59 09:25 15.02.2020
2557 Rain 7 1016 97 0 2.2 59 08:59 15.02.2020
2558 Rain 7 1016 97 0 2.2 59 08:59 15.02.2020
2559 Rain 7 1016 97 0 2.2 59 08:39 15.02.2020
2560 Rain 8 1015 87 0 1.53 81 08:20 15.02.2020
2561 Rain 8 1015 87 0 1.53 81 07:41 15.02.2020
2562 Rain 8 1015 87 0 1.53 81 07:22 15.02.2020
2563 Rain 8 1015 87 0 1.53 81 06:39 15.02.2020
2564 Rain 8 1015 87 0 1.53 81 06:20 15.02.2020
2565 Rain 9 1015 82 0 2.21 66 04:52 15.02.2020
2566 Rain 9 1015 82 0 2.21 66 04:26 15.02.2020
2567 Rain 9 1015 82 0 2.21 66 02:59 15.02.2020
2568 Rain 9 1015 82 0 2.21 66 02:28 15.02.2020
2569 Rain 10 1012 77 0 4.07 46 01:59 15.02.2020
2570 Rain 10 1012 77 0 4.07 46 01:37 15.02.2020
2571 Rain 10 1012 73 0 4.59 54 00:31 15.02.2020
2572 Rain 10 1012 73 0 4.59 54 23:59 14.02.2020
2573 Rain 10 1012 73 0 4.59 54 23:38 14.02.2020
2574 Rain 13 1008 55 0 5.03 43 23:18 14.02.2020
2575 Rain 13 1008 55 0 5.03 43 22:43 14.02.2020
2576 Rain 13 1008 55 0 5.03 43 22:22 14.02.2020
2577 Rain 13 1008 55 0 5.03 43 21:50 14.02.2020
2578 Rain 13 1008 55 0 5.03 43 21:31 14.02.2020
2579 Rain 13 1008 55 0 5.03 43 20:58 14.02.2020
2580 Rain 13 1008 55 0 5.03 43 20:38 14.02.2020
2581 Rain 13 1008 55 0 5.03 43 20:38 14.02.2020
2582 Rain 14 1011 50 0 4.04 34 20:19 14.02.2020
2583 Rain 14 1011 50 0 4.04 34 19:42 14.02.2020
2584 Rain 14 1011 50 0 4.04 34 19:42 14.02.2020
2585 Rain 14 1011 50 0 4.04 34 19:24 14.02.2020
2586 Rain 14 1011 50 0 4.04 34 18:58 14.02.2020
2587 Rain 14 1011 50 0 4.04 34 18:40 14.02.2020
2588 Rain 14 1011 50 0 4.04 34 18:20 14.02.2020
2589 Rain 14 1011 50 0 4.04 34 17:56 14.02.2020
2590 Rain 14 1011 50 0 4.04 34 17:38 14.02.2020
2591 Clouds 12 1015 56 0 3.13 30 17:18 14.02.2020
2592 Clouds 12 1015 56 0 3.13 30 16:42 14.02.2020
2593 Clouds 12 1015 56 0 3.13 30 16:23 14.02.2020
2594 Clouds 12 1015 56 0 3.13 30 15:57 14.02.2020
2595 Clouds 12 1015 56 0 3.13 30 15:39 14.02.2020
2596 Clouds 12 1015 56 0 3.13 30 15:20 14.02.2020
2597 Clouds 12 1015 56 0 3.13 30 14:59 14.02.2020
2598 Clouds 12 1015 56 0 3.13 30 14:41 14.02.2020
2599 Clouds 12 1015 56 0 3.13 30 14:22 14.02.2020
2600 Clouds 7 1017 77 0 0.8 50 13:56 14.02.2020
2601 Clouds 7 1017 77 0 0.8 50 13:38 14.02.2020
2602 Clouds 7 1017 77 0 1.17 62 13:19 14.02.2020
2603 Clouds 7 1017 77 0 1.17 62 12:56 14.02.2020
2604 Clouds 7 1017 77 0 1.17 62 12:38 14.02.2020
2605 Clouds 7 1017 77 0 1.17 62 12:19 14.02.2020
2606 Clouds 7 1017 77 0 1.17 62 11:55 14.02.2020
2607 Clouds 7 1017 77 0 1.17 62 11:37 14.02.2020
2608 Clouds 6 1016 93 0 0.93 34 11:19 14.02.2020
2609 Clouds 6 1016 93 0 0.93 34 10:41 14.02.2020
2610 Clouds 6 1016 93 0 0.93 34 10:22 14.02.2020
2611 Clouds 6 1016 93 0 0.93 34 09:45 14.02.2020
2612 Clouds 6 1016 93 0 0.93 34 09:24 14.02.2020
2613 Clouds 6 1016 93 0 0.93 34 08:58 14.02.2020
2614 Clouds 6 1016 93 0 0.93 34 08:39 14.02.2020
2615 Clouds 7 1015 86 0 2.22 66 08:21 14.02.2020
2616 Clouds 7 1015 86 0 2.22 66 07:49 14.02.2020
2617 Clouds 7 1015 86 0 2.22 66 07:29 14.02.2020
2618 Clouds 7 1015 86 0 2.22 66 06:39 14.02.2020
2619 Clouds 7 1015 86 0 2.22 66 06:20 14.02.2020
2620 Clouds 7 1015 86 0 2.22 66 05:38 14.02.2020
2621 Clouds 8 1015 82 0 3.46 52 03:49 14.02.2020
2622 Clouds 8 1015 82 0 3.46 52 02:58 14.02.2020
2623 Rain 10 1011 74 0 5.33 47 01:57 14.02.2020
2624 Clear 10 1011 72 0 5.43 51 00:52 14.02.2020
2625 Clear 10 1011 72 0 5.43 51 00:31 14.02.2020
2626 Clear 10 1011 72 0 5.43 51 23:59 13.02.2020
2627 Clear 10 1011 72 0 5.43 51 23:41 13.02.2020
2628 Clear 15 1006 44 0 6.49 60 23:19 13.02.2020
2629 Clear 15 1006 44 0 6.49 60 22:40 13.02.2020
2630 Clear 15 1006 44 0 6.49 60 22:19 13.02.2020
2631 Clear 15 1006 44 0 6.49 60 21:58 13.02.2020
2632 Clear 15 1006 44 0 6.49 60 21:40 13.02.2020
2633 Clear 15 1006 44 0 6.49 60 21:20 13.02.2020
2634 Clear 15 1006 44 0 6.49 60 20:43 13.02.2020
2635 Clear 15 1006 44 0 6.49 60 20:23 13.02.2020
2636 Clear 15 1010 39 0 5.03 63 19:58 13.02.2020
2637 Clear 15 1010 39 0 5.03 63 19:39 13.02.2020
2638 Clear 15 1010 39 0 5.03 63 19:21 13.02.2020
2639 Clear 15 1010 39 0 5.03 63 18:59 13.02.2020
2640 Clear 15 1010 39 0 5.03 63 18:41 13.02.2020
2641 Clear 15 1010 39 0 5.03 63 18:22 13.02.2020
2642 Clear 15 1010 39 0 5.03 63 17:57 13.02.2020
2643 Clear 15 1010 39 0 5.03 63 17:37 13.02.2020
2644 Clear 12 1014 51 0 3.74 58 17:19 13.02.2020
2645 Clear 12 1014 51 0 3.74 58 16:55 13.02.2020
2646 Clear 12 1014 51 0 3.74 58 16:36 13.02.2020
2647 Clear 12 1014 51 0 3.74 58 16:18 13.02.2020
2648 Clear 12 1014 51 0 3.74 58 15:54 13.02.2020
2649 Clear 12 1014 51 0 3.74 58 15:36 13.02.2020
2650 Clear 12 1014 51 0 3.74 58 15:18 13.02.2020
2651 Clear 12 1014 51 0 3.74 58 14:54 13.02.2020
2652 Clear 12 1014 51 0 3.74 58 14:36 13.02.2020
2653 Clouds 7 1017 76 0 0.72 82 14:18 13.02.2020
2654 Clouds 7 1017 76 0 0.72 82 13:41 13.02.2020
2655 Clouds 7 1017 76 0 0.72 82 13:18 13.02.2020
2656 Clouds 7 1017 77 0 1.08 72 12:48 13.02.2020
2657 Clouds 7 1017 77 0 1.08 72 12:30 13.02.2020
2658 Clouds 7 1017 77 0 1.08 72 11:58 13.02.2020
2659 Clouds 7 1017 77 0 1.08 72 11:40 13.02.2020
2660 Clouds 6 1015 92 0 0.38 29 11:19 13.02.2020
2661 Clouds 6 1015 92 0 0.38 29 10:43 13.02.2020
2662 Clouds 6 1015 92 0 0.38 29 10:25 13.02.2020
2663 Clouds 6 1015 92 0 0.38 29 09:50 13.02.2020
2664 Clouds 6 1015 92 0 0.38 29 09:26 13.02.2020
2665 Clouds 6 1015 92 0 0.38 29 08:48 13.02.2020
2666 Clouds 6 1016 88 0 2.04 68 08:21 13.02.2020
2667 Clouds 6 1016 88 0 2.04 68 07:57 13.02.2020
2668 Clouds 6 1016 88 0 2.04 68 07:38 13.02.2020
2669 Clouds 6 1016 88 0 2.04 68 07:20 13.02.2020
2670 Clouds 6 1016 88 0 2.04 68 06:44 13.02.2020
2671 Clouds 6 1016 88 0 2.04 68 06:18 13.02.2020
2672 Clouds 6 1016 88 0 2.04 68 05:25 13.02.2020
2673 Clear 8 1016 83 0 3.35 57 04:25 13.02.2020
2674 Clear 8 1016 83 0 3.35 57 03:47 13.02.2020
2675 Clear 8 1016 83 0 3.35 57 03:18 13.02.2020
2676 Clear 8 1016 83 0 3.35 57 02:48 13.02.2020
2677 Rain 9 1012 76 0 4.89 55 02:19 13.02.2020
2678 Rain 9 1012 76 0 4.89 51 01:28 13.02.2020
2679 Rain 9 1012 76 0 4.89 51 00:33 13.02.2020
2680 Rain 9 1012 76 0 4.89 51 23:59 12.02.2020
2681 Rain 9 1012 76 0 4.89 51 23:38 12.02.2020
2682 Clear 14 1008 47 0 5.72 51 23:20 12.02.2020
2683 Clear 14 1008 47 0 5.72 51 22:44 12.02.2020
2684 Clear 14 1008 47 0 5.72 51 22:24 12.02.2020
2685 Clear 14 1008 47 0 5.72 51 21:58 12.02.2020
2686 Clear 14 1008 47 0 5.72 51 21:39 12.02.2020
2687 Clear 14 1008 47 0 5.72 51 21:19 12.02.2020
2688 Clear 14 1008 47 0 5.72 51 20:56 12.02.2020
2689 Clear 14 1008 47 0 5.72 51 20:56 12.02.2020
2690 Clear 14 1008 47 0 5.72 51 20:37 12.02.2020
2691 Clear 15 1010 41 0 4.34 69 20:19 12.02.2020
2692 Clouds 15 1011 41 0 4.52 60 19:45 12.02.2020
2693 Clouds 14 1011 39 0 4.14 59 19:24 12.02.2020
2694 Clouds 15 1011 41 0 4.52 60 18:56 12.02.2020
2695 Clouds 15 1011 41 0 4.52 60 18:37 12.02.2020
2696 Clouds 15 1011 41 0 4.52 60 18:18 12.02.2020
2697 Clouds 15 1011 41 0 4.52 60 17:42 12.02.2020
2698 Clear 11 1016 56 0 3.43 53 17:20 12.02.2020
2699 Clouds 11 1016 60 0 2.6 44 16:59 12.02.2020
2700 Clear 11 1016 56 0 3.43 53 16:39 12.02.2020
2701 Clear 11 1016 56 0 3.43 53 16:39 12.02.2020
2702 Clear 11 1016 56 0 3.43 53 16:19 12.02.2020
2703 Clear 11 1016 56 0 3.43 53 15:43 12.02.2020
2704 Clear 11 1016 56 0 3.43 53 15:23 12.02.2020
2705 Clouds 11 1016 60 0 2.6 44 14:57 12.02.2020
2706 Clear 11 1016 56 0 3.43 53 14:39 12.02.2020
2707 Clouds 6 1019 83 0 0.47 58 14:20 12.02.2020
2708 Clouds 7 1018 75 0 0.52 215 13:57 12.02.2020
2709 Clouds 7 1018 75 0 0.52 215 13:38 12.02.2020
2710 Clouds 6 1019 83 0 0.47 58 13:19 12.02.2020
2711 Clouds 6 1019 83 0 0.47 58 12:57 12.02.2020
2712 Clouds 6 1019 83 0 0.47 58 12:38 12.02.2020
2713 Clouds 6 1019 83 0 0.47 58 12:18 12.02.2020
2714 Clouds 6 1019 83 0 0.47 58 11:57 12.02.2020
2715 Clouds 6 1019 83 0 0.47 58 11:38 12.02.2020
2716 Clouds 5 1018 93 0 1.43 41 11:20 12.02.2020
2717 Clouds 5 1018 93 0 1.43 41 10:55 12.02.2020
2718 Clouds 5 1018 93 0 1.43 41 10:36 12.02.2020
2719 Clouds 5 1018 93 0 1.43 41 10:18 12.02.2020
2720 Clouds 5 1018 93 0 1.43 41 10:18 12.02.2020
2721 Clouds 5 1018 93 0 1.43 41 09:41 12.02.2020
2722 Clouds 5 1018 93 0 1.43 41 09:22 12.02.2020
2723 Clouds 5 1018 93 0 1.43 41 08:57 12.02.2020
2724 Clouds 5 1018 93 0 1.43 41 08:38 12.02.2020
2725 Clouds 6 1018 89 0 2.16 66 08:19 12.02.2020
2726 Clouds 6 1018 88 0 1.66 62 07:44 12.02.2020
2727 Clouds 6 1018 88 0 1.66 62 07:23 12.02.2020
2728 Clouds 6 1018 88 0 1.66 62 06:57 12.02.2020
2729 Clouds 6 1018 88 0 1.66 62 06:24 12.02.2020
2730 Clouds 6 1018 88 0 1.66 62 05:39 12.02.2020
2731 Clouds 7 1019 83 0 2.49 73 04:58 12.02.2020
2732 Clouds 7 1019 83 0 2.49 73 04:40 12.02.2020
2733 Clouds 7 1019 83 0 2.49 73 03:37 12.02.2020
2734 Clouds 7 1019 83 0 2.49 73 03:19 12.02.2020
2735 Clouds 7 1019 83 0 2.49 73 02:30 12.02.2020
2736 Rain 8 1015 77 0 4.57 52 01:58 12.02.2020
2737 Rain 9 1014 75 0 4.33 49 00:46 12.02.2020
2738 Rain 9 1014 75 0 4.33 49 00:26 12.02.2020
2739 Rain 9 1014 75 0 4.33 49 23:58 11.02.2020
2740 Rain 9 1014 75 0 4.33 49 23:40 11.02.2020
2741 Rain 9 1014 75 0 4.33 49 23:22 11.02.2020
2742 Rain 13 1011 51 0 5.59 51 22:56 11.02.2020
2743 Rain 13 1011 51 0 5.59 51 22:38 11.02.2020
2744 Rain 13 1011 51 0 5.59 51 22:19 11.02.2020
2745 Rain 13 1011 51 0 5.59 51 21:56 11.02.2020
2746 Rain 13 1011 51 0 5.59 51 21:56 11.02.2020
2747 Rain 13 1011 51 0 5.59 51 21:37 11.02.2020
2748 Rain 13 1011 51 0 5.59 51 21:18 11.02.2020
2749 Rain 13 1011 51 0 5.59 51 21:18 11.02.2020
2750 Rain 13 1011 51 0 5.59 51 21:18 11.02.2020
2751 Rain 13 1011 51 0 5.59 51 20:56 11.02.2020
2752 Rain 13 1011 51 0 5.59 51 20:37 11.02.2020
2753 Rain 13 1011 51 0 5.59 51 20:37 11.02.2020
2754 Rain 14 1013 47 0 4.77 61 20:18 11.02.2020
2755 Clouds 14 1014 45 0 4.66 59 19:43 11.02.2020
2756 Clouds 14 1014 45 0 4.66 59 19:43 11.02.2020
2757 Clouds 14 1014 45 0 4.66 59 19:24 11.02.2020
2758 Clouds 14 1014 45 0 4.66 59 18:57 11.02.2020
2759 Clouds 14 1014 45 0 4.66 59 18:57 11.02.2020
2760 Clouds 14 1014 45 0 4.66 59 18:39 11.02.2020
2761 Clouds 14 1014 45 0 4.66 59 18:39 11.02.2020
2762 Clouds 14 1014 45 0 4.66 59 18:39 11.02.2020
2763 Clouds 14 1014 45 0 4.66 59 18:20 11.02.2020
2764 Clouds 14 1014 45 0 4.66 59 17:55 11.02.2020
2765 Clouds 14 1014 45 0 4.66 59 17:36 11.02.2020
2766 Clouds 11 1019 56 0 3.58 53 17:18 11.02.2020
2767 Clouds 11 1019 56 0 3.58 53 16:57 11.02.2020
2768 Clouds 11 1019 56 0 3.58 53 16:38 11.02.2020
2769 Clouds 11 1019 56 0 3.58 53 16:19 11.02.2020
2770 Clouds 11 1019 56 0 3.58 53 15:45 11.02.2020
2771 Clouds 11 1019 56 0 3.58 53 15:26 11.02.2020
2772 Clouds 11 1019 56 0 3.58 53 14:58 11.02.2020
2773 Clouds 11 1019 56 0 3.58 53 14:39 11.02.2020
2774 Clouds 6 1021 77 0 1.19 112 14:18 11.02.2020
2775 Clouds 6 1021 77 0 1.19 112 13:42 11.02.2020
2776 Clouds 6 1021 75 0 0.46 119 13:21 11.02.2020
2777 Clouds 6 1021 75 0 0.46 119 12:59 11.02.2020
2778 Clouds 6 1021 75 0 0.46 119 12:40 11.02.2020
2779 Clouds 6 1021 75 0 0.46 119 12:21 11.02.2020
2780 Clouds 6 1021 75 0 0.46 119 11:55 11.02.2020
2781 Clouds 6 1021 75 0 0.46 119 11:36 11.02.2020
2782 Clouds 5 1020 94 0 0.98 79 11:18 11.02.2020
2783 Clouds 5 1020 94 0 0.98 79 10:39 11.02.2020
2784 Clouds 5 1020 94 0 0.98 79 10:20 11.02.2020
2785 Clouds 5 1020 94 0 0.98 79 09:57 11.02.2020
2786 Clouds 5 1020 94 0 0.98 79 09:38 11.02.2020
2787 Clouds 5 1020 94 0 0.98 79 09:20 11.02.2020
2788 Clouds 5 1020 94 0 0.98 79 08:48 11.02.2020
2789 Clouds 5 1020 94 0 0.98 79 08:24 11.02.2020
2790 Rain 6 1020 87 0 1.39 47 07:49 11.02.2020
2791 Rain 6 1020 87 0 1.39 47 07:28 11.02.2020
2792 Rain 6 1020 87 0 1.39 47 06:57 11.02.2020
2793 Rain 6 1020 87 0 1.39 47 06:38 11.02.2020
2794 Rain 6 1020 87 0 1.39 47 06:20 11.02.2020
2795 Rain 6 1020 87 0 1.39 47 05:26 11.02.2020
2796 Clouds 6 1020 86 0 2.8 65 04:54 11.02.2020
2797 Clouds 6 1020 86 0 2.8 65 03:27 11.02.2020
2798 Clouds 6 1020 86 0 2.8 65 02:34 11.02.2020
2799 Clouds 8 1016 75 0 3.87 49 01:39 11.02.2020
2800 Clouds 8 1017 76 0 3.89 46 00:58 11.02.2020
2801 Clouds 8 1017 76 0 3.89 46 00:23 11.02.2020
2802 Clouds 8 1017 76 0 3.89 46 23:45 10.02.2020
2803 Clouds 8 1017 76 0 3.89 46 23:26 10.02.2020
2804 Rain 12 1013 51 0 5.27 57 22:57 10.02.2020
2805 Rain 12 1013 51 0 5.27 57 22:37 10.02.2020
2806 Rain 12 1013 51 0 5.27 57 22:19 10.02.2020
2807 Rain 12 1013 51 0 5.27 57 21:40 10.02.2020
2808 Rain 12 1013 51 0 5.27 57 21:22 10.02.2020
2809 Rain 12 1013 51 0 5.27 57 20:56 10.02.2020
2810 Rain 12 1013 51 0 5.27 57 20:38 10.02.2020
2811 Clouds 13 1014 48 0 6.09 60 20:19 10.02.2020
2812 Clouds 13 1015 49 0 5.75 63 19:57 10.02.2020
2813 Clouds 13 1015 49 0 5.75 63 19:37 10.02.2020
2814 Clouds 13 1015 49 0 5.75 63 19:18 10.02.2020
2815 Clouds 13 1015 49 0 5.75 63 18:56 10.02.2020
2816 Clouds 13 1015 49 0 5.75 63 18:38 10.02.2020
2817 Clouds 13 1015 49 0 5.75 63 18:20 10.02.2020
2818 Clouds 13 1015 49 0 5.75 63 17:54 10.02.2020
2819 Clouds 13 1015 49 0 5.75 63 17:54 10.02.2020
2820 Clouds 13 1015 49 0 5.75 63 17:36 10.02.2020
2821 Rain 10 1019 55 0 4.2 74 17:18 10.02.2020
2822 Rain 10 1019 55 0 4.2 74 16:56 10.02.2020
2823 Rain 10 1019 55 0 4.2 74 16:37 10.02.2020
2824 Clouds 15 1039 62 10000 4.2 74 16:18 10.02.2020
2825 Clouds 15 1039 62 10000 4.2 74 15:41 10.02.2020
2826 Clouds 15 1039 62 10000 4.2 74 15:22 10.02.2020
2827 Clouds 15 1039 62 10000 4.2 74 14:59 10.02.2020
2828 Clouds 15 1039 62 10000 4.2 74 14:40 10.02.2020
2829 Clouds 15 1039 62 10000 2.1 122 14:19 10.02.2020
2830 Clouds 6 1022 78 0 2.1 122 13:56 10.02.2020
2831 Clouds 6 1022 78 0 2.1 122 13:37 10.02.2020
2832 Clouds 6 1022 77 0 1.83 106 13:18 10.02.2020
2833 Clouds 6 1022 77 0 1.83 106 12:43 10.02.2020
2834 Clouds 6 1022 77 0 1.83 106 12:43 10.02.2020
2835 Clouds 6 1022 77 0 1.83 106 12:24 10.02.2020
2836 Clouds 6 1022 77 0 1.83 106 11:55 10.02.2020
2837 Clouds 6 1022 77 0 1.83 106 11:37 10.02.2020
2838 Clouds 5 1021 88 0 1.88 126 11:19 10.02.2020
2839 Clouds 5 1021 88 0 1.88 126 10:45 10.02.2020
2840 Clouds 5 1021 88 0 1.88 126 10:26 10.02.2020
2841 Clouds 5 1021 88 0 1.88 126 09:45 10.02.2020
2842 Clouds 5 1021 88 0 1.88 126 09:25 10.02.2020
2843 Clouds 5 1021 88 0 1.88 126 08:55 10.02.2020
2844 Clouds 5 1021 88 0 1.88 126 08:36 10.02.2020
2845 Rain 6 1020 86 0 2.3 114 08:18 10.02.2020
2846 Rain 6 1020 87 0 2.33 110 07:46 10.02.2020
2847 Rain 6 1020 87 0 2.33 110 07:25 10.02.2020
2848 Rain 6 1020 87 0 2.33 110 05:52 10.02.2020
2849 Rain 7 1020 87 0 2.98 90 04:26 10.02.2020
2850 Rain 7 1020 87 0 2.98 90 03:34 10.02.2020
2851 Rain 7 1020 87 0 2.98 90 02:54 10.02.2020
2852 Rain 9 1016 72 0 4.34 88 01:38 10.02.2020
2853 Rain 9 1016 70 0 4.77 89 00:48 10.02.2020
2854 Rain 9 1016 70 0 4.77 89 00:30 10.02.2020
2855 Rain 9 1016 70 0 4.77 89 23:55 09.02.2020
2856 Rain 9 1016 70 0 4.77 89 23:36 09.02.2020
2857 Rain 13 1011 49 0 7.66 116 23:18 09.02.2020
2858 Rain 13 1011 49 0 7.66 116 22:39 09.02.2020
2859 Rain 13 1011 49 0 7.66 116 22:20 09.02.2020
2860 Rain 13 1011 49 0 7.66 116 21:42 09.02.2020
2861 Rain 13 1011 49 0 7.66 116 21:23 09.02.2020
2862 Rain 13 1011 49 0 7.66 116 20:48 09.02.2020
2863 Rain 13 1011 49 0 7.66 116 20:27 09.02.2020
2864 Rain 13 1014 49 0 4.39 100 19:58 09.02.2020
2865 Rain 13 1014 49 0 4.39 100 19:39 09.02.2020
2866 Rain 13 1014 49 0 4.39 100 19:21 09.02.2020
2867 Rain 13 1014 49 0 4.39 100 18:56 09.02.2020
2868 Rain 13 1014 49 0 4.39 100 18:38 09.02.2020
2869 Rain 13 1014 49 0 4.39 100 18:20 09.02.2020
2870 Rain 13 1014 49 0 4.39 100 17:42 09.02.2020
2871 Rain 13 1014 49 0 4.39 100 17:22 09.02.2020
2872 Rain 9 1018 63 0 3.28 81 16:56 09.02.2020
2873 Rain 9 1018 63 0 3.28 81 16:37 09.02.2020
2874 Rain 9 1018 63 0 3.28 81 16:18 09.02.2020
2875 Rain 9 1018 63 0 3.28 81 15:54 09.02.2020
2876 Rain 9 1018 63 0 3.28 81 15:36 09.02.2020
2877 Rain 9 1018 63 0 3.28 81 15:18 09.02.2020
2878 Rain 9 1018 63 0 3.28 81 14:41 09.02.2020
2879 Rain 9 1018 63 0 3.28 81 14:23 09.02.2020
2880 Clouds 6 1020 80 0 1.91 128 13:47 09.02.2020
2881 Clouds 6 1020 80 0 1.91 128 13:28 09.02.2020
2882 Clouds 6 1020 79 0 1.85 114 12:58 09.02.2020
2883 Clouds 6 1020 79 0 1.85 114 12:40 09.02.2020
2884 Clouds 6 1020 79 0 1.85 114 12:19 09.02.2020
2885 Clouds 6 1020 79 0 1.85 114 11:56 09.02.2020
2886 Clouds 6 1020 79 0 1.85 114 11:36 09.02.2020
2887 Rain 5 1018 92 0 1.75 135 11:18 09.02.2020
2888 Rain 5 1018 92 0 1.75 135 10:42 09.02.2020
2889 Rain 5 1018 92 0 1.75 135 10:23 09.02.2020
2890 Rain 5 1018 92 0 1.75 135 09:56 09.02.2020
2891 Rain 5 1018 92 0 1.75 135 09:37 09.02.2020
2892 Rain 5 1018 92 0 1.75 135 09:18 09.02.2020
2893 Rain 5 1018 92 0 1.75 135 08:39 09.02.2020
2894 Clouds 6 1018 86 0 1.16 113 08:20 09.02.2020
2895 Rain 6 1018 87 0 1.21 61 07:49 09.02.2020
2896 Rain 6 1018 87 0 1.21 61 06:59 09.02.2020
2897 Rain 6 1018 87 0 1.21 61 06:36 09.02.2020
2898 Rain 6 1018 87 0 1.21 61 05:52 09.02.2020
2899 Rain 6 1018 87 0 1.21 61 05:52 09.02.2020
2900 Rain 6 1018 87 0 1.21 61 05:32 09.02.2020
2901 Rain 6 1018 90 0 2.12 84 04:23 09.02.2020
2902 Rain 6 1018 90 0 2.12 84 02:50 09.02.2020
2903 Rain 6 1018 90 0 2.12 84 02:32 09.02.2020
2904 Rain 8 1015 80 0 3.55 65 01:38 09.02.2020
2905 Rain 7 1015 87 0 2.31 66 00:56 09.02.2020
2906 Rain 7 1015 87 0 2.31 66 00:29 09.02.2020
2907 Rain 7 1015 87 0 2.31 66 23:49 08.02.2020
2908 Rain 7 1015 87 0 2.31 66 23:24 08.02.2020
2909 Rain 9 1012 67 0 2.17 96 22:58 08.02.2020
2910 Rain 9 1012 67 0 2.17 96 22:39 08.02.2020
2911 Rain 9 1012 67 0 2.17 96 22:20 08.02.2020
2912 Rain 9 1012 67 0 2.17 96 21:45 08.02.2020
2913 Rain 9 1012 67 0 2.17 96 21:27 08.02.2020
2914 Rain 9 1012 67 0 2.17 96 20:59 08.02.2020
2915 Rain 9 1012 67 0 2.17 96 20:40 08.02.2020
2916 Rain 9 1014 69 0 3.08 54 20:19 08.02.2020
2917 Rain 9 1014 69 0 0.77 14 19:58 08.02.2020
2918 Rain 9 1014 69 0 0.77 14 19:38 08.02.2020
2919 Rain 9 1014 69 0 0.77 14 19:19 08.02.2020
2920 Rain 9 1014 69 0 0.77 14 18:56 08.02.2020
2921 Rain 9 1014 69 0 0.77 14 18:37 08.02.2020
2922 Rain 9 1014 69 0 0.77 14 18:19 08.02.2020
2923 Rain 9 1014 69 0 0.77 14 17:41 08.02.2020
2924 Rain 3 1018 93 0 0.53 255 17:19 08.02.2020
2925 Rain 3 1018 93 0 0.53 255 16:42 08.02.2020
2926 Rain 3 1018 93 0 0.53 255 16:23 08.02.2020
2927 Rain 3 1018 93 0 0.53 255 15:59 08.02.2020
2928 Rain 3 1018 93 0 0.53 255 15:39 08.02.2020
2929 Rain 3 1018 93 0 0.53 255 15:18 08.02.2020
2930 Rain 3 1018 93 0 0.53 255 14:45 08.02.2020
2931 Rain 3 1018 93 0 0.53 255 14:22 08.02.2020
2932 Rain 6 1019 91 0 3.39 54 13:59 08.02.2020
2933 Rain 6 1019 91 0 3.39 54 13:40 08.02.2020
2934 Rain 6 1019 93 0 2.89 64 13:22 08.02.2020
2935 Rain 6 1019 93 0 2.89 64 12:49 08.02.2020
2936 Rain 6 1019 93 0 2.89 64 12:23 08.02.2020
2937 Rain 6 1019 93 0 2.89 64 12:23 08.02.2020
2938 Rain 6 1019 93 0 2.89 64 11:58 08.02.2020
2939 Rain 6 1019 93 0 2.89 64 11:40 08.02.2020
2940 Rain 6 1018 89 0 1.18 44 11:20 08.02.2020
2941 Rain 6 1018 89 0 1.18 44 10:42 08.02.2020
2942 Rain 6 1018 89 0 1.18 44 10:22 08.02.2020
2943 Rain 6 1018 89 0 1.18 44 10:22 08.02.2020
2944 Rain 6 1018 89 0 1.18 44 10:22 08.02.2020
2945 Rain 6 1018 89 0 1.18 44 10:22 08.02.2020
2946 Rain 6 1018 89 0 1.18 44 10:22 08.02.2020
2947 Rain 6 1018 89 0 1.18 44 09:53 08.02.2020
2948 Rain 6 1018 89 0 1.18 44 09:29 08.02.2020
2949 Rain 6 1018 89 0 1.18 44 08:56 08.02.2020
2950 Rain 6 1018 89 0 1.18 44 08:38 08.02.2020
2951 Rain 6 1017 92 0 1.74 59 08:20 08.02.2020
2952 Rain 6 1017 89 0 1.69 70 07:48 08.02.2020
2953 Rain 6 1017 89 0 1.69 70 07:30 08.02.2020
2954 Rain 6 1017 89 0 1.69 70 06:30 08.02.2020
2955 Rain 6 1017 89 0 1.69 70 05:49 08.02.2020
2956 Rain 6 1017 89 0 1.69 70 05:30 08.02.2020
2957 Rain 8 1017 85 0 2.62 46 04:51 08.02.2020
2958 Rain 8 1017 85 0 2.62 46 03:55 08.02.2020
2959 Rain 8 1017 85 0 2.62 46 02:57 08.02.2020
2960 Rain 8 1017 85 0 2.62 46 02:24 08.02.2020
2961 Rain 9 1014 77 0 3.65 67 01:28 08.02.2020
2962 Rain 9 1014 77 0 3.8 54 00:45 08.02.2020
2963 Rain 9 1014 77 0 3.8 54 00:23 08.02.2020
2964 Rain 9 1014 77 0 3.8 54 23:56 07.02.2020
2965 Rain 9 1014 77 0 3.8 54 23:37 07.02.2020
2966 Rain 12 1010 57 0 5.46 100 23:19 07.02.2020
2967 Rain 12 1010 57 0 5.46 100 22:41 07.02.2020
2968 Rain 12 1010 57 0 5.46 100 22:19 07.02.2020
2969 Rain 12 1010 57 0 5.46 100 21:45 07.02.2020
2970 Rain 12 1010 57 0 5.46 100 21:23 07.02.2020
2971 Rain 12 1010 57 0 5.46 100 20:59 07.02.2020
2972 Rain 12 1010 57 0 5.46 100 20:39 07.02.2020
2973 Rain 12 1011 61 0 3.51 107 20:18 07.02.2020
2974 Rain 13 1012 57 0 3.95 99 19:43 07.02.2020
2975 Rain 13 1012 57 0 3.95 99 19:22 07.02.2020
2976 Rain 13 1012 57 0 3.95 99 18:59 07.02.2020
2977 Rain 13 1012 57 0 3.95 99 18:41 07.02.2020
2978 Rain 13 1012 57 0 3.95 99 18:23 07.02.2020
2979 Rain 13 1012 57 0 3.95 99 17:44 07.02.2020
2980 Rain 13 1012 57 0 3.95 99 17:44 07.02.2020
2981 Rain 13 1012 57 0 3.95 99 17:22 07.02.2020
2982 Rain 13 1012 57 0 3.95 99 17:22 07.02.2020
2983 Rain 11 1016 60 0 3 68 16:59 07.02.2020
2984 Rain 11 1016 60 0 3 68 16:41 07.02.2020
2985 Rain 11 1016 60 0 3 68 16:22 07.02.2020
2986 Rain 11 1016 60 0 3 68 15:53 07.02.2020
2987 Rain 11 1016 60 0 3 68 15:28 07.02.2020
2988 Rain 11 1016 60 0 3 68 14:55 07.02.2020
2989 Rain 11 1016 60 0 3 68 14:37 07.02.2020
2990 Clouds 7 1018 74 0 1.46 110 14:19 07.02.2020
2991 Clouds 7 1018 74 0 1.46 110 13:56 07.02.2020
2992 Clouds 7 1018 74 0 1.46 110 13:37 07.02.2020
2993 Rain 7 1018 76 0 1.54 100 13:18 07.02.2020
2994 Rain 7 1018 76 0 1.54 100 12:41 07.02.2020
2995 Rain 7 1018 76 0 1.54 100 12:22 07.02.2020
2996 Rain 7 1018 76 0 1.54 100 11:45 07.02.2020
2997 Rain 7 1018 76 0 1.54 100 11:22 07.02.2020
2998 Rain 7 1017 77 0 0.54 273 10:58 07.02.2020
2999 Rain 7 1017 77 0 0.54 273 10:38 07.02.2020
3000 Rain 7 1017 77 0 0.54 273 10:19 07.02.2020
3001 Rain 7 1017 77 0 0.54 273 09:41 07.02.2020
3002 Rain 7 1017 77 0 0.54 273 09:22 07.02.2020
3003 Rain 7 1017 77 0 0.54 273 09:22 07.02.2020
3004 Rain 7 1017 77 0 0.54 273 08:47 07.02.2020
3005 Rain 7 1017 77 0 0.54 273 08:23 07.02.2020
3006 Rain 6 1016 85 0 0.5 91 07:55 07.02.2020
3007 Rain 6 1016 85 0 0.5 91 07:33 07.02.2020
3008 Rain 6 1016 85 0 0.5 91 06:59 07.02.2020
3009 Rain 6 1016 85 0 0.5 91 06:40 07.02.2020
3010 Rain 6 1016 85 0 0.5 91 06:19 07.02.2020
3011 Rain 6 1016 85 0 0.5 91 05:39 07.02.2020
3012 Rain 7 1017 84 0 2.05 25 03:54 07.02.2020
3013 Rain 7 1017 84 0 2.05 25 02:23 07.02.2020
3014 Rain 10 1012 68 0 3.05 62 01:21 07.02.2020
3015 Rain 10 1012 68 0 3.05 62 00:29 07.02.2020
3016 Rain 10 1012 68 0 3.05 62 23:39 06.02.2020
3017 Rain 13 1008 56 0 4.77 44 23:20 06.02.2020
3018 Rain 13 1008 56 0 4.77 44 22:57 06.02.2020
3019 Rain 13 1008 56 0 4.77 44 22:39 06.02.2020
3020 Rain 13 1008 56 0 4.77 44 22:20 06.02.2020
3021 Rain 13 1008 56 0 4.77 44 21:37 06.02.2020
3022 Rain 13 1008 56 0 4.77 44 21:19 06.02.2020
3023 Rain 13 1008 56 0 4.77 44 20:56 06.02.2020
3024 Rain 13 1008 56 0 4.77 44 20:37 06.02.2020
3025 Rain 15 1010 44 0 4.9 50 20:18 06.02.2020
3026 Rain 15 1010 44 0 4.9 50 19:57 06.02.2020
3027 Rain 15 1010 44 0 4.9 50 19:38 06.02.2020
3028 Rain 15 1010 44 0 4.9 50 19:20 06.02.2020
3029 Rain 15 1010 44 0 4.9 50 18:55 06.02.2020
3030 Rain 15 1010 44 0 4.9 50 18:37 06.02.2020
3031 Rain 15 1010 44 0 4.9 50 18:19 06.02.2020
3032 Rain 15 1010 44 0 4.9 50 17:42 06.02.2020
3033 Rain 12 1014 50 0 3.25 51 17:20 06.02.2020
3034 Rain 12 1014 50 0 3.25 51 16:54 06.02.2020
3035 Rain 12 1014 50 0 3.25 51 16:36 06.02.2020
3036 Rain 12 1014 50 0 3.25 51 16:18 06.02.2020
3037 Rain 12 1014 50 0 3.25 51 15:41 06.02.2020
3038 Rain 12 1014 50 0 3.25 51 15:21 06.02.2020
3039 Rain 12 1014 50 0 3.25 51 14:46 06.02.2020
3040 Rain 12 1014 50 0 3.25 51 14:26 06.02.2020
3041 Clouds 8 1015 68 0 1.59 44 13:54 06.02.2020
3042 Clouds 8 1015 68 0 1.59 44 13:36 06.02.2020
3043 Clouds 8 1015 68 0 1.59 44 13:18 06.02.2020
3044 Clouds 9 1015 66 0 1.71 54 12:43 06.02.2020
3045 Clouds 9 1015 66 0 1.71 54 12:18 06.02.2020
3046 Clouds 9 1015 66 0 1.71 54 11:56 06.02.2020
3047 Clouds 9 1015 66 0 1.71 54 11:37 06.02.2020
3048 Rain 7 1013 80 0 1.54 57 11:18 06.02.2020
3049 Rain 7 1013 80 0 1.54 57 10:41 06.02.2020
3050 Rain 7 1013 80 0 1.54 57 10:22 06.02.2020
3051 Rain 7 1013 80 0 1.54 57 09:59 06.02.2020
3052 Rain 7 1013 80 0 1.54 57 09:41 06.02.2020
3053 Rain 7 1013 80 0 1.54 57 09:20 06.02.2020
3054 Rain 7 1013 80 0 1.54 57 08:47 06.02.2020
3055 Rain 7 1013 80 0 1.54 57 08:24 06.02.2020
3056 Rain 9 1012 72 0 1.89 52 07:57 06.02.2020
3057 Rain 9 1012 72 0 1.89 52 07:33 06.02.2020
3058 Rain 9 1012 72 0 1.89 52 06:54 06.02.2020
3059 Rain 9 1012 72 0 1.89 52 06:19 06.02.2020
3060 Rain 9 1012 72 0 1.89 52 05:41 06.02.2020
3061 Clouds 10 1011 64 0 1.35 101 04:18 06.02.2020
3062 Clouds 10 1011 64 0 1.35 101 03:18 06.02.2020
3063 Rain 11 1008 60 0 3.33 359 02:20 06.02.2020
3064 Rain 11 1008 60 0 3.33 359 01:25 06.02.2020
3065 Rain 11 1009 58 0 1.06 18 00:42 06.02.2020
3066 Rain 11 1009 58 0 1.06 18 00:21 06.02.2020
3067 Rain 11 1009 58 0 1.06 18 23:43 05.02.2020
3068 Rain 11 1009 58 0 1.06 18 23:24 05.02.2020
3069 Clouds 16 1004 32 0 5.2 48 22:57 05.02.2020
3070 Clouds 16 1004 32 0 5.2 48 22:38 05.02.2020
3071 Clouds 16 1004 32 0 5.2 48 22:20 05.02.2020
3072 Clouds 16 1004 32 0 5.2 48 21:41 05.02.2020
3073 Clouds 16 1004 32 0 5.2 48 21:23 05.02.2020
3074 Clouds 16 1004 32 0 5.2 48 20:56 05.02.2020
3075 Clouds 16 1004 32 0 5.2 48 20:38 05.02.2020
3076 Clear 16 1007 23 0 2.82 46 20:18 05.02.2020
3077 Clear 16 1007 23 0 2.82 48 19:55 05.02.2020
3078 Clear 16 1007 23 0 2.82 48 19:37 05.02.2020
3079 Clear 16 1007 23 0 2.82 48 19:18 05.02.2020
3080 Clear 16 1007 23 0 2.82 48 18:43 05.02.2020
3081 Clear 16 1007 23 0 2.82 48 18:21 05.02.2020
3082 Clear 16 1007 23 0 2.82 48 17:58 05.02.2020
3083 Clear 16 1007 23 0 2.82 48 17:37 05.02.2020
3084 Clear 14 1011 27 0 1.88 38 17:18 05.02.2020
3085 Clear 14 1011 27 0 1.88 38 16:44 05.02.2020
3086 Clear 14 1011 27 0 1.88 38 16:25 05.02.2020
3087 Clear 14 1011 27 0 1.88 38 15:59 05.02.2020
3088 Clear 14 1011 27 0 1.88 38 15:41 05.02.2020
3089 Clear 14 1011 27 0 1.88 38 15:19 05.02.2020
3090 Clear 14 1011 27 0 1.88 38 14:55 05.02.2020
3091 Clear 14 1011 27 0 1.88 38 14:37 05.02.2020
3092 Clouds 9 1014 54 0 1.46 283 14:19 05.02.2020
3093 Clouds 9 1014 54 0 1.46 283 13:40 05.02.2020
3094 Clouds 9 1014 53 0 1.48 294 13:22 05.02.2020
3095 Clouds 9 1014 53 0 1.48 294 12:44 05.02.2020
3096 Clouds 9 1014 53 0 1.48 294 12:25 05.02.2020
3097 Clouds 9 1014 53 0 1.48 294 11:57 05.02.2020
3098 Clouds 9 1014 53 0 1.48 294 11:38 05.02.2020
3099 Clouds 6 1013 84 0 1.11 311 11:20 05.02.2020
3100 Clouds 6 1013 84 0 1.11 311 10:43 05.02.2020
3101 Clouds 6 1013 84 0 1.11 311 10:25 05.02.2020
3102 Clouds 6 1013 84 0 1.11 311 09:58 05.02.2020
3103 Clouds 6 1013 84 0 1.11 311 09:38 05.02.2020
3104 Clouds 6 1013 84 0 1.11 311 09:20 05.02.2020
3105 Clouds 6 1013 84 0 1.11 311 08:45 05.02.2020
3106 Clouds 6 1013 84 0 0.85 330 08:24 05.02.2020
3107 Clouds 7 1013 83 0 1.08 278 07:55 05.02.2020
3108 Clouds 7 1013 83 0 1.08 278 07:34 05.02.2020
3109 Clouds 7 1013 83 0 1.08 278 06:54 05.02.2020
3110 Clouds 7 1013 83 0 1.08 278 06:36 05.02.2020
3111 Clouds 7 1013 83 0 1.08 278 06:18 05.02.2020
3112 Clouds 8 1013 78 0 2.36 54 05:19 05.02.2020
3113 Clouds 8 1013 78 0 2.36 54 04:54 05.02.2020
3114 Clouds 8 1013 78 0 2.36 54 03:56 05.02.2020
3115 Clouds 8 1013 78 0 2.36 54 02:28 05.02.2020
3116 Rain 9 1009 73 0 4.09 30 01:55 05.02.2020
3117 Rain 7 1009 80 0 3.12 50 00:53 05.02.2020
3118 Rain 7 1009 80 0 3.12 50 23:58 04.02.2020
3119 Rain 7 1009 80 0 3.12 50 23:39 04.02.2020
3120 Rain 12 1005 60 0 4.72 55 23:19 04.02.2020
3121 Rain 12 1005 60 0 4.72 55 22:56 04.02.2020
3122 Rain 12 1005 60 0 4.72 55 22:38 04.02.2020
3123 Rain 12 1005 60 0 4.72 55 22:20 04.02.2020
3124 Rain 12 1005 60 0 4.72 55 21:54 04.02.2020
3125 Rain 12 1005 60 0 4.72 55 21:36 04.02.2020
3126 Rain 12 1005 60 0 4.72 55 21:18 04.02.2020
3127 Rain 12 1005 60 0 4.72 55 20:42 04.02.2020
3128 Rain 14 1008 42 0 1.66 236 20:21 04.02.2020
3129 Rain 14 1008 42 0 1.66 236 19:59 04.02.2020
3130 Rain 14 1008 42 0 1.66 236 19:40 04.02.2020
3131 Rain 14 1008 42 0 1.66 236 19:22 04.02.2020
3132 Rain 14 1008 42 0 1.66 236 18:56 04.02.2020
3133 Rain 14 1008 42 0 1.66 236 18:38 04.02.2020
3134 Rain 14 1008 42 0 1.66 236 18:38 04.02.2020
3135 Rain 14 1008 42 0 1.66 236 18:19 04.02.2020
3136 Rain 14 1008 42 0 1.66 236 17:43 04.02.2020
3137 Rain 14 1008 42 0 1.66 236 17:22 04.02.2020
3138 Clear 13 1013 45 0 1.61 66 16:59 04.02.2020
3139 Clear 13 1013 45 0 1.61 66 16:38 04.02.2020
3140 Clear 13 1013 45 0 1.61 66 16:20 04.02.2020
3141 Clear 13 1013 45 0 1.61 66 15:56 04.02.2020
3142 Clear 13 1013 45 0 1.61 66 15:38 04.02.2020
3143 Clear 13 1013 45 0 1.61 66 15:19 04.02.2020
3144 Clear 13 1013 45 0 1.61 66 14:44 04.02.2020
3145 Clear 13 1013 45 0 1.61 66 14:23 04.02.2020
3146 Clear 8 1016 68 0 1.1 333 13:58 04.02.2020
3147 Clear 8 1016 68 0 1.1 333 13:39 04.02.2020
3148 Clear 8 1016 64 0 1.29 299 13:20 04.02.2020
3149 Clear 8 1016 64 0 1.29 299 12:44 04.02.2020
3150 Clear 8 1016 64 0 1.29 299 12:26 04.02.2020
3151 Clear 8 1016 64 0 1.29 299 11:58 04.02.2020
3152 Clear 8 1016 64 0 1.29 299 11:39 04.02.2020
3153 Clear 5 1016 86 0 0.52 333 11:21 04.02.2020
3154 Clear 5 1016 86 0 0.52 333 10:59 04.02.2020
3155 Clear 5 1016 86 0 0.52 333 10:40 04.02.2020
3156 Clear 5 1016 86 0 0.52 333 10:22 04.02.2020
3157 Clear 5 1016 86 0 0.52 333 09:41 04.02.2020
3158 Clear 5 1016 86 0 0.52 333 09:23 04.02.2020
3159 Clear 5 1016 86 0 0.52 333 08:56 04.02.2020
3160 Clear 5 1016 86 0 0.52 333 08:38 04.02.2020
3161 Rain 6 1017 79 0 1.14 299 08:20 04.02.2020
3162 Rain 6 1017 79 0 1.14 299 07:43 04.02.2020
3163 Rain 6 1017 79 0 1.14 299 07:22 04.02.2020
3164 Rain 6 1017 79 0 1.14 299 06:43 04.02.2020
3165 Rain 6 1017 79 0 1.14 299 05:58 04.02.2020
3166 Rain 6 1017 79 0 1.14 299 05:28 04.02.2020
3167 Rain 6 1017 85 0 3.12 359 03:52 04.02.2020
3168 Rain 6 1017 85 0 3.12 359 03:32 04.02.2020
3169 Rain 6 1017 85 0 3.12 359 02:55 04.02.2020
3170 Rain 6 1017 85 0 3.12 359 02:31 04.02.2020
3171 Rain 8 1013 79 0 4.14 19 01:53 04.02.2020
3172 Rain 8 1013 79 0 4.14 19 01:35 04.02.2020
3173 Rain 8 1013 79 0 4.14 19 01:35 04.02.2020
3174 Rain 8 1013 79 0 4.14 12 00:44 04.02.2020
3175 Rain 8 1013 79 0 4.14 12 00:21 04.02.2020
3176 Rain 8 1013 79 0 4.14 12 23:40 03.02.2020
3177 Rain 10 1010 65 0 2.11 144 23:20 03.02.2020
3178 Rain 10 1010 65 0 2.11 144 22:39 03.02.2020
3179 Rain 10 1010 65 0 2.11 144 22:20 03.02.2020
3180 Rain 10 1010 65 0 2.11 144 21:55 03.02.2020
3181 Rain 10 1010 65 0 2.11 144 21:55 03.02.2020
3182 Rain 10 1010 65 0 2.11 144 21:37 03.02.2020
3183 Rain 10 1010 65 0 2.11 144 21:18 03.02.2020
3184 Rain 10 1010 65 0 2.11 144 20:42 03.02.2020
3185 Rain 14 1012 48 0 4.85 54 20:19 03.02.2020
3186 Rain 13 1012 50 0 3.89 48 19:58 03.02.2020
3187 Rain 13 1012 50 0 3.89 48 19:39 03.02.2020
3188 Rain 13 1012 50 0 3.89 48 19:20 03.02.2020
3189 Rain 13 1012 50 0 3.89 48 18:56 03.02.2020
3190 Rain 13 1012 50 0 3.89 48 18:37 03.02.2020
3191 Rain 13 1012 50 0 3.89 48 18:18 03.02.2020
3192 Rain 13 1012 50 0 3.89 48 17:40 03.02.2020
3193 Rain 11 1017 59 0 2.97 56 17:20 03.02.2020
3194 Rain 11 1017 59 0 2.97 56 16:59 03.02.2020
3195 Rain 11 1017 59 0 2.97 56 16:39 03.02.2020
3196 Rain 11 1017 59 0 2.97 56 16:20 03.02.2020
3197 Rain 11 1017 59 0 2.97 56 15:56 03.02.2020
3198 Rain 11 1017 59 0 2.97 56 15:37 03.02.2020
3199 Rain 11 1017 59 0 2.97 56 15:19 03.02.2020
3200 Rain 11 1017 59 0 2.97 56 14:42 03.02.2020
3201 Rain 11 1017 59 0 2.97 56 14:24 03.02.2020
3202 Rain 11 1017 59 0 2.97 56 14:24 03.02.2020
3203 Clouds 7 1019 83 0 1.42 72 13:57 03.02.2020
3204 Clouds 7 1019 83 0 1.42 72 13:39 03.02.2020
3205 Rain 7 1019 83 0 1.22 65 13:19 03.02.2020
3206 Rain 7 1019 83 0 1.22 65 12:56 03.02.2020
3207 Rain 7 1019 83 0 1.22 65 12:36 03.02.2020
3208 Rain 7 1019 83 0 1.22 65 12:18 03.02.2020
3209 Rain 7 1019 83 0 1.22 65 11:39 03.02.2020
3210 Clouds 6 1017 94 0 1.44 61 11:19 03.02.2020
3211 Clouds 6 1017 94 0 1.44 61 10:57 03.02.2020
3212 Clouds 6 1017 94 0 1.44 61 10:38 03.02.2020
3213 Clouds 6 1017 94 0 1.44 61 10:20 03.02.2020
3214 Clouds 6 1017 94 0 1.44 61 09:39 03.02.2020
3215 Clouds 6 1017 94 0 1.44 61 09:20 03.02.2020
3216 Clouds 6 1017 94 0 1.44 61 08:41 03.02.2020
3217 Clouds 6 1017 93 0 1.68 58 08:23 03.02.2020
3218 Rain 7 1017 85 0 2 50 07:57 03.02.2020
3219 Rain 7 1017 85 0 2 50 07:39 03.02.2020
3220 Rain 7 1017 85 0 2 50 07:20 03.02.2020
3221 Rain 7 1017 85 0 2 50 06:42 03.02.2020
3222 Rain 7 1017 85 0 2 50 06:24 03.02.2020
3223 Rain 7 1017 85 0 2 50 05:35 03.02.2020
3224 Rain 9 1017 72 0 2.17 47 04:50 03.02.2020
3225 Rain 9 1017 72 0 2.17 47 02:58 03.02.2020
3226 Rain 9 1017 72 0 2.17 47 02:33 03.02.2020
3227 Rain 10 1013 65 0 3.69 43 01:24 03.02.2020
3228 Rain 10 1013 65 0 3.69 43 00:37 03.02.2020
3229 Rain 10 1013 65 0 3.69 43 00:19 03.02.2020
3230 Rain 10 1013 65 0 3.69 43 23:37 02.02.2020
3231 Rain 12 1010 56 0 5.42 83 23:19 02.02.2020
3232 Rain 12 1010 56 0 5.42 83 22:55 02.02.2020
3233 Rain 12 1010 56 0 5.42 83 22:36 02.02.2020
3234 Rain 12 1010 56 0 5.42 83 22:18 02.02.2020
3235 Rain 12 1010 56 0 5.42 83 21:41 02.02.2020
3236 Rain 12 1010 56 0 5.42 83 21:22 02.02.2020
3237 Rain 12 1010 56 0 5.42 83 20:58 02.02.2020
3238 Rain 12 1010 56 0 5.42 83 20:39 02.02.2020
3239 Rain 12 1010 56 0 5.42 83 20:39 02.02.2020
3240 Clouds 16 1012 28 0 2.68 55 20:21 02.02.2020
3241 Clouds 16 1012 26 0 2.63 49 19:59 02.02.2020
3242 Clouds 16 1012 26 0 2.63 49 19:41 02.02.2020
3243 Clouds 16 1012 26 0 2.63 49 19:23 02.02.2020
3244 Clouds 16 1012 26 0 2.63 49 18:57 02.02.2020
3245 Clouds 16 1012 26 0 2.63 49 18:38 02.02.2020
3246 Clouds 16 1012 26 0 2.63 49 18:20 02.02.2020
3247 Clouds 16 1012 26 0 2.63 49 17:58 02.02.2020
3248 Clouds 16 1012 26 0 2.63 49 17:38 02.02.2020
3249 Clouds 13 1016 37 0 1.75 41 17:18 02.02.2020
3250 Clouds 13 1016 37 0 1.75 41 16:58 02.02.2020
3251 Clouds 13 1016 37 0 1.75 41 16:38 02.02.2020
3252 Clouds 13 1016 37 0 1.75 41 16:19 02.02.2020
3253 Clouds 13 1016 37 0 1.75 41 15:57 02.02.2020
3254 Clouds 13 1016 37 0 1.75 41 15:38 02.02.2020
3255 Clouds 13 1016 37 0 1.75 41 15:19 02.02.2020
3256 Clouds 13 1016 37 0 1.75 41 15:19 02.02.2020
3257 Clouds 13 1016 37 0 1.75 41 15:19 02.02.2020
3258 Clouds 13 1016 37 0 1.75 41 14:45 02.02.2020
3259 Clouds 8 1018 70 0 0.91 331 14:20 02.02.2020
3260 Clouds 8 1018 70 0 0.91 331 13:59 02.02.2020
3261 Clouds 8 1018 70 0 0.91 331 13:41 02.02.2020
3262 Clouds 8 1018 60 0 0.85 344 13:23 02.02.2020
3263 Clouds 8 1018 60 0 0.85 344 12:58 02.02.2020
3264 Clouds 8 1018 60 0 0.85 344 12:40 02.02.2020
3265 Clouds 8 1018 60 0 0.85 344 12:22 02.02.2020
3266 Clouds 8 1018 60 0 0.85 344 11:54 02.02.2020
3267 Clouds 8 1018 60 0 0.85 344 11:36 02.02.2020
3268 Clouds 6 1017 95 0 1.11 314 11:18 02.02.2020
3269 Clouds 6 1017 95 0 1.11 314 10:54 02.02.2020
3270 Clouds 6 1017 95 0 1.11 314 10:36 02.02.2020
3271 Clouds 6 1017 97 0 0.62 326 10:18 02.02.2020
3272 Clouds 6 1017 97 0 0.62 326 09:40 02.02.2020
3273 Clouds 6 1017 95 0 1.11 314 09:21 02.02.2020
3274 Clouds 6 1017 95 0 1.11 314 08:56 02.02.2020
3275 Clouds 6 1017 95 0 1.11 314 08:37 02.02.2020
3276 Clouds 6 1017 95 0 1.11 314 08:37 02.02.2020
3277 Rain 7 1016 92 0 1.33 60 08:18 02.02.2020
3278 Rain 7 1016 92 0 1.33 60 07:42 02.02.2020
3279 Rain 7 1016 92 0 1.33 60 07:42 02.02.2020
3280 Rain 7 1016 92 0 1.33 60 07:24 02.02.2020
3281 Rain 7 1016 92 0 1.33 60 06:38 02.02.2020
3282 Rain 7 1016 92 0 1.33 60 06:18 02.02.2020
3283 Rain 7 1016 92 0 1.33 60 05:23 02.02.2020
3284 Rain 9 1016 81 0 1.8 36 04:30 02.02.2020
3285 Rain 9 1016 81 0 1.8 36 03:24 02.02.2020
3286 Rain 9 1016 81 0 1.8 36 02:22 02.02.2020
3287 Rain 11 1012 65 0 2.74 80 01:51 02.02.2020
3288 Rain 10 1012 69 0 3.08 89 01:19 02.02.2020
3289 Rain 10 1012 69 0 3.08 89 00:39 02.02.2020
3290 Rain 10 1012 69 0 3.08 89 00:18 02.02.2020
3291 Rain 10 1012 69 0 3.08 89 23:43 01.02.2020
3292 Rain 15 1008 40 0 2.05 65 23:21 01.02.2020
3293 Rain 15 1008 40 0 2.05 65 22:45 01.02.2020
3294 Rain 15 1008 40 0 2.05 65 22:19 01.02.2020
3295 Rain 15 1008 40 0 2.05 65 21:44 01.02.2020
3296 Rain 15 1008 40 0 2.05 65 21:20 01.02.2020
3297 Rain 15 1008 40 0 2.05 65 20:57 01.02.2020
3298 Rain 15 1008 40 0 2.05 65 20:39 01.02.2020
3299 Rain 15 1011 36 0 1.81 11 20:20 01.02.2020
3300 Rain 15 1011 36 0 1.81 11 19:56 01.02.2020
3301 Rain 15 1011 36 0 1.81 11 19:38 01.02.2020
3302 Rain 15 1011 36 0 1.81 11 19:19 01.02.2020
3303 Rain 15 1011 36 0 1.81 11 18:57 01.02.2020
3304 Rain 15 1011 36 0 1.81 11 18:38 01.02.2020
3305 Rain 15 1011 36 0 1.81 11 18:19 01.02.2020
3306 Rain 15 1011 36 0 1.81 11 17:55 01.02.2020
3307 Rain 15 1011 36 0 1.81 11 17:37 01.02.2020
3308 Clouds 12 1015 52 0 2.71 1 17:18 01.02.2020
3309 Clouds 12 1015 52 0 2.71 1 16:42 01.02.2020
3310 Clouds 12 1015 52 0 2.71 1 16:23 01.02.2020
3311 Clouds 12 1015 52 0 2.71 1 15:56 01.02.2020
3312 Clouds 12 1015 52 0 2.71 1 15:38 01.02.2020
3313 Clouds 12 1015 52 0 2.71 1 15:18 01.02.2020
3314 Clouds 12 1015 52 0 2.71 1 15:18 01.02.2020
3315 Clouds 12 1015 52 0 2.71 1 14:40 01.02.2020
3316 Clouds 7 1019 72 0 1.87 346 14:21 01.02.2020
3317 Clouds 7 1019 72 0 1.87 346 13:45 01.02.2020
3318 Clouds 7 1019 72 0 1.87 346 13:24 01.02.2020
3319 Clouds 7 1019 72 0 1.67 350 12:57 01.02.2020
3320 Clouds 7 1019 72 0 1.67 350 12:39 01.02.2020
3321 Clouds 7 1019 72 0 1.67 350 12:21 01.02.2020
3322 Clouds 7 1019 72 0 1.67 350 11:42 01.02.2020
3323 Clouds 7 1019 72 0 1.67 350 11:23 01.02.2020
3324 Rain 7 1017 83 0 1.85 354 10:59 01.02.2020
3325 Rain 7 1017 83 0 1.85 354 10:40 01.02.2020
3326 Rain 7 1017 83 0 1.85 354 10:22 01.02.2020
3327 Rain 7 1017 83 0 1.85 354 09:59 01.02.2020
3328 Rain 7 1017 83 0 1.85 354 09:40 01.02.2020
3329 Rain 7 1017 83 0 1.85 354 09:21 01.02.2020
3330 Rain 7 1017 83 0 1.85 354 08:49 01.02.2020
3331 Rain 7 1017 90 0 1.25 11 07:56 01.02.2020
3332 Rain 7 1017 90 0 1.25 11 07:37 01.02.2020
3333 Rain 7 1017 90 0 1.25 11 07:19 01.02.2020
3334 Rain 7 1017 90 0 1.25 11 06:42 01.02.2020
3335 Rain 7 1017 90 0 1.25 11 05:53 01.02.2020
3336 Rain 7 1018 91 0 2.46 34 04:22 01.02.2020
3337 Rain 7 1018 91 0 2.46 34 03:25 01.02.2020
3338 Rain 7 1018 91 0 2.46 34 02:50 01.02.2020
3339 Rain 7 1018 91 0 2.46 34 02:30 01.02.2020
3340 Rain 9 1014 76 0 2.86 66 01:56 01.02.2020
3341 Rain 9 1014 76 0 2.86 66 01:37 01.02.2020
3342 Rain 9 1014 73 0 2.11 63 00:46 01.02.2020
3343 Rain 9 1014 73 0 2.11 63 00:23 01.02.2020
3344 Rain 9 1014 73 0 2.11 63 23:39 31.01.2020
3345 Rain 12 1010 59 0 2.31 31 23:18 31.01.2020
3346 Rain 12 1010 59 0 2.31 31 22:55 31.01.2020
3347 Rain 12 1010 59 0 2.31 31 22:37 31.01.2020
3348 Rain 12 1010 59 0 2.31 31 22:19 31.01.2020
3349 Rain 12 1010 59 0 2.31 31 21:39 31.01.2020
3350 Rain 12 1010 59 0 2.31 31 21:21 31.01.2020
3351 Rain 12 1010 59 0 2.31 31 21:21 31.01.2020
3352 Rain 12 1010 59 0 2.31 31 20:57 31.01.2020
3353 Rain 12 1010 59 0 2.31 31 20:57 31.01.2020
3354 Rain 12 1010 59 0 2.31 31 20:39 31.01.2020
3355 Rain 12 1012 59 0 2.54 4 20:21 31.01.2020
3356 Rain 12 1012 59 0 2.54 4 19:57 31.01.2020
3357 Rain 12 1012 59 0 2.54 4 19:38 31.01.2020
3358 Rain 12 1012 59 0 2.54 4 19:38 31.01.2020
3359 Rain 12 1012 59 0 2.54 4 19:19 31.01.2020
3360 Rain 12 1012 59 0 2.54 4 18:54 31.01.2020
3361 Rain 12 1012 59 0 2.54 4 18:36 31.01.2020
3362 Rain 12 1012 59 0 2.54 4 18:18 31.01.2020
3363 Rain 12 1012 59 0 2.54 4 17:40 31.01.2020
3364 Rain 12 1012 59 0 2.54 4 17:40 31.01.2020
3365 Rain 11 1017 58 0 2.81 36 17:21 31.01.2020
3366 Rain 11 1017 58 0 2.81 36 16:56 31.01.2020
3367 Rain 11 1017 58 0 2.81 36 16:56 31.01.2020
3368 Rain 11 1017 58 0 2.81 36 16:38 31.01.2020
3369 Rain 11 1017 58 0 2.81 36 16:19 31.01.2020
3370 Rain 11 1017 58 0 2.81 36 15:57 31.01.2020
3371 Rain 11 1017 58 0 2.81 36 15:38 31.01.2020
3372 Rain 11 1017 58 0 2.81 36 15:38 31.01.2020
3373 Rain 11 1017 58 0 2.81 36 15:19 31.01.2020
3374 Rain 11 1017 58 0 2.81 36 14:42 31.01.2020
3375 Rain 11 1017 58 0 2.81 36 14:42 31.01.2020
3376 Rain 11 1017 58 0 2.81 36 14:23 31.01.2020
3377 Clouds 6 1019 85 0 1.73 24 13:52 31.01.2020
3378 Clouds 6 1019 85 0 1.73 24 13:32 31.01.2020
3379 Rain 6 1019 88 0 1.77 49 12:56 31.01.2020
3380 Rain 6 1019 88 0 1.77 49 12:56 31.01.2020
3381 Rain 6 1019 88 0 1.77 49 12:38 31.01.2020
3382 Rain 6 1019 88 0 1.77 49 12:20 31.01.2020
3383 Rain 6 1019 88 0 1.77 49 11:42 31.01.2020
3384 Rain 6 1019 88 0 1.77 49 11:23 31.01.2020
3385 Rain 6 1017 92 0 1.92 47 10:59 31.01.2020
3386 Rain 6 1017 93 0 2.01 41 10:41 31.01.2020
3387 Rain 6 1017 93 0 2.01 41 10:21 31.01.2020
3388 Rain 6 1017 92 0 1.92 47 09:56 31.01.2020
3389 Rain 6 1017 93 0 2.01 41 09:38 31.01.2020
3390 Rain 6 1017 93 0 2.01 41 09:38 31.01.2020
3391 Rain 6 1017 93 0 2.01 41 09:18 31.01.2020
3392 Rain 6 1017 93 0 2.01 41 08:50 31.01.2020
3393 Rain 6 1017 92 0 1.92 47 08:25 31.01.2020
3394 Rain 7 1018 83 0 1.96 1 07:53 31.01.2020
3395 Rain 7 1018 83 0 1.96 1 07:24 31.01.2020
3396 Rain 7 1018 83 0 1.96 1 06:43 31.01.2020
3397 Rain 7 1018 83 0 1.96 1 06:18 31.01.2020
3398 Rain 7 1018 83 0 1.96 1 05:43 31.01.2020
3399 Rain 6 1018 90 0 3.06 35 04:54 31.01.2020
3400 Rain 6 1018 90 0 3.06 35 02:58 31.01.2020
3401 Rain 7 1014 86 0 2.62 65 01:38 31.01.2020
3402 Rain 7 1013 86 0 4.05 63 00:45 31.01.2020
3403 Rain 7 1013 86 0 4.05 63 00:26 31.01.2020
3404 Rain 7 1013 86 0 4.05 63 23:53 30.01.2020
3405 Rain 7 1013 86 0 4.05 63 23:24 30.01.2020
3406 Rain 11 1009 69 0 5.75 58 22:57 30.01.2020
3407 Rain 11 1009 69 0 5.75 58 22:36 30.01.2020
3408 Rain 11 1009 69 0 5.75 58 22:18 30.01.2020
3409 Rain 11 1009 69 0 5.75 58 21:55 30.01.2020
3410 Rain 11 1009 69 0 5.75 58 21:36 30.01.2020
3411 Rain 11 1009 69 0 5.75 58 21:18 30.01.2020
3412 Rain 11 1009 69 0 5.75 58 20:40 30.01.2020
3413 Rain 12 1011 57 0 2.02 10 20:21 30.01.2020
3414 Rain 12 1011 57 0 2.02 10 19:56 30.01.2020
3415 Rain 12 1011 57 0 2.02 10 19:38 30.01.2020
3416 Rain 12 1011 57 0 2.02 10 19:18 30.01.2020
3417 Rain 12 1011 57 0 2.02 10 18:41 30.01.2020
3418 Rain 12 1011 57 0 2.02 10 18:21 30.01.2020
3419 Rain 12 1011 57 0 2.02 10 17:57 30.01.2020
3420 Rain 12 1011 57 0 2.02 10 17:37 30.01.2020
3421 Rain 11 1014 56 0 3.13 33 17:19 30.01.2020
3422 Rain 11 1014 56 0 3.13 33 16:56 30.01.2020
3423 Rain 11 1014 56 0 3.13 33 16:38 30.01.2020
3424 Rain 11 1014 56 0 3.13 33 16:20 30.01.2020
3425 Rain 11 1014 56 0 3.13 33 15:43 30.01.2020
3426 Rain 11 1014 56 0 3.13 33 15:20 30.01.2020
3427 Rain 11 1014 56 0 3.13 33 14:50 30.01.2020
3428 Rain 11 1014 56 0 3.13 33 14:27 30.01.2020
3429 Rain 8 1017 67 0 1.68 59 13:58 30.01.2020
3430 Rain 8 1017 67 0 1.68 59 13:38 30.01.2020
3431 Rain 8 1016 69 0 2.43 43 13:20 30.01.2020
3432 Rain 8 1016 69 0 2.43 43 12:43 30.01.2020
3433 Rain 8 1016 69 0 2.43 43 12:24 30.01.2020
3434 Rain 8 1016 69 0 2.43 43 11:59 30.01.2020
3435 Rain 8 1016 69 0 2.43 43 11:40 30.01.2020
3436 Rain 7 1014 79 0 0.63 77 11:21 30.01.2020
3437 Rain 7 1014 79 0 0.63 77 10:44 30.01.2020
3438 Rain 7 1014 79 0 0.63 77 10:26 30.01.2020
3439 Rain 7 1014 79 0 0.63 77 09:58 30.01.2020
3440 Rain 7 1014 79 0 0.63 77 09:58 30.01.2020
3441 Rain 7 1014 79 0 0.63 77 09:39 30.01.2020
3442 Rain 7 1014 79 0 0.63 77 09:19 30.01.2020
3443 Rain 7 1014 79 0 0.63 77 08:42 30.01.2020
3444 Rain 7 1014 78 0 0.71 48 08:22 30.01.2020
3445 Rain 8 1013 74 0 0.85 51 07:53 30.01.2020
3446 Rain 8 1013 74 0 0.85 51 07:35 30.01.2020
3447 Rain 8 1013 74 0 0.85 51 06:49 30.01.2020
3448 Rain 8 1013 74 0 0.85 51 06:31 30.01.2020
3449 Rain 8 1013 74 0 0.85 51 05:47 30.01.2020
3450 Rain 8 1013 74 0 0.85 51 05:27 30.01.2020
3451 Rain 9 1013 62 0 1.33 91 04:40 30.01.2020
3452 Rain 9 1013 62 0 1.33 91 03:46 30.01.2020
3453 Rain 9 1013 62 0 1.33 91 02:54 30.01.2020
3454 Rain 10 1010 58 0 3.86 66 00:56 30.01.2020
3455 Rain 10 1010 58 0 3.86 66 00:26 30.01.2020
3456 Rain 10 1010 58 0 3.86 66 23:55 29.01.2020
3457 Rain 10 1010 58 0 3.86 66 23:37 29.01.2020
3458 Clouds 15 1006 27 0 2.74 333 23:19 29.01.2020
3459 Clouds 15 1006 27 0 2.74 333 22:54 29.01.2020
3460 Clouds 15 1006 27 0 2.74 333 22:36 29.01.2020
3461 Clouds 15 1006 27 0 2.74 333 22:18 29.01.2020
3462 Clouds 15 1006 27 0 2.74 333 21:54 29.01.2020
3463 Clouds 15 1006 27 0 2.74 333 21:36 29.01.2020
3464 Clouds 15 1006 27 0 2.74 333 21:18 29.01.2020
3465 Clouds 15 1006 27 0 2.74 333 20:40 29.01.2020
3466 Clear 15 1009 26 0 4.68 324 20:21 29.01.2020
3467 Clear 15 1009 26 0 4.68 324 20:21 29.01.2020
3468 Clear 15 1009 26 0 4.68 324 20:21 29.01.2020
3469 Clear 15 1009 26 0 4.68 324 19:58 29.01.2020
3470 Clear 15 1009 26 0 4.68 324 19:38 29.01.2020
3471 Clear 15 1009 26 0 4.68 324 19:20 29.01.2020
3472 Clear 15 1009 26 0 4.68 324 18:56 29.01.2020
3473 Clear 15 1009 26 0 4.68 324 18:37 29.01.2020
3474 Clear 15 1009 26 0 4.68 324 18:18 29.01.2020
3475 Clear 15 1009 26 0 4.68 324 17:41 29.01.2020
3476 Clear 15 1009 26 0 4.68 324 17:22 29.01.2020
3477 Clear 12 1014 26 0 4.39 318 16:54 29.01.2020
3478 Clear 12 1014 26 0 4.39 318 16:36 29.01.2020
3479 Clear 12 1014 26 0 4.39 318 16:18 29.01.2020
3480 Clear 12 1014 26 0 4.39 318 15:39 29.01.2020
3481 Clear 12 1014 26 0 4.39 318 15:20 29.01.2020
3482 Clear 12 1014 26 0 4.39 318 14:46 29.01.2020
3483 Clear 12 1014 26 0 4.39 318 14:23 29.01.2020
3484 Clouds 8 1016 31 0 2.92 276 13:57 29.01.2020
3485 Clouds 8 1016 31 0 2.92 276 13:39 29.01.2020
3486 Clouds 8 1016 30 0 3.45 279 13:21 29.01.2020
3487 Clouds 8 1016 30 0 3.45 279 12:56 29.01.2020
3488 Clouds 8 1016 30 0 3.45 279 12:37 29.01.2020
3489 Clouds 8 1016 30 0 3.45 279 12:19 29.01.2020
3490 Clouds 8 1016 30 0 3.45 279 11:47 29.01.2020
3491 Clouds 8 1016 30 0 3.45 279 11:24 29.01.2020
3492 Clouds 5 1014 60 0 2.71 266 10:54 29.01.2020
3493 Clouds 5 1014 60 0 2.71 266 10:36 29.01.2020
3494 Clouds 5 1014 60 0 2.71 266 10:18 29.01.2020
3495 Clouds 5 1014 60 0 2.71 266 09:40 29.01.2020
3496 Clouds 5 1014 60 0 2.71 266 09:21 29.01.2020
3497 Clouds 5 1014 60 0 2.71 266 08:57 29.01.2020
3498 Clouds 5 1014 60 0 2.71 266 08:38 29.01.2020
3499 Clear 7 1014 71 0 1.72 331 08:20 29.01.2020
3500 Clear 7 1014 71 0 1.72 331 07:44 29.01.2020
3501 Clear 7 1014 71 0 1.72 331 07:24 29.01.2020
3502 Clear 7 1014 71 0 1.72 331 06:54 29.01.2020
3503 Clear 7 1014 71 0 1.72 331 06:36 29.01.2020
3504 Clear 7 1014 71 0 1.72 331 06:18 29.01.2020
3505 Clear 7 1014 71 0 1.72 331 05:43 29.01.2020
3506 Clear 7 1014 71 0 1.72 331 05:25 29.01.2020
3507 Clear 8 1015 59 0 1.52 352 04:37 29.01.2020
3508 Clear 8 1015 59 0 1.52 352 02:43 29.01.2020
3509 Clouds 11 1010 37 0 1.76 234 02:18 29.01.2020
3510 Clouds 11 1011 44 0 0.5 328 00:42 29.01.2020
3511 Clouds 11 1011 44 0 0.5 328 00:23 29.01.2020
3512 Clouds 11 1011 44 0 0.5 328 23:56 28.01.2020
3513 Clouds 11 1011 44 0 0.5 328 23:37 28.01.2020
3514 Clouds 15 1007 30 0 6.23 249 23:18 28.01.2020
3515 Clouds 15 1007 30 0 6.23 249 22:40 28.01.2020
3516 Clouds 15 1007 30 0 6.23 249 22:21 28.01.2020
3517 Clouds 15 1007 30 0 6.23 249 21:42 28.01.2020
3518 Clouds 15 1007 30 0 6.23 249 21:42 28.01.2020
3519 Clouds 15 1007 30 0 6.23 249 21:22 28.01.2020
3520 Clouds 15 1007 30 0 6.23 249 20:58 28.01.2020
3521 Clouds 15 1007 30 0 6.23 249 20:40 28.01.2020
3522 Clouds 15 1009 29 0 6.84 279 20:21 28.01.2020
3523 Clouds 15 1009 30 0 7.46 285 19:39 28.01.2020
3524 Clouds 15 1009 30 0 7.46 285 19:20 28.01.2020
3525 Clouds 15 1009 30 0 7.46 285 18:58 28.01.2020
3526 Clouds 15 1009 30 0 7.46 285 18:40 28.01.2020
3527 Clouds 15 1009 30 0 7.46 285 18:21 28.01.2020
3528 Clouds 15 1009 30 0 7.46 285 17:57 28.01.2020
3529 Clouds 15 1009 30 0 7.46 285 17:37 28.01.2020
3530 Rain 12 1014 44 0 4.26 326 17:19 28.01.2020
3531 Rain 12 1014 44 0 4.26 326 16:55 28.01.2020
3532 Rain 12 1014 44 0 4.26 326 16:55 28.01.2020
3533 Rain 12 1014 44 0 4.26 326 16:36 28.01.2020
3534 Rain 12 1014 44 0 4.26 326 16:18 28.01.2020
3535 Rain 12 1014 44 0 4.26 326 15:42 28.01.2020
3536 Rain 12 1014 44 0 4.26 326 15:19 28.01.2020
3537 Rain 12 1014 44 0 4.26 326 14:55 28.01.2020
3538 Rain 12 1014 44 0 4.26 326 14:36 28.01.2020
3539 Rain 6 1017 84 0 1.52 7 14:18 28.01.2020
3540 Rain 6 1017 84 0 1.52 7 13:39 28.01.2020
3541 Rain 6 1017 81 0 1.73 0 13:21 28.01.2020
3542 Rain 6 1017 84 0 1.52 7 13:21 28.01.2020
3543 Rain 6 1017 81 0 1.73 0 12:42 28.01.2020
3544 Rain 6 1017 81 0 1.73 0 12:24 28.01.2020
3545 Rain 6 1017 81 0 1.73 0 11:55 28.01.2020
3546 Rain 6 1017 81 0 1.73 0 11:37 28.01.2020
3547 Rain 5 1017 93 0 1.75 17 11:18 28.01.2020
3548 Rain 5 1017 93 0 1.75 17 10:40 28.01.2020
3549 Rain 5 1017 93 0 1.75 17 10:22 28.01.2020
3550 Rain 5 1017 93 0 1.75 17 09:55 28.01.2020
3551 Rain 5 1017 93 0 1.75 17 09:37 28.01.2020
3552 Rain 5 1017 93 0 1.75 17 09:18 28.01.2020
3553 Rain 5 1017 93 0 1.75 17 08:41 28.01.2020
3554 Clouds 6 1017 84 0 1.8 0 08:20 28.01.2020
3555 Clouds 6 1017 78 0 1.56 347 07:38 28.01.2020
3556 Clouds 6 1017 78 0 1.56 347 06:52 28.01.2020
3557 Clouds 6 1017 78 0 1.56 347 06:29 28.01.2020
3558 Clouds 6 1017 78 0 1.56 347 05:56 28.01.2020
3559 Clouds 6 1017 78 0 1.56 347 05:34 28.01.2020
3560 Rain 5 1019 86 0 2.74 350 04:39 28.01.2020
3561 Rain 5 1019 86 0 2.74 350 03:41 28.01.2020
3562 Rain 5 1019 86 0 2.74 350 02:40 28.01.2020
3563 Rain 6 1015 88 0 4.41 32 02:21 28.01.2020
3564 Rain 6 1015 88 0 4.41 32 01:48 28.01.2020
3565 Rain 7 1015 86 0 3.81 17 00:51 28.01.2020
3566 Rain 7 1015 86 0 3.81 17 00:30 28.01.2020
3567 Rain 7 1015 86 0 3.81 17 23:59 27.01.2020
3568 Rain 7 1015 86 0 3.81 17 23:41 27.01.2020
3569 Rain 9 1011 78 0 6.02 60 23:18 27.01.2020
3570 Rain 9 1011 78 0 6.02 60 22:44 27.01.2020
3571 Rain 9 1011 78 0 6.02 60 22:20 27.01.2020
3572 Rain 9 1011 78 0 6.02 60 21:57 27.01.2020
3573 Rain 9 1011 78 0 6.02 60 21:38 27.01.2020
3574 Rain 9 1011 78 0 6.02 60 21:18 27.01.2020
3575 Rain 9 1011 78 0 6.02 60 20:56 27.01.2020
3576 Rain 9 1011 78 0 6.02 60 20:37 27.01.2020
3577 Rain 12 1013 61 0 5.05 43 20:18 27.01.2020
3578 Rain 11 1013 62 0 4.83 40 19:42 27.01.2020
3579 Rain 11 1013 62 0 4.83 40 19:23 27.01.2020
3580 Rain 11 1013 62 0 4.83 40 18:58 27.01.2020
3581 Rain 11 1013 62 0 4.83 40 18:39 27.01.2020
3582 Rain 11 1013 62 0 4.83 40 18:20 27.01.2020
3583 Rain 11 1013 62 0 4.83 40 18:20 27.01.2020
3584 Rain 11 1013 62 0 4.83 40 18:20 27.01.2020
3585 Rain 11 1013 62 0 4.83 40 17:57 27.01.2020
3586 Rain 11 1013 62 0 4.83 40 17:37 27.01.2020
3587 Rain 11 1013 62 0 4.83 40 17:37 27.01.2020
3588 Rain 9 1016 69 0 2.8 51 17:18 27.01.2020
3589 Rain 9 1016 69 0 2.8 51 16:42 27.01.2020
3590 Rain 9 1016 69 0 2.8 51 16:24 27.01.2020
3591 Rain 9 1016 69 0 2.8 51 15:56 27.01.2020
3592 Rain 9 1016 69 0 2.8 51 15:38 27.01.2020
3593 Rain 9 1016 69 0 2.8 51 15:19 27.01.2020
3594 Rain 9 1016 69 0 2.8 51 15:19 27.01.2020
3595 Rain 9 1016 69 0 2.8 51 14:55 27.01.2020
3596 Rain 9 1016 69 0 2.8 51 14:37 27.01.2020
3597 Clouds 6 1019 82 0 1.85 33 14:18 27.01.2020
3598 Clouds 6 1019 82 0 1.85 33 13:42 27.01.2020
3599 Clouds 6 1020 82 0 1.16 2 13:21 27.01.2020
3600 Clouds 6 1020 82 0 1.16 2 12:56 27.01.2020
3601 Clouds 6 1020 82 0 1.16 2 12:37 27.01.2020
3602 Clouds 6 1020 82 0 1.16 2 12:19 27.01.2020
3603 Clouds 6 1020 82 0 1.16 2 11:42 27.01.2020
3604 Clouds 5 1018 91 0 1.68 356 11:21 27.01.2020
3605 Clouds 5 1018 91 0 1.68 356 11:21 27.01.2020
3606 Clouds 5 1018 91 0 1.68 356 10:55 27.01.2020
3607 Clouds 5 1018 91 0 1.68 356 10:36 27.01.2020
3608 Clouds 5 1018 91 0 1.68 356 10:18 27.01.2020
3609 Clouds 5 1018 91 0 1.68 356 09:39 27.01.2020
3610 Clouds 5 1018 91 0 1.68 356 09:19 27.01.2020
3611 Clouds 5 1018 91 0 1.68 356 08:48 27.01.2020
3612 Clouds 5 1018 91 0 1.68 356 08:23 27.01.2020
3613 Clouds 5 1017 86 0 1.62 65 07:55 27.01.2020
3614 Clouds 5 1017 86 0 1.62 65 07:36 27.01.2020
3615 Clouds 5 1017 86 0 1.62 65 07:18 27.01.2020
3616 Clouds 5 1017 86 0 1.62 65 06:32 27.01.2020
3617 Clouds 5 1017 86 0 1.62 65 05:37 27.01.2020
3618 Clouds 6 1019 82 0 1.54 27 04:20 27.01.2020
3619 Clouds 6 1019 82 0 1.54 27 03:27 27.01.2020
3620 Rain 6 1016 82 0 2.41 19 01:42 27.01.2020
3621 Rain 6 1016 82 0 2.41 19 01:22 27.01.2020
3622 Rain 6 1015 78 0 2.06 50 00:40 27.01.2020
3623 Rain 6 1015 78 0 2.06 50 00:19 27.01.2020
3624 Rain 6 1015 78 0 2.06 50 23:42 26.01.2020
3625 Rain 8 1010 70 0 1.91 296 23:21 26.01.2020
3626 Rain 8 1010 70 0 1.91 296 22:57 26.01.2020
3627 Rain 8 1010 70 0 1.91 296 22:38 26.01.2020
3628 Rain 8 1010 70 0 1.91 296 22:19 26.01.2020
3629 Rain 8 1010 70 0 1.91 296 21:57 26.01.2020
3630 Rain 8 1010 70 0 1.91 296 21:38 26.01.2020
3631 Rain 8 1010 70 0 1.91 296 21:20 26.01.2020
3632 Rain 8 1010 70 0 1.91 296 20:57 26.01.2020
3633 Rain 8 1010 70 0 1.91 296 20:38 26.01.2020
3634 Clouds 14 1012 34 0 1.44 36 20:19 26.01.2020
3635 Clouds 14 1012 34 0 1.44 36 20:19 26.01.2020
3636 Clouds 14 1012 34 0 1.44 36 19:57 26.01.2020
3637 Clouds 14 1012 34 0 1.44 36 19:38 26.01.2020
3638 Clouds 14 1012 34 0 1.44 36 19:19 26.01.2020
3639 Clouds 14 1012 34 0 1.44 36 19:19 26.01.2020
3640 Clouds 14 1012 34 0 1.44 36 18:55 26.01.2020
3641 Clouds 14 1012 34 0 1.44 36 18:55 26.01.2020
3642 Clouds 14 1012 34 0 1.44 36 18:36 26.01.2020
3643 Clouds 14 1012 34 0 1.44 36 18:18 26.01.2020
3644 Clouds 14 1012 34 0 1.44 36 18:18 26.01.2020
3645 Clouds 14 1012 34 0 1.44 36 17:55 26.01.2020
3646 Clouds 14 1012 34 0 1.44 36 17:36 26.01.2020
3647 Clouds 13 1017 40 0 3.3 45 17:18 26.01.2020
3648 Clouds 13 1017 40 0 3.3 45 16:55 26.01.2020
3649 Clouds 13 1017 40 0 3.3 45 16:37 26.01.2020
3650 Clouds 13 1017 40 0 3.3 45 16:18 26.01.2020
3651 Clouds 13 1017 40 0 3.3 45 15:42 26.01.2020
3652 Clouds 13 1017 40 0 3.3 45 15:19 26.01.2020
3653 Clouds 13 1017 40 0 3.3 45 14:55 26.01.2020
3654 Clouds 13 1017 40 0 3.3 45 14:37 26.01.2020
3655 Clouds 8 1020 67 0 0.77 33 14:18 26.01.2020
3656 Clouds 8 1020 67 0 0.77 33 13:39 26.01.2020
3657 Clouds 7 1020 64 0 0.49 63 13:18 26.01.2020
3658 Clouds 7 1020 64 0 0.49 63 12:54 26.01.2020
3659 Clouds 7 1020 64 0 0.49 63 12:36 26.01.2020
3660 Clouds 7 1020 64 0 0.49 63 12:18 26.01.2020
3661 Clouds 7 1020 64 0 0.49 63 11:56 26.01.2020
3662 Clouds 7 1020 64 0 0.49 63 11:36 26.01.2020
3663 Clouds 5 1019 85 0 0.93 340 11:18 26.01.2020
3664 Clouds 5 1019 85 0 0.93 340 10:39 26.01.2020
3665 Clouds 5 1019 85 0 0.93 340 10:21 26.01.2020
3666 Clouds 5 1019 85 0 0.93 340 09:59 26.01.2020
3667 Clouds 5 1019 85 0 0.93 340 09:41 26.01.2020
3668 Clouds 5 1019 85 0 0.93 340 09:22 26.01.2020
3669 Clouds 5 1019 85 0 0.93 340 08:55 26.01.2020
3670 Clouds 5 1019 85 0 0.93 340 08:37 26.01.2020
3671 Clouds 6 1018 78 0 1.12 42 08:18 26.01.2020
3672 Clouds 6 1018 79 0 1.33 17 07:45 26.01.2020
3673 Clouds 6 1018 79 0 1.33 17 07:45 26.01.2020
3674 Clouds 6 1018 79 0 1.33 17 07:22 26.01.2020
3675 Clouds 6 1018 79 0 1.33 17 06:34 26.01.2020
3676 Clouds 6 1018 79 0 1.33 17 05:52 26.01.2020
3677 Clouds 6 1018 79 0 1.33 17 05:22 26.01.2020
3678 Clear 7 1019 71 0 1.84 47 03:22 26.01.2020
3679 Clear 7 1019 71 0 1.84 47 02:23 26.01.2020
3680 Clouds 9 1015 55 0 4.01 55 01:40 26.01.2020
3681 Clouds 9 1015 57 0 3.98 52 01:20 26.01.2020
3682 Clouds 9 1015 57 0 3.98 52 00:40 26.01.2020
3683 Clouds 9 1015 57 0 3.98 52 00:20 26.01.2020
3684 Clouds 9 1015 57 0 3.98 52 23:38 25.01.2020
3685 Clouds 14 1010 29 0 6.14 59 23:20 25.01.2020
3686 Clouds 14 1010 29 0 6.14 59 22:44 25.01.2020
3687 Clouds 14 1010 29 0 6.14 59 22:21 25.01.2020
3688 Clouds 14 1010 29 0 6.14 59 21:59 25.01.2020
3689 Clouds 14 1010 29 0 6.14 59 21:41 25.01.2020
3690 Clouds 14 1010 29 0 6.14 59 21:22 25.01.2020
3691 Clouds 14 1010 29 0 6.14 59 20:55 25.01.2020
3692 Clouds 14 1010 29 0 6.14 59 20:36 25.01.2020
3693 Clouds 15 1013 21 0 5.91 75 20:18 25.01.2020
3694 Clouds 15 1013 21 0 5.91 75 19:42 25.01.2020
3695 Clouds 15 1013 21 0 5.91 75 19:20 25.01.2020
3696 Clouds 15 1013 21 0 5.91 75 19:20 25.01.2020
3697 Clouds 15 1013 21 0 5.91 75 18:57 25.01.2020
3698 Clouds 16 1013 21 0 5.82 77 18:57 25.01.2020
3699 Clouds 15 1013 21 0 5.91 75 18:38 25.01.2020
3700 Clouds 15 1013 21 0 5.91 75 18:20 25.01.2020
3701 Clouds 16 1013 21 0 5.82 77 17:40 25.01.2020
3702 Clouds 13 1016 18 0 3.51 105 17:20 25.01.2020
3703 Clouds 13 1016 19 0 3.39 99 16:58 25.01.2020
3704 Clouds 13 1016 19 0 3.39 99 16:38 25.01.2020
3705 Clouds 13 1016 19 0 3.39 99 16:19 25.01.2020
3706 Clouds 13 1016 19 0 3.39 99 15:47 25.01.2020
3707 Clouds 13 1016 19 0 3.39 99 15:25 25.01.2020
3708 Clouds 13 1016 19 0 3.39 99 14:59 25.01.2020
3709 Clouds 13 1016 19 0 3.39 99 14:40 25.01.2020
3710 Clouds 8 1019 34 0 1.57 158 14:18 25.01.2020
3711 Clouds 8 1019 34 0 1.57 158 13:42 25.01.2020
3712 Clouds 8 1019 34 0 1.57 158 13:42 25.01.2020
3713 Clouds 8 1019 32 0 1.61 157 13:23 25.01.2020
3714 Clouds 8 1019 32 0 1.61 157 12:45 25.01.2020
3715 Clouds 8 1019 32 0 1.61 157 12:26 25.01.2020
3716 Clouds 8 1019 32 0 1.61 157 11:45 25.01.2020
3717 Clouds 8 1019 32 0 1.61 157 11:22 25.01.2020
3718 Clouds 5 1017 73 0 1.31 176 10:59 25.01.2020
3719 Clouds 5 1017 73 0 1.31 176 10:40 25.01.2020
3720 Clouds 5 1017 73 0 1.31 176 10:20 25.01.2020
3721 Clouds 5 1017 73 0 1.31 176 09:54 25.01.2020
3722 Clouds 5 1017 73 0 1.31 176 09:36 25.01.2020
3723 Clouds 5 1017 73 0 1.31 176 09:18 25.01.2020
3724 Clouds 5 1017 73 0 1.31 176 08:42 25.01.2020
3725 Clouds 6 1018 85 0 1.14 43 07:51 25.01.2020
3726 Clouds 6 1018 85 0 1.14 43 06:57 25.01.2020
3727 Clouds 6 1018 85 0 1.14 43 06:29 25.01.2020
3728 Clouds 6 1018 85 0 1.14 43 05:48 25.01.2020
3729 Clouds 6 1018 85 0 1.14 43 05:28 25.01.2020
3730 Clouds 8 1018 70 0 1.37 58 03:54 25.01.2020
3731 Clouds 8 1018 70 0 1.37 58 03:23 25.01.2020
3732 Clouds 8 1018 70 0 1.37 58 02:23 25.01.2020
3733 Clouds 10 1014 50 0 4 80 01:53 25.01.2020
3734 Clouds 10 1014 53 0 4.08 82 00:52 25.01.2020
3735 Clouds 10 1014 53 0 4.08 82 00:26 25.01.2020
3736 Clouds 10 1014 53 0 4.08 82 00:26 25.01.2020
3737 Clouds 10 1014 53 0 4.08 82 23:59 24.01.2020
3738 Clouds 10 1014 53 0 4.08 82 23:41 24.01.2020
3739 Clouds 10 1014 53 0 4.08 82 23:23 24.01.2020
3740 Clouds 14 1009 29 0 7.18 95 22:46 24.01.2020
3741 Clouds 14 1009 29 0 7.18 95 22:46 24.01.2020
3742 Clouds 14 1009 29 0 7.18 95 22:25 24.01.2020
3743 Clouds 14 1009 29 0 7.18 95 21:57 24.01.2020
3744 Clouds 14 1009 29 0 7.18 95 21:38 24.01.2020
3745 Clouds 14 1009 29 0 7.18 95 21:18 24.01.2020
3746 Clouds 14 1009 29 0 7.18 95 20:42 24.01.2020
3747 Clouds 15 1011 34 0 5.62 102 20:21 24.01.2020
3748 Clouds 15 1011 34 0 5.62 102 19:58 24.01.2020
3749 Clouds 15 1011 34 0 5.62 102 19:39 24.01.2020
3750 Clouds 15 1011 34 0 5.62 102 19:21 24.01.2020
3751 Clouds 15 1011 34 0 5.62 102 18:44 24.01.2020
3752 Clouds 15 1011 34 0 5.62 102 18:25 24.01.2020
3753 Clouds 15 1011 34 0 5.62 102 17:56 24.01.2020
3754 Clouds 15 1011 34 0 5.62 102 17:56 24.01.2020
3755 Clouds 15 1011 34 0 5.62 102 17:38 24.01.2020
3756 Clouds 13 1014 32 0 5.49 123 17:20 24.01.2020
3757 Clouds 13 1014 32 0 5.49 123 16:39 24.01.2020
3758 Clouds 13 1014 32 0 5.49 123 16:21 24.01.2020
3759 Clouds 13 1014 32 0 5.49 123 15:56 24.01.2020
3760 Clouds 13 1014 32 0 5.49 123 15:38 24.01.2020
3761 Clouds 13 1014 32 0 5.49 123 15:19 24.01.2020
3762 Clouds 13 1014 32 0 5.49 123 14:41 24.01.2020
3763 Clouds 13 1014 32 0 5.49 123 14:22 24.01.2020
3764 Clouds 8 1017 64 0 1.93 141 13:45 24.01.2020
3765 Clouds 8 1018 63 0 2 127 13:24 24.01.2020
3766 Clouds 8 1018 63 0 2 127 12:55 24.01.2020
3767 Clouds 8 1018 63 0 2 127 12:36 24.01.2020
3768 Clouds 8 1018 63 0 2 127 12:18 24.01.2020
3769 Clouds 8 1018 63 0 2 127 11:42 24.01.2020
3770 Rain 7 1015 75 0 1.04 95 11:19 24.01.2020
3771 Rain 7 1015 75 0 1.04 95 10:43 24.01.2020
3772 Rain 7 1015 75 0 1.04 95 10:22 24.01.2020
3773 Rain 7 1015 75 0 1.04 95 09:56 24.01.2020
3774 Rain 7 1015 75 0 1.04 95 09:38 24.01.2020
3775 Rain 7 1015 75 0 1.04 95 09:38 24.01.2020
3776 Rain 7 1015 75 0 1.04 95 09:20 24.01.2020
3777 Rain 7 1015 75 0 1.04 95 08:40 24.01.2020
3778 Rain 7 1015 89 0 1.75 48 08:19 24.01.2020
3779 Rain 7 1016 90 0 1.66 62 07:50 24.01.2020
3780 Rain 7 1016 90 0 1.66 62 07:28 24.01.2020
3781 Rain 7 1016 90 0 1.66 62 06:48 24.01.2020
3782 Rain 7 1016 90 0 1.66 62 06:29 24.01.2020
3783 Rain 7 1016 90 0 1.66 62 05:58 24.01.2020
3784 Rain 8 1015 90 0 2.05 62 04:54 24.01.2020
3785 Rain 8 1015 90 0 2.05 62 02:53 24.01.2020
3786 Rain 8 1015 90 0 2.05 62 02:24 24.01.2020
3787 Rain 9 1013 77 0 3.58 56 01:45 24.01.2020
3788 Rain 9 1013 77 0 3.58 56 01:26 24.01.2020
3789 Rain 10 1012 76 0 3.63 55 00:23 24.01.2020
3790 Rain 10 1012 76 0 3.63 55 23:49 23.01.2020
3791 Rain 10 1012 76 0 3.63 55 23:31 23.01.2020
3792 Rain 13 1009 55 0 6.08 122 22:59 23.01.2020
3793 Rain 13 1009 55 0 6.08 122 22:38 23.01.2020
3794 Rain 13 1009 55 0 6.08 122 22:38 23.01.2020
3795 Rain 13 1009 55 0 6.08 122 22:19 23.01.2020
3796 Rain 13 1009 55 0 6.08 122 21:57 23.01.2020
3797 Rain 13 1009 55 0 6.08 122 21:39 23.01.2020
3798 Rain 13 1009 55 0 6.08 122 21:20 23.01.2020
3799 Rain 13 1009 55 0 6.08 122 20:58 23.01.2020
3800 Rain 13 1009 55 0 6.08 122 20:38 23.01.2020
3801 Rain 14 1011 51 0 4.73 113 20:19 23.01.2020
3802 Rain 14 1011 47 0 5.41 123 20:19 23.01.2020
3803 Rain 14 1011 47 0 5.41 123 19:56 23.01.2020
3804 Rain 14 1011 47 0 5.41 123 19:38 23.01.2020
3805 Rain 14 1011 47 0 5.41 123 19:19 23.01.2020
3806 Rain 14 1011 47 0 5.41 123 18:42 23.01.2020
3807 Rain 14 1011 47 0 5.41 123 18:21 23.01.2020
3808 Rain 14 1011 47 0 5.41 123 17:58 23.01.2020
3809 Rain 14 1011 47 0 5.41 123 17:40 23.01.2020
3810 Rain 12 1016 57 0 2.86 115 17:20 23.01.2020
3811 Rain 12 1016 57 0 2.86 115 16:56 23.01.2020
3812 Rain 12 1016 57 0 2.86 115 16:36 23.01.2020
3813 Rain 12 1016 57 0 2.86 115 16:18 23.01.2020
3814 Rain 12 1016 57 0 2.86 115 15:54 23.01.2020
3815 Rain 12 1016 57 0 2.86 115 15:36 23.01.2020
3816 Rain 12 1016 57 0 2.86 115 15:18 23.01.2020
3817 Rain 12 1016 57 0 2.86 115 14:55 23.01.2020
3818 Rain 12 1016 57 0 2.86 115 14:37 23.01.2020
3819 Clouds 7 1017 80 0 0.66 57 14:18 23.01.2020
3820 Clouds 7 1017 80 0 0.66 57 13:39 23.01.2020
3821 Rain 7 1018 79 0 1 85 13:20 23.01.2020
3822 Clouds 7 1018 72 0 1.09 38 12:47 23.01.2020
3823 Rain 7 1018 79 0 1 85 12:25 23.01.2020
3824 Rain 7 1018 79 0 1 85 11:59 23.01.2020
3825 Clouds 7 1018 72 0 1.09 38 11:39 23.01.2020
3826 Rain 6 1017 81 0 0.85 73 11:20 23.01.2020
3827 Rain 6 1017 81 0 0.85 73 11:20 23.01.2020
3828 Rain 6 1017 81 0 0.85 73 10:55 23.01.2020
3829 Rain 6 1017 81 0 0.85 73 10:36 23.01.2020
3830 Rain 6 1017 81 0 0.85 73 10:18 23.01.2020
3831 Rain 6 1017 81 0 0.85 73 09:39 23.01.2020
3832 Rain 6 1017 81 0 0.85 73 09:20 23.01.2020
3833 Rain 6 1017 81 0 0.85 73 08:43 23.01.2020
3834 Rain 6 1017 82 0 1.21 129 08:25 23.01.2020
3835 Clouds 6 1017 89 0 1.57 67 07:51 23.01.2020
3836 Clouds 6 1017 89 0 1.57 67 07:27 23.01.2020
3837 Clouds 6 1017 89 0 1.57 67 06:54 23.01.2020
3838 Clouds 6 1017 89 0 1.57 67 06:25 23.01.2020
3839 Clouds 6 1017 89 0 1.57 67 05:59 23.01.2020
3840 Clouds 7 1018 81 0 2.65 44 04:25 23.01.2020
3841 Clouds 7 1018 81 0 2.65 44 04:24 23.01.2020
3842 Clouds 7 1018 81 0 2.65 44 02:48 23.01.2020
3843 Clouds 8 1014 66 0 3.97 49 01:51 23.01.2020
3844 Clouds 8 1014 67 0 3.95 51 00:41 23.01.2020
3845 Clouds 8 1014 67 0 3.95 51 00:20 23.01.2020
3846 Clouds 8 1014 67 0 3.95 51 23:45 22.01.2020
3847 Clouds 8 1014 67 0 3.95 51 23:27 22.01.2020
3848 Clouds 13 1010 36 0 5.85 70 22:43 22.01.2020
3849 Clouds 13 1010 36 0 5.85 70 22:43 22.01.2020
3850 Clouds 13 1010 36 0 5.85 70 22:24 22.01.2020
3851 Clouds 13 1010 36 0 5.85 70 21:58 22.01.2020
3852 Clouds 13 1010 36 0 5.85 70 21:36 22.01.2020
3853 Clouds 13 1010 36 0 5.85 70 21:18 22.01.2020
3854 Clouds 13 1010 36 0 5.85 70 20:42 22.01.2020
3855 Clouds 12 1011 46 0 6.38 66 20:23 22.01.2020
3856 Clouds 14 1013 31 0 6.66 88 19:59 22.01.2020
3857 Clouds 14 1013 31 0 6.66 88 19:41 22.01.2020
3858 Clouds 14 1013 31 0 6.66 88 19:20 22.01.2020
3859 Clouds 14 1013 31 0 6.66 88 18:58 22.01.2020
3860 Clouds 14 1013 31 0 6.66 88 18:39 22.01.2020
3861 Clouds 14 1013 31 0 6.66 88 18:21 22.01.2020
3862 Clouds 14 1013 31 0 6.66 88 17:57 22.01.2020
3863 Clouds 14 1013 31 0 6.66 88 17:38 22.01.2020
3864 Rain 11 1016 51 0 4.16 89 17:19 22.01.2020
3865 Rain 11 1016 51 0 4.16 89 16:54 22.01.2020
3866 Rain 11 1016 51 0 4.16 89 16:36 22.01.2020
3867 Rain 11 1016 51 0 4.16 89 16:18 22.01.2020
3868 Rain 11 1016 51 0 4.16 89 15:41 22.01.2020
3869 Rain 11 1016 51 0 4.16 89 15:23 22.01.2020
3870 Rain 11 1016 51 0 4.16 89 14:58 22.01.2020
3871 Rain 11 1016 51 0 4.16 89 14:37 22.01.2020
3872 Rain 7 1018 75 0 2.24 102 14:19 22.01.2020
3873 Rain 7 1018 75 0 2.24 102 13:56 22.01.2020
3874 Rain 7 1018 75 0 2.24 102 13:37 22.01.2020
3875 Rain 8 1018 74 0 2.89 122 13:19 22.01.2020
3876 Rain 8 1018 74 0 2.89 122 12:56 22.01.2020
3877 Rain 8 1018 74 0 2.89 122 12:38 22.01.2020
3878 Rain 8 1018 74 0 2.89 122 12:19 22.01.2020
3879 Rain 8 1018 74 0 2.89 122 11:56 22.01.2020
3880 Rain 8 1018 74 0 2.89 122 11:38 22.01.2020
3881 Rain 7 1016 81 0 2.16 126 11:19 22.01.2020
3882 Rain 7 1016 81 0 2.16 126 10:45 22.01.2020
3883 Rain 7 1016 81 0 2.16 126 10:21 22.01.2020
3884 Rain 7 1016 81 0 2.16 126 09:57 22.01.2020
3885 Rain 7 1016 81 0 2.16 126 09:39 22.01.2020
3886 Rain 7 1016 81 0 2.16 126 09:20 22.01.2020
3887 Rain 7 1016 81 0 2.16 126 08:54 22.01.2020
3888 Rain 7 1016 81 0 2.16 126 08:36 22.01.2020
3889 Rain 6 1017 82 0 1.41 188 08:18 22.01.2020
3890 Rain 6 1017 82 0 1.41 188 07:42 22.01.2020
3891 Rain 6 1017 82 0 1.41 188 07:23 22.01.2020
3892 Rain 6 1017 82 0 1.41 188 06:34 22.01.2020
3893 Rain 6 1017 82 0 1.41 188 05:45 22.01.2020
3894 Rain 5 1018 90 0 3.63 160 04:25 22.01.2020
3895 Rain 5 1018 90 0 3.63 160 03:26 22.01.2020
3896 Rain 5 1018 90 0 3.63 160 02:42 22.01.2020
3897 Rain 9 1014 84 0 5.04 63 00:47 22.01.2020
3898 Rain 9 1014 84 0 5.04 63 00:27 22.01.2020
3899 Rain 9 1014 84 0 5.04 63 23:57 21.01.2020
3900 Rain 9 1014 84 0 5.04 63 23:37 21.01.2020
3901 Rain 13 1007 61 0 5.38 55 23:18 21.01.2020
3902 Rain 13 1007 61 0 5.38 55 22:40 21.01.2020
3903 Rain 13 1007 61 0 5.38 55 22:21 21.01.2020
3904 Rain 13 1007 61 0 5.38 55 21:58 21.01.2020
3905 Rain 13 1007 61 0 5.38 55 21:39 21.01.2020
3906 Rain 13 1007 61 0 5.38 55 21:20 21.01.2020
3907 Rain 13 1007 61 0 5.38 55 20:57 21.01.2020
3908 Rain 13 1007 61 0 5.38 55 20:57 21.01.2020
3909 Rain 13 1007 61 0 5.38 55 20:39 21.01.2020
3910 Rain 14 1008 55 0 5.64 61 20:20 21.01.2020
3911 Rain 14 1008 55 0 5.64 61 19:58 21.01.2020
3912 Rain 14 1008 55 0 5.64 61 19:39 21.01.2020
3913 Rain 14 1008 55 0 5.64 61 19:21 21.01.2020
3914 Rain 14 1008 55 0 5.64 61 18:56 21.01.2020
3915 Rain 14 1008 55 0 5.64 61 18:38 21.01.2020
3916 Rain 14 1008 55 0 5.64 61 18:20 21.01.2020
3917 Rain 14 1008 55 0 5.64 61 17:45 21.01.2020
3918 Rain 14 1008 55 0 5.64 61 17:22 21.01.2020
3919 Rain 12 1012 60 0 2.98 44 16:59 21.01.2020
3920 Rain 12 1012 60 0 2.98 44 16:37 21.01.2020
3921 Rain 12 1012 60 0 2.98 44 16:19 21.01.2020
3922 Rain 12 1012 60 0 2.98 44 15:57 21.01.2020
3923 Rain 12 1012 60 0 2.98 44 15:37 21.01.2020
3924 Rain 12 1012 60 0 2.98 44 15:19 21.01.2020
3925 Rain 12 1012 60 0 2.98 44 14:39 21.01.2020
3926 Clouds 8 1015 81 0 0.96 46 14:20 21.01.2020
3927 Clouds 8 1015 81 0 0.96 46 13:43 21.01.2020
3928 Clouds 8 1015 81 0 0.96 46 13:43 21.01.2020
3929 Clouds 8 1015 80 0 1.15 43 13:20 21.01.2020
3930 Clouds 8 1015 80 0 1.15 43 12:58 21.01.2020
3931 Clouds 8 1015 80 0 1.15 43 12:39 21.01.2020
3932 Clouds 8 1015 80 0 1.15 43 12:21 21.01.2020
3933 Clouds 8 1015 80 0 1.15 43 11:55 21.01.2020
3934 Clouds 8 1015 80 0 1.15 43 11:36 21.01.2020
3935 Rain 7 1014 90 0 1.23 60 11:18 21.01.2020
3936 Rain 7 1014 90 0 1.23 60 10:42 21.01.2020
3937 Rain 7 1014 90 0 1.23 60 10:22 21.01.2020
3938 Rain 7 1014 90 0 1.23 60 09:43 21.01.2020
3939 Rain 7 1014 90 0 1.23 60 09:24 21.01.2020
3940 Rain 7 1014 90 0 1.23 60 08:58 21.01.2020
3941 Rain 7 1014 90 0 1.23 60 08:40 21.01.2020
3942 Rain 7 1015 88 0 1.58 56 08:19 21.01.2020
3943 Rain 7 1015 88 0 1.58 56 07:42 21.01.2020
3944 Rain 7 1015 88 0 1.58 56 07:42 21.01.2020
3945 Rain 7 1015 88 0 1.58 56 07:23 21.01.2020
3946 Rain 7 1015 88 0 1.58 56 07:23 21.01.2020
3947 Rain 7 1015 88 0 1.58 56 06:56 21.01.2020
3948 Rain 7 1015 88 0 1.58 56 06:37 21.01.2020
3949 Rain 7 1015 88 0 1.58 56 05:53 21.01.2020
3950 Clouds 8 1015 84 0 2.37 56 04:41 21.01.2020
3951 Clouds 8 1015 84 0 2.37 56 04:19 21.01.2020
3952 Clouds 8 1015 84 0 2.37 56 02:26 21.01.2020
3953 Rain 9 1013 77 0 4.81 53 01:31 21.01.2020
3954 Rain 9 1013 77 0 4.81 53 00:41 21.01.2020
3955 Rain 9 1013 77 0 4.81 53 00:22 21.01.2020
3956 Rain 9 1013 77 0 4.81 53 23:41 20.01.2020
3957 Rain 14 1009 53 0 4.65 66 23:19 20.01.2020
3958 Rain 14 1009 53 0 4.65 66 22:59 20.01.2020
3959 Rain 14 1009 53 0 4.65 66 22:39 20.01.2020
3960 Rain 14 1009 53 0 4.65 66 22:21 20.01.2020
3961 Rain 14 1009 53 0 4.65 66 21:58 20.01.2020
3962 Rain 14 1009 53 0 4.65 66 21:38 20.01.2020
3963 Rain 14 1009 53 0 4.65 66 21:20 20.01.2020
3964 Rain 14 1009 53 0 4.65 66 20:58 20.01.2020
3965 Rain 14 1009 53 0 4.65 66 20:39 20.01.2020
3966 Clouds 15 1012 42 0 4.25 57 20:19 20.01.2020
3967 Clouds 15 1012 42 0 4.25 57 20:19 20.01.2020
3968 Clouds 15 1012 42 0 4.25 57 19:57 20.01.2020
3969 Clouds 15 1012 42 0 4.25 57 19:38 20.01.2020
3970 Clouds 15 1012 42 0 4.25 57 19:19 20.01.2020
3971 Clouds 15 1012 42 0 4.25 57 18:45 20.01.2020
3972 Clouds 15 1012 42 0 4.25 57 18:24 20.01.2020
3973 Clouds 15 1012 42 0 4.25 57 17:59 20.01.2020
3974 Clouds 15 1012 42 0 4.25 57 17:37 20.01.2020
3975 Clouds 12 1016 50 0 3.2 57 17:18 20.01.2020
3976 Clouds 12 1016 50 0 3.2 57 16:45 20.01.2020
3977 Clouds 12 1016 50 0 3.2 57 16:25 20.01.2020
3978 Clouds 12 1016 50 0 3.2 57 15:58 20.01.2020
3979 Clouds 12 1016 50 0 3.2 57 15:40 20.01.2020
3980 Clouds 12 1016 50 0 3.2 57 15:21 20.01.2020
3981 Clouds 12 1016 50 0 3.2 57 14:56 20.01.2020
3982 Clouds 12 1016 50 0 3.2 57 14:37 20.01.2020
3983 Clouds 7 1018 72 0 1.26 53 14:19 20.01.2020
3984 Clouds 7 1018 72 0 1.26 53 13:42 20.01.2020
3985 Clouds 7 1019 73 0 1.21 47 13:23 20.01.2020
3986 Clouds 7 1019 73 0 1.21 47 12:56 20.01.2020
3987 Clouds 7 1019 73 0 1.21 47 12:38 20.01.2020
3988 Clouds 7 1019 73 0 1.21 47 12:19 20.01.2020
3989 Clouds 7 1019 73 0 1.21 47 11:43 20.01.2020
3990 Clouds 7 1019 73 0 1.21 47 11:24 20.01.2020
3991 Clouds 6 1017 90 0 1.01 81 10:58 20.01.2020
3992 Clouds 6 1017 90 0 1.01 81 10:40 20.01.2020
3993 Clouds 6 1017 90 0 1.01 81 10:20 20.01.2020
3994 Clouds 6 1017 90 0 1.01 81 09:41 20.01.2020
3995 Clouds 6 1017 90 0 1.01 81 09:22 20.01.2020
3996 Clouds 6 1017 90 0 1.01 81 08:54 20.01.2020
3997 Clouds 6 1017 92 0 0.23 85 08:31 20.01.2020
3998 Clouds 6 1018 89 0 1.86 67 07:55 20.01.2020
3999 Clouds 6 1018 89 0 1.86 67 07:36 20.01.2020
4000 Clouds 6 1018 89 0 1.86 67 07:18 20.01.2020
4001 Clouds 6 1018 89 0 1.86 67 06:35 20.01.2020
4002 Clouds 6 1018 89 0 1.86 67 05:56 20.01.2020
4003 Clouds 6 1018 89 0 1.86 67 05:37 20.01.2020
4004 Clouds 8 1018 81 0 1.56 30 05:18 20.01.2020
4005 Clouds 8 1018 81 0 1.56 30 03:47 20.01.2020
4006 Clouds 9 1015 74 0 4.34 52 01:58 20.01.2020
4007 Clouds 9 1015 74 0 4.34 52 01:39 20.01.2020
4008 Clouds 9 1015 73 0 4.04 54 00:55 20.01.2020
4009 Clouds 9 1015 73 0 4.04 54 00:28 20.01.2020
4010 Clouds 9 1015 73 0 4.04 54 23:56 19.01.2020
4011 Clouds 9 1015 73 0 4.04 54 23:37 19.01.2020
4012 Clouds 12 1012 56 0 6.62 53 23:18 19.01.2020
4013 Clouds 12 1012 56 0 6.62 53 22:55 19.01.2020
4014 Clouds 12 1012 56 0 6.62 53 22:36 19.01.2020
4015 Clouds 12 1012 56 0 6.62 53 22:18 19.01.2020
4016 Clouds 12 1012 56 0 6.62 53 21:55 19.01.2020
4017 Clouds 12 1012 56 0 6.62 53 21:37 19.01.2020
4018 Clouds 12 1012 56 0 6.62 53 21:19 19.01.2020
4019 Clouds 12 1012 56 0 6.62 53 20:56 19.01.2020
4020 Clouds 12 1012 56 0 6.62 53 20:37 19.01.2020
4021 Clouds 14 1014 45 0 5.55 52 20:19 19.01.2020
4022 Clouds 14 1014 45 0 5.55 52 19:55 19.01.2020
4023 Clouds 14 1014 45 0 5.55 52 19:37 19.01.2020
4024 Clouds 14 1014 45 0 5.55 52 19:19 19.01.2020
4025 Clouds 14 1014 45 0 5.55 52 18:55 19.01.2020
4026 Clouds 14 1014 45 0 5.55 52 18:37 19.01.2020
4027 Clouds 14 1014 45 0 5.55 52 18:18 19.01.2020
4028 Clouds 14 1014 45 0 5.55 52 17:57 19.01.2020
4029 Clouds 14 1014 45 0 5.55 52 17:38 19.01.2020
4030 Clouds 12 1018 54 0 4.04 54 17:19 19.01.2020
4031 Clouds 12 1018 54 0 4.04 54 16:57 19.01.2020
4032 Clouds 12 1018 54 0 4.04 54 16:37 19.01.2020
4033 Clouds 12 1018 54 0 4.04 54 16:19 19.01.2020
4034 Clouds 12 1018 54 0 4.04 54 15:56 19.01.2020
4035 Clouds 12 1018 54 0 4.04 54 15:37 19.01.2020
4036 Clouds 12 1018 54 0 4.04 54 15:18 19.01.2020
4037 Clouds 12 1018 54 0 4.04 54 14:56 19.01.2020
4038 Clouds 12 1018 54 0 4.04 54 14:56 19.01.2020
4039 Clouds 12 1018 54 0 4.04 54 14:37 19.01.2020
4040 Clouds 7 1019 83 0 1.82 63 14:18 19.01.2020
4041 Clouds 7 1019 83 0 1.82 63 14:18 19.01.2020
4042 Clouds 7 1019 83 0 1.82 63 13:54 19.01.2020
4043 Clouds 7 1019 83 0 1.82 63 13:36 19.01.2020
4044 Clouds 7 1019 83 0 1.82 63 13:18 19.01.2020
4045 Clouds 7 1020 81 0 2.38 57 12:42 19.01.2020
4046 Clouds 7 1020 81 0 2.38 57 12:23 19.01.2020
4047 Clouds 7 1020 81 0 2.38 57 11:57 19.01.2020
4048 Clouds 7 1020 81 0 2.38 57 11:39 19.01.2020
4049 Clouds 7 1018 87 0 2.23 47 11:19 19.01.2020
4050 Clouds 7 1018 87 0 2.23 47 10:55 19.01.2020
4051 Clouds 7 1018 87 0 2.23 47 10:37 19.01.2020
4052 Clouds 7 1018 87 0 2.23 47 10:18 19.01.2020
4053 Clouds 7 1018 87 0 2.23 47 09:41 19.01.2020
4054 Clouds 7 1018 87 0 2.23 47 09:23 19.01.2020
4055 Clouds 7 1018 87 0 2.23 47 08:57 19.01.2020
4056 Clouds 7 1018 87 0 2.23 47 08:38 19.01.2020
4057 Clouds 8 1017 88 0 2.09 49 08:20 19.01.2020
4058 Clouds 8 1017 88 0 2.09 49 07:40 19.01.2020
4059 Clouds 8 1017 88 0 2.09 49 07:21 19.01.2020
4060 Clouds 8 1017 88 0 2.09 49 06:44 19.01.2020
4061 Clouds 8 1018 84 0 1.76 65 05:21 19.01.2020
4062 Clouds 8 1018 84 0 1.76 65 02:43 19.01.2020
4063 Rain 10 1015 77 0 4.24 52 02:21 19.01.2020
4064 Rain 9 1015 79 0 3.94 55 01:24 19.01.2020
4065 Rain 9 1015 79 0 3.94 55 00:45 19.01.2020
4066 Rain 9 1015 79 0 3.94 55 00:27 19.01.2020
4067 Rain 9 1015 79 0 3.94 55 23:55 18.01.2020
4068 Rain 9 1015 79 0 3.94 55 23:37 18.01.2020
4069 Rain 12 1011 64 0 4.66 52 23:18 18.01.2020
4070 Rain 12 1011 64 0 4.66 52 22:55 18.01.2020
4071 Rain 12 1011 64 0 4.66 52 22:36 18.01.2020
4072 Rain 12 1011 64 0 4.66 52 22:18 18.01.2020
4073 Rain 12 1011 64 0 4.66 52 22:18 18.01.2020
4074 Rain 12 1011 64 0 4.66 52 21:56 18.01.2020
4075 Rain 12 1011 64 0 4.66 52 21:36 18.01.2020
4076 Rain 12 1011 64 0 4.66 52 21:18 18.01.2020
4077 Rain 12 1011 64 0 4.66 52 20:42 18.01.2020
4078 Rain 14 1014 53 0 4.7 37 20:20 18.01.2020
4079 Rain 14 1014 53 0 4.7 37 19:55 18.01.2020
4080 Rain 14 1014 53 0 4.7 37 19:37 18.01.2020
4081 Rain 14 1014 53 0 4.7 37 19:37 18.01.2020
4082 Rain 14 1014 53 0 4.7 37 19:19 18.01.2020
4083 Rain 14 1014 53 0 4.7 37 18:42 18.01.2020
4084 Rain 14 1014 53 0 4.7 37 18:21 18.01.2020
4085 Rain 14 1014 53 0 4.7 37 17:54 18.01.2020
4086 Rain 14 1014 53 0 4.7 37 17:36 18.01.2020
4087 Rain 12 1018 58 0 3.9 36 17:18 18.01.2020
4088 Rain 12 1018 58 0 3.9 36 16:41 18.01.2020
4089 Rain 12 1018 58 0 3.9 36 16:23 18.01.2020
4090 Rain 12 1018 58 0 3.9 36 15:58 18.01.2020
4091 Rain 12 1018 58 0 3.9 36 15:40 18.01.2020
4092 Rain 12 1018 58 0 3.9 36 15:22 18.01.2020
4093 Rain 12 1018 58 0 3.9 36 14:44 18.01.2020
4094 Rain 12 1018 58 0 3.9 36 14:24 18.01.2020
4095 Clouds 7 1020 81 0 1.27 330 13:59 18.01.2020
4096 Clouds 7 1020 81 0 1.27 330 13:41 18.01.2020
4097 Clouds 7 1020 80 0 1.41 346 13:21 18.01.2020
4098 Clouds 7 1020 80 0 1.41 346 12:55 18.01.2020
4099 Clouds 7 1020 80 0 1.41 346 12:55 18.01.2020
4100 Clouds 7 1020 80 0 1.41 346 12:37 18.01.2020
4101 Clouds 7 1020 80 0 1.41 346 12:19 18.01.2020
4102 Clouds 7 1020 80 0 1.41 346 11:44 18.01.2020
4103 Clouds 6 1019 93 0 1.94 26 11:21 18.01.2020
4104 Clouds 6 1019 93 0 1.94 26 10:54 18.01.2020
4105 Clouds 6 1019 93 0 1.94 26 10:36 18.01.2020
4106 Clouds 6 1019 93 0 1.94 26 10:18 18.01.2020
4107 Clouds 6 1019 93 0 1.94 26 09:42 18.01.2020
4108 Clouds 6 1019 93 0 1.94 26 09:20 18.01.2020
4109 Clouds 6 1019 93 0 1.94 26 08:55 18.01.2020
4110 Clouds 6 1019 93 0 1.94 26 08:36 18.01.2020
4111 Clouds 7 1018 87 0 1.53 14 08:18 18.01.2020
4112 Clouds 7 1019 90 0 1.79 38 07:40 18.01.2020
4113 Clouds 7 1019 90 0 1.79 38 07:20 18.01.2020
4114 Clouds 7 1019 90 0 1.79 38 06:45 18.01.2020
4115 Clouds 7 1019 90 0 1.79 38 05:53 18.01.2020
4116 Rain 7 1020 87 0 1.85 33 04:28 18.01.2020
4117 Rain 7 1020 87 0 1.85 33 02:49 18.01.2020
4118 Rain 9 1018 80 0 3.54 51 01:47 18.01.2020
4119 Rain 9 1017 77 0 3.7 55 00:40 18.01.2020
4120 Rain 9 1017 77 0 3.7 55 00:21 18.01.2020
4121 Rain 9 1017 77 0 3.7 55 23:59 17.01.2020
4122 Rain 9 1017 77 0 3.7 55 23:40 17.01.2020
4123 Rain 12 1014 60 0 3.36 43 23:19 17.01.2020
4124 Rain 12 1014 60 0 3.36 43 22:43 17.01.2020
4125 Rain 12 1014 60 0 3.36 43 22:21 17.01.2020
4126 Rain 12 1014 60 0 3.36 43 21:57 17.01.2020
4127 Rain 12 1014 60 0 3.36 43 21:39 17.01.2020
4128 Rain 12 1014 60 0 3.36 43 21:20 17.01.2020
4129 Rain 12 1014 60 0 3.36 43 20:55 17.01.2020
4130 Rain 12 1014 60 0 3.36 43 20:36 17.01.2020
4131 Rain 12 1016 54 0 3.54 18 20:18 17.01.2020
4132 Rain 12 1016 54 0 3.54 18 19:54 17.01.2020
4133 Rain 12 1016 54 0 3.54 18 19:36 17.01.2020
4134 Rain 12 1016 54 0 3.54 18 19:18 17.01.2020
4135 Rain 12 1016 54 0 3.54 18 18:44 17.01.2020
4136 Rain 12 1016 54 0 3.54 18 18:26 17.01.2020
4137 Rain 12 1016 54 0 3.54 18 17:56 17.01.2020
4138 Rain 12 1016 54 0 3.54 18 17:56 17.01.2020
4139 Rain 12 1016 54 0 3.54 18 17:38 17.01.2020
4140 Clouds 10 1020 60 0 2.71 32 17:19 17.01.2020
4141 Clouds 10 1020 60 0 2.71 32 16:42 17.01.2020
4142 Clouds 10 1020 60 0 2.71 32 16:20 17.01.2020
4143 Clouds 10 1020 60 0 2.71 32 15:48 17.01.2020
4144 Clouds 10 1020 60 0 2.71 32 15:27 17.01.2020
4145 Clouds 10 1020 60 0 2.71 32 14:56 17.01.2020
4146 Clouds 10 1020 60 0 2.71 32 14:38 17.01.2020
4147 Clouds 6 1022 80 0 1.25 34 14:20 17.01.2020
4148 Clouds 6 1022 80 0 1.25 34 13:39 17.01.2020
4149 Clouds 5 1023 81 0 0.98 355 13:21 17.01.2020
4150 Clouds 5 1023 81 0 0.98 355 13:21 17.01.2020
4151 Clouds 5 1023 81 0 0.98 355 12:45 17.01.2020
4152 Clouds 5 1023 81 0 0.98 355 12:23 17.01.2020
4153 Clouds 5 1023 81 0 0.98 355 12:23 17.01.2020
4154 Clouds 5 1023 81 0 0.98 355 11:41 17.01.2020
4155 Clouds 5 1022 89 0 2.07 55 11:20 17.01.2020
4156 Clouds 5 1022 89 0 2.07 55 10:55 17.01.2020
4157 Clouds 5 1022 89 0 2.07 55 10:36 17.01.2020
4158 Clouds 5 1022 89 0 2.07 55 10:18 17.01.2020
4159 Clouds 5 1022 89 0 2.07 55 09:42 17.01.2020
4160 Clouds 5 1022 89 0 2.07 55 09:21 17.01.2020
4161 Clouds 5 1022 89 0 2.07 55 08:56 17.01.2020
4162 Clouds 5 1022 89 0 2.07 55 08:38 17.01.2020
4163 Clouds 6 1020 89 0 2.78 47 08:19 17.01.2020
4164 Clouds 6 1020 89 0 2.78 47 07:43 17.01.2020
4165 Clouds 6 1020 89 0 2.78 47 07:25 17.01.2020
4166 Clouds 6 1020 89 0 2.78 47 06:47 17.01.2020
4167 Clouds 6 1020 89 0 2.78 47 06:29 17.01.2020
4168 Rain 7 1021 84 0 4.47 51 04:27 17.01.2020
4169 Rain 7 1021 84 0 4.47 51 02:56 17.01.2020
4170 Rain 7 1021 84 0 4.47 51 02:56 17.01.2020
4171 Rain 7 1021 84 0 4.47 51 02:32 17.01.2020
4172 Clouds 8 1017 75 0 5.26 60 01:44 17.01.2020
4173 Clouds 9 1017 73 0 4.63 55 01:22 17.01.2020
4174 Clouds 9 1017 73 0 4.63 55 00:37 17.01.2020
4175 Clouds 9 1017 73 0 4.63 55 00:19 17.01.2020
4176 Clouds 9 1017 73 0 4.63 55 23:41 16.01.2020
4177 Clouds 9 1017 73 0 4.63 55 23:22 16.01.2020
4178 Rain 12 1013 57 0 5.58 49 22:41 16.01.2020
4179 Rain 12 1013 57 0 5.58 49 22:21 16.01.2020
4180 Rain 12 1013 57 0 5.58 49 21:57 16.01.2020
4181 Rain 12 1013 57 0 5.58 49 21:38 16.01.2020
4182 Rain 12 1013 57 0 5.58 49 21:19 16.01.2020
4183 Rain 12 1013 57 0 5.58 49 20:57 16.01.2020
4184 Rain 12 1013 57 0 5.58 49 20:38 16.01.2020
4185 Clouds 13 1014 47 0 6.83 46 20:19 16.01.2020
4186 Clouds 13 1014 47 0 6.9 46 19:56 16.01.2020
4187 Clouds 13 1014 47 0 6.9 46 19:37 16.01.2020
4188 Clouds 13 1014 47 0 6.9 46 19:19 16.01.2020
4189 Clouds 13 1014 47 0 6.9 46 18:55 16.01.2020
4190 Clouds 13 1014 47 0 6.9 46 18:37 16.01.2020
4191 Clouds 13 1014 47 0 6.9 46 18:18 16.01.2020
4192 Clouds 13 1014 47 0 6.9 46 18:18 16.01.2020
4193 Clouds 13 1014 47 0 6.9 46 17:42 16.01.2020
4194 Clouds 13 1014 47 0 6.9 46 17:23 16.01.2020
4195 Clouds 12 1017 51 0 6.11 52 16:57 16.01.2020
4196 Clouds 12 1017 51 0 6.11 52 16:39 16.01.2020
4197 Clouds 12 1017 51 0 6.11 52 16:19 16.01.2020
4198 Clouds 12 1017 51 0 6.11 52 15:44 16.01.2020
4199 Clouds 12 1017 51 0 6.11 52 15:23 16.01.2020
4200 Clouds 12 1017 51 0 6.11 52 14:57 16.01.2020
4201 Clouds 12 1017 51 0 6.11 52 14:39 16.01.2020
4202 Clouds 8 1018 74 0 3.11 63 14:20 16.01.2020
4203 Clouds 8 1018 74 0 3.11 63 13:45 16.01.2020
4204 Clouds 8 1018 74 0 3.11 63 13:26 16.01.2020
4205 Clouds 8 1018 75 0 3.03 61 12:47 16.01.2020
4206 Clouds 8 1018 75 0 3.03 61 12:29 16.01.2020
4207 Clouds 8 1018 75 0 3.03 61 12:29 16.01.2020
4208 Clouds 8 1018 75 0 3.03 61 11:59 16.01.2020
4209 Clouds 8 1018 75 0 3.03 61 11:41 16.01.2020
4210 Clouds 8 1018 75 0 3.03 61 11:41 16.01.2020
4211 Clouds 8 1018 75 0 3.03 61 11:23 16.01.2020
4212 Rain 7 1015 93 0 1.87 52 10:55 16.01.2020
4213 Rain 7 1015 93 0 1.87 52 10:36 16.01.2020
4214 Rain 7 1015 93 0 1.87 52 10:18 16.01.2020
4215 Rain 7 1015 93 0 1.87 52 09:42 16.01.2020
4216 Rain 7 1015 93 0 1.87 52 09:24 16.01.2020
4217 Rain 7 1015 93 0 1.87 52 08:58 16.01.2020
4218 Rain 7 1015 93 0 1.87 52 08:39 16.01.2020
4219 Rain 8 1014 92 0 1.72 58 08:18 16.01.2020
4220 Rain 8 1014 92 0 1.72 58 07:42 16.01.2020
4221 Rain 8 1014 92 0 1.72 58 07:23 16.01.2020
4222 Rain 8 1014 92 0 1.72 58 06:50 16.01.2020
4223 Rain 8 1014 92 0 1.72 58 06:32 16.01.2020
4224 Rain 8 1014 92 0 1.72 58 05:49 16.01.2020
4225 Rain 9 1013 81 0 1.79 67 04:46 16.01.2020
4226 Rain 9 1013 81 0 1.79 67 04:46 16.01.2020
4227 Rain 9 1013 81 0 1.79 67 03:56 16.01.2020
4228 Rain 9 1013 81 0 1.79 67 02:46 16.01.2020
4229 Rain 11 1008 74 0 4.07 49 01:32 16.01.2020
4230 Rain 11 1009 72 0 3.96 52 00:43 16.01.2020
4231 Rain 11 1009 72 0 3.96 52 00:43 16.01.2020
4232 Rain 11 1009 72 0 3.96 52 00:23 16.01.2020
4233 Rain 11 1009 72 0 3.96 52 23:44 15.01.2020
4234 Rain 11 1009 72 0 3.96 52 23:44 15.01.2020
4235 Rain 15 1005 48 0 5.7 38 23:22 15.01.2020
4236 Rain 15 1005 48 0 5.7 38 23:22 15.01.2020
4237 Rain 15 1005 48 0 5.7 38 23:21 15.01.2020
4238 Rain 15 1005 48 0 5.7 38 22:56 15.01.2020
4239 Rain 15 1005 48 0 5.7 38 22:38 15.01.2020
4240 Rain 15 1005 48 0 5.7 38 22:18 15.01.2020
4241 Rain 15 1005 48 0 5.7 38 21:56 15.01.2020
4242 Rain 15 1005 48 0 5.7 38 21:56 15.01.2020
4243 Rain 15 1005 48 0 5.7 38 21:37 15.01.2020
4244 Rain 15 1005 48 0 5.7 38 21:18 15.01.2020
4245 Rain 15 1005 48 0 5.7 38 20:55 15.01.2020
4246 Rain 15 1005 48 0 5.7 38 20:37 15.01.2020
4247 Rain 16 1007 39 0 4.14 54 20:18 15.01.2020
4248 Rain 16 1008 41 0 4.85 56 19:54 15.01.2020
4249 Rain 16 1008 41 0 4.85 56 19:36 15.01.2020
4250 Rain 16 1008 41 0 4.85 56 19:18 15.01.2020
4251 Rain 16 1008 41 0 4.85 56 19:18 15.01.2020
4252 Rain 16 1008 41 0 4.85 56 18:55 15.01.2020
4253 Rain 16 1008 41 0 4.85 56 18:55 15.01.2020
4254 Rain 16 1008 41 0 4.85 56 18:37 15.01.2020
4255 Rain 16 1008 41 0 4.85 56 18:19 15.01.2020
4256 Rain 16 1008 41 0 4.85 56 17:41 15.01.2020
4257 Rain 16 1008 41 0 4.85 56 17:23 15.01.2020
4258 Rain 14 1011 48 0 3.17 68 16:59 15.01.2020
4259 Rain 14 1011 48 0 3.17 68 16:39 15.01.2020
4260 Rain 14 1011 48 0 3.17 68 16:21 15.01.2020
4261 Rain 14 1011 48 0 3.17 68 15:43 15.01.2020
4262 Rain 14 1011 48 0 3.17 68 15:21 15.01.2020
4263 Rain 14 1011 48 0 3.17 68 15:21 15.01.2020
4264 Rain 14 1011 48 0 3.17 68 15:21 15.01.2020
4265 Rain 14 1011 48 0 3.17 68 14:59 15.01.2020
4266 Rain 14 1011 48 0 3.17 68 14:41 15.01.2020
4267 Rain 10 1014 59 0 1.14 143 14:18 15.01.2020
4268 Rain 10 1014 59 0 1.14 143 13:46 15.01.2020
4269 Clouds 10 1014 59 0 1.04 125 13:26 15.01.2020
4270 Clouds 10 1014 59 0 1.04 125 12:59 15.01.2020
4271 Clouds 10 1014 59 0 1.04 125 12:39 15.01.2020
4272 Clouds 10 1014 59 0 1.04 125 12:19 15.01.2020
4273 Clouds 10 1014 59 0 1.04 125 11:56 15.01.2020
4274 Clouds 10 1014 59 0 1.04 125 11:37 15.01.2020
4275 Rain 8 1012 74 0 1.59 220 11:18 15.01.2020
4276 Rain 8 1012 74 0 1.59 220 10:42 15.01.2020
4277 Rain 8 1012 74 0 1.59 220 10:24 15.01.2020
4278 Rain 8 1012 74 0 1.59 220 09:42 15.01.2020
4279 Rain 8 1012 74 0 1.59 220 09:23 15.01.2020
4280 Rain 8 1012 74 0 1.59 220 08:56 15.01.2020
4281 Rain 8 1012 74 0 1.59 220 08:37 15.01.2020
4282 Rain 7 1011 83 0 2.35 138 08:19 15.01.2020
4283 Rain 7 1012 76 0 0.62 136 07:50 15.01.2020
4284 Rain 7 1012 76 0 0.62 136 07:30 15.01.2020
4285 Rain 7 1012 76 0 0.62 136 06:44 15.01.2020
4286 Rain 7 1012 76 0 0.62 136 06:18 15.01.2020
4287 Rain 7 1012 86 0 2.92 109 04:36 15.01.2020
4288 Rain 7 1012 86 0 2.92 109 02:32 15.01.2020
4289 Rain 9 1010 72 0 1.89 150 01:27 15.01.2020
4290 Rain 9 1010 72 0 1.89 150 00:45 15.01.2020
4291 Rain 9 1010 72 0 1.89 150 00:26 15.01.2020
4292 Rain 9 1010 72 0 1.89 150 23:55 14.01.2020
4293 Rain 9 1010 72 0 1.89 150 23:36 14.01.2020
4294 Rain 11 1006 68 0 2.11 125 23:18 14.01.2020
4295 Rain 11 1006 68 0 2.11 125 22:41 14.01.2020
4296 Rain 11 1006 68 0 2.11 125 22:19 14.01.2020
4297 Rain 11 1006 68 0 2.11 125 21:58 14.01.2020
4298 Rain 11 1006 68 0 2.11 125 21:40 14.01.2020
4299 Rain 11 1006 68 0 2.11 125 21:21 14.01.2020
4300 Rain 11 1006 68 0 2.11 125 20:58 14.01.2020
4301 Rain 11 1006 68 0 2.11 125 20:40 14.01.2020
4302 Rain 13 1008 55 0 1.24 33 20:19 14.01.2020
4303 Rain 13 1008 55 0 1.24 33 19:56 14.01.2020
4304 Rain 13 1008 55 0 1.24 33 19:37 14.01.2020
4305 Rain 13 1008 55 0 1.24 33 19:18 14.01.2020
4306 Rain 13 1008 55 0 1.24 33 18:55 14.01.2020
4307 Rain 13 1008 55 0 1.24 33 18:37 14.01.2020
4308 Rain 13 1008 55 0 1.24 33 18:18 14.01.2020
4309 Rain 13 1008 55 0 1.24 33 17:38 14.01.2020
4310 Rain 12 1013 59 0 1.78 5 17:19 14.01.2020
4311 Rain 12 1013 59 0 1.78 5 16:55 14.01.2020
4312 Rain 12 1013 59 0 1.78 5 16:37 14.01.2020
4313 Rain 12 1013 59 0 1.78 5 16:19 14.01.2020
4314 Rain 12 1013 59 0 1.78 5 15:43 14.01.2020
4315 Rain 12 1013 59 0 1.78 5 15:19 14.01.2020
4316 Rain 12 1013 59 0 1.78 5 14:47 14.01.2020
4317 Rain 12 1013 59 0 1.78 5 14:47 14.01.2020
4318 -273 0 0 0 0 0 14:23 14.01.2020
4319 Rain 8 1016 81 0 1.27 47 13:59 14.01.2020
4320 Rain 8 1016 81 0 1.27 47 13:41 14.01.2020
4321 Rain 8 1016 81 0 1.27 47 13:19 14.01.2020
4322 Rain 8 1016 83 0 1.74 41 12:43 14.01.2020
4323 Rain 8 1016 83 0 1.74 41 12:25 14.01.2020
4324 Rain 8 1016 83 0 1.74 41 11:59 14.01.2020
4325 Rain 8 1016 83 0 1.74 41 11:40 14.01.2020
4326 Rain 8 1016 83 0 1.74 41 11:22 14.01.2020
4327 Rain 7 1014 89 0 1.67 36 10:56 14.01.2020
4328 Rain 7 1014 89 0 1.67 36 10:37 14.01.2020
4329 Rain 7 1014 89 0 1.67 36 10:19 14.01.2020
4330 Rain 7 1014 89 0 1.67 36 09:43 14.01.2020
4331 Rain 7 1014 89 0 1.67 36 09:24 14.01.2020
4332 Rain 7 1014 89 0 1.67 36 08:59 14.01.2020
4333 Rain 7 1014 89 0 1.67 36 08:39 14.01.2020
4334 Rain 7 1015 85 0 2.06 41 08:21 14.01.2020
4335 Rain 7 1015 90 0 3.15 62 07:51 14.01.2020
4336 Rain 7 1015 90 0 3.15 62 07:24 14.01.2020
4337 Rain 7 1015 90 0 3.15 62 06:43 14.01.2020
4338 Rain 7 1015 90 0 3.15 62 05:58 14.01.2020
4339 Rain 8 1017 84 0 3.76 55 04:50 14.01.2020
4340 Rain 8 1017 84 0 3.76 55 03:46 14.01.2020
4341 Rain 8 1017 84 0 3.76 55 02:33 14.01.2020
4342 Rain 8 1014 76 0 0.55 153 01:21 14.01.2020
4343 Rain 8 1014 79 0 0.93 126 00:48 14.01.2020
4344 Rain 8 1014 79 0 0.93 126 00:21 14.01.2020
4345 Rain 8 1014 79 0 0.93 126 23:44 13.01.2020
4346 Rain 10 1010 69 0 5.51 61 23:19 13.01.2020
4347 Rain 10 1010 69 0 5.51 61 22:57 13.01.2020
4348 Rain 10 1010 69 0 5.51 61 22:39 13.01.2020
4349 Rain 10 1010 69 0 5.51 61 22:19 13.01.2020
4350 Rain 10 1010 69 0 5.51 61 21:55 13.01.2020
4351 Rain 10 1010 69 0 5.51 61 21:37 13.01.2020
4352 Rain 10 1010 69 0 5.51 61 21:18 13.01.2020
4353 Rain 10 1010 69 0 5.51 61 20:56 13.01.2020
4354 Rain 10 1010 69 0 5.51 61 20:38 13.01.2020
4355 Rain 13 1012 54 0 4.32 63 20:19 13.01.2020
4356 Rain 13 1012 57 0 4.81 56 19:42 13.01.2020
4357 Rain 13 1012 57 0 4.81 56 19:21 13.01.2020
4358 Rain 13 1012 57 0 4.81 56 19:21 13.01.2020
4359 Rain 13 1012 57 0 4.81 56 18:58 13.01.2020
4360 Rain 13 1012 57 0 4.81 56 18:38 13.01.2020
4361 Rain 13 1012 57 0 4.81 56 18:19 13.01.2020
4362 Rain 13 1012 57 0 4.81 56 18:19 13.01.2020
4363 Rain 13 1012 57 0 4.81 56 18:19 13.01.2020
4364 Rain 13 1012 57 0 4.81 56 17:58 13.01.2020
4365 Rain 13 1012 57 0 4.81 56 17:39 13.01.2020
4366 Rain 11 1015 58 0 2.88 47 17:20 13.01.2020
4367 Rain 11 1015 58 0 2.88 47 16:43 13.01.2020
4368 Rain 11 1015 58 0 2.88 47 16:24 13.01.2020
4369 Rain 11 1015 58 0 2.88 47 15:59 13.01.2020
4370 Rain 11 1015 58 0 2.88 47 15:41 13.01.2020
4371 Rain 11 1015 58 0 2.88 47 15:21 13.01.2020
4372 Rain 11 1015 58 0 2.88 47 14:54 13.01.2020
4373 Rain 11 1015 58 0 2.88 47 14:36 13.01.2020
4374 Rain 7 1017 77 0 1.23 305 14:18 13.01.2020
4375 Rain 7 1017 77 0 1.23 305 13:40 13.01.2020
4376 Rain 7 1017 77 0 1.23 305 13:22 13.01.2020
4377 Rain 8 1017 71 0 1.74 35 12:58 13.01.2020
4378 Rain 8 1017 71 0 1.74 35 12:40 13.01.2020
4379 Rain 8 1017 71 0 1.74 35 12:21 13.01.2020
4380 Rain 8 1017 71 0 1.74 35 11:54 13.01.2020
4381 Rain 8 1017 71 0 1.74 35 11:36 13.01.2020
4382 Rain 7 1016 83 0 1.95 91 11:18 13.01.2020
4383 Rain 7 1016 83 0 1.95 91 11:18 13.01.2020
4384 Rain 7 1016 83 0 1.95 91 11:18 13.01.2020
4385 Rain 7 1016 83 0 1.95 91 10:55 13.01.2020
4386 Rain 7 1016 83 0 1.95 91 10:36 13.01.2020
4387 Rain 7 1016 83 0 1.95 91 10:18 13.01.2020
4388 Rain 7 1016 83 0 1.95 91 09:40 13.01.2020
4389 Rain 7 1016 83 0 1.95 91 09:40 13.01.2020
4390 Rain 7 1016 83 0 1.95 91 09:22 13.01.2020
4391 Rain 7 1016 83 0 1.95 91 08:42 13.01.2020
4392 Clouds 7 1015 81 0 1.17 5 08:21 13.01.2020
4393 Rain 8 1015 72 0 1.17 75 07:54 13.01.2020
4394 Rain 8 1015 72 0 1.17 75 07:35 13.01.2020
4395 Rain 8 1015 72 0 1.17 75 06:51 13.01.2020
4396 Rain 8 1015 72 0 1.17 75 06:22 13.01.2020
4397 Rain 8 1015 72 0 1.17 75 05:36 13.01.2020
4398 Rain 8 1015 78 0 2.14 76 04:25 13.01.2020
4399 Rain 8 1015 78 0 2.14 76 03:26 13.01.2020
4400 Rain 8 1015 78 0 2.14 76 02:47 13.01.2020
4401 Rain 8 1015 78 0 2.14 76 02:29 13.01.2020
4402 Rain 10 1013 71 0 3.23 108 01:22 13.01.2020
4403 Rain 10 1013 71 0 3.23 108 01:22 13.01.2020
4404 Rain 10 1013 71 0 3.23 108 00:42 13.01.2020
4405 Rain 10 1013 71 0 3.23 108 00:24 13.01.2020
4406 Rain 10 1013 71 0 3.23 108 23:55 12.01.2020
4407 Rain 10 1013 71 0 3.23 108 23:36 12.01.2020
4408 Rain 11 1011 65 0 3.18 144 23:18 12.01.2020
4409 Rain 11 1011 65 0 3.18 144 23:18 12.01.2020
4410 Rain 11 1011 65 0 3.18 144 22:42 12.01.2020
4411 Rain 11 1011 65 0 3.18 144 22:24 12.01.2020
4412 Rain 11 1011 65 0 3.18 144 22:24 12.01.2020
4413 Rain 11 1011 65 0 3.18 144 21:57 12.01.2020
4414 Rain 11 1011 65 0 3.18 144 21:38 12.01.2020
4415 Rain 11 1011 65 0 3.18 144 21:19 12.01.2020
4416 Rain 11 1011 65 0 3.18 144 20:57 12.01.2020
4417 Rain 11 1011 65 0 3.18 144 20:38 12.01.2020
4418 Rain 11 1013 59 0 1.4 68 20:20 12.01.2020
4419 Rain 11 1013 59 0 1.4 68 19:56 12.01.2020
4420 Rain 11 1013 59 0 1.4 68 19:38 12.01.2020
4421 Rain 11 1013 59 0 1.4 68 19:19 12.01.2020
4422 Rain 11 1013 59 0 1.4 68 18:57 12.01.2020
4423 Rain 11 1013 59 0 1.4 68 18:39 12.01.2020
4424 Rain 11 1013 59 0 1.4 68 18:21 12.01.2020
4425 Rain 11 1013 59 0 1.4 68 17:55 12.01.2020
4426 Rain 11 1013 59 0 1.4 68 17:37 12.01.2020
4427 Rain 11 1018 57 0 1.65 65 17:18 12.01.2020
4428 Rain 11 1018 57 0 1.65 65 16:54 12.01.2020
4429 Rain 11 1018 57 0 1.65 65 16:36 12.01.2020
4430 Rain 11 1018 57 0 1.65 65 16:18 12.01.2020
4431 Rain 11 1018 57 0 1.65 65 15:42 12.01.2020
4432 Rain 11 1018 57 0 1.65 65 15:23 12.01.2020
4433 Rain 11 1018 57 0 1.65 65 14:55 12.01.2020
4434 Rain 11 1018 57 0 1.65 65 14:36 12.01.2020
4435 Rain 8 1020 65 0 0.81 54 14:18 12.01.2020
4436 Rain 8 1020 65 0 0.81 54 13:42 12.01.2020
4437 Rain 8 1020 65 0 0.81 54 13:23 12.01.2020
4438 Rain 8 1020 69 0 0.92 183 12:58 12.01.2020
4439 Rain 8 1020 69 0 0.92 183 12:38 12.01.2020
4440 Rain 8 1020 69 0 0.92 183 12:19 12.01.2020
4441 Rain 8 1020 69 0 0.92 183 11:57 12.01.2020
4442 Rain 8 1020 69 0 0.92 183 11:38 12.01.2020
4443 Rain 7 1018 78 0 1.88 304 11:19 12.01.2020
4444 Rain 7 1018 78 0 1.88 304 10:41 12.01.2020
4445 Rain 7 1018 78 0 1.88 304 10:21 12.01.2020
4446 Rain 7 1018 78 0 1.88 304 09:57 12.01.2020
4447 Rain 7 1018 78 0 1.88 304 09:38 12.01.2020
4448 Rain 7 1018 78 0 1.88 304 09:18 12.01.2020
4449 Rain 7 1018 78 0 1.88 304 08:44 12.01.2020
4450 Rain 7 1017 83 0 2.13 33 08:20 12.01.2020
4451 Rain 7 1017 83 0 2.13 33 07:40 12.01.2020
4452 Rain 7 1017 83 0 2.13 33 07:22 12.01.2020
4453 Rain 7 1017 83 0 2.13 33 06:43 12.01.2020
4454 Rain 7 1017 83 0 2.13 33 06:24 12.01.2020
4455 Rain 7 1017 83 0 2.13 33 05:24 12.01.2020
4456 Rain 8 1018 77 0 2.71 83 03:55 12.01.2020
4457 Rain 8 1018 77 0 2.71 83 03:23 12.01.2020
4458 Rain 8 1018 77 0 2.71 83 02:33 12.01.2020
4459 Rain 9 1015 76 0 2.28 36 01:43 12.01.2020
4460 Rain 8 1015 78 0 2.84 50 01:22 12.01.2020
4461 Rain 8 1015 78 0 2.84 50 00:41 12.01.2020
4462 Rain 8 1015 78 0 2.84 50 00:20 12.01.2020
4463 Rain 8 1015 78 0 2.84 50 23:42 11.01.2020
4464 Rain 11 1011 65 0 4.38 47 23:20 11.01.2020
4465 Rain 11 1011 65 0 4.38 47 22:58 11.01.2020
4466 Rain 11 1011 65 0 4.38 47 22:40 11.01.2020
4467 Rain 11 1011 65 0 4.38 47 22:20 11.01.2020
4468 Rain 11 1011 65 0 4.38 47 21:58 11.01.2020
4469 Rain 11 1011 65 0 4.38 47 21:39 11.01.2020
4470 Rain 11 1011 65 0 4.38 47 21:39 11.01.2020
4471 Rain 11 1011 65 0 4.38 47 21:18 11.01.2020
4472 Rain 11 1011 65 0 4.38 47 20:40 11.01.2020
4473 Rain 11 1011 66 0 4.6 47 20:22 11.01.2020
4474 Rain 12 1013 53 0 4.45 46 19:58 11.01.2020
4475 Rain 12 1013 53 0 4.45 46 19:39 11.01.2020
4476 Rain 12 1013 53 0 4.45 46 19:21 11.01.2020
4477 Rain 12 1013 53 0 4.45 46 18:59 11.01.2020
4478 Rain 12 1013 53 0 4.45 46 18:39 11.01.2020
4479 Rain 12 1013 53 0 4.45 46 18:20 11.01.2020
4480 Rain 12 1013 53 0 4.45 46 17:57 11.01.2020
4481 Rain 12 1013 53 0 4.45 46 17:57 11.01.2020
4482 Rain 12 1013 53 0 4.45 46 17:39 11.01.2020
4483 Clouds 11 1017 55 0 3.87 47 17:19 11.01.2020
4484 Clouds 11 1017 55 0 3.87 47 16:45 11.01.2020
4485 Clouds 11 1017 55 0 3.87 47 16:27 11.01.2020
4486 Clouds 11 1017 55 0 3.87 47 15:59 11.01.2020
4487 Clouds 11 1017 55 0 3.87 47 15:41 11.01.2020
4488 Clouds 11 1017 55 0 3.87 47 15:22 11.01.2020
4489 Clouds 11 1017 55 0 3.87 47 15:22 11.01.2020
4490 Clouds 11 1017 55 0 3.87 47 14:57 11.01.2020
4491 Clouds 11 1017 55 0 3.87 47 14:38 11.01.2020
4492 Rain 7 1018 72 0 3.19 55 14:20 11.01.2020
4493 Rain 7 1018 72 0 3.19 55 13:41 11.01.2020
4494 Rain 7 1018 72 0 3.19 55 13:20 11.01.2020
4495 Rain 8 1019 73 0 3.24 46 12:59 11.01.2020
4496 Rain 8 1019 73 0 3.24 46 12:41 11.01.2020
4497 Rain 8 1019 73 0 3.24 46 12:23 11.01.2020
4498 Rain 8 1019 73 0 3.24 46 11:48 11.01.2020
4499 Rain 8 1019 73 0 3.24 46 11:26 11.01.2020
4500 Rain 7 1016 79 0 1.95 95 10:55 11.01.2020
4501 Rain 7 1016 79 0 1.95 95 10:37 11.01.2020
4502 Rain 7 1016 79 0 1.95 95 10:37 11.01.2020
4503 Rain 7 1016 79 0 1.95 95 10:18 11.01.2020
4504 Rain 7 1016 79 0 1.95 95 09:39 11.01.2020
4505 Rain 7 1016 79 0 1.95 95 09:20 11.01.2020
4506 Rain 7 1016 79 0 1.95 95 09:20 11.01.2020
4507 Rain 7 1016 79 0 1.95 95 08:42 11.01.2020
4508 Rain 7 1016 79 0 1.95 95 08:22 11.01.2020
4509 Rain 8 1016 74 0 1.83 119 07:44 11.01.2020
4510 Rain 8 1016 74 0 1.83 119 07:26 11.01.2020
4511 Rain 8 1016 74 0 1.83 119 06:52 11.01.2020
4512 Rain 8 1016 74 0 1.83 119 06:52 11.01.2020
4513 Rain 8 1016 74 0 1.83 119 06:19 11.01.2020
4514 Rain 10 1015 66 0 2.17 105 04:48 11.01.2020
4515 Rain 10 1015 66 0 2.17 105 04:29 11.01.2020
4516 Rain 10 1015 66 0 2.17 105 03:28 11.01.2020
4517 Rain 10 1015 66 0 2.17 105 02:40 11.01.2020
4518 Rain 10 1013 68 0 3.3 72 01:44 11.01.2020
4519 Rain 10 1013 68 0 3.94 61 01:20 11.01.2020
4520 Rain 10 1013 68 0 3.94 61 00:43 11.01.2020
4521 Rain 10 1013 68 0 3.94 61 00:19 11.01.2020
4522 Rain 10 1013 68 0 3.94 61 23:41 10.01.2020
4523 Rain 10 1013 68 0 3.94 61 23:41 10.01.2020
4524 Rain 14 1008 48 0 6.99 73 23:22 10.01.2020
4525 Rain 14 1008 48 0 6.99 73 22:59 10.01.2020
4526 Rain 14 1008 48 0 6.99 73 22:40 10.01.2020
4527 Rain 14 1008 48 0 6.99 73 22:21 10.01.2020
4528 Rain 14 1008 48 0 6.99 73 21:57 10.01.2020
4529 Rain 14 1008 48 0 6.99 73 21:38 10.01.2020
4530 Rain 14 1008 48 0 6.99 73 21:19 10.01.2020
4531 Rain 14 1008 48 0 6.99 73 20:43 10.01.2020
4532 Rain 14 1008 48 0 6.99 73 20:25 10.01.2020
4533 Clear 16 1009 28 0 4.09 44 19:59 10.01.2020
4534 Clear 16 1009 28 0 4.09 44 19:38 10.01.2020
4535 Clear 16 1009 28 0 4.09 44 19:20 10.01.2020
4536 Clear 16 1009 28 0 4.09 44 18:44 10.01.2020
4537 Clear 16 1009 28 0 4.09 44 18:20 10.01.2020
4538 Clear 16 1009 28 0 4.09 44 17:58 10.01.2020
4539 Clear 16 1009 28 0 4.09 44 17:39 10.01.2020
4540 Clear 14 1012 32 0 3.25 64 17:21 10.01.2020
4541 Clear 14 1012 32 0 3.25 64 16:59 10.01.2020
4542 Clear 14 1012 32 0 3.25 64 16:41 10.01.2020
4543 Clouds 15 1039 62 10000 3.25 64 16:21 10.01.2020
4544 Clouds 15 1039 62 10000 3.25 64 15:56 10.01.2020
4545 Clouds 15 1039 62 10000 3.25 64 15:37 10.01.2020
4546 Clouds 15 1039 62 10000 3.25 64 15:19 10.01.2020
4547 Clouds 14 1039 67 10000 3.25 64 14:56 10.01.2020
4548 Clouds 14 1039 67 10000 3.25 64 14:38 10.01.2020
4549 Clouds 14 1039 67 10000 1.47 62 14:19 10.01.2020
4550 Clouds 11 1038 76 10000 1.47 62 13:45 10.01.2020
4551 Clouds 11 1038 76 10000 1.47 62 13:26 10.01.2020
4552 Clouds 9 1036 76 10000 1.33 54 12:59 10.01.2020
4553 Clouds 9 1036 76 10000 1.33 54 12:40 10.01.2020
4554 Clouds 9 1036 76 10000 1.33 54 12:21 10.01.2020
4555 Clouds 7 1036 87 10000 1.33 54 11:57 10.01.2020
4556 Clouds 7 1036 87 10000 1.33 54 11:39 10.01.2020
4557 Clouds 7 1036 87 10000 1.74 69 11:19 10.01.2020
4558 Rain 8 1013 73 0 1.74 69 10:58 10.01.2020
4559 Rain 8 1013 73 0 1.74 69 10:58 10.01.2020
4560 Rain 8 1013 73 0 1.74 69 10:38 10.01.2020
4561 Rain 8 1013 73 0 1.74 69 10:18 10.01.2020
4562 Rain 8 1013 73 0 1.74 69 09:45 10.01.2020
4563 Rain 8 1013 73 0 1.74 69 09:26 10.01.2020
4564 Rain 8 1013 73 0 1.74 69 08:56 10.01.2020
4565 Rain 8 1013 73 0 1.74 69 08:37 10.01.2020
4566 Rain 9 1012 68 0 2.74 43 08:18 10.01.2020
4567 Rain 9 1013 67 0 2.81 50 07:41 10.01.2020
4568 Rain 9 1013 67 0 2.81 50 07:19 10.01.2020
4569 Rain 9 1013 67 0 2.81 50 06:37 10.01.2020
4570 Rain 9 1013 67 0 2.81 50 06:19 10.01.2020
4571 Rain 10 1012 63 0 2.84 46 05:19 10.01.2020
4572 Rain 10 1012 63 0 2.84 46 03:32 10.01.2020
4573 Rain 10 1012 63 0 2.84 46 02:52 10.01.2020
4574 Rain 10 1012 63 0 2.84 46 02:33 10.01.2020
4575 Rain 11 1009 61 0 3.5 32 01:32 10.01.2020
4576 Rain 11 1009 63 0 3.88 52 00:53 10.01.2020
4577 Rain 11 1009 63 0 3.88 52 00:34 10.01.2020
4578 Rain 11 1009 63 0 3.88 52 23:57 09.01.2020
4579 Rain 11 1009 63 0 3.88 52 23:37 09.01.2020
4580 Clouds 16 1005 25 0 3.94 101 23:19 09.01.2020
4581 Clouds 16 1005 25 0 3.94 101 22:56 09.01.2020
4582 Clouds 16 1005 25 0 3.94 101 22:37 09.01.2020
4583 Clouds 16 1005 25 0 3.94 101 22:18 09.01.2020
4584 Clouds 16 1005 25 0 3.94 101 21:55 09.01.2020
4585 Clouds 16 1005 25 0 3.94 101 21:37 09.01.2020
4586 Clouds 16 1005 25 0 3.94 101 21:18 09.01.2020
4587 Clouds 16 1005 25 0 3.94 101 20:55 09.01.2020
4588 Clouds 16 1005 25 0 3.94 101 20:37 09.01.2020
4589 Clouds 20 1034 18 10000 4.1 70 20:18 09.01.2020
4590 Clouds 20 1034 18 10000 4.1 70 20:18 09.01.2020
4591 Clouds 20 1034 18 10000 4.1 70 19:39 09.01.2020
4592 Clouds 20 1034 18 10000 4.1 70 19:21 09.01.2020
4593 Clouds 19 1035 18 10000 2.6 70 18:59 09.01.2020
4594 Clouds 19 1035 18 10000 2.6 70 18:40 09.01.2020
4595 Clouds 19 1035 18 10000 2.6 70 18:21 09.01.2020
4596 Clear 18 1035 31 10000 1.5 70 17:58 09.01.2020
4597 Clear 18 1035 31 10000 1.5 70 17:40 09.01.2020
4598 Clear 18 1035 31 10000 1.5 70 17:18 09.01.2020
4599 Clear 17 1035 36 10000 2.6 70 16:46 09.01.2020
4600 Clear 17 1035 36 10000 2.6 70 16:22 09.01.2020
4601 Clear 15 1035 41 10000 2.1 100 15:43 09.01.2020
4602 Clear 15 1035 41 10000 2.1 100 15:25 09.01.2020
4603 Clear 13 1035 43 10000 1.5 220 14:59 09.01.2020
4604 Clear 13 1035 43 10000 1.5 220 14:41 09.01.2020
4605 Clouds 13 1035 43 10000 1.5 220 14:19 09.01.2020
4606 Clouds 10 1035 46 10000 2.6 210 13:57 09.01.2020
4607 Clouds 10 1035 46 10000 2.6 210 13:38 09.01.2020
4608 Clouds 10 1035 46 10000 2.6 210 13:19 09.01.2020
4609 Clouds 6 1035 60 10000 1.5 210 12:57 09.01.2020
4610 Clouds 6 1035 60 10000 1.5 210 12:38 09.01.2020
4611 Clouds 6 1035 60 10000 1.5 210 12:18 09.01.2020
4612 Clouds 10 1015 23 0 0.48 194 11:43 09.01.2020
4613 Clouds 10 1015 23 0 0.48 194 11:25 09.01.2020
4614 Clouds 8 1013 38 0 1.73 266 10:59 09.01.2020
4615 Clouds 8 1013 38 0 1.73 266 10:41 09.01.2020
4616 Clouds 8 1013 38 0 1.73 266 10:21 09.01.2020
4617 Clouds 8 1013 38 0 1.73 266 09:49 09.01.2020
4618 Clouds 8 1013 38 0 1.73 266 09:25 09.01.2020
4619 Clouds 8 1013 38 0 1.73 266 08:59 09.01.2020
4620 Clouds 8 1013 38 0 1.73 266 08:40 09.01.2020
4621 Clouds 9 1012 64 0 1.11 11 08:22 09.01.2020
4622 Clouds 9 1012 64 0 1.11 11 07:55 09.01.2020
4623 Clouds 9 1012 64 0 1.11 11 07:35 09.01.2020
4624 Clouds 9 1012 64 0 1.11 11 06:54 09.01.2020
4625 Clouds 9 1012 64 0 1.11 11 06:32 09.01.2020
4626 Clouds 9 1012 64 0 1.11 11 05:52 09.01.2020
4627 Clouds 9 1012 64 0 1.11 11 05:28 09.01.2020
4628 Clouds 11 1012 50 0 2.03 55 04:41 09.01.2020
4629 Clouds 11 1012 50 0 2.03 55 03:28 09.01.2020
4630 Clouds 11 1012 50 0 2.03 55 02:47 09.01.2020
4631 Clouds 13 1009 31 0 0.57 282 01:53 09.01.2020
4632 Clouds 13 1009 31 0 0.57 282 01:33 09.01.2020
4633 Clouds 13 1009 30 0 2.63 258 00:40 09.01.2020
4634 Clouds 13 1009 30 0 2.63 258 00:19 09.01.2020
4635 Clouds 13 1009 30 0 2.63 258 23:41 08.01.2020
4636 Clouds 13 1009 30 0 2.63 258 23:23 08.01.2020
4637 Clouds 16 1005 18 0 4.83 247 22:58 08.01.2020
4638 Clouds 16 1005 18 0 4.83 247 22:38 08.01.2020
4639 Clouds 16 1005 18 0 4.83 247 22:20 08.01.2020
4640 Clouds 16 1005 18 0 4.83 247 21:56 08.01.2020
4641 Clouds 16 1005 18 0 4.83 247 21:37 08.01.2020
4642 Clouds 16 1005 18 0 4.83 247 21:18 08.01.2020
4643 Clouds 16 1005 18 0 4.83 247 20:57 08.01.2020
4644 Clouds 16 1005 18 0 4.83 247 20:38 08.01.2020
4645 Clouds 16 1007 17 0 4.49 275 20:19 08.01.2020
4646 Clouds 16 1007 16 0 4.77 274 19:55 08.01.2020
4647 Clouds 16 1007 16 0 4.77 274 19:55 08.01.2020
4648 Clouds 16 1007 16 0 4.77 274 19:36 08.01.2020
4649 Clouds 16 1007 16 0 4.77 274 19:18 08.01.2020
4650 Clouds 16 1007 16 0 4.77 274 18:54 08.01.2020
4651 Clouds 16 1007 16 0 4.77 274 18:36 08.01.2020
4652 Clouds 16 1007 16 0 4.77 274 18:18 08.01.2020
4653 Clouds 16 1007 16 0 4.77 274 17:42 08.01.2020
4654 Clouds 16 1007 16 0 4.77 274 17:23 08.01.2020
4655 Clouds 14 1012 20 0 3.28 294 16:57 08.01.2020
4656 Clouds 14 1012 20 0 3.28 294 16:39 08.01.2020
4657 Clouds 9 1040 66 10000 3.28 294 16:19 08.01.2020
4658 Clouds 9 1040 66 10000 3.28 294 16:19 08.01.2020
4659 Clouds 9 1040 66 10000 3.28 294 15:56 08.01.2020
4660 Clouds 9 1040 66 10000 3.28 294 15:38 08.01.2020
4661 Clouds 9 1040 66 10000 3.28 294 15:18 08.01.2020
4662 Clouds 9 1040 66 10000 3.28 294 14:55 08.01.2020
4663 Clouds 9 1040 66 10000 3.28 294 14:36 08.01.2020
4664 Clouds 9 1040 66 10000 2.46 271 14:18 08.01.2020
4665 Clouds 9 1015 28 0 2.46 271 13:38 08.01.2020
4666 Clouds 9 1016 29 0 1.22 288 13:18 08.01.2020
4667 Clouds 9 1016 29 0 1.22 288 12:41 08.01.2020
4668 Clouds 9 1016 29 0 1.22 288 12:18 08.01.2020
4669 Clouds 9 1016 29 0 1.22 288 11:55 08.01.2020
4670 Clouds 9 1016 29 0 1.22 288 11:37 08.01.2020
4671 Clouds 7 1014 76 0 1.79 334 11:18 08.01.2020
4672 Clouds 7 1014 76 0 1.79 334 10:41 08.01.2020
4673 Clouds 7 1014 76 0 1.79 334 10:22 08.01.2020
4674 Clouds 7 1014 76 0 1.79 334 09:59 08.01.2020
4675 Clouds 7 1014 76 0 1.79 334 09:41 08.01.2020
4676 Clouds 7 1014 76 0 1.79 334 09:19 08.01.2020
4677 Clouds 7 1014 76 0 1.79 334 08:55 08.01.2020
4678 Clouds 7 1014 76 0 1.79 334 08:36 08.01.2020
4679 Clouds 8 1014 74 0 1.75 8 08:18 08.01.2020
4680 Clouds 8 1014 71 0 1.84 357 07:43 08.01.2020
4681 Clouds 8 1014 71 0 1.84 357 07:23 08.01.2020
4682 Clouds 8 1014 71 0 1.84 357 06:44 08.01.2020
4683 Clouds 8 1014 71 0 1.84 357 05:59 08.01.2020
4684 Clouds 8 1014 71 0 1.84 357 05:28 08.01.2020
4685 Rain 9 1014 64 0 1.94 50 04:54 08.01.2020
4686 Rain 9 1014 64 0 1.94 50 03:33 08.01.2020
4687 Rain 9 1014 64 0 1.94 50 02:44 08.01.2020
4688 Rain 11 1011 54 0 2.84 61 02:19 08.01.2020
4689 Rain 11 1011 54 0 2.84 61 01:40 08.01.2020
4690 Rain 11 1011 57 0 3.29 52 00:59 08.01.2020
4691 Rain 11 1011 57 0 3.29 52 00:27 08.01.2020
4692 Rain 11 1011 57 0 3.29 52 23:47 07.01.2020
4693 Clouds 15 1007 27 0 1.18 268 23:22 07.01.2020
4694 Clouds 15 1007 27 0 1.18 268 22:58 07.01.2020
4695 Clouds 15 1007 27 0 1.18 268 22:39 07.01.2020
4696 Clouds 15 1007 27 0 1.18 268 22:20 07.01.2020
4697 Clouds 15 1007 27 0 1.18 268 21:55 07.01.2020
4698 Clouds 15 1007 27 0 1.18 268 21:37 07.01.2020
4699 Clouds 15 1007 27 0 1.18 268 21:19 07.01.2020
4700 Clouds 15 1007 27 0 1.18 268 20:42 07.01.2020
4701 Clouds 16 1006 25 0 2.82 290 20:24 07.01.2020
4702 Clouds 15 1009 27 0 3.81 351 19:59 07.01.2020
4703 Clouds 15 1009 27 0 3.81 351 19:38 07.01.2020
4704 Clouds 15 1009 27 0 3.81 351 19:19 07.01.2020
4705 Clouds 15 1009 27 0 3.81 351 18:58 07.01.2020
4706 Clouds 15 1009 27 0 3.81 351 18:39 07.01.2020
4707 Clouds 15 1009 27 0 3.81 351 18:18 07.01.2020
4708 Clouds 15 1009 27 0 3.81 351 18:18 07.01.2020
4709 Clouds 15 1009 27 0 3.81 351 17:58 07.01.2020
4710 Clouds 15 1009 27 0 3.81 351 17:39 07.01.2020
4711 Clouds 12 1013 41 0 2.52 12 17:20 07.01.2020
4712 Clouds 12 1013 41 0 2.52 12 16:56 07.01.2020
4713 Clouds 12 1013 41 0 2.52 12 16:37 07.01.2020
4714 Clouds 12 1013 41 0 2.52 12 16:18 07.01.2020
4715 Clouds 12 1013 41 0 2.52 12 15:57 07.01.2020
4716 Clouds 12 1013 41 0 2.52 12 15:37 07.01.2020
4717 Clouds 12 1013 41 0 2.52 12 15:18 07.01.2020
4718 Clouds 12 1013 41 0 2.52 12 14:42 07.01.2020
4719 Clouds 12 1013 41 0 2.52 12 14:23 07.01.2020
4720 Clouds 7 1016 68 0 1.23 7 13:57 07.01.2020
4721 Clouds 7 1016 68 0 1.23 7 13:38 07.01.2020
4722 Clouds 7 1017 66 0 1.15 12 13:18 07.01.2020
4723 Clouds 7 1017 66 0 1.15 12 12:41 07.01.2020
4724 Clouds 7 1017 66 0 1.15 12 12:19 07.01.2020
4725 Clouds 7 1017 66 0 1.15 12 11:45 07.01.2020
4726 Clouds 7 1017 66 0 1.15 12 11:23 07.01.2020
4727 Clouds 6 1015 82 0 1.39 13 10:59 07.01.2020
4728 Clouds 6 1015 82 0 1.39 13 10:41 07.01.2020
4729 Clouds 6 1015 82 0 1.39 13 10:23 07.01.2020
4730 Clouds 6 1015 82 0 1.39 13 09:56 07.01.2020
4731 Clouds 6 1015 82 0 1.39 13 09:38 07.01.2020
4732 Clouds 6 1015 82 0 1.39 13 09:20 07.01.2020
4733 Clouds 6 1015 82 0 1.39 13 08:42 07.01.2020
4734 Clouds 6 1015 76 0 1.24 354 08:23 07.01.2020
4735 Rain 7 1014 68 0 1.48 7 07:54 07.01.2020
4736 Rain 7 1014 68 0 1.48 7 07:27 07.01.2020
4737 Rain 7 1014 68 0 1.48 7 06:53 07.01.2020
4738 Rain 7 1014 68 0 1.48 7 06:34 07.01.2020
4739 Rain 7 1014 68 0 1.48 7 05:54 07.01.2020
4740 Clear 9 1013 58 0 2.15 25 04:33 07.01.2020
4741 Clear 9 1013 58 0 2.15 25 03:26 07.01.2020
4742 Clouds 11 1009 31 0 1.6 337 02:22 07.01.2020
4743 Clouds 11 1009 31 0 1.6 337 01:51 07.01.2020
4744 Clouds 12 1009 31 0 0.87 290 01:28 07.01.2020
4745 Clouds 12 1009 31 0 0.87 290 00:37 07.01.2020
4746 Clouds 12 1009 31 0 0.87 290 00:18 07.01.2020
4747 Clouds 12 1009 31 0 0.87 290 23:39 06.01.2020
4748 Clear 15 1004 19 0 3.67 312 23:21 06.01.2020
4749 Clear 15 1004 19 0 3.67 312 22:58 06.01.2020
4750 Clear 15 1004 19 0 3.67 312 22:39 06.01.2020
4751 Clear 15 1004 19 0 3.67 312 22:21 06.01.2020
4752 Clear 15 1004 19 0 3.67 312 21:56 06.01.2020
4753 Clear 15 1004 19 0 3.67 312 21:38 06.01.2020
4754 Clear 15 1004 19 0 3.67 312 21:19 06.01.2020
4755 Clear 15 1004 19 0 3.67 312 20:56 06.01.2020
4756 Clear 15 1004 19 0 3.67 312 20:37 06.01.2020
4757 Clouds 15 1006 17 0 2.38 36 20:19 06.01.2020
4758 Clouds 15 1006 17 0 2.38 36 19:55 06.01.2020
4759 Clouds 15 1006 17 0 2.38 36 19:37 06.01.2020
4760 Clouds 15 1006 17 0 2.38 36 19:18 06.01.2020
4761 Clouds 15 1006 17 0 2.38 36 18:45 06.01.2020
4762 Clouds 15 1006 17 0 2.38 36 18:21 06.01.2020
4763 Clouds 15 1006 17 0 2.38 36 17:40 06.01.2020
4764 Clouds 12 1011 15 0 0.44 238 17:20 06.01.2020
4765 Clouds 12 1011 15 0 0.44 238 16:59 06.01.2020
4766 Clouds 12 1011 15 0 0.44 238 16:41 06.01.2020
4767 Clouds 12 1011 15 0 0.44 238 16:23 06.01.2020
4768 Clouds 12 1011 15 0 0.44 238 15:59 06.01.2020
4769 Clouds 12 1011 15 0 0.44 238 15:37 06.01.2020
4770 Clouds 12 1011 15 0 0.44 238 15:37 06.01.2020
4771 Clouds 12 1011 15 0 0.44 238 15:18 06.01.2020
4772 Clouds 12 1011 15 0 0.44 238 15:18 06.01.2020
4773 Clouds 12 1011 15 0 0.44 238 14:42 06.01.2020
4774 Clouds 12 1011 15 0 0.44 238 14:22 06.01.2020
4775 Clouds 7 1014 22 0 2.77 261 13:59 06.01.2020
4776 Clouds 7 1014 22 0 2.77 261 13:39 06.01.2020
4777 Clear 7 1014 23 0 2.58 261 13:21 06.01.2020
4778 Clear 7 1014 23 0 2.58 261 13:21 06.01.2020
4779 Clear 7 1014 23 0 2.58 261 12:58 06.01.2020
4780 Clear 7 1014 23 0 2.58 261 12:39 06.01.2020
4781 Clear 7 1014 23 0 2.58 261 12:39 06.01.2020
4782 Clear 7 1014 23 0 2.58 261 12:19 06.01.2020
4783 Clear 7 1014 23 0 2.58 261 11:43 06.01.2020
4784 Clear 7 1014 23 0 2.58 261 11:24 06.01.2020
4785 Clear 4 1012 41 0 2.24 264 11:00 06.01.2020
4786 Clear 4 1012 41 0 2.24 264 10:41 06.01.2020
4787 Clear 4 1012 41 0 2.24 264 10:21 06.01.2020
4788 Clear 4 1012 41 0 2.24 264 09:42 06.01.2020
4789 Clear 4 1012 41 0 2.24 264 09:24 06.01.2020
4790 Clear 4 1012 41 0 2.24 264 08:57 06.01.2020
4791 Clear 4 1012 41 0 2.24 264 08:38 06.01.2020
4792 Clear 4 1012 41 0 2.24 264 08:38 06.01.2020
4793 Clear 6 1011 39 0 3.06 244 08:19 06.01.2020
4794 Clear 6 1011 40 0 3.46 246 07:44 06.01.2020
4795 Clear 6 1011 40 0 3.46 246 06:55 06.01.2020
4796 Clear 6 1011 40 0 3.46 246 06:35 06.01.2020
4797 Clear 6 1011 40 0 3.46 246 05:48 06.01.2020
4798 Clear 6 1011 40 0 3.46 246 05:24 06.01.2020
4799 Clear 7 1011 48 0 4.23 268 04:24 06.01.2020
4800 Clear 7 1011 48 0 4.23 268 03:51 06.01.2020
4801 Clear 7 1011 48 0 4.23 268 02:29 06.01.2020
4802 Clouds 11 1008 39 0 5.27 258 01:54 06.01.2020
4803 Clouds 11 1008 39 0 5.27 258 01:31 06.01.2020
4804 Clouds 11 1008 39 0 4.33 259 00:48 06.01.2020
4805 Clouds 11 1008 39 0 4.33 259 00:29 06.01.2020
4806 Clouds 11 1008 39 0 4.33 259 23:59 05.01.2020
4807 Clouds 11 1008 39 0 4.33 259 23:40 05.01.2020
4808 Clouds 15 1004 35 0 5.48 251 23:21 05.01.2020
4809 Clouds 15 1004 35 0 5.48 251 22:40 05.01.2020
4810 Clouds 15 1004 35 0 5.48 251 22:21 05.01.2020
4811 Clouds 15 1004 35 0 5.48 251 21:58 05.01.2020
4812 Clouds 15 1004 35 0 5.48 251 21:40 05.01.2020
4813 Clouds 15 1004 35 0 5.48 251 21:20 05.01.2020
4814 Clouds 15 1004 35 0 5.48 251 20:58 05.01.2020
4815 Clouds 15 1004 35 0 5.48 251 20:39 05.01.2020
4816 Clouds 15 1007 40 0 7.01 267 20:19 05.01.2020
4817 Clouds 15 1007 40 0 7.01 267 19:59 05.01.2020
4818 Clouds 15 1007 40 0 7.01 267 19:39 05.01.2020
4819 Clouds 15 1007 40 0 7.01 267 19:20 05.01.2020
4820 Clouds 15 1007 40 0 7.01 267 18:56 05.01.2020
4821 Clouds 15 1007 40 0 7.01 267 18:38 05.01.2020
4822 Clouds 15 1007 40 0 7.01 267 18:19 05.01.2020
4823 Clouds 15 1007 40 0 7.01 267 18:19 05.01.2020
4824 Clouds 15 1007 40 0 7.01 267 17:58 05.01.2020
4825 Clouds 15 1007 40 0 7.01 267 17:39 05.01.2020
4826 Clouds 15 1007 40 0 7.01 267 17:39 05.01.2020
4827 Rain 11 1013 51 0 3.62 302 17:20 05.01.2020
4828 Rain 11 1013 51 0 3.62 302 16:57 05.01.2020
4829 Rain 11 1013 51 0 3.62 302 16:39 05.01.2020
4830 Rain 11 1013 51 0 3.62 302 16:39 05.01.2020
4831 Rain 11 1013 51 0 3.62 302 16:20 05.01.2020
4832 Rain 11 1013 51 0 3.62 302 15:40 05.01.2020
4833 Rain 11 1013 51 0 3.62 302 15:21 05.01.2020
4834 Rain 11 1013 51 0 3.62 302 14:57 05.01.2020
4835 Rain 11 1013 51 0 3.62 302 14:39 05.01.2020
4836 Rain 8 1016 68 0 1.36 344 14:20 05.01.2020
4837 Rain 8 1016 68 0 1.36 344 13:57 05.01.2020
4838 Rain 8 1016 68 0 1.36 344 13:38 05.01.2020
4839 Clouds 7 1016 67 0 0.85 3 13:20 05.01.2020
4840 Clouds 7 1016 67 0 0.85 3 13:20 05.01.2020
4841 Clouds 7 1016 67 0 0.85 3 12:56 05.01.2020
4842 Clouds 7 1016 67 0 0.85 3 12:37 05.01.2020
4843 Clouds 7 1016 67 0 0.85 3 12:19 05.01.2020
4844 Clouds 7 1016 67 0 0.85 3 12:19 05.01.2020
4845 Clouds 7 1016 67 0 0.85 3 11:54 05.01.2020
4846 Clouds 7 1016 67 0 0.85 3 11:36 05.01.2020
4847 Clouds 5 1015 88 0 1.57 25 11:18 05.01.2020
4848 Clouds 5 1015 88 0 1.57 25 10:40 05.01.2020
4849 Clouds 5 1015 88 0 1.57 25 10:20 05.01.2020
4850 Clouds 5 1015 88 0 1.57 25 09:43 05.01.2020
4851 Clouds 5 1015 88 0 1.57 25 09:22 05.01.2020
4852 Clouds 5 1015 88 0 1.57 25 08:56 05.01.2020
4853 Clouds 5 1015 88 0 1.57 25 08:38 05.01.2020
4854 Clouds 5 1014 92 0 1.95 57 08:20 05.01.2020
4855 Clouds 5 1014 92 0 1.95 57 07:44 05.01.2020
4856 Clouds 5 1014 92 0 1.95 57 07:44 05.01.2020
4857 Clouds 5 1014 92 0 1.95 57 07:26 05.01.2020
4858 Clouds 5 1014 92 0 1.95 57 06:54 05.01.2020
4859 Clouds 5 1014 92 0 1.95 57 05:41 05.01.2020
4860 Clouds 6 1015 88 0 2.65 23 04:56 05.01.2020
4861 Clouds 6 1015 88 0 2.65 23 04:19 05.01.2020
4862 Clouds 6 1015 88 0 2.65 23 04:19 05.01.2020
4863 Clouds 6 1015 88 0 2.65 23 03:31 05.01.2020
4864 Clouds 6 1015 88 0 2.65 23 02:33 05.01.2020
4865 Rain 8 1012 84 0 3.69 50 01:52 05.01.2020
4866 Rain 8 1012 84 0 3.69 50 01:20 05.01.2020
4867 Rain 8 1012 80 0 3.71 36 00:57 05.01.2020
4868 Rain 8 1012 80 0 3.71 36 00:39 05.01.2020
4869 Rain 8 1012 80 0 3.71 36 00:20 05.01.2020
4870 Rain 8 1012 80 0 3.71 36 23:41 04.01.2020
4871 Rain 10 1008 71 0 3.7 39 23:21 04.01.2020
4872 Rain 10 1008 71 0 3.7 39 22:59 04.01.2020
4873 Rain 10 1008 71 0 3.7 39 22:38 04.01.2020
4874 Rain 10 1008 71 0 3.7 39 22:20 04.01.2020
4875 Rain 10 1008 71 0 3.7 39 21:56 04.01.2020
4876 Rain 10 1008 71 0 3.7 39 21:37 04.01.2020
4877 Rain 10 1008 71 0 3.7 39 21:19 04.01.2020
4878 Rain 10 1008 71 0 3.7 39 20:55 04.01.2020
4879 Rain 10 1008 71 0 3.7 39 20:36 04.01.2020
4880 Rain 12 1010 64 0 2.11 76 20:18 04.01.2020
4881 Rain 12 1010 65 0 1.92 79 19:41 04.01.2020
4882 Rain 12 1010 65 0 1.92 79 19:41 04.01.2020
4883 Rain 12 1010 65 0 1.92 79 19:23 04.01.2020
4884 Rain 12 1010 65 0 1.92 79 18:57 04.01.2020
4885 Rain 12 1010 65 0 1.92 79 18:38 04.01.2020
4886 Rain 12 1010 65 0 1.92 79 18:20 04.01.2020
4887 Rain 12 1010 65 0 1.92 79 17:56 04.01.2020
4888 Rain 12 1010 65 0 1.92 79 17:38 04.01.2020
4889 Rain 11 1015 65 0 2.55 58 17:20 04.01.2020
4890 Rain 11 1015 65 0 2.55 58 16:42 04.01.2020
4891 Rain 11 1015 65 0 2.55 58 16:24 04.01.2020
4892 Rain 11 1015 65 0 2.55 58 15:57 04.01.2020
4893 Rain 11 1015 65 0 2.55 58 15:38 04.01.2020
4894 Rain 11 1015 65 0 2.55 58 15:19 04.01.2020
4895 Rain 11 1015 65 0 2.55 58 14:56 04.01.2020
4896 Rain 11 1015 65 0 2.55 58 14:38 04.01.2020
4897 Rain 7 1018 80 0 1.08 6 14:19 04.01.2020
4898 Rain 7 1018 80 0 1.08 6 14:19 04.01.2020
4899 Rain 7 1018 80 0 1.08 6 13:55 04.01.2020
4900 Rain 7 1018 80 0 1.08 6 13:36 04.01.2020
4901 Rain 8 1018 78 0 1.27 11 13:18 04.01.2020
4902 Rain 8 1018 78 0 1.27 11 12:41 04.01.2020
4903 Rain 8 1018 78 0 1.27 11 12:19 04.01.2020
4904 Rain 8 1018 78 0 1.27 11 11:58 04.01.2020
4905 Rain 8 1018 78 0 1.27 11 11:39 04.01.2020
4906 Rain 8 1018 78 0 1.27 11 11:39 04.01.2020
4907 Rain 6 1017 88 0 1.41 40 11:19 04.01.2020
4908 Rain 6 1017 88 0 1.41 40 10:42 04.01.2020
4909 Rain 6 1017 88 0 1.41 40 10:23 04.01.2020
4910 Rain 6 1017 88 0 1.41 40 09:59 04.01.2020
4911 Rain 6 1017 88 0 1.41 40 09:41 04.01.2020
4912 Rain 6 1017 88 0 1.41 40 09:21 04.01.2020
4913 Rain 6 1017 88 0 1.41 40 08:41 04.01.2020
4914 Rain 7 1017 83 0 1.44 31 08:21 04.01.2020
4915 Rain 7 1017 83 0 1.44 31 07:44 04.01.2020
4916 Rain 7 1017 83 0 1.44 31 07:21 04.01.2020
4917 Rain 7 1017 83 0 1.44 31 06:33 04.01.2020
4918 Rain 7 1017 83 0 1.44 31 05:39 04.01.2020
4919 Rain 8 1018 77 0 3.47 47 04:44 04.01.2020
4920 Rain 8 1018 77 0 3.47 47 04:25 04.01.2020
4921 Rain 8 1018 77 0 3.47 47 03:18 04.01.2020
4922 Rain 8 1018 77 0 3.47 47 02:23 04.01.2020
4923 Rain 9 1015 75 0 4.33 47 01:56 04.01.2020
4924 Rain 9 1015 75 0 4.33 47 01:32 04.01.2020
4925 Rain 10 1015 70 0 3.91 47 00:46 04.01.2020
4926 Rain 10 1015 70 0 3.91 47 00:27 04.01.2020
4927 Rain 10 1015 70 0 3.91 47 23:48 03.01.2020
4928 Rain 10 1015 70 0 3.91 47 23:26 03.01.2020
4929 Clouds 13 1012 52 0 3.58 69 22:54 03.01.2020
4930 Clouds 13 1012 52 0 3.58 69 22:36 03.01.2020
4931 Clouds 13 1012 52 0 3.58 69 22:18 03.01.2020
4932 Clouds 13 1012 52 0 3.58 69 21:54 03.01.2020
4933 Clouds 13 1012 52 0 3.58 69 21:36 03.01.2020
4934 Clouds 13 1012 52 0 3.58 69 21:18 03.01.2020
4935 Clouds 13 1012 52 0 3.58 69 20:42 03.01.2020
4936 Clouds 14 1014 38 0 3.29 43 20:19 03.01.2020
4937 Clouds 14 1014 38 0 3.2 50 19:58 03.01.2020
4938 Clouds 14 1014 38 0 3.2 50 19:39 03.01.2020
4939 Clouds 14 1014 38 0 3.2 50 19:21 03.01.2020
4940 Clouds 14 1014 38 0 3.2 50 18:44 03.01.2020
4941 Clouds 14 1014 38 0 3.2 50 18:44 03.01.2020
4942 Clouds 14 1014 38 0 3.2 50 18:26 03.01.2020
4943 Clouds 14 1014 38 0 3.2 50 17:57 03.01.2020
4944 Clouds 14 1014 38 0 3.2 50 17:39 03.01.2020
4945 Clouds 11 1019 49 0 2.82 50 17:19 03.01.2020
4946 Clouds 11 1019 49 0 2.82 50 16:43 03.01.2020
4947 Clouds 11 1019 49 0 2.82 50 16:24 03.01.2020
4948 Clouds 11 1019 49 0 2.82 50 15:59 03.01.2020
4949 Clouds 11 1019 49 0 2.82 50 15:41 03.01.2020
4950 Clouds 11 1019 49 0 2.82 50 15:19 03.01.2020
4951 Clouds 11 1019 49 0 2.82 50 14:39 03.01.2020
4952 Clouds 5 1021 86 0 0.55 255 14:20 03.01.2020
4953 Clouds 5 1021 86 0 0.55 255 13:57 03.01.2020
4954 Clouds 5 1021 86 0 0.55 255 13:38 03.01.2020
4955 Clouds 6 1021 81 0 1.22 43 13:20 03.01.2020
4956 Clouds 6 1021 81 0 1.22 43 12:40 03.01.2020
4957 Clouds 6 1021 81 0 1.22 43 12:21 03.01.2020
4958 Clouds 6 1021 81 0 1.22 43 12:21 03.01.2020
4959 Clouds 6 1021 81 0 1.22 43 11:49 03.01.2020
4960 Clouds 6 1021 81 0 1.22 43 11:31 03.01.2020
4961 Clouds 4 1019 97 0 1 31 10:57 03.01.2020
4962 Clouds 4 1019 97 0 1 31 10:38 03.01.2020
4963 Clouds 4 1019 97 0 1 31 10:20 03.01.2020
4964 Clouds 4 1019 97 0 1 31 09:54 03.01.2020
4965 Clouds 4 1019 97 0 1 31 09:36 03.01.2020
4966 Clouds 4 1019 97 0 1 31 09:18 03.01.2020
4967 Clouds 4 1019 97 0 1 31 08:44 03.01.2020
4968 Clouds 4 1019 94 0 1.94 47 08:21 03.01.2020
4969 Clouds 4 1019 94 0 1.94 47 07:42 03.01.2020
4970 Clouds 4 1019 94 0 1.94 47 07:19 03.01.2020
4971 Clouds 4 1019 94 0 1.94 47 06:57 03.01.2020
4972 Clouds 4 1019 94 0 1.94 47 06:39 03.01.2020
4973 Clouds 4 1019 94 0 1.94 47 06:20 03.01.2020
4974 Clouds 6 1019 87 0 2.29 46 04:43 03.01.2020
4975 Clouds 6 1019 87 0 2.29 46 03:38 03.01.2020
4976 Clouds 6 1019 87 0 2.29 46 02:53 03.01.2020
4977 Rain 7 1015 81 0 4.85 46 01:50 03.01.2020
4978 Rain 6 1015 81 0 4.96 46 01:18 03.01.2020
4979 Rain 6 1015 81 0 4.96 46 00:34 03.01.2020
4980 Rain 6 1015 81 0 4.96 46 23:59 02.01.2020
4981 Rain 6 1015 81 0 4.96 46 23:39 02.01.2020
4982 Rain 10 1011 64 0 5.07 62 23:20 02.01.2020
4983 Rain 10 1011 64 0 5.07 62 22:58 02.01.2020
4984 Rain 10 1011 64 0 5.07 62 22:40 02.01.2020
4985 Rain 10 1011 64 0 5.07 62 22:19 02.01.2020
4986 Rain 10 1011 64 0 5.07 62 21:56 02.01.2020
4987 Rain 10 1011 64 0 5.07 62 21:38 02.01.2020
4988 Rain 10 1011 64 0 5.07 62 21:19 02.01.2020
4989 Rain 10 1011 64 0 5.07 62 20:56 02.01.2020
4990 Rain 10 1011 64 0 5.07 62 20:37 02.01.2020
4991 Rain 10 1013 64 0 3.86 74 20:18 02.01.2020
4992 Rain 11 1014 60 0 4.37 70 19:54 02.01.2020
4993 Rain 11 1014 60 0 4.37 70 19:36 02.01.2020
4994 Rain 11 1014 60 0 4.37 70 19:18 02.01.2020
4995 Rain 11 1014 60 0 4.37 70 18:43 02.01.2020
4996 Rain 11 1014 60 0 4.37 70 18:24 02.01.2020
4997 Rain 11 1014 60 0 4.37 70 17:58 02.01.2020
4998 Rain 11 1014 60 0 4.37 70 17:39 02.01.2020
4999 Rain 7 1018 77 0 2.69 80 17:20 02.01.2020
5000 Rain 7 1018 77 0 2.69 80 16:58 02.01.2020
5001 Rain 7 1018 77 0 2.69 80 16:58 02.01.2020
5002 Rain 7 1018 77 0 2.69 80 16:40 02.01.2020
5003 Rain 7 1018 77 0 2.69 80 16:20 02.01.2020
5004 Rain 7 1018 77 0 2.69 80 15:58 02.01.2020
5005 Rain 7 1018 77 0 2.69 80 15:40 02.01.2020
5006 Rain 7 1018 77 0 2.69 80 15:22 02.01.2020
5007 Rain 7 1018 77 0 2.69 80 14:57 02.01.2020
5008 Rain 7 1018 77 0 2.69 80 14:36 02.01.2020
5009 Rain 6 1020 83 0 2.17 37 14:18 02.01.2020
5010 Rain 6 1020 83 0 2.17 37 13:50 02.01.2020
5011 Rain 6 1020 85 0 2.51 62 13:31 02.01.2020
5012 Rain 6 1020 85 0 2.51 62 12:46 02.01.2020
5013 Rain 6 1020 85 0 2.51 62 12:26 02.01.2020
5014 Rain 6 1020 85 0 2.51 62 11:59 02.01.2020
5015 Rain 6 1020 85 0 2.51 62 11:40 02.01.2020
5016 Rain 5 1018 89 0 2.66 32 11:20 02.01.2020
5017 Rain 5 1018 89 0 2.66 32 10:45 02.01.2020
5018 Rain 5 1018 89 0 2.66 32 10:26 02.01.2020
5019 Rain 5 1018 89 0 2.66 32 09:52 02.01.2020
5020 Rain 5 1018 89 0 2.66 32 09:33 02.01.2020
5021 Rain 5 1018 89 0 2.66 32 08:48 02.01.2020
5022 Rain 5 1018 89 0 2.99 35 08:27 02.01.2020
5023 Rain 6 1018 88 0 3.07 35 07:54 02.01.2020
5024 Rain 6 1018 88 0 3.07 35 07:31 02.01.2020
5025 Rain 6 1018 88 0 3.07 35 06:55 02.01.2020
5026 Rain 6 1018 88 0 3.07 35 06:55 02.01.2020
5027 Rain 6 1018 88 0 3.07 35 06:36 02.01.2020
5028 Rain 6 1018 88 0 3.07 35 05:36 02.01.2020
5029 Rain 7 1017 82 0 3.25 52 04:33 02.01.2020
5030 Rain 7 1017 82 0 3.25 52 03:19 02.01.2020
5031 Rain 8 1014 80 0 4.44 51 02:20 02.01.2020
5032 Rain 8 1014 80 0 4.44 51 01:47 02.01.2020
5033 Rain 8 1014 80 0 4.44 51 01:19 02.01.2020
5034 Rain 8 1015 79 0 4.15 53 00:36 02.01.2020
5035 Rain 8 1015 79 0 4.15 53 00:18 02.01.2020
5036 Rain 8 1015 79 0 4.15 53 23:40 01.01.2020
5037 Rain 10 1010 71 0 4.58 60 23:20 01.01.2020
5038 Rain 10 1010 71 0 4.58 60 22:38 01.01.2020
5039 Rain 10 1010 71 0 4.58 60 22:20 01.01.2020
5040 Rain 10 1010 71 0 4.58 60 21:57 01.01.2020
5041 Rain 10 1010 71 0 4.58 60 21:39 01.01.2020
5042 Rain 10 1010 71 0 4.58 60 21:20 01.01.2020
5043 Rain 10 1010 71 0 4.58 60 20:56 01.01.2020
5044 Rain 10 1010 71 0 4.58 60 20:38 01.01.2020
5045 Rain 12 1012 59 0 4.54 76 20:19 01.01.2020
5046 Rain 10 1013 68 0 4.66 63 19:55 01.01.2020
5047 Rain 10 1013 68 0 4.66 63 19:37 01.01.2020
5048 Rain 10 1013 68 0 4.66 63 19:19 01.01.2020
5049 Rain 10 1013 68 0 4.66 63 18:56 01.01.2020
5050 Rain 10 1013 68 0 4.66 63 18:36 01.01.2020
5051 Rain 10 1013 68 0 4.66 63 18:18 01.01.2020
5052 Rain 10 1013 68 0 4.66 63 17:56 01.01.2020
5053 Rain 10 1013 68 0 4.66 63 17:38 01.01.2020
5054 Rain 9 1017 70 0 3.89 64 17:19 01.01.2020
5055 Rain 9 1017 70 0 3.89 64 16:55 01.01.2020
5056 Rain 9 1017 70 0 3.89 64 16:36 01.01.2020
5057 Rain 9 1017 70 0 3.89 64 16:36 01.01.2020
5058 Rain 9 1017 70 0 3.89 64 16:18 01.01.2020
5059 Rain 9 1017 70 0 3.89 64 15:54 01.01.2020
5060 Rain 9 1017 70 0 3.89 64 15:36 01.01.2020
5061 Rain 9 1017 70 0 3.89 64 15:18 01.01.2020
5062 Rain 9 1017 70 0 3.89 64 14:40 01.01.2020
5063 Rain 6 1018 81 0 2.13 88 14:22 01.01.2020
5064 Rain 6 1018 81 0 2.13 88 13:56 01.01.2020
5065 Rain 6 1018 81 0 2.13 88 13:37 01.01.2020
5066 Rain 7 1019 81 0 3.27 99 13:19 01.01.2020
5067 Rain 7 1019 81 0 3.27 99 12:57 01.01.2020
5068 Rain 7 1019 81 0 3.27 99 12:39 01.01.2020
5069 Rain 7 1019 81 0 3.27 99 12:19 01.01.2020
5070 Rain 7 1019 81 0 3.27 99 11:55 01.01.2020
5071 Rain 7 1019 81 0 3.27 99 11:36 01.01.2020
5072 Rain 5 1017 85 0 1.26 23 11:18 01.01.2020
5073 Rain 5 1017 85 0 1.26 23 10:41 01.01.2020
5074 Rain 5 1017 85 0 1.26 23 10:21 01.01.2020
5075 Rain 5 1017 85 0 1.26 23 09:59 01.01.2020
5076 Rain 5 1017 85 0 1.26 23 09:38 01.01.2020
5077 Rain 5 1017 85 0 1.26 23 09:38 01.01.2020
5078 Rain 5 1017 85 0 1.26 23 09:19 01.01.2020
5079 Rain 5 1017 85 0 1.26 23 08:55 01.01.2020
5080 Rain 5 1017 85 0 1.26 23 08:37 01.01.2020
5081 Rain 5 1017 85 0 1.26 23 08:37 01.01.2020
5082 Rain 4 1017 94 0 2.04 18 08:19 01.01.2020
5083 Rain 4 1017 94 0 2.04 18 07:54 01.01.2020
5084 Rain 4 1017 94 0 2.04 18 07:36 01.01.2020
5085 Rain 4 1017 94 0 2.04 18 06:45 01.01.2020
5086 Rain 4 1017 94 0 2.04 18 06:21 01.01.2020
5087 Rain 4 1017 94 0 2.04 18 05:22 01.01.2020
5088 Rain 5 1017 88 0 1.89 8 03:46 01.01.2020
5089 Rain 5 1017 88 0 1.89 8 03:23 01.01.2020
5090 Rain 5 1017 88 0 1.89 8 03:23 01.01.2020
5091 Rain 5 1017 88 0 1.89 8 02:57 01.01.2020
5092 Rain 5 1017 88 0 1.89 8 02:37 01.01.2020
5093 Rain 7 1013 89 0 3 115 01:59 01.01.2020
5094 Rain 7 1013 89 0 3 115 01:38 01.01.2020
5095 Rain 8 1013 83 0 3.92 116 01:20 01.01.2020
5096 Rain 8 1013 83 0 3.92 116 00:44 01.01.2020
5097 Rain 8 1013 83 0 3.92 116 00:26 01.01.2020
5098 Rain 8 1013 83 0 3.92 116 23:42 31.12.2019
5099 Rain 10 1009 68 0 4.37 65 23:22 31.12.2019
5100 Rain 10 1009 68 0 4.37 65 22:59 31.12.2019
5101 Rain 10 1009 68 0 4.37 65 22:39 31.12.2019
5102 Rain 10 1009 68 0 4.37 65 22:20 31.12.2019
5103 Rain 10 1009 68 0 4.37 65 21:59 31.12.2019
5104 Rain 10 1009 68 0 4.37 65 21:41 31.12.2019
5105 Rain 10 1009 68 0 4.37 65 21:23 31.12.2019
5106 Rain 10 1009 68 0 4.37 65 20:57 31.12.2019
5107 Rain 10 1009 68 0 4.37 65 20:37 31.12.2019
5108 Rain 12 1010 62 0 4.44 67 20:19 31.12.2019
5109 Rain 12 1010 62 0 4.44 67 19:55 31.12.2019
5110 Rain 12 1010 62 0 4.44 67 19:37 31.12.2019
5111 Rain 12 1010 62 0 4.44 67 19:18 31.12.2019
5112 Rain 12 1010 62 0 4.44 67 18:55 31.12.2019
5113 Rain 12 1010 62 0 4.44 67 18:37 31.12.2019
5114 Rain 12 1010 62 0 4.44 67 18:18 31.12.2019
5115 Rain 12 1010 62 0 4.44 67 17:55 31.12.2019
5116 Rain 12 1010 62 0 4.44 67 17:36 31.12.2019
5117 Rain 11 1013 63 0 3.42 78 17:18 31.12.2019
5118 Rain 11 1013 63 0 3.42 78 16:55 31.12.2019
5119 Rain 11 1013 63 0 3.42 78 16:36 31.12.2019
5120 Rain 11 1013 63 0 3.42 78 16:18 31.12.2019
5121 Rain 11 1013 63 0 3.42 78 15:55 31.12.2019
5122 Rain 11 1013 63 0 3.42 78 15:37 31.12.2019
5123 Rain 11 1013 63 0 3.42 78 15:19 31.12.2019
5124 Rain 11 1013 63 0 3.42 78 14:55 31.12.2019
5125 Rain 11 1013 63 0 3.42 78 14:37 31.12.2019
5126 Rain 8 1016 75 0 1.31 59 14:18 31.12.2019
5127 Rain 8 1016 75 0 1.31 59 13:56 31.12.2019
5128 Rain 8 1016 75 0 1.31 59 13:37 31.12.2019
5129 Rain 6 1016 85 0 2.13 64 13:19 31.12.2019
5130 Rain 6 1016 85 0 2.13 64 12:55 31.12.2019
5131 Rain 6 1016 85 0 2.13 64 12:37 31.12.2019
5132 Rain 6 1016 85 0 2.13 64 12:37 31.12.2019
5133 Rain 6 1016 85 0 2.13 64 12:18 31.12.2019
5134 Rain 6 1016 85 0 2.13 64 12:18 31.12.2019
5135 Rain 6 1016 85 0 2.13 64 11:54 31.12.2019
5136 Rain 6 1016 85 0 2.13 64 11:36 31.12.2019
5137 Rain 6 1016 85 0 2.13 64 11:36 31.12.2019
5138 Rain 6 1014 86 0 1.1 55 11:18 31.12.2019
5139 Rain 6 1014 86 0 1.1 55 10:55 31.12.2019
5140 Rain 6 1014 86 0 1.1 55 10:37 31.12.2019
5141 Rain 6 1014 86 0 1.1 55 10:19 31.12.2019
5142 Rain 6 1014 86 0 1.1 55 09:56 31.12.2019
5143 Rain 6 1014 86 0 1.1 55 09:38 31.12.2019
5144 Rain 6 1014 86 0 1.1 55 09:18 31.12.2019
5145 Rain 6 1014 86 0 1.1 55 08:42 31.12.2019
5146 Rain 7 1015 87 0 2.21 60 08:22 31.12.2019
5147 Rain 7 1015 87 0 2.21 60 07:56 31.12.2019
5148 Rain 7 1015 87 0 2.21 60 07:37 31.12.2019
5149 Rain 7 1015 87 0 2.21 60 07:18 31.12.2019
5150 Rain 7 1015 87 0 2.21 60 06:29 31.12.2019
5151 Rain 7 1015 79 0 1.25 38 04:58 31.12.2019
5152 Rain 7 1015 79 0 1.25 38 04:25 31.12.2019
5153 Rain 7 1015 79 0 1.25 38 02:58 31.12.2019
5154 Rain 7 1015 79 0 1.25 38 02:34 31.12.2019
5155 Rain 8 1011 83 0 3.85 47 01:51 31.12.2019
5156 Rain 8 1011 83 0 3.85 47 01:32 31.12.2019
5157 Rain 8 1011 83 0 3.85 47 01:32 31.12.2019
5158 Rain 8 1011 81 0 2.91 41 00:54 31.12.2019
5159 Rain 8 1011 81 0 2.91 41 00:36 31.12.2019
5160 Rain 8 1011 81 0 2.91 41 00:18 31.12.2019
5161 Rain 8 1011 81 0 2.91 41 23:54 30.12.2019
5162 Rain 8 1011 81 0 2.91 41 23:36 30.12.2019
5163 Rain 11 1007 65 0 3.91 84 23:18 30.12.2019
5164 Rain 11 1007 65 0 3.91 84 22:54 30.12.2019
5165 Rain 11 1007 65 0 3.91 84 22:36 30.12.2019
5166 Rain 11 1007 65 0 3.91 84 22:18 30.12.2019
5167 Rain 11 1007 65 0 3.91 84 21:55 30.12.2019
5168 Rain 11 1007 65 0 3.91 84 21:36 30.12.2019
5169 Rain 11 1007 65 0 3.91 84 21:18 30.12.2019
5170 Rain 11 1007 65 0 3.91 84 20:41 30.12.2019
5171 Rain 12 1010 56 0 2.38 131 20:20 30.12.2019
5172 Rain 12 1010 56 0 2.38 131 19:59 30.12.2019
5173 Rain 12 1010 56 0 2.38 131 19:40 30.12.2019
5174 Rain 12 1010 56 0 2.38 131 19:20 30.12.2019
5175 Rain 12 1010 56 0 2.38 131 19:20 30.12.2019
5176 Rain 12 1010 56 0 2.38 131 18:59 30.12.2019
5177 Rain 12 1010 56 0 2.38 131 18:41 30.12.2019
5178 Rain 12 1010 56 0 2.38 131 18:21 30.12.2019
5179 Rain 12 1010 56 0 2.38 131 17:59 30.12.2019
5180 Rain 12 1010 56 0 2.38 131 17:40 30.12.2019
5181 Rain 10 1014 61 0 1.99 118 17:19 30.12.2019
5182 Rain 10 1014 61 0 1.99 118 16:59 30.12.2019
5183 Rain 10 1014 61 0 1.99 118 16:39 30.12.2019
5184 Rain 10 1014 61 0 1.99 118 16:20 30.12.2019
5185 Rain 10 1014 61 0 1.99 118 15:56 30.12.2019
5186 Rain 10 1014 61 0 1.99 118 15:38 30.12.2019
5187 Rain 10 1014 61 0 1.99 118 15:19 30.12.2019
5188 Rain 10 1014 61 0 1.99 118 15:19 30.12.2019
5189 Rain 10 1014 61 0 1.99 118 14:54 30.12.2019
5190 Rain 10 1014 61 0 1.99 118 14:36 30.12.2019
5191 Rain 7 1017 81 0 1.52 103 14:18 30.12.2019
5192 Rain 7 1017 81 0 1.52 103 13:41 30.12.2019
5193 Rain 6 1017 85 0 1.08 86 13:23 30.12.2019
5194 Rain 6 1017 85 0 1.08 86 12:58 30.12.2019
5195 Rain 6 1017 85 0 1.08 86 12:39 30.12.2019
5196 Rain 6 1017 85 0 1.08 86 12:19 30.12.2019
5197 Rain 6 1017 85 0 1.08 86 11:56 30.12.2019
5198 Rain 6 1017 85 0 1.08 86 11:37 30.12.2019
5199 Rain 6 1015 91 0 1.82 52 11:18 30.12.2019
5200 Rain 6 1015 91 0 1.82 52 10:42 30.12.2019
5201 Rain 6 1015 91 0 1.82 52 10:20 30.12.2019
5202 Rain 6 1015 91 0 1.82 52 09:55 30.12.2019
5203 Rain 6 1015 91 0 1.82 52 09:37 30.12.2019
5204 Rain 6 1015 91 0 1.82 52 09:18 30.12.2019
5205 Rain 6 1015 91 0 1.82 52 08:46 30.12.2019
5206 Rain 6 1015 89 0 1.08 75 08:23 30.12.2019
5207 Rain 6 1015 86 0 0.94 78 07:53 30.12.2019
5208 Rain 6 1015 86 0 0.94 78 07:32 30.12.2019
5209 Rain 6 1015 86 0 0.94 78 06:50 30.12.2019
5210 Rain 7 1017 85 0 2.49 64 04:45 30.12.2019
5211 Rain 7 1017 85 0 2.49 64 03:52 30.12.2019
5212 Rain 7 1017 85 0 2.49 64 02:47 30.12.2019
5213 Rain 7 1017 85 0 2.49 64 02:29 30.12.2019
5214 Rain 8 1014 78 0 2.49 113 01:47 30.12.2019
5215 Rain 8 1014 79 0 2.71 74 01:19 30.12.2019
5216 Rain 8 1014 79 0 2.71 74 00:42 30.12.2019
5217 Rain 8 1014 79 0 2.71 74 23:59 29.12.2019
5218 Rain 8 1014 79 0 2.71 74 23:38 29.12.2019
5219 Rain 10 1010 67 0 1.56 76 23:20 29.12.2019
5220 Rain 10 1010 67 0 1.56 76 22:41 29.12.2019
5221 Rain 10 1010 67 0 1.56 76 22:22 29.12.2019
5222 Rain 10 1010 67 0 1.56 76 21:57 29.12.2019
5223 Rain 10 1010 67 0 1.56 76 21:39 29.12.2019
5224 Rain 10 1010 67 0 1.56 76 21:20 29.12.2019
5225 Rain 10 1010 67 0 1.56 76 20:57 29.12.2019
5226 Rain 10 1010 67 0 1.56 76 20:38 29.12.2019
5227 Rain 11 1014 60 0 3.23 62 20:20 29.12.2019
5228 Rain 11 1014 60 0 3.23 62 19:58 29.12.2019
5229 Rain 11 1014 60 0 3.23 62 19:39 29.12.2019
5230 Rain 11 1014 60 0 3.23 62 19:20 29.12.2019
5231 Rain 11 1014 60 0 3.23 62 18:56 29.12.2019
5232 Rain 11 1014 60 0 3.23 62 18:38 29.12.2019
5233 Rain 11 1014 60 0 3.23 62 18:19 29.12.2019
5234 Rain 11 1014 60 0 3.23 62 18:19 29.12.2019
5235 Rain 11 1014 60 0 3.23 62 17:57 29.12.2019
5236 Rain 11 1014 60 0 3.23 62 17:38 29.12.2019
5237 Rain 7 1017 78 0 1.54 337 17:20 29.12.2019
5238 Rain 7 1017 78 0 1.54 337 16:56 29.12.2019
5239 Rain 7 1017 78 0 1.54 337 16:37 29.12.2019
5240 Rain 7 1017 78 0 1.54 337 16:19 29.12.2019
5241 Rain 7 1017 78 0 1.54 337 15:56 29.12.2019
5242 Rain 7 1017 78 0 1.54 337 15:38 29.12.2019
5243 Rain 7 1017 78 0 1.54 337 15:19 29.12.2019
5244 Rain 7 1017 78 0 1.54 337 14:55 29.12.2019
5245 Rain 7 1017 78 0 1.54 337 14:37 29.12.2019
5246 Rain 5 1019 87 0 0.8 25 14:18 29.12.2019
5247 Rain 5 1019 87 0 0.8 25 13:55 29.12.2019
5248 Rain 5 1019 87 0 0.8 25 13:55 29.12.2019
5249 Rain 5 1019 87 0 0.8 25 13:37 29.12.2019
5250 Rain 5 1019 87 0 0.8 25 13:18 29.12.2019
5251 Rain 5 1019 87 0 0.8 25 13:18 29.12.2019
5252 Rain 6 1019 90 0 1.87 38 12:44 29.12.2019
5253 Rain 6 1019 90 0 1.87 38 12:25 29.12.2019
5254 Rain 6 1019 90 0 1.87 38 12:25 29.12.2019
5255 Rain 6 1019 90 0 1.87 38 11:56 29.12.2019
5256 Rain 6 1019 90 0 1.87 38 11:38 29.12.2019
5257 Rain 6 1019 90 0 1.87 38 11:38 29.12.2019
5258 Rain 6 1016 84 0 1.19 23 11:20 29.12.2019
5259 Rain 6 1016 84 0 1.19 23 10:42 29.12.2019
5260 Rain 6 1016 84 0 1.19 23 10:24 29.12.2019
5261 Rain 6 1016 84 0 1.19 23 09:58 29.12.2019
5262 Rain 6 1016 84 0 1.19 23 09:39 29.12.2019
5263 Rain 6 1016 84 0 1.19 23 09:21 29.12.2019
5264 Rain 6 1016 84 0 1.19 23 08:47 29.12.2019
5265 Rain 6 1016 84 0 1.19 23 08:27 29.12.2019
5266 Rain 6 1016 85 0 2.95 52 07:55 29.12.2019
5267 Rain 6 1016 85 0 2.95 52 07:28 29.12.2019
5268 Rain 6 1016 85 0 2.95 52 06:56 29.12.2019
5269 Rain 6 1016 85 0 2.95 52 06:26 29.12.2019
5270 Rain 6 1016 85 0 2.95 52 05:52 29.12.2019
5271 Rain 7 1017 80 0 3.58 62 04:36 29.12.2019
5272 Rain 7 1017 80 0 3.58 62 03:54 29.12.2019
5273 Rain 7 1017 80 0 3.58 62 03:21 29.12.2019
5274 Rain 8 1015 81 0 4.1 54 02:20 29.12.2019
5275 Rain 8 1015 81 0 4.1 54 01:38 29.12.2019
5276 Rain 8 1015 79 0 4.48 55 01:19 29.12.2019
5277 Rain 8 1015 79 0 4.48 55 00:40 29.12.2019
5278 Rain 8 1015 79 0 4.48 55 00:22 29.12.2019
5279 Rain 8 1015 79 0 4.48 55 23:44 28.12.2019
5280 Rain 10 1011 66 0 4.85 35 23:18 28.12.2019
5281 Rain 10 1011 66 0 4.85 35 23:18 28.12.2019
5282 Rain 10 1011 66 0 4.85 35 22:39 28.12.2019
5283 Rain 10 1011 66 0 4.85 35 22:21 28.12.2019
5284 Rain 10 1011 66 0 4.85 35 21:58 28.12.2019
5285 Rain 10 1011 66 0 4.85 35 21:40 28.12.2019
5286 Rain 10 1011 66 0 4.85 35 21:21 28.12.2019
5287 Rain 10 1011 66 0 4.85 35 20:58 28.12.2019
5288 Rain 10 1011 66 0 4.85 35 20:38 28.12.2019
5289 Rain 12 1013 57 0 5.77 49 20:20 28.12.2019
5290 Rain 12 1013 57 0 5.77 49 19:58 28.12.2019
5291 Rain 12 1013 57 0 5.77 49 19:39 28.12.2019
5292 Rain 12 1013 57 0 5.77 49 19:21 28.12.2019
5293 Rain 12 1013 57 0 5.77 49 18:58 28.12.2019
5294 Rain 12 1013 57 0 5.77 49 18:40 28.12.2019
5295 Rain 12 1013 57 0 5.77 49 18:19 28.12.2019
5296 Rain 12 1013 57 0 5.77 49 17:55 28.12.2019
5297 Rain 12 1013 57 0 5.77 49 17:36 28.12.2019
5298 Rain 10 1017 56 0 4.75 65 17:18 28.12.2019
5299 Rain 10 1017 56 0 4.75 65 16:46 28.12.2019
5300 Rain 10 1017 56 0 4.75 65 16:26 28.12.2019
5301 Rain 10 1017 56 0 4.75 65 15:47 28.12.2019
5302 Rain 10 1017 56 0 4.75 65 15:24 28.12.2019
5303 Rain 10 1017 56 0 4.75 65 14:59 28.12.2019
5304 Rain 10 1017 56 0 4.75 65 14:39 28.12.2019
5305 Rain 5 1019 83 0 0.96 214 14:20 28.12.2019
5306 Rain 5 1019 83 0 0.96 214 13:56 28.12.2019
5307 Rain 5 1019 83 0 0.96 214 13:37 28.12.2019
5308 Rain 5 1019 83 0 0.96 214 13:18 28.12.2019
5309 Rain 4 1019 84 0 1.52 215 12:43 28.12.2019
5310 Rain 4 1019 84 0 1.52 215 12:43 28.12.2019
5311 Rain 4 1019 84 0 1.52 215 12:24 28.12.2019
5312 Rain 4 1019 84 0 1.52 215 11:56 28.12.2019
5313 Rain 4 1019 84 0 1.52 215 11:38 28.12.2019
5314 Rain 5 1017 90 0 4.21 70 11:19 28.12.2019
5315 Rain 5 1017 90 0 4.21 70 10:44 28.12.2019
5316 Rain 5 1017 90 0 4.21 70 10:22 28.12.2019
5317 Rain 5 1017 90 0 4.21 70 09:58 28.12.2019
5318 Rain 5 1017 90 0 4.21 70 09:40 28.12.2019
5319 Rain 5 1017 90 0 4.21 70 09:20 28.12.2019
5320 Rain 5 1017 90 0 4.21 70 08:44 28.12.2019
5321 Rain 5 1017 90 0 5.26 65 08:26 28.12.2019
5322 Rain 6 1017 83 0 2.33 56 07:55 28.12.2019
5323 Rain 6 1017 83 0 2.33 56 07:31 28.12.2019
5324 Rain 6 1017 83 0 2.33 56 06:41 28.12.2019
5325 Rain 7 1017 81 0 3.81 53 04:59 28.12.2019
5326 Rain 7 1017 81 0 3.81 53 03:47 28.12.2019
5327 Rain 7 1017 81 0 3.81 53 02:49 28.12.2019
5328 Rain 8 1014 76 0 4.74 58 01:59 28.12.2019
5329 Rain 9 1015 72 0 4.49 61 01:31 28.12.2019
5330 Rain 9 1015 72 0 4.49 61 00:58 28.12.2019
5331 Rain 9 1015 72 0 4.49 61 00:40 28.12.2019
5332 Rain 9 1015 72 0 4.49 61 00:20 28.12.2019
5333 Rain 9 1015 72 0 4.49 61 23:44 27.12.2019
5334 Rain 9 1015 72 0 4.49 61 23:44 27.12.2019
5335 Rain 12 1010 53 0 7.17 52 23:20 27.12.2019
5336 Rain 12 1010 53 0 7.17 52 22:58 27.12.2019
5337 Rain 12 1010 53 0 7.17 52 22:39 27.12.2019
5338 Rain 12 1010 53 0 7.17 52 22:20 27.12.2019
5339 Rain 12 1010 53 0 7.17 52 21:58 27.12.2019
5340 Rain 12 1010 53 0 7.17 52 21:37 27.12.2019
5341 Rain 12 1010 53 0 7.17 52 21:19 27.12.2019
5342 Rain 12 1010 53 0 7.17 52 20:42 27.12.2019
5343 Rain 12 1010 53 0 7.17 52 20:23 27.12.2019
5344 Rain 13 1011 45 0 5.49 66 19:54 27.12.2019
5345 Rain 13 1011 45 0 5.49 66 19:36 27.12.2019
5346 Rain 13 1011 45 0 5.49 66 19:18 27.12.2019
5347 Rain 13 1011 45 0 5.49 66 18:40 27.12.2019
5348 Rain 13 1011 45 0 5.49 66 18:22 27.12.2019
5349 Rain 13 1011 45 0 5.49 66 17:58 27.12.2019
5350 Rain 13 1011 45 0 5.49 66 17:40 27.12.2019
5351 Clouds 12 1015 45 0 3.73 79 17:19 27.12.2019
5352 Clouds 12 1015 45 0 3.73 79 16:59 27.12.2019
5353 Clouds 12 1015 45 0 3.73 79 16:39 27.12.2019
5354 Clouds 12 1015 45 0 3.73 79 16:20 27.12.2019
5355 Clouds 12 1015 45 0 3.73 79 15:45 27.12.2019
5356 Clouds 12 1015 45 0 3.73 79 15:24 27.12.2019
5357 Clouds 12 1015 45 0 3.73 79 14:58 27.12.2019
5358 Clouds 12 1015 45 0 3.73 79 14:40 27.12.2019
5359 Clouds 8 1018 63 0 1.54 55 14:22 27.12.2019
5360 Clouds 8 1018 63 0 1.54 55 13:58 27.12.2019
5361 Clouds 8 1018 63 0 1.54 55 13:40 27.12.2019
5362 Clouds 9 1018 61 0 0.81 63 13:21 27.12.2019
5363 Clouds 9 1018 61 0 0.81 63 12:44 27.12.2019
5364 Clouds 9 1018 61 0 0.81 63 12:26 27.12.2019
5365 Clouds 9 1018 61 0 0.81 63 12:26 27.12.2019
5366 Clouds 9 1018 61 0 0.81 63 11:56 27.12.2019
5367 Clouds 9 1018 61 0 0.81 63 11:38 27.12.2019
5368 Clouds 7 1017 81 0 0.45 271 11:19 27.12.2019
5369 Clouds 7 1017 81 0 0.45 271 10:45 27.12.2019
5370 Clouds 7 1017 81 0 0.45 271 10:23 27.12.2019
5371 Clouds 7 1017 81 0 0.45 271 09:55 27.12.2019
5372 Clouds 7 1017 81 0 0.45 271 09:37 27.12.2019
5373 Clouds 7 1017 81 0 0.45 271 09:19 27.12.2019
5374 Clouds 7 1017 81 0 0.45 271 08:43 27.12.2019
5375 Clouds 7 1017 81 0 0.45 271 08:25 27.12.2019
5376 Clouds 8 1016 76 0 0.98 266 07:38 27.12.2019
5377 Clouds 8 1016 76 0 0.98 266 07:19 27.12.2019
5378 Clouds 8 1016 76 0 0.98 266 06:25 27.12.2019
5379 Clouds 8 1018 74 0 2.14 62 04:40 27.12.2019
5380 Clouds 8 1018 74 0 2.14 62 02:29 27.12.2019
5381 Rain 9 1013 69 0 3.28 51 01:48 27.12.2019
5382 Rain 9 1013 69 0 3.28 51 01:23 27.12.2019
5383 Rain 9 1013 68 0 3.01 35 00:51 27.12.2019
5384 Rain 9 1013 68 0 3.01 35 00:33 27.12.2019
5385 Rain 9 1013 68 0 3.01 35 23:56 26.12.2019
5386 Rain 9 1013 68 0 3.01 35 23:38 26.12.2019
5387 Rain 12 1008 55 0 5.95 57 23:20 26.12.2019
5388 Rain 12 1008 55 0 5.95 57 22:41 26.12.2019
5389 Rain 12 1008 55 0 5.95 57 22:19 26.12.2019
5390 Rain 12 1008 55 0 5.95 57 21:55 26.12.2019
5391 Rain 12 1008 55 0 5.95 57 21:37 26.12.2019
5392 Rain 12 1008 55 0 5.95 57 21:19 26.12.2019
5393 Rain 12 1008 55 0 5.95 57 20:44 26.12.2019
5394 Rain 12 1008 55 0 5.95 57 20:44 26.12.2019
5395 Clear 14 1011 32 0 3.92 57 20:22 26.12.2019
5396 Clear 14 1011 32 0 3.92 57 19:58 26.12.2019
5397 Clear 14 1011 32 0 3.92 57 19:39 26.12.2019
5398 Clear 14 1011 32 0 3.92 57 19:20 26.12.2019
5399 Clear 14 1011 32 0 3.92 57 18:57 26.12.2019
5400 Clear 14 1011 32 0 3.92 57 18:38 26.12.2019
5401 Clear 14 1011 32 0 3.92 57 18:19 26.12.2019
5402 Clear 14 1011 32 0 3.92 57 17:42 26.12.2019
5403 Clear 12 1015 36 0 3.26 46 17:22 26.12.2019
5404 Clear 12 1015 36 0 3.26 46 16:58 26.12.2019
5405 Clear 12 1015 36 0 3.26 46 16:39 26.12.2019
5406 Clear 12 1015 36 0 3.26 46 16:20 26.12.2019
5407 Clear 12 1015 36 0 3.26 46 15:41 26.12.2019
5408 Clear 12 1015 36 0 3.26 46 15:41 26.12.2019
5409 Clear 12 1015 36 0 3.26 46 15:20 26.12.2019
5410 Clear 12 1015 36 0 3.26 46 14:58 26.12.2019
5411 Clear 12 1015 36 0 3.26 46 14:38 26.12.2019
5412 Clouds 7 1019 56 0 0.89 96 14:20 26.12.2019
5413 Clouds 7 1019 56 0 0.89 96 13:43 26.12.2019
5414 Clouds 7 1019 54 0 0.85 34 13:20 26.12.2019
5415 Clouds 7 1019 54 0 0.85 34 12:56 26.12.2019
5416 Clouds 7 1019 54 0 0.85 34 12:37 26.12.2019
5417 Clouds 7 1019 54 0 0.85 34 12:19 26.12.2019
5418 Clouds 7 1019 54 0 0.85 34 11:56 26.12.2019
5419 Clouds 7 1019 54 0 0.85 34 11:37 26.12.2019
5420 Clear 5 1018 72 0 0.86 196 11:19 26.12.2019
5421 Clear 5 1018 72 0 0.86 196 10:42 26.12.2019
5422 Clear 5 1018 72 0 0.86 196 10:18 26.12.2019
5423 Clear 5 1018 72 0 0.86 196 09:49 26.12.2019
5424 Clear 5 1018 72 0 0.86 196 09:31 26.12.2019
5425 Clear 5 1018 72 0 0.86 196 08:42 26.12.2019
5426 Clear 5 1018 82 0 0.3 108 08:24 26.12.2019
5427 Clouds 6 1018 75 0 0.81 96 07:53 26.12.2019
5428 Clouds 6 1018 75 0 0.81 96 07:27 26.12.2019
5429 Clouds 6 1018 75 0 0.81 96 06:53 26.12.2019
5430 Clouds 6 1018 75 0 0.81 96 06:32 26.12.2019
5431 Clouds 6 1018 75 0 0.81 96 05:45 26.12.2019
5432 Clouds 7 1018 66 0 3.66 63 04:57 26.12.2019
5433 Clouds 7 1018 66 0 3.66 63 04:30 26.12.2019
5434 Clouds 7 1018 66 0 3.66 63 02:56 26.12.2019
5435 Clouds 7 1018 66 0 3.66 63 02:34 26.12.2019
5436 Clouds 7 1018 66 0 3.66 63 02:34 26.12.2019
5437 Rain 7 1014 63 0 2.97 94 01:50 26.12.2019
5438 Rain 7 1014 63 0 2.97 94 01:32 26.12.2019
5439 Rain 6 1014 82 0 4.62 112 00:50 26.12.2019
5440 Rain 6 1014 82 0 4.62 112 00:27 26.12.2019
5441 Rain 6 1014 82 0 4.62 112 23:58 25.12.2019
5442 Rain 6 1014 82 0 4.62 112 23:39 25.12.2019
5443 Rain 11 1008 47 0 1.46 351 23:21 25.12.2019
5444 Rain 11 1008 47 0 1.46 351 22:59 25.12.2019
5445 Rain 11 1008 47 0 1.46 351 22:39 25.12.2019
5446 Rain 11 1008 47 0 1.46 351 22:21 25.12.2019
5447 Rain 11 1008 47 0 1.46 351 21:58 25.12.2019
5448 Rain 11 1008 47 0 1.46 351 21:39 25.12.2019
5449 Rain 11 1008 47 0 1.46 351 21:20 25.12.2019
5450 Rain 11 1008 47 0 1.46 351 20:56 25.12.2019
5451 Rain 11 1008 47 0 1.46 351 20:38 25.12.2019
5452 Clouds 16 1005 31 0 5.83 88 20:18 25.12.2019
5453 Clouds 16 1005 31 0 5.83 88 20:18 25.12.2019
5454 Clouds 16 1005 31 0 5.83 88 19:43 25.12.2019
5455 Clouds 16 1005 31 0 5.83 88 19:24 25.12.2019
5456 Clouds 16 1005 31 0 5.83 88 18:58 25.12.2019
5457 Clouds 16 1005 31 0 5.83 88 18:37 25.12.2019
5458 Clouds 16 1005 31 0 5.83 88 18:18 25.12.2019
5459 Clouds 16 1005 31 0 5.83 88 17:41 25.12.2019
5460 Clouds 15 1010 31 0 3.51 91 17:19 25.12.2019
5461 Clouds 15 1010 31 0 3.51 91 16:58 25.12.2019
5462 Clouds 15 1010 31 0 3.51 91 16:37 25.12.2019
5463 Clouds 15 1010 31 0 3.51 91 16:18 25.12.2019
5464 Clouds 15 1010 31 0 3.51 91 15:57 25.12.2019
5465 Clouds 15 1010 31 0 3.51 91 15:39 25.12.2019
5466 Clouds 15 1010 31 0 3.51 91 15:20 25.12.2019
5467 Clouds 15 1010 31 0 3.51 91 14:57 25.12.2019
5468 Clouds 15 1010 31 0 3.51 91 14:39 25.12.2019
5469 Clouds 11 1012 46 0 0.12 330 14:20 25.12.2019
5470 Clouds 11 1012 46 0 0.12 330 13:45 25.12.2019
5471 Clouds 11 1012 41 0 0.77 234 13:21 25.12.2019
5472 Clouds 11 1012 41 0 0.77 234 12:57 25.12.2019
5473 Clouds 11 1012 41 0 0.77 234 12:38 25.12.2019
5474 Clouds 11 1012 41 0 0.77 234 12:38 25.12.2019
5475 Clouds 11 1012 41 0 0.77 234 12:19 25.12.2019
5476 Clouds 11 1012 41 0 0.77 234 11:43 25.12.2019
5477 Clouds 11 1012 41 0 0.77 234 11:23 25.12.2019
5478 Clouds 8 1011 65 0 0.7 241 10:59 25.12.2019
5479 Clouds 8 1011 65 0 0.7 241 10:37 25.12.2019
5480 Clouds 8 1011 65 0 0.7 241 10:19 25.12.2019
5481 Clouds 8 1011 65 0 0.7 241 09:45 25.12.2019
5482 Clouds 8 1011 65 0 0.7 241 09:27 25.12.2019
5483 Clouds 8 1011 65 0 0.7 241 08:47 25.12.2019
5484 Clouds 8 1011 65 0 0.7 241 08:29 25.12.2019
5485 Clouds 8 1012 61 0 2.74 264 07:50 25.12.2019
5486 Clouds 8 1012 61 0 2.74 264 07:31 25.12.2019
5487 Clouds 8 1012 61 0 2.74 264 06:50 25.12.2019
5488 Clouds 8 1012 61 0 2.74 264 06:22 25.12.2019
5489 Rain 7 1013 73 0 3.03 308 05:18 25.12.2019
5490 Rain 7 1013 73 0 3.03 308 04:39 25.12.2019
5491 Rain 7 1013 73 0 3.03 308 04:20 25.12.2019
5492 Rain 7 1013 73 0 3.03 308 03:41 25.12.2019
5493 Rain 7 1013 73 0 3.03 308 02:51 25.12.2019
5494 Rain 8 1010 66 0 4.74 30 02:20 25.12.2019
5495 Rain 6 1011 83 0 3.71 59 01:25 25.12.2019
5496 Rain 6 1011 83 0 3.71 59 00:53 25.12.2019
5497 Rain 6 1011 83 0 3.71 59 00:30 25.12.2019
5498 Rain 6 1011 83 0 3.71 59 23:57 24.12.2019
5499 Rain 6 1011 83 0 3.71 59 23:38 24.12.2019
5500 Rain 11 1005 50 0 4.85 203 23:20 24.12.2019
5501 Rain 11 1005 50 0 4.85 203 22:41 24.12.2019
5502 Rain 11 1005 50 0 4.85 203 22:21 24.12.2019
5503 Rain 11 1005 50 0 4.85 203 21:44 24.12.2019
5504 Rain 11 1005 50 0 4.85 203 21:23 24.12.2019
5505 Rain 11 1005 50 0 4.85 203 20:59 24.12.2019
5506 Rain 11 1005 50 0 4.85 203 20:40 24.12.2019
5507 Clouds 15 1007 24 0 3.02 42 20:19 24.12.2019
5508 Clouds 15 1007 24 0 3.02 42 19:45 24.12.2019
5509 Clouds 15 1007 24 0 3.02 42 19:20 24.12.2019
5510 Clouds 15 1007 24 0 3.02 42 18:57 24.12.2019
5511 Clouds 15 1007 24 0 3.02 42 18:38 24.12.2019
5512 Clouds 15 1007 24 0 3.02 42 18:18 24.12.2019
5513 Clouds 15 1007 24 0 3.02 42 17:39 24.12.2019
5514 Clear 13 1013 34 0 2.96 51 17:21 24.12.2019
5515 Clear 13 1013 34 0 2.96 51 16:56 24.12.2019
5516 Clear 13 1013 34 0 2.96 51 16:38 24.12.2019
5517 Clear 13 1013 34 0 2.96 51 16:20 24.12.2019
5518 Clear 13 1013 34 0 2.96 51 15:56 24.12.2019
5519 Clear 13 1013 34 0 2.96 51 15:36 24.12.2019
5520 Clear 13 1013 34 0 2.96 51 15:18 24.12.2019
5521 Clear 13 1013 34 0 2.96 51 14:56 24.12.2019
5522 Clear 13 1013 34 0 2.96 51 14:38 24.12.2019
5523 Clouds 9 1017 50 0 0.39 46 14:20 24.12.2019
5524 Clouds 9 1017 50 0 0.39 46 13:55 24.12.2019
5525 Clouds 9 1017 50 0 0.39 46 13:55 24.12.2019
5526 Clouds 9 1017 50 0 0.39 46 13:37 24.12.2019
5527 Clouds 9 1016 48 0 1.24 359 13:19 24.12.2019
5528 Clouds 9 1016 48 0 1.24 359 12:55 24.12.2019
5529 Clouds 9 1016 48 0 1.24 359 12:36 24.12.2019
5530 Clouds 9 1016 48 0 1.24 359 12:18 24.12.2019
5531 Clouds 9 1016 48 0 1.24 359 11:55 24.12.2019
5532 Clouds 9 1016 48 0 1.24 359 11:55 24.12.2019
5533 Clouds 9 1016 48 0 1.24 359 11:37 24.12.2019
5534 Clouds 9 1016 48 0 1.24 359 11:37 24.12.2019
5535 Clouds 6 1016 69 0 1.1 264 11:18 24.12.2019
5536 Clouds 6 1016 69 0 1.1 264 10:56 24.12.2019
5537 Clouds 6 1016 69 0 1.1 264 10:37 24.12.2019
5538 Clouds 6 1016 69 0 1.1 264 10:19 24.12.2019
5539 Clouds 6 1016 69 0 1.1 264 09:55 24.12.2019
5540 Clouds 6 1016 69 0 1.1 264 09:37 24.12.2019
5541 Clouds 6 1016 69 0 1.1 264 09:18 24.12.2019
5542 Clouds 6 1016 69 0 1.1 264 08:44 24.12.2019
5543 Clouds 7 1017 74 0 1.58 226 08:21 24.12.2019
5544 Clouds 7 1017 74 0 1.58 226 07:46 24.12.2019
5545 Clouds 7 1017 74 0 1.58 226 07:26 24.12.2019
5546 Clouds 7 1017 74 0 1.58 226 07:26 24.12.2019
5547 Clouds 7 1017 74 0 1.58 226 06:58 24.12.2019
5548 Clouds 7 1017 74 0 1.58 226 06:38 24.12.2019
5549 Clouds 7 1017 74 0 1.58 226 06:19 24.12.2019
5550 Rain 7 1018 73 0 2.26 6 05:21 24.12.2019
5551 Rain 7 1018 73 0 2.26 6 04:59 24.12.2019
5552 Rain 7 1018 73 0 2.26 6 03:50 24.12.2019
5553 Rain 7 1018 73 0 2.26 6 03:23 24.12.2019
5554 Rain 7 1018 73 0 2.26 6 02:25 24.12.2019
5555 Rain 7 1016 62 0 3.1 137 01:51 24.12.2019
5556 Rain 7 1016 62 0 3.1 137 01:51 24.12.2019
5557 Rain 8 1016 58 0 1.72 162 01:23 24.12.2019
5558 Rain 8 1016 58 0 1.72 162 00:46 24.12.2019
5559 Rain 8 1016 58 0 1.72 162 00:26 24.12.2019
5560 Rain 8 1016 58 0 1.72 162 23:59 23.12.2019
5561 Rain 8 1016 58 0 1.72 162 23:41 23.12.2019
5562 Rain 8 1016 58 0 1.72 162 23:23 23.12.2019
5563 Rain 9 1011 59 0 2.02 90 22:56 23.12.2019
5564 Rain 9 1011 59 0 2.02 90 22:37 23.12.2019
5565 Rain 9 1011 59 0 2.02 90 22:37 23.12.2019
5566 Rain 9 1011 59 0 2.02 90 22:19 23.12.2019
5567 Rain 9 1011 59 0 2.02 90 21:55 23.12.2019
5568 Rain 9 1011 59 0 2.02 90 21:36 23.12.2019
5569 Rain 9 1011 59 0 2.02 90 21:36 23.12.2019
5570 Rain 9 1011 59 0 2.02 90 21:36 23.12.2019
5571 Rain 9 1011 59 0 2.02 90 21:18 23.12.2019
5572 Rain 9 1011 59 0 2.02 90 20:57 23.12.2019
5573 Rain 9 1011 59 0 2.02 90 20:39 23.12.2019
5574 Rain 12 1011 54 0 4.55 49 20:18 23.12.2019
5575 Rain 12 1011 55 0 5.16 72 19:56 23.12.2019
5576 Rain 12 1011 55 0 5.16 72 19:38 23.12.2019
5577 Rain 12 1011 55 0 5.16 72 19:19 23.12.2019
5578 Rain 12 1011 55 0 5.16 72 18:58 23.12.2019
5579 Rain 12 1011 55 0 5.16 72 18:58 23.12.2019
5580 Rain 12 1011 55 0 5.16 72 18:38 23.12.2019
5581 Rain 12 1011 55 0 5.16 72 18:20 23.12.2019
5582 Rain 12 1011 55 0 5.16 72 17:56 23.12.2019
5583 Rain 12 1011 55 0 5.16 72 17:38 23.12.2019
5584 Rain 12 1015 53 0 3.74 52 17:19 23.12.2019
5585 Rain 12 1015 53 0 3.74 52 16:55 23.12.2019
5586 Rain 12 1015 53 0 3.74 52 16:55 23.12.2019
5587 Rain 12 1015 53 0 3.74 52 16:36 23.12.2019
5588 Rain 12 1015 53 0 3.74 52 16:18 23.12.2019
5589 Rain 12 1015 53 0 3.74 52 15:55 23.12.2019
5590 Rain 12 1015 53 0 3.74 52 15:36 23.12.2019
5591 Rain 12 1015 53 0 3.74 52 15:18 23.12.2019
5592 Rain 12 1015 53 0 3.74 52 14:45 23.12.2019
5593 Rain 12 1015 53 0 3.74 52 14:26 23.12.2019
5594 Clouds 8 1018 68 0 1.42 10 13:59 23.12.2019
5595 Clouds 8 1018 68 0 1.42 10 13:41 23.12.2019
5596 Clouds 8 1018 75 0 1.7 25 13:22 23.12.2019
5597 Clouds 8 1018 75 0 1.7 25 12:59 23.12.2019
5598 Clouds 8 1018 75 0 1.7 25 12:40 23.12.2019
5599 Clouds 8 1018 75 0 1.7 25 12:21 23.12.2019
5600 Clouds 8 1018 75 0 1.7 25 12:21 23.12.2019
5601 Clouds 8 1018 75 0 1.7 25 11:55 23.12.2019
5602 Clouds 8 1018 75 0 1.7 25 11:37 23.12.2019
5603 Clouds 6 1017 84 0 1.29 304 11:18 23.12.2019
5604 Clouds 6 1017 84 0 1.29 304 10:54 23.12.2019
5605 Clouds 6 1017 84 0 1.29 304 10:36 23.12.2019
5606 Clouds 6 1017 84 0 1.29 304 10:18 23.12.2019
5607 Clouds 6 1017 84 0 1.29 304 09:54 23.12.2019
5608 Clouds 6 1017 84 0 1.29 304 09:36 23.12.2019
5609 Clouds 6 1017 84 0 1.29 304 09:18 23.12.2019
5610 Clouds 6 1017 84 0 1.29 304 08:41 23.12.2019
5611 Clouds 6 1016 85 0 1.64 84 08:22 23.12.2019
5612 Clouds 6 1016 85 0 1.64 84 07:49 23.12.2019
5613 Clouds 6 1016 85 0 1.64 84 07:22 23.12.2019
5614 Clouds 6 1016 85 0 1.64 84 06:57 23.12.2019
5615 Clouds 6 1016 85 0 1.64 84 06:30 23.12.2019
5616 Clouds 6 1016 85 0 1.64 84 05:56 23.12.2019
5617 Clouds 6 1016 85 0 1.64 84 05:33 23.12.2019
5618 Clouds 7 1017 76 0 2.06 318 04:40 23.12.2019
5619 Clouds 7 1017 76 0 2.06 318 03:36 23.12.2019
5620 Clouds 7 1017 76 0 2.06 318 02:43 23.12.2019
5621 Rain 6 1013 87 0 4.02 67 02:19 23.12.2019
5622 Rain 6 1013 87 0 4.02 67 01:45 23.12.2019
5623 Rain 5 1014 86 0 4.47 42 01:27 23.12.2019
5624 Rain 5 1014 86 0 4.47 42 00:45 23.12.2019
5625 Rain 5 1014 86 0 4.47 42 00:25 23.12.2019
5626 Rain 5 1014 86 0 4.47 42 23:56 22.12.2019
5627 Rain 5 1014 86 0 4.47 42 23:37 22.12.2019
5628 Rain 10 1008 67 0 5.47 23 23:18 22.12.2019
5629 Rain 10 1008 67 0 5.47 23 22:41 22.12.2019
5630 Rain 10 1008 67 0 5.47 23 22:22 22.12.2019
5631 Rain 10 1008 67 0 5.47 23 21:59 22.12.2019
5632 Rain 10 1008 67 0 5.47 23 21:40 22.12.2019
5633 Rain 10 1008 67 0 5.47 23 21:21 22.12.2019
5634 Rain 10 1008 67 0 5.47 23 20:59 22.12.2019
5635 Rain 10 1008 67 0 5.47 23 20:40 22.12.2019
5636 Rain 13 1010 47 0 2.98 50 20:19 22.12.2019
5637 Rain 13 1010 47 0 2.98 50 19:57 22.12.2019
5638 Rain 13 1010 47 0 2.98 50 19:39 22.12.2019
5639 Rain 13 1010 47 0 2.98 50 19:20 22.12.2019
5640 Rain 13 1010 47 0 2.98 50 18:44 22.12.2019
5641 Rain 13 1010 47 0 2.98 50 18:25 22.12.2019
5642 Rain 13 1010 47 0 2.98 50 17:58 22.12.2019
5643 Rain 13 1010 47 0 2.98 50 17:39 22.12.2019
5644 Clouds 12 1014 50 0 3.53 24 17:19 22.12.2019
5645 Clouds 12 1014 50 0 3.53 24 16:59 22.12.2019
5646 Clouds 12 1014 50 0 3.53 24 16:41 22.12.2019
5647 Clouds 12 1014 50 0 3.53 24 16:22 22.12.2019
5648 Clouds 12 1014 50 0 3.53 24 15:57 22.12.2019
5649 Clouds 12 1014 50 0 3.53 24 15:39 22.12.2019
5650 Clouds 12 1014 50 0 3.53 24 15:21 22.12.2019
5651 Clouds 12 1014 50 0 3.53 24 14:56 22.12.2019
5652 Clouds 12 1014 50 0 3.53 24 14:38 22.12.2019
5653 Clouds 8 1016 67 0 1.85 352 14:19 22.12.2019
5654 Clouds 8 1016 67 0 1.85 352 13:56 22.12.2019
5655 Clouds 8 1016 67 0 1.85 352 13:38 22.12.2019
5656 Clouds 8 1016 69 0 1.49 349 13:19 22.12.2019
5657 Clouds 8 1016 69 0 1.49 349 12:57 22.12.2019
5658 Clouds 8 1016 69 0 1.49 349 12:38 22.12.2019
5659 Clouds 8 1016 69 0 1.49 349 12:19 22.12.2019
5660 Clouds 8 1016 69 0 1.49 349 11:56 22.12.2019
5661 Clouds 8 1016 69 0 1.49 349 11:38 22.12.2019
5662 Clouds 8 1016 69 0 1.49 349 11:38 22.12.2019
5663 Clouds 7 1015 81 0 2.48 349 11:19 22.12.2019
5664 Clouds 7 1015 81 0 2.48 349 10:56 22.12.2019
5665 Clouds 7 1015 81 0 2.48 349 10:38 22.12.2019
5666 Clouds 7 1015 81 0 2.48 349 10:19 22.12.2019
5667 Clouds 7 1015 81 0 2.48 349 10:19 22.12.2019
5668 Clouds 7 1015 81 0 2.48 349 09:57 22.12.2019
5669 Clouds 7 1015 81 0 2.48 349 09:39 22.12.2019
5670 Clouds 7 1015 81 0 2.48 349 09:20 22.12.2019
5671 Clouds 7 1015 81 0 2.48 349 08:42 22.12.2019
5672 Rain 6 1014 88 0 1.75 33 08:22 22.12.2019
5673 Rain 6 1014 88 0 1.75 33 07:44 22.12.2019
5674 Rain 6 1014 88 0 1.75 33 07:21 22.12.2019
5675 Rain 6 1014 88 0 1.75 33 06:53 22.12.2019
5676 Rain 6 1014 88 0 1.75 33 06:26 22.12.2019
5677 Rain 6 1014 88 0 1.75 33 05:33 22.12.2019
5678 Clouds 7 1015 87 0 2.21 24 04:55 22.12.2019
5679 Clouds 7 1015 87 0 2.21 24 04:25 22.12.2019
5680 Clouds 7 1015 87 0 2.21 24 02:46 22.12.2019
5681 Clouds 7 1015 87 0 2.21 24 02:46 22.12.2019
5682 Clouds 7 1015 87 0 2.21 24 02:23 22.12.2019
5683 Rain 9 1011 71 0 3.48 43 01:31 22.12.2019
5684 Rain 7 1011 80 0 4.06 46 00:56 22.12.2019
5685 Rain 7 1011 80 0 4.06 46 00:36 22.12.2019
5686 Rain 7 1011 80 0 4.06 46 00:18 22.12.2019
5687 Rain 7 1011 80 0 4.06 46 23:41 21.12.2019
5688 Rain 9 1007 68 0 3.36 51 23:21 21.12.2019
5689 Rain 9 1007 68 0 3.36 51 22:57 21.12.2019
5690 Rain 9 1007 68 0 3.36 51 22:37 21.12.2019
5691 Rain 9 1007 68 0 3.36 51 22:18 21.12.2019
5692 Rain 9 1007 68 0 3.36 51 21:54 21.12.2019
5693 Rain 9 1007 68 0 3.36 51 21:36 21.12.2019
5694 Rain 9 1007 68 0 3.36 51 21:18 21.12.2019
5695 Rain 9 1007 68 0 3.36 51 20:56 21.12.2019
5696 Rain 9 1007 68 0 3.36 51 20:37 21.12.2019
5697 Rain 13 1009 49 0 3.7 21 20:19 21.12.2019
5698 Rain 13 1009 45 0 4.14 20 19:55 21.12.2019
5699 Rain 13 1009 45 0 4.14 20 19:36 21.12.2019
5700 Rain 13 1009 45 0 4.14 20 19:18 21.12.2019
5701 Rain 13 1009 45 0 4.14 20 18:41 21.12.2019
5702 Rain 13 1009 45 0 4.14 20 18:23 21.12.2019
5703 Rain 13 1009 45 0 4.14 20 18:23 21.12.2019
5704 Rain 13 1009 45 0 4.14 20 17:56 21.12.2019
5705 Rain 13 1009 45 0 4.14 20 17:38 21.12.2019
5706 Clouds 11 1013 56 0 3.43 21 17:20 21.12.2019
5707 Clouds 11 1013 56 0 3.43 21 16:57 21.12.2019
5708 Clouds 11 1013 56 0 3.43 21 16:38 21.12.2019
5709 Clouds 11 1013 56 0 3.43 21 16:18 21.12.2019
5710 Clouds 11 1013 56 0 3.43 21 15:55 21.12.2019
5711 Clouds 11 1013 56 0 3.43 21 15:37 21.12.2019
5712 Clouds 11 1013 56 0 3.43 21 15:18 21.12.2019
5713 Clouds 11 1013 56 0 3.43 21 14:42 21.12.2019
5714 Clouds 11 1013 56 0 3.43 21 14:23 21.12.2019
5715 Clouds 8 1016 68 0 3.08 43 13:58 21.12.2019
5716 Clouds 8 1016 68 0 3.08 43 13:39 21.12.2019
5717 Clouds 8 1016 68 0 3.08 43 13:19 21.12.2019
5718 Clouds 8 1015 67 0 3.54 43 12:56 21.12.2019
5719 Clouds 8 1015 67 0 3.54 43 12:38 21.12.2019
5720 Clouds 8 1015 67 0 3.54 43 12:38 21.12.2019
5721 Clouds 8 1015 67 0 3.54 43 12:38 21.12.2019
5722 Clouds 8 1015 67 0 3.54 43 12:20 21.12.2019
5723 Clouds 8 1015 67 0 3.54 43 11:55 21.12.2019
5724 Clouds 8 1015 67 0 3.54 43 11:37 21.12.2019
5725 Clouds 6 1013 77 0 2 51 11:19 21.12.2019
5726 Clouds 6 1013 77 0 2 51 10:41 21.12.2019
5727 Clouds 6 1013 77 0 2 51 10:22 21.12.2019
5728 Clouds 6 1013 77 0 2 51 09:58 21.12.2019
5729 Clouds 6 1013 77 0 2 51 09:39 21.12.2019
5730 Clouds 6 1013 77 0 2 51 09:20 21.12.2019
5731 Clouds 6 1013 77 0 2 51 08:52 21.12.2019
5732 Clouds 6 1013 77 0 2 51 08:27 21.12.2019
5733 Clouds 7 1012 72 0 0.89 243 07:58 21.12.2019
5734 Clouds 7 1012 72 0 0.89 243 07:40 21.12.2019
5735 Clouds 7 1012 72 0 0.89 243 07:21 21.12.2019
5736 Clouds 7 1012 72 0 0.89 243 06:41 21.12.2019
5737 Clouds 7 1012 72 0 0.89 243 06:23 21.12.2019
5738 Clouds 7 1012 72 0 0.89 243 05:37 21.12.2019
5739 Clouds 8 1013 73 0 3.02 34 04:55 21.12.2019
5740 Clouds 8 1013 73 0 3.02 34 03:56 21.12.2019
5741 Clouds 8 1013 73 0 3.02 34 02:26 21.12.2019
5742 Rain 9 1010 67 0 4.2 60 01:53 21.12.2019
5743 Rain 9 1010 67 0 4.2 60 01:26 21.12.2019
5744 Rain 8 1010 69 0 3.95 77 00:49 21.12.2019
5745 Rain 8 1010 69 0 3.95 77 00:28 21.12.2019
5746 Rain 8 1010 69 0 3.95 77 23:55 20.12.2019
5747 Rain 8 1010 69 0 3.95 77 23:36 20.12.2019
5748 Rain 8 1005 67 0 2.98 92 23:18 20.12.2019
5749 Rain 8 1005 67 0 2.98 92 22:40 20.12.2019
5750 Rain 8 1005 67 0 2.98 92 22:20 20.12.2019
5751 Rain 8 1005 67 0 2.98 92 21:57 20.12.2019
5752 Rain 8 1005 67 0 2.98 92 21:39 20.12.2019
5753 Rain 8 1005 67 0 2.98 92 21:39 20.12.2019
5754 Rain 8 1005 67 0 2.98 92 21:18 20.12.2019
5755 Rain 8 1005 67 0 2.98 92 20:39 20.12.2019
5756 Rain 11 1005 53 0 4.96 284 20:19 20.12.2019
5757 Rain 11 1005 53 0 4.96 284 19:57 20.12.2019
5758 Rain 11 1005 53 0 4.96 284 19:57 20.12.2019
5759 Rain 11 1005 53 0 4.96 284 19:39 20.12.2019
5760 Rain 11 1005 53 0 4.96 284 19:19 20.12.2019
5761 Rain 11 1005 53 0 4.96 284 18:42 20.12.2019
5762 Rain 11 1005 53 0 4.96 284 18:24 20.12.2019
5763 Rain 11 1005 53 0 4.96 284 17:59 20.12.2019
5764 Rain 11 1005 53 0 4.96 284 17:41 20.12.2019
5765 Clouds 14 1010 34 0 1.93 79 17:21 20.12.2019
5766 Clouds 14 1010 34 0 1.93 79 16:59 20.12.2019
5767 Clouds 14 1010 34 0 1.93 79 16:39 20.12.2019
5768 Clouds 14 1010 34 0 1.93 79 16:20 20.12.2019
5769 Clouds 14 1010 34 0 1.93 79 15:56 20.12.2019
5770 Clouds 14 1010 34 0 1.93 79 15:38 20.12.2019
5771 Clouds 14 1010 34 0 1.93 79 15:19 20.12.2019
5772 Clouds 14 1010 34 0 1.93 79 14:55 20.12.2019
5773 Clouds 14 1010 34 0 1.93 79 14:37 20.12.2019
5774 Clouds 10 1014 48 0 1.34 227 14:18 20.12.2019
5775 Clouds 10 1014 48 0 1.34 227 13:41 20.12.2019
5776 Clouds 10 1014 48 0 0.63 182 13:21 20.12.2019
5777 Clouds 10 1014 48 0 0.63 182 12:59 20.12.2019
5778 Clouds 10 1014 48 0 0.63 182 12:40 20.12.2019
5779 Clouds 10 1014 48 0 0.63 182 12:19 20.12.2019
5780 Clouds 10 1014 48 0 0.63 182 11:59 20.12.2019
5781 Clouds 10 1014 48 0 0.63 182 11:39 20.12.2019
5782 Clouds 7 1013 59 0 1.25 281 11:20 20.12.2019
5783 Clouds 7 1013 59 0 1.25 281 10:59 20.12.2019
5784 Clouds 7 1013 59 0 1.25 281 10:41 20.12.2019
5785 Clouds 7 1013 59 0 1.25 281 10:20 20.12.2019
5786 Clouds 7 1013 59 0 1.25 281 09:56 20.12.2019
5787 Clouds 7 1013 59 0 1.25 281 09:38 20.12.2019
5788 Clouds 7 1013 59 0 1.25 281 09:19 20.12.2019
5789 Clouds 7 1013 59 0 1.25 281 08:43 20.12.2019
5790 Clouds 7 1013 59 0 1.85 338 08:24 20.12.2019
5791 Rain 7 1014 65 0 4.3 275 07:58 20.12.2019
5792 Rain 7 1014 65 0 4.3 275 07:40 20.12.2019
5793 Rain 7 1014 65 0 4.3 275 07:19 20.12.2019
5794 Rain 7 1014 65 0 4.3 275 06:51 20.12.2019
5795 Rain 7 1014 65 0 4.3 275 06:31 20.12.2019
5796 Rain 7 1014 65 0 4.3 275 05:53 20.12.2019
5797 Rain 7 1014 65 0 4.3 275 05:35 20.12.2019
5798 Rain 7 1015 56 0 3.93 211 04:33 20.12.2019
5799 Rain 7 1015 56 0 3.93 211 03:30 20.12.2019
5800 Rain 7 1015 56 0 3.93 211 02:42 20.12.2019
5801 Rain 8 1012 69 0 2.59 141 01:49 20.12.2019
5802 Rain 9 1011 64 0 1.67 154 01:30 20.12.2019
5803 Rain 9 1011 64 0 1.67 154 00:43 20.12.2019
5804 Rain 9 1011 64 0 1.67 154 00:23 20.12.2019
5805 Rain 9 1011 64 0 1.67 154 23:44 19.12.2019
5806 Rain 9 1011 64 0 1.67 154 23:25 19.12.2019
5807 Clouds 13 1006 42 0 5.68 43 22:59 19.12.2019
5808 Clouds 13 1006 42 0 5.68 43 22:37 19.12.2019
5809 Clouds 13 1006 42 0 5.68 43 22:18 19.12.2019
5810 Clouds 13 1006 42 0 5.68 43 21:55 19.12.2019
5811 Clouds 13 1006 42 0 5.68 43 21:37 19.12.2019
5812 Clouds 13 1006 42 0 5.68 43 21:18 19.12.2019
5813 Clouds 13 1006 42 0 5.68 43 21:18 19.12.2019
5814 Clouds 13 1006 42 0 5.68 43 20:55 19.12.2019
5815 Clouds 13 1006 42 0 5.68 43 20:36 19.12.2019
5816 Clouds 15 1008 23 0 3.88 43 20:18 19.12.2019
5817 Clouds 15 1008 23 0 3.88 43 19:54 19.12.2019
5818 Clouds 15 1008 23 0 3.88 43 19:54 19.12.2019
5819 Clouds 15 1008 23 0 3.88 43 19:36 19.12.2019
5820 Clouds 15 1008 23 0 3.88 43 19:18 19.12.2019
5821 Clouds 15 1008 23 0 3.88 43 18:41 19.12.2019
5822 Clouds 15 1008 23 0 3.88 43 18:22 19.12.2019
5823 Clouds 15 1008 23 0 3.88 43 17:57 19.12.2019
5824 Clouds 15 1008 23 0 3.88 43 17:39 19.12.2019
5825 Clouds 13 1013 33 0 3.08 65 17:19 19.12.2019
5826 Clouds 13 1013 33 0 3.08 65 16:57 19.12.2019
5827 Clouds 13 1013 33 0 3.08 65 16:39 19.12.2019
5828 Clouds 13 1013 33 0 3.08 65 16:21 19.12.2019
5829 Clouds 13 1013 33 0 3.08 65 15:59 19.12.2019
5830 Clouds 13 1013 33 0 3.08 65 15:39 19.12.2019
5831 Clouds 13 1013 33 0 3.08 65 15:20 19.12.2019
5832 Clouds 13 1013 33 0 3.08 65 15:20 19.12.2019
5833 Clouds 13 1013 33 0 3.08 65 14:59 19.12.2019
5834 Clouds 13 1013 33 0 3.08 65 14:40 19.12.2019
5835 Clouds 8 1015 55 0 0.19 350 14:19 19.12.2019
5836 Clouds 8 1015 55 0 0.19 350 13:57 19.12.2019
5837 Clouds 8 1015 55 0 0.19 350 13:37 19.12.2019
5838 Clouds 8 1016 58 0 0.71 32 13:18 19.12.2019
5839 Clouds 8 1016 58 0 0.71 32 12:55 19.12.2019
5840 Clouds 8 1016 58 0 0.71 32 12:36 19.12.2019
5841 Clouds 8 1016 58 0 0.71 32 12:18 19.12.2019
5842 Clouds 8 1016 58 0 0.71 32 11:56 19.12.2019
5843 Clouds 8 1016 58 0 0.71 32 11:38 19.12.2019
5844 Clouds 6 1014 73 0 0.76 9 11:18 19.12.2019
5845 Clouds 6 1014 73 0 0.76 9 10:39 19.12.2019
5846 Clouds 6 1014 73 0 0.76 9 10:20 19.12.2019
5847 Clouds 6 1014 73 0 0.76 9 10:20 19.12.2019
5848 Clouds 6 1014 73 0 0.76 9 09:59 19.12.2019
5849 Clouds 6 1014 73 0 0.76 9 09:38 19.12.2019
5850 Clouds 6 1014 73 0 0.76 9 09:20 19.12.2019
5851 Clouds 6 1014 73 0 0.76 9 08:57 19.12.2019
5852 Clouds 6 1014 73 0 0.76 9 08:39 19.12.2019
5853 Clouds 7 1014 60 0 0.75 39 08:19 19.12.2019
5854 Clouds 7 1014 65 0 0.73 346 07:56 19.12.2019
5855 Clouds 7 1014 65 0 0.73 346 07:37 19.12.2019
5856 Clouds 7 1014 65 0 0.73 346 07:19 19.12.2019
5857 Clouds 7 1014 65 0 0.73 346 06:46 19.12.2019
5858 Clouds 7 1014 65 0 0.73 346 06:27 19.12.2019
5859 Clouds 7 1014 65 0 0.73 346 05:52 19.12.2019
5860 Clouds 7 1014 65 0 0.73 346 05:32 19.12.2019
5861 Rain 7 1015 65 0 2.12 328 04:48 19.12.2019
5862 Rain 7 1015 65 0 2.12 328 02:49 19.12.2019
5863 Rain 8 1012 62 0 3.31 163 01:47 19.12.2019
5864 Rain 9 1012 57 0 2.37 115 01:22 19.12.2019
5865 Rain 9 1012 57 0 2.37 115 00:39 19.12.2019
5866 Rain 9 1012 57 0 2.37 115 00:39 19.12.2019
5867 Rain 9 1012 57 0 2.37 115 00:39 19.12.2019
5868 Rain 9 1012 57 0 2.37 115 00:39 19.12.2019
5869 Rain 9 1012 57 0 2.37 115 00:20 19.12.2019
5870 Rain 9 1012 57 0 2.37 115 23:55 18.12.2019
5871 Rain 9 1012 57 0 2.37 115 23:36 18.12.2019
5872 Rain 9 1007 60 0 3.25 328 23:18 18.12.2019
5873 Rain 9 1007 60 0 3.25 328 22:55 18.12.2019
5874 Rain 9 1007 60 0 3.25 328 22:36 18.12.2019
5875 Rain 9 1007 60 0 3.25 328 22:18 18.12.2019
5876 Rain 9 1007 60 0 3.25 328 21:55 18.12.2019
5877 Rain 9 1007 60 0 3.25 328 21:36 18.12.2019
5878 Rain 9 1007 60 0 3.25 328 21:18 18.12.2019
5879 Rain 9 1007 60 0 3.25 328 20:54 18.12.2019
5880 Rain 9 1007 60 0 3.25 328 20:36 18.12.2019
5881 Rain 14 1007 34 0 6.34 56 20:18 18.12.2019
5882 Rain 14 1007 34 0 6.34 56 19:54 18.12.2019
5883 Rain 14 1007 34 0 6.34 56 19:54 18.12.2019
5884 Rain 14 1007 34 0 6.34 56 19:36 18.12.2019
5885 Rain 14 1007 34 0 6.34 56 19:18 18.12.2019
5886 Rain 14 1007 34 0 6.34 56 18:43 18.12.2019
5887 Rain 14 1007 34 0 6.34 56 18:25 18.12.2019
5888 Rain 14 1007 34 0 6.34 56 17:56 18.12.2019
5889 Rain 14 1007 34 0 6.34 56 17:38 18.12.2019
5890 Clouds 12 1012 49 0 3.29 46 17:19 18.12.2019
5891 Clouds 12 1012 49 0 3.29 46 16:54 18.12.2019
5892 Clouds 12 1012 49 0 3.29 46 16:36 18.12.2019
5893 Clouds 12 1012 49 0 3.29 46 16:18 18.12.2019
5894 Clouds 12 1012 49 0 3.29 46 15:54 18.12.2019
5895 Clouds 12 1012 49 0 3.29 46 15:36 18.12.2019
5896 Clouds 12 1012 49 0 3.29 46 15:18 18.12.2019
5897 Clouds 12 1012 49 0 3.29 46 14:40 18.12.2019
5898 Clouds 7 1016 66 0 1.45 355 14:20 18.12.2019
5899 Clouds 7 1016 66 0 1.45 355 13:57 18.12.2019
5900 Clouds 7 1016 66 0 1.45 355 13:37 18.12.2019
5901 Clouds 7 1016 66 0 1.45 355 13:19 18.12.2019
5902 Clouds 7 1016 68 0 0.95 342 12:57 18.12.2019
5903 Clouds 7 1016 68 0 0.95 342 12:38 18.12.2019
5904 Clouds 7 1016 68 0 0.95 342 12:19 18.12.2019
5905 Clouds 7 1016 68 0 0.95 342 11:55 18.12.2019
5906 Clouds 7 1016 68 0 0.95 342 11:37 18.12.2019
5907 Clouds 5 1014 81 0 0.89 318 11:18 18.12.2019
5908 Clouds 5 1014 81 0 0.89 318 10:55 18.12.2019
5909 Clouds 5 1014 81 0 0.89 318 10:37 18.12.2019
5910 Clouds 5 1014 81 0 0.89 318 10:19 18.12.2019
5911 Clouds 5 1014 81 0 0.89 318 09:43 18.12.2019
5912 Clouds 5 1014 81 0 0.89 318 09:18 18.12.2019
5913 Clouds 5 1014 81 0 0.89 318 08:40 18.12.2019
5914 Clouds 5 1014 81 0 1.24 37 08:21 18.12.2019
5915 Clouds 5 1014 81 0 1.24 37 07:43 18.12.2019
5916 Clouds 5 1014 81 0 1.24 37 07:23 18.12.2019
5917 Clouds 5 1014 81 0 1.24 37 06:55 18.12.2019
5918 Clouds 5 1014 81 0 1.24 37 06:27 18.12.2019
5919 Clouds 5 1014 81 0 1.24 37 05:47 18.12.2019
5920 Clouds 6 1015 75 0 1.61 343 04:57 18.12.2019
5921 Clouds 6 1015 75 0 1.61 343 02:55 18.12.2019
5922 Clouds 6 1015 75 0 1.61 343 02:36 18.12.2019
5923 Rain 6 1011 84 0 3.59 51 02:18 18.12.2019
5924 Rain 6 1011 84 0 3.59 51 01:40 18.12.2019
5925 Rain 6 1011 82 0 2.33 8 01:21 18.12.2019
5926 Rain 6 1011 82 0 2.33 8 00:41 18.12.2019
5927 Rain 6 1011 82 0 2.33 8 00:23 18.12.2019
5928 Rain 6 1011 82 0 2.33 8 23:56 17.12.2019
5929 Rain 6 1011 82 0 2.33 8 23:38 17.12.2019
5930 Rain 7 1006 79 0 4.97 16 23:18 17.12.2019
5931 Rain 7 1006 79 0 4.97 16 22:56 17.12.2019
5932 Rain 7 1006 79 0 4.97 16 22:37 17.12.2019
5933 Rain 7 1006 79 0 4.97 16 22:18 17.12.2019
5934 Rain 7 1006 79 0 4.97 16 21:55 17.12.2019
5935 Rain 7 1006 79 0 4.97 16 21:37 17.12.2019
5936 Rain 7 1006 79 0 4.97 16 21:18 17.12.2019
5937 Rain 7 1006 79 0 4.97 16 20:56 17.12.2019
5938 Rain 7 1006 79 0 4.97 16 20:37 17.12.2019
5939 Rain 11 1007 57 0 1.91 239 20:18 17.12.2019
5940 Rain 11 1007 57 0 1.91 239 19:54 17.12.2019
5941 Rain 11 1007 57 0 1.91 239 19:36 17.12.2019
5942 Rain 11 1007 57 0 1.91 239 19:18 17.12.2019
5943 Rain 11 1007 57 0 1.91 239 18:41 17.12.2019
5944 Rain 11 1007 57 0 1.91 239 18:22 17.12.2019
5945 Rain 11 1007 57 0 1.91 239 17:59 17.12.2019
5946 Rain 11 1007 57 0 1.91 239 17:41 17.12.2019
5947 Rain 11 1011 52 0 2.73 16 17:19 17.12.2019
5948 Rain 11 1011 52 0 2.73 16 16:56 17.12.2019
5949 Rain 11 1011 52 0 2.73 16 16:56 17.12.2019
5950 Rain 11 1011 52 0 2.73 16 16:37 17.12.2019
5951 Rain 11 1011 52 0 2.73 16 16:19 17.12.2019
5952 Rain 11 1011 52 0 2.73 16 15:56 17.12.2019
5953 Rain 11 1011 52 0 2.73 16 15:37 17.12.2019
5954 Rain 11 1011 52 0 2.73 16 15:37 17.12.2019
5955 Rain 11 1011 52 0 2.73 16 15:19 17.12.2019
5956 Rain 11 1011 52 0 2.73 16 15:19 17.12.2019
5957 Rain 11 1011 52 0 2.73 16 14:55 17.12.2019
5958 Rain 11 1011 52 0 2.73 16 14:36 17.12.2019
5959 Clouds 7 1013 73 0 2.34 28 14:18 17.12.2019
5960 Clouds 7 1013 73 0 2.34 28 13:55 17.12.2019
5961 Clouds 7 1013 73 0 2.34 28 13:37 17.12.2019
5962 Clouds 7 1013 73 0 2.34 28 13:18 17.12.2019
5963 Clouds 7 1014 70 0 2.25 21 12:41 17.12.2019
5964 Clouds 7 1014 70 0 2.25 21 12:19 17.12.2019
5965 Clouds 7 1014 70 0 2.25 21 12:19 17.12.2019
5966 Clouds 7 1014 70 0 2.25 21 11:59 17.12.2019
5967 Clouds 7 1014 70 0 2.25 21 11:37 17.12.2019
5968 Clouds 5 1012 90 0 1.98 10 11:19 17.12.2019
5969 Clouds 5 1012 90 0 1.98 10 11:19 17.12.2019
5970 Clouds 5 1012 90 0 1.98 10 10:59 17.12.2019
5971 Clouds 5 1012 90 0 1.98 10 10:59 17.12.2019
5972 Clouds 5 1012 90 0 1.98 10 10:41 17.12.2019
5973 Clouds 5 1012 90 0 1.98 10 10:41 17.12.2019
5974 Clouds 5 1012 90 0 1.98 10 10:22 17.12.2019
5975 Clouds 5 1012 90 0 1.98 10 09:59 17.12.2019
5976 Clouds 5 1012 90 0 1.98 10 09:41 17.12.2019
5977 Clouds 5 1012 90 0 1.98 10 09:20 17.12.2019
5978 Clouds 5 1012 90 0 1.98 10 09:20 17.12.2019
5979 Clouds 5 1012 90 0 1.98 10 08:56 17.12.2019
5980 Clouds 5 1012 90 0 1.98 10 08:56 17.12.2019
5981 Clouds 5 1012 90 0 1.98 10 08:38 17.12.2019
5982 Clouds 7 1012 76 0 2.15 357 08:20 17.12.2019
5983 Clouds 7 1012 76 0 2.15 357 07:54 17.12.2019
5984 Clouds 7 1012 76 0 2.15 357 07:36 17.12.2019
5985 Clouds 7 1012 76 0 2.15 357 07:18 17.12.2019
5986 Clouds 7 1012 76 0 2.15 357 06:35 17.12.2019
5987 Clouds 7 1012 76 0 2.15 357 05:56 17.12.2019
5988 Clouds 7 1012 76 0 2.15 357 05:36 17.12.2019
5989 Clear 8 1012 74 0 3.19 338 04:33 17.12.2019
5990 Clear 8 1012 74 0 3.19 338 02:45 17.12.2019
5991 Rain 8 1007 69 0 4.22 63 01:56 17.12.2019
5992 Rain 8 1007 69 0 4.22 63 01:20 17.12.2019
5993 Rain 8 1007 66 0 4.83 62 00:38 17.12.2019
5994 Rain 8 1007 66 0 4.83 62 00:20 17.12.2019
5995 Rain 8 1007 66 0 4.83 62 23:42 16.12.2019
5996 Rain 14 1003 37 0 1.84 51 23:19 16.12.2019
5997 Rain 14 1003 37 0 1.84 51 22:58 16.12.2019
5998 Rain 14 1003 37 0 1.84 51 22:38 16.12.2019
5999 Rain 14 1003 37 0 1.84 51 22:20 16.12.2019
6000 Rain 14 1003 37 0 1.84 51 21:56 16.12.2019
6001 Rain 14 1003 37 0 1.84 51 21:38 16.12.2019
6002 Rain 14 1003 37 0 1.84 51 21:38 16.12.2019
6003 Rain 14 1003 37 0 1.84 51 21:20 16.12.2019
6004 Rain 14 1003 37 0 1.84 51 20:58 16.12.2019
6005 Rain 14 1003 37 0 1.84 51 20:38 16.12.2019
6006 Clouds 16 1005 22 0 1.61 335 20:19 16.12.2019
6007 Clouds 16 1005 22 0 1.61 335 19:56 16.12.2019
6008 Clouds 16 1005 22 0 1.61 335 19:56 16.12.2019
6009 Clouds 16 1005 22 0 1.61 335 19:37 16.12.2019
6010 Clouds 16 1005 22 0 1.61 335 19:19 16.12.2019
6011 Clouds 16 1005 22 0 1.61 335 18:56 16.12.2019
6012 Clouds 16 1005 22 0 1.61 335 18:38 16.12.2019
6013 Clouds 16 1005 22 0 1.61 335 18:38 16.12.2019
6014 Clouds 16 1005 22 0 1.61 335 18:19 16.12.2019
6015 Clouds 16 1005 22 0 1.61 335 17:57 16.12.2019
6016 Clouds 16 1005 22 0 1.61 335 17:38 16.12.2019
6017 Clouds 14 1010 30 0 2.79 354 17:20 16.12.2019
6018 Clouds 14 1010 30 0 2.79 354 16:57 16.12.2019
6019 Clouds 14 1010 30 0 2.79 354 16:38 16.12.2019
6020 Clouds 14 1010 30 0 2.79 354 16:19 16.12.2019
6021 Clouds 14 1010 30 0 2.79 354 15:57 16.12.2019
6022 Clouds 14 1010 30 0 2.79 354 15:38 16.12.2019
6023 Clouds 14 1010 30 0 2.79 354 15:20 16.12.2019
6024 Clouds 14 1010 30 0 2.79 354 14:55 16.12.2019
6025 Clouds 14 1010 30 0 2.79 354 14:37 16.12.2019
6026 Clear 8 1013 64 0 2.59 328 14:19 16.12.2019
6027 Clear 8 1013 64 0 2.59 328 13:56 16.12.2019
6028 Clear 8 1013 64 0 2.59 328 13:37 16.12.2019
6029 Clouds 8 1013 65 0 2.25 331 13:19 16.12.2019
6030 Clouds 8 1013 65 0 2.25 331 12:57 16.12.2019
6031 Clouds 8 1013 65 0 2.28 328 12:39 16.12.2019
6032 Clouds 8 1013 65 0 2.25 331 12:18 16.12.2019
6033 Clouds 8 1013 65 0 2.28 328 11:57 16.12.2019
6034 Clouds 8 1013 65 0 2.28 328 11:39 16.12.2019
6035 Clear 6 1013 83 0 2.22 346 11:19 16.12.2019
6036 Clouds 6 1013 84 0 2.4 348 10:55 16.12.2019
6037 Clouds 6 1013 84 0 2.4 348 10:36 16.12.2019
6038 Clear 6 1013 83 0 2.22 346 10:18 16.12.2019
6039 Clouds 6 1013 84 0 2.4 348 09:44 16.12.2019
6040 Clouds 6 1013 84 0 2.4 348 09:44 16.12.2019
6041 Clear 6 1013 83 0 2.22 346 09:26 16.12.2019
6042 Clouds 6 1013 84 0 2.4 348 08:41 16.12.2019
6043 Clouds 6 1013 83 0 2.07 43 08:21 16.12.2019
6044 Rain 7 1014 82 0 2.92 49 07:57 16.12.2019
6045 Rain 7 1014 82 0 2.92 49 07:38 16.12.2019
6046 Rain 7 1014 82 0 2.92 49 07:19 16.12.2019
6047 Rain 7 1014 82 0 2.92 49 06:40 16.12.2019
6048 Rain 7 1014 82 0 2.92 49 06:21 16.12.2019
6049 Rain 7 1014 82 0 2.92 49 06:21 16.12.2019
6050 Rain 7 1014 82 0 2.92 49 05:44 16.12.2019
6051 Rain 7 1014 82 0 2.92 49 05:26 16.12.2019
6052 Rain 9 1014 70 0 4.52 40 03:33 16.12.2019
6053 Rain 9 1011 67 0 6.16 50 01:57 16.12.2019
6054 Rain 9 1011 67 0 6.16 50 01:39 16.12.2019
6055 Rain 9 1011 72 0 5.76 42 00:41 16.12.2019
6056 Rain 9 1011 72 0 5.76 42 00:23 16.12.2019
6057 Rain 9 1011 72 0 5.76 42 23:58 15.12.2019
6058 Rain 9 1011 72 0 5.76 42 23:38 15.12.2019
6059 Clouds 15 1004 28 0 5.01 135 23:19 15.12.2019
6060 Clouds 15 1004 28 0 5.01 135 22:54 15.12.2019
6061 Clouds 15 1004 28 0 5.01 135 22:36 15.12.2019
6062 Clouds 15 1004 28 0 5.01 135 22:18 15.12.2019
6063 Clouds 15 1004 28 0 5.01 135 21:55 15.12.2019
6064 Clouds 15 1004 28 0 5.01 135 21:37 15.12.2019
6065 Clouds 15 1004 28 0 5.01 135 21:37 15.12.2019
6066 Clouds 15 1004 28 0 5.01 135 21:18 15.12.2019
6067 Clouds 15 1004 28 0 5.01 135 20:54 15.12.2019
6068 Clouds 15 1004 28 0 5.01 135 20:36 15.12.2019
6069 Clouds 15 1004 28 0 5.01 135 20:36 15.12.2019
6070 Clouds 17 1005 20 0 3.98 140 20:18 15.12.2019
6071 Clouds 17 1006 20 0 3.93 145 19:54 15.12.2019
6072 Clouds 17 1006 20 0 3.93 145 19:36 15.12.2019
6073 Clouds 16 1006 25 0 3.38 117 19:18 15.12.2019
6074 Clouds 16 1006 25 0 3.38 117 18:54 15.12.2019
6075 Clouds 16 1006 25 0 3.38 117 18:36 15.12.2019
6076 Clouds 16 1006 25 0 3.38 117 18:18 15.12.2019
6077 Clouds 16 1006 25 0 3.38 117 17:55 15.12.2019
6078 Clouds 17 1006 20 0 3.93 145 17:36 15.12.2019
6079 Clouds 15 1010 27 0 5.46 185 17:18 15.12.2019
6080 Clouds 15 1010 27 0 5.46 185 16:42 15.12.2019
6081 Clouds 15 1010 27 0 5.46 185 16:22 15.12.2019
6082 Clouds 14 1011 33 0 4.67 167 15:57 15.12.2019
6083 Clouds 15 1010 27 0 5.46 185 15:39 15.12.2019
6084 Clouds 15 1010 27 0 5.46 185 15:19 15.12.2019
6085 Clouds 15 1010 27 0 5.46 185 14:56 15.12.2019
6086 Clouds 15 1010 27 0 5.46 185 14:37 15.12.2019
6087 Clouds 11 1014 45 0 2.68 228 14:19 15.12.2019
6088 Clouds 11 1014 45 0 2.68 228 13:59 15.12.2019
6089 Clouds 10 1015 52 0 2.09 229 13:39 15.12.2019
6090 Clouds 10 1015 52 0 2.09 229 13:20 15.12.2019
6091 Clouds 10 1015 52 0 2.09 229 12:57 15.12.2019
6092 Clouds 10 1015 52 0 2.09 229 12:57 15.12.2019
6093 Clouds 10 1015 52 0 2.09 229 12:39 15.12.2019
6094 Clouds 10 1015 52 0 2.09 229 12:21 15.12.2019
6095 Clouds 10 1015 52 0 2.09 229 11:59 15.12.2019
6096 Clouds 10 1015 52 0 2.09 229 11:38 15.12.2019
6097 Clouds 6 1014 83 0 1.71 40 11:19 15.12.2019
6098 Clouds 6 1014 83 0 1.71 40 11:19 15.12.2019
6099 Clouds 6 1014 83 0 1.71 40 10:55 15.12.2019
6100 Clouds 6 1014 83 0 1.71 40 10:37 15.12.2019
6101 Clouds 6 1014 83 0 1.71 40 10:19 15.12.2019
6102 Clouds 6 1014 83 0 1.71 40 09:56 15.12.2019
6103 Clouds 6 1014 83 0 1.71 40 09:37 15.12.2019
6104 Clouds 6 1014 83 0 1.71 40 09:18 15.12.2019
6105 Clouds 6 1014 83 0 1.71 40 08:41 15.12.2019
6106 Rain 5 1014 90 0 1.91 63 08:22 15.12.2019
6107 Rain 5 1015 84 0 1.58 106 07:57 15.12.2019
6108 Rain 5 1015 84 0 1.58 106 07:37 15.12.2019
6109 Rain 5 1015 84 0 1.58 106 06:59 15.12.2019
6110 Rain 5 1015 84 0 1.58 106 06:24 15.12.2019
6111 Rain 5 1015 84 0 1.58 106 05:42 15.12.2019
6112 Rain 5 1015 89 0 1.59 125 05:20 15.12.2019
6113 Rain 5 1015 89 0 1.59 125 04:18 15.12.2019
6114 Rain 5 1015 89 0 1.59 125 02:49 15.12.2019
6115 Rain 5 1015 89 0 1.59 125 02:30 15.12.2019
6116 Rain 9 1012 69 0 3.53 34 01:40 15.12.2019
6117 Rain 9 1012 68 0 1.72 37 01:18 15.12.2019
6118 Rain 9 1012 68 0 1.72 37 00:44 15.12.2019
6119 Rain 9 1012 68 0 1.72 37 00:44 15.12.2019
6120 Rain 9 1012 68 0 1.72 37 00:25 15.12.2019
6121 Rain 9 1012 68 0 1.72 37 23:41 14.12.2019
6122 Rain 10 1007 61 0 1.89 351 23:22 14.12.2019
6123 Rain 10 1007 61 0 1.89 351 22:59 14.12.2019
6124 Rain 10 1007 61 0 1.89 351 22:41 14.12.2019
6125 Rain 10 1007 61 0 1.89 351 22:22 14.12.2019
6126 Rain 10 1007 61 0 1.89 351 21:56 14.12.2019
6127 Rain 10 1007 61 0 1.89 351 21:38 14.12.2019
6128 Rain 10 1007 61 0 1.89 351 21:19 14.12.2019
6129 Rain 10 1007 61 0 1.89 351 20:58 14.12.2019
6130 Rain 10 1007 61 0 1.89 351 20:39 14.12.2019
6131 Clouds 14 1010 34 0 4.43 46 20:20 14.12.2019
6132 Clouds 14 1010 34 0 4.43 46 19:57 14.12.2019
6133 Clouds 14 1010 34 0 4.43 46 19:57 14.12.2019
6134 Clouds 14 1010 34 0 4.43 46 19:37 14.12.2019
6135 Clouds 14 1010 34 0 4.43 46 19:19 14.12.2019
6136 Clouds 14 1010 34 0 4.43 46 18:56 14.12.2019
6137 Clouds 14 1010 34 0 4.43 46 18:37 14.12.2019
6138 Clouds 14 1010 34 0 4.43 46 18:19 14.12.2019
6139 Clouds 14 1010 34 0 4.43 46 17:44 14.12.2019
6140 Clouds 14 1010 34 0 4.43 46 17:24 14.12.2019
6141 Clouds 11 1014 40 0 3.4 45 16:58 14.12.2019
6142 Clouds 11 1014 40 0 3.4 45 16:39 14.12.2019
6143 Clouds 11 1014 40 0 3.4 45 16:18 14.12.2019
6144 Clouds 11 1014 40 0 3.4 45 15:43 14.12.2019
6145 Clouds 11 1014 40 0 3.4 45 15:22 14.12.2019
6146 Clouds 11 1014 40 0 3.4 45 14:59 14.12.2019
6147 Clouds 11 1014 40 0 3.4 45 14:39 14.12.2019
6148 Clouds 7 1017 68 0 1.55 22 14:20 14.12.2019
6149 Clouds 7 1017 68 0 1.55 22 13:57 14.12.2019
6150 Clouds 7 1017 68 0 1.55 22 13:38 14.12.2019
6151 Clouds 7 1018 70 0 1.99 20 13:18 14.12.2019
6152 Clouds 7 1018 72 0 1.53 17 12:55 14.12.2019
6153 Clouds 7 1018 72 0 1.53 17 12:37 14.12.2019
6154 Clouds 7 1018 70 0 1.99 20 12:18 14.12.2019
6155 Clouds 7 1018 72 0 1.53 17 11:55 14.12.2019
6156 Clouds 7 1018 72 0 1.53 17 11:36 14.12.2019
6157 Clouds 5 1017 86 0 1.36 28 11:18 14.12.2019
6158 Clouds 5 1017 86 0 1.36 28 10:55 14.12.2019
6159 Clouds 5 1017 87 0 1.43 24 10:37 14.12.2019
6160 Clouds 5 1017 87 0 1.43 24 10:18 14.12.2019
6161 Clouds 5 1017 86 0 1.36 28 09:40 14.12.2019
6162 Clouds 5 1017 87 0 1.43 24 09:40 14.12.2019
6163 Clouds 5 1017 86 0 1.36 28 09:20 14.12.2019
6164 Clouds 5 1017 87 0 1.43 24 09:20 14.12.2019
6165 Clouds 5 1017 86 0 1.36 28 08:44 14.12.2019
6166 Clouds 6 1016 85 0 2.05 47 08:20 14.12.2019
6167 Clouds 6 1016 85 0 2.05 47 07:57 14.12.2019
6168 Clouds 6 1016 85 0 2.05 47 07:38 14.12.2019
6169 Clouds 6 1016 85 0 2.05 47 07:19 14.12.2019
6170 Clouds 6 1016 85 0 2.05 47 06:41 14.12.2019
6171 Clouds 6 1016 85 0 2.05 47 06:22 14.12.2019
6172 Clouds 7 1016 80 0 3.26 49 05:22 14.12.2019
6173 Clouds 7 1016 80 0 3.26 49 02:51 14.12.2019
6174 Clouds 7 1016 80 0 3.26 49 02:23 14.12.2019
6175 Rain 8 1013 70 0 3.85 47 01:43 14.12.2019
6176 Rain 9 1013 67 0 3.9 44 00:58 14.12.2019
6177 Rain 9 1013 67 0 3.9 44 00:40 14.12.2019
6178 Rain 9 1013 67 0 3.9 44 00:19 14.12.2019
6179 Rain 9 1013 67 0 3.9 44 23:41 13.12.2019
6180 Rain 12 1009 47 0 5.47 53 23:19 13.12.2019
6181 Rain 12 1009 47 0 5.47 53 22:56 13.12.2019
6182 Rain 12 1009 47 0 5.47 53 22:37 13.12.2019
6183 Rain 12 1009 47 0 5.47 53 22:18 13.12.2019
6184 Rain 12 1009 47 0 5.47 53 21:44 13.12.2019
6185 Rain 12 1009 47 0 5.47 53 21:22 13.12.2019
6186 Rain 12 1009 47 0 5.47 53 20:59 13.12.2019
6187 Rain 12 1009 47 0 5.47 53 20:39 13.12.2019
6188 Rain 13 1011 41 0 4.14 45 20:20 13.12.2019
6189 Rain 13 1011 41 0 4.14 45 19:56 13.12.2019
6190 Rain 13 1011 41 0 4.14 45 19:38 13.12.2019
6191 Rain 13 1011 41 0 4.14 45 19:19 13.12.2019
6192 Rain 13 1011 41 0 4.14 45 18:54 13.12.2019
6193 Rain 13 1011 41 0 4.14 45 18:36 13.12.2019
6194 Rain 13 1011 41 0 4.14 45 18:18 13.12.2019
6195 Rain 13 1011 41 0 4.14 45 18:18 13.12.2019
6196 Rain 13 1011 41 0 4.14 45 17:40 13.12.2019
6197 Clouds 10 1017 53 0 3.67 44 17:18 13.12.2019
6198 Clouds 10 1017 53 0 3.67 44 16:57 13.12.2019
6199 Clouds 10 1017 53 0 3.67 44 16:38 13.12.2019
6200 Clouds 10 1017 53 0 3.67 44 16:20 13.12.2019
6201 Clouds 10 1017 53 0 3.67 44 15:43 13.12.2019
6202 Clouds 10 1017 53 0 3.67 44 15:22 13.12.2019
6203 Clouds 10 1017 53 0 3.67 44 14:57 13.12.2019
6204 Clouds 10 1017 53 0 3.67 44 14:39 13.12.2019
6205 Clouds 6 1020 71 0 2.39 50 14:19 13.12.2019
6206 Clouds 6 1020 71 0 2.39 50 13:44 13.12.2019
6207 Clouds 6 1020 71 0 2.39 50 13:44 13.12.2019
6208 Clouds 6 1020 71 0 1.86 61 13:26 13.12.2019
6209 Clouds 6 1020 71 0 1.86 61 12:59 13.12.2019
6210 Clouds 6 1020 71 0 1.86 61 12:40 13.12.2019
6211 Clouds 6 1020 71 0 1.86 61 12:19 13.12.2019
6212 Clouds 6 1020 71 0 1.86 61 11:45 13.12.2019
6213 Clouds 6 1020 71 0 1.86 61 11:45 13.12.2019
6214 Clouds 6 1020 71 0 1.86 61 11:26 13.12.2019
6215 Clouds 5 1019 86 0 1.26 42 10:58 13.12.2019
6216 Clouds 5 1019 86 0 1.26 42 10:40 13.12.2019
6217 Clouds 5 1019 86 0 1.26 42 10:21 13.12.2019
6218 Clouds 5 1019 86 0 1.26 42 09:43 13.12.2019
6219 Clouds 5 1019 86 0 1.26 42 09:22 13.12.2019
6220 Clouds 5 1019 86 0 1.26 42 08:55 13.12.2019
6221 Clouds 5 1019 86 0 1.26 42 08:37 13.12.2019
6222 Rain 5 1019 85 0 1.62 52 08:19 13.12.2019
6223 Rain 5 1019 85 0 1.62 52 07:43 13.12.2019
6224 Rain 5 1019 85 0 1.62 52 07:19 13.12.2019
6225 Rain 5 1019 85 0 1.62 52 06:46 13.12.2019
6226 Rain 5 1019 85 0 1.62 52 06:27 13.12.2019
6227 Rain 5 1019 85 0 1.62 52 05:41 13.12.2019
6228 Rain 6 1019 81 0 2.97 53 05:20 13.12.2019
6229 Rain 6 1019 81 0 2.97 53 04:29 13.12.2019
6230 Rain 6 1019 81 0 2.97 53 02:57 13.12.2019
6231 Rain 6 1019 81 0 2.97 53 02:31 13.12.2019
6232 Rain 9 1015 69 0 4.38 63 01:39 13.12.2019
6233 Rain 8 1015 68 0 5.37 69 00:51 13.12.2019
6234 Rain 8 1015 68 0 5.37 69 00:29 13.12.2019
6235 Rain 8 1015 68 0 5.37 69 23:46 12.12.2019
6236 Rain 8 1015 68 0 5.37 69 23:27 12.12.2019
6237 Rain 12 1009 48 0 8.44 79 22:59 12.12.2019
6238 Rain 12 1009 48 0 8.44 79 22:41 12.12.2019
6239 Rain 12 1009 48 0 8.44 79 22:22 12.12.2019
6240 Rain 12 1009 48 0 8.44 79 21:56 12.12.2019
6241 Rain 12 1009 48 0 8.44 79 21:38 12.12.2019
6242 Rain 12 1009 48 0 8.44 79 21:20 12.12.2019
6243 Rain 12 1009 48 0 8.44 79 21:20 12.12.2019
6244 Rain 12 1009 48 0 8.44 79 20:59 12.12.2019
6245 Rain 12 1009 48 0 8.44 79 20:41 12.12.2019
6246 -273 0 0 0 0 0 20:23 12.12.2019
6247 Clear 15 1009 30 0 7.1 95 19:59 12.12.2019
6248 Clear 15 1009 30 0 7.1 95 19:59 12.12.2019
6249 Clear 15 1009 30 0 7.1 95 19:40 12.12.2019
6250 Clear 15 1009 30 0 7.1 95 19:21 12.12.2019
6251 Clear 15 1009 30 0 7.1 95 18:57 12.12.2019
6252 Clear 15 1009 30 0 7.1 95 18:57 12.12.2019
6253 Clear 15 1009 30 0 7.1 95 18:38 12.12.2019
6254 Clear 15 1009 30 0 7.1 95 18:20 12.12.2019
6255 Clear 15 1009 30 0 7.1 95 17:57 12.12.2019
6256 Clear 15 1009 30 0 7.1 95 17:38 12.12.2019
6257 Clear 14 1012 29 0 4.33 86 17:20 12.12.2019
6258 Clear 14 1012 29 0 4.33 86 16:56 12.12.2019
6259 Clear 14 1012 29 0 4.33 86 16:37 12.12.2019
6260 Clear 14 1012 29 0 4.33 86 16:19 12.12.2019
6261 Clear 14 1012 29 0 4.33 86 15:54 12.12.2019
6262 Clear 14 1012 29 0 4.33 86 15:36 12.12.2019
6263 Clear 14 1012 29 0 4.33 86 15:18 12.12.2019
6264 Clear 14 1012 29 0 4.33 86 14:38 12.12.2019
6265 Clouds 10 1014 49 0 1.94 89 14:20 12.12.2019
6266 Clouds 10 1014 49 0 1.94 89 13:57 12.12.2019
6267 Clouds 10 1014 49 0 1.94 89 13:39 12.12.2019
6268 Clouds 10 1014 50 0 2.11 98 13:21 12.12.2019
6269 Clouds 10 1014 50 0 2.11 98 12:57 12.12.2019
6270 Clouds 10 1014 50 0 2.11 98 12:39 12.12.2019
6271 Clouds 10 1014 50 0 2.11 98 12:21 12.12.2019
6272 Clouds 10 1014 50 0 2.11 98 11:56 12.12.2019
6273 Clouds 10 1014 50 0 2.11 98 11:37 12.12.2019
6274 Clouds 8 1013 75 0 0.48 171 11:19 12.12.2019
6275 Clouds 8 1013 75 0 0.48 171 10:55 12.12.2019
6276 Clouds 8 1013 75 0 0.48 171 10:55 12.12.2019
6277 Clouds 8 1013 75 0 0.48 171 10:37 12.12.2019
6278 Clouds 8 1013 75 0 0.48 171 10:19 12.12.2019
6279 Clouds 8 1013 75 0 0.48 171 09:42 12.12.2019
6280 Clouds 8 1013 75 0 0.48 171 09:24 12.12.2019
6281 Clouds 8 1013 75 0 0.48 171 08:58 12.12.2019
6282 Clouds 8 1013 75 0 0.48 171 08:40 12.12.2019
6283 Rain 8 1012 69 0 1.12 312 08:22 12.12.2019
6284 Rain 8 1012 69 0 1.12 312 07:47 12.12.2019
6285 Rain 8 1012 69 0 1.12 312 07:25 12.12.2019
6286 Rain 8 1012 69 0 1.12 312 06:55 12.12.2019
6287 Rain 8 1012 69 0 1.12 312 06:34 12.12.2019
6288 Rain 8 1012 69 0 1.12 312 05:41 12.12.2019
6289 Rain 9 1013 69 0 3.36 35 04:54 12.12.2019
6290 Rain 9 1013 69 0 3.36 35 03:50 12.12.2019
6291 Rain 9 1013 69 0 3.36 35 02:40 12.12.2019
6292 Rain 11 1009 57 0 3.27 62 02:21 12.12.2019
6293 Rain 11 1009 57 0 3.27 62 01:46 12.12.2019
6294 Rain 11 1009 57 0 3.27 62 01:28 12.12.2019
6295 Rain 11 1008 58 0 3.97 69 00:47 12.12.2019
6296 Rain 11 1008 58 0 3.97 69 00:20 12.12.2019
6297 Rain 11 1008 58 0 3.97 69 23:45 11.12.2019
6298 Rain 15 1004 37 0 1.03 29 23:21 11.12.2019
6299 Rain 15 1004 37 0 1.03 29 22:58 11.12.2019
6300 Rain 15 1004 37 0 1.03 29 22:39 11.12.2019
6301 Rain 15 1004 37 0 1.03 29 22:20 11.12.2019
6302 Rain 15 1004 37 0 1.03 29 21:59 11.12.2019
6303 Rain 15 1004 37 0 1.03 29 21:39 11.12.2019
6304 Rain 15 1004 37 0 1.03 29 21:20 11.12.2019
6305 Rain 15 1004 37 0 1.03 29 20:57 11.12.2019
6306 Rain 15 1004 37 0 1.03 29 20:39 11.12.2019
6307 Rain 15 1007 35 0 2.32 24 20:19 11.12.2019
6308 Rain 15 1007 35 0 2.32 24 19:58 11.12.2019
6309 Rain 15 1007 35 0 2.32 24 19:40 11.12.2019
6310 Rain 15 1007 35 0 2.32 24 19:20 11.12.2019
6311 Rain 15 1007 35 0 2.32 24 18:55 11.12.2019
6312 Rain 15 1007 35 0 2.32 24 18:37 11.12.2019
6313 Rain 15 1007 35 0 2.32 24 18:37 11.12.2019
6314 Rain 15 1007 35 0 2.32 24 18:18 11.12.2019
6315 Rain 15 1007 35 0 2.32 24 17:54 11.12.2019
6316 Rain 15 1007 35 0 2.32 24 17:36 11.12.2019
6317 Rain 12 1012 51 0 3 25 17:18 11.12.2019
6318 Rain 12 1012 51 0 3 25 16:55 11.12.2019
6319 Rain 12 1012 51 0 3 25 16:36 11.12.2019
6320 Rain 12 1012 51 0 3 25 16:18 11.12.2019
6321 Rain 12 1012 51 0 3 25 15:41 11.12.2019
6322 Rain 12 1012 51 0 3 25 15:23 11.12.2019
6323 Rain 12 1012 51 0 3 25 15:23 11.12.2019
6324 Rain 12 1012 51 0 3 25 14:57 11.12.2019
6325 Rain 12 1012 51 0 3 25 14:39 11.12.2019
6326 Clouds 8 1016 76 0 2.26 40 14:20 11.12.2019
6327 Clouds 8 1016 76 0 2.26 40 13:58 11.12.2019
6328 Clouds 8 1016 76 0 2.26 40 13:39 11.12.2019
6329 Clouds 8 1016 76 0 2.26 40 13:20 11.12.2019
6330 Clouds 8 1016 76 0 2.26 40 13:20 11.12.2019
6331 Rain 8 1016 75 0 2.25 34 12:57 11.12.2019
6332 Rain 8 1016 75 0 2.25 34 12:38 11.12.2019
6333 Rain 8 1016 75 0 2.25 34 12:20 11.12.2019
6334 Rain 8 1016 75 0 2.25 34 11:57 11.12.2019
6335 Rain 8 1016 75 0 2.25 34 11:38 11.12.2019
6336 Rain 7 1014 84 0 2.07 15 11:18 11.12.2019
6337 Rain 7 1014 84 0 2.07 15 10:56 11.12.2019
6338 Rain 7 1014 84 0 2.07 15 10:38 11.12.2019
6339 Rain 7 1014 84 0 2.07 15 10:19 11.12.2019
6340 Rain 7 1014 84 0 2.07 15 09:43 11.12.2019
6341 Rain 7 1014 84 0 2.07 15 09:21 11.12.2019
6342 Rain 7 1014 84 0 2.07 15 08:58 11.12.2019
6343 Rain 7 1014 84 0 2.07 15 08:39 11.12.2019
6344 Rain 7 1014 89 0 2.15 40 08:19 11.12.2019
6345 Rain 7 1013 87 0 2.27 37 08:19 11.12.2019
6346 Rain 7 1014 89 0 2.15 40 07:58 11.12.2019
6347 Rain 7 1014 89 0 2.15 40 07:39 11.12.2019
6348 Rain 7 1014 89 0 2.15 40 07:21 11.12.2019
6349 Rain 7 1014 89 0 2.15 40 06:44 11.12.2019
6350 Rain 7 1014 89 0 2.15 40 06:22 11.12.2019
6351 Rain 7 1014 89 0 2.15 40 05:45 11.12.2019
6352 Rain 8 1014 85 0 4.06 56 05:21 11.12.2019
6353 Rain 8 1014 85 0 4.06 56 04:41 11.12.2019
6354 Rain 8 1014 85 0 4.06 56 02:49 11.12.2019
6355 Rain 10 1010 69 0 3.13 39 01:26 11.12.2019
6356 Rain 10 1010 69 0 3.13 39 00:49 11.12.2019
6357 Rain 10 1010 69 0 3.13 39 00:23 11.12.2019
6358 Rain 10 1010 69 0 3.13 39 23:58 10.12.2019
6359 Rain 10 1010 69 0 3.13 39 23:39 10.12.2019
6360 Rain 14 1006 51 0 6.46 69 23:21 10.12.2019
6361 Rain 14 1006 51 0 6.46 69 22:41 10.12.2019
6362 Rain 14 1006 51 0 6.46 69 22:22 10.12.2019
6363 Rain 14 1006 51 0 6.46 69 21:57 10.12.2019
6364 Rain 14 1006 51 0 6.46 69 21:39 10.12.2019
6365 Rain 14 1006 51 0 6.46 69 21:39 10.12.2019
6366 Rain 14 1006 51 0 6.46 69 21:21 10.12.2019
6367 Rain 14 1006 51 0 6.46 69 20:57 10.12.2019
6368 Rain 14 1006 51 0 6.46 69 20:38 10.12.2019
6369 Clouds 16 1008 27 0 3.98 38 20:19 10.12.2019
6370 Clouds 16 1008 27 0 3.98 38 20:19 10.12.2019
6371 Clouds 16 1008 27 0 3.98 38 20:19 10.12.2019
6372 Clouds 16 1008 27 0 3.98 38 20:19 10.12.2019
6373 Clouds 16 1008 27 0 3.98 38 19:56 10.12.2019
6374 Clouds 16 1008 27 0 3.98 38 19:37 10.12.2019
6375 Clouds 16 1008 27 0 3.98 38 19:19 10.12.2019
6376 Clouds 16 1008 27 0 3.98 38 18:42 10.12.2019
6377 Clouds 16 1008 27 0 3.98 38 18:21 10.12.2019
6378 Clouds 16 1008 27 0 3.98 38 17:59 10.12.2019
6379 Clouds 16 1008 27 0 3.98 38 17:41 10.12.2019
6380 Clouds 13 1013 34 0 2.64 17 17:22 10.12.2019
6381 Clouds 13 1013 34 0 2.64 17 16:57 10.12.2019
6382 Clouds 13 1013 34 0 2.64 17 16:39 10.12.2019
6383 Clouds 13 1013 34 0 2.64 17 16:19 10.12.2019
6384 Clouds 13 1013 34 0 2.64 17 16:19 10.12.2019
6385 Clouds 13 1013 34 0 2.64 17 15:39 10.12.2019
6386 Clouds 13 1013 34 0 2.64 17 15:18 10.12.2019
6387 Clouds 13 1013 34 0 2.64 17 14:56 10.12.2019
6388 Clouds 13 1013 34 0 2.64 17 14:38 10.12.2019
6389 Clouds 8 1016 65 0 1.45 357 14:20 10.12.2019
6390 Clouds 8 1016 65 0 1.45 357 13:58 10.12.2019
6391 Clouds 8 1016 65 0 1.45 357 13:40 10.12.2019
6392 Clouds 8 1016 66 0 1.77 353 13:20 10.12.2019
6393 Clouds 8 1016 66 0 1.77 353 12:49 10.12.2019
6394 Clouds 8 1016 66 0 1.77 353 12:28 10.12.2019
6395 Clouds 8 1016 66 0 1.77 353 11:58 10.12.2019
6396 Clouds 8 1016 66 0 1.77 353 11:40 10.12.2019
6397 Clouds 7 1014 75 0 1.74 25 11:21 10.12.2019
6398 Clouds 7 1014 75 0 1.74 25 10:43 10.12.2019
6399 Clouds 7 1014 75 0 1.74 25 10:24 10.12.2019
6400 Clouds 7 1014 75 0 1.74 25 09:57 10.12.2019
6401 Clouds 7 1014 75 0 1.74 25 09:57 10.12.2019
6402 Clouds 7 1014 75 0 1.74 25 09:57 10.12.2019
6403 Clouds 7 1014 75 0 1.74 25 09:39 10.12.2019
6404 Clouds 7 1014 75 0 1.74 25 09:20 10.12.2019
6405 Clouds 7 1014 75 0 1.74 25 08:58 10.12.2019
6406 Clouds 7 1014 75 0 1.74 25 08:39 10.12.2019
6407 Rain 7 1014 86 0 2.52 36 08:20 10.12.2019
6408 Rain 7 1014 82 0 2.44 35 07:45 10.12.2019
6409 Rain 7 1014 82 0 2.44 35 07:27 10.12.2019
6410 Rain 7 1014 82 0 2.44 35 06:55 10.12.2019
6411 Rain 7 1014 82 0 2.44 35 06:37 10.12.2019
6412 Rain 7 1014 82 0 2.44 35 06:19 10.12.2019
6413 Rain 7 1014 82 0 2.44 35 05:47 10.12.2019
6414 Rain 7 1014 89 0 2.58 39 04:23 10.12.2019
6415 Rain 7 1014 89 0 2.58 39 03:25 10.12.2019
6416 Rain 10 1011 69 0 4.31 67 01:57 10.12.2019
6417 Rain 10 1011 69 0 4.31 67 01:38 10.12.2019
6418 Rain 10 1011 69 0 4.31 67 01:18 10.12.2019
6419 Rain 10 1010 66 0 3.03 77 00:29 10.12.2019
6420 Rain 10 1010 66 0 3.03 77 23:59 09.12.2019
6421 Rain 10 1010 66 0 3.03 77 23:39 09.12.2019
6422 Rain 14 1006 46 0 3.57 48 23:20 09.12.2019
6423 Rain 14 1006 46 0 3.57 48 22:56 09.12.2019
6424 Rain 14 1006 46 0 3.57 48 22:38 09.12.2019
6425 Rain 14 1006 46 0 3.57 48 22:18 09.12.2019
6426 Rain 14 1006 46 0 3.57 48 22:18 09.12.2019
6427 Rain 14 1006 46 0 3.57 48 21:56 09.12.2019
6428 Rain 14 1006 46 0 3.57 48 21:38 09.12.2019
6429 Rain 14 1006 46 0 3.57 48 21:18 09.12.2019
6430 Rain 14 1006 46 0 3.57 48 20:55 09.12.2019
6431 Rain 14 1006 46 0 3.57 48 20:37 09.12.2019
6432 Rain 15 1008 39 0 4.17 31 20:19 09.12.2019
6433 Rain 15 1008 39 0 4.17 31 19:55 09.12.2019
6434 Rain 15 1008 39 0 4.17 31 19:55 09.12.2019
6435 Rain 15 1008 39 0 4.17 31 19:37 09.12.2019
6436 Rain 15 1008 39 0 4.17 31 19:18 09.12.2019
6437 Rain 15 1008 39 0 4.17 31 18:55 09.12.2019
6438 Rain 15 1008 39 0 4.17 31 18:36 09.12.2019
6439 Rain 15 1008 39 0 4.17 31 18:18 09.12.2019
6440 Rain 15 1008 39 0 4.17 31 18:18 09.12.2019
6441 Rain 15 1008 39 0 4.17 31 17:56 09.12.2019
6442 Rain 15 1008 39 0 4.17 31 17:37 09.12.2019
6443 Rain 11 1013 56 0 2.87 23 17:18 09.12.2019
6444 Rain 11 1013 56 0 2.87 23 16:54 09.12.2019
6445 Rain 11 1013 56 0 2.87 23 16:36 09.12.2019
6446 Rain 11 1013 56 0 2.87 23 16:18 09.12.2019
6447 Rain 11 1013 56 0 2.87 23 15:55 09.12.2019
6448 Rain 11 1013 56 0 2.87 23 15:36 09.12.2019
6449 Rain 11 1013 56 0 2.87 23 15:18 09.12.2019
6450 Rain 11 1013 56 0 2.87 23 14:42 09.12.2019
6451 Rain 7 1016 79 0 2.45 46 14:19 09.12.2019
6452 Rain 7 1016 79 0 2.45 46 13:57 09.12.2019
6453 Rain 7 1016 79 0 2.45 46 13:38 09.12.2019
6454 Rain 7 1016 79 0 2.45 46 13:38 09.12.2019
6455 Rain 7 1016 79 0 2.21 49 13:19 09.12.2019
6456 Rain 7 1016 79 0 2.21 49 13:19 09.12.2019
6457 Rain 7 1016 79 0 2.21 49 12:56 09.12.2019
6458 Rain 7 1016 79 0 2.21 49 12:56 09.12.2019
6459 Rain 7 1016 79 0 2.21 49 12:37 09.12.2019
6460 Rain 7 1016 79 0 2.21 49 12:19 09.12.2019
6461 Rain 7 1016 79 0 2.21 49 11:56 09.12.2019
6462 Rain 7 1016 79 0 2.21 49 11:37 09.12.2019
6463 Rain 7 1014 86 0 2.38 51 11:18 09.12.2019
6464 Rain 7 1014 86 0 2.38 51 10:41 09.12.2019
6465 Rain 7 1014 86 0 2.38 51 10:41 09.12.2019
6466 Rain 7 1014 86 0 2.38 51 10:20 09.12.2019
6467 Rain 7 1014 86 0 2.38 51 09:59 09.12.2019
6468 Rain 7 1014 86 0 2.38 51 09:41 09.12.2019
6469 Rain 7 1014 86 0 2.38 51 09:41 09.12.2019
6470 Rain 7 1014 86 0 2.38 51 09:21 09.12.2019
6471 Rain 7 1014 86 0 2.38 51 08:54 09.12.2019
6472 Rain 7 1014 86 0 2.38 51 08:36 09.12.2019
6473 Clouds 8 1013 73 0 2.26 53 08:18 09.12.2019
6474 Clouds 8 1013 73 0 2.26 53 07:42 09.12.2019
6475 Clouds 8 1013 73 0 2.26 53 07:23 09.12.2019
6476 Clouds 8 1013 73 0 2.26 53 06:47 09.12.2019
6477 Clouds 8 1013 73 0 2.26 53 06:25 09.12.2019
6478 Clouds 8 1013 73 0 2.26 53 05:29 09.12.2019
6479 Rain 10 1012 61 0 1.94 56 04:46 09.12.2019
6480 Rain 10 1012 61 0 1.94 56 03:21 09.12.2019
6481 Rain 10 1012 61 0 1.94 56 02:24 09.12.2019
6482 Rain 10 1009 62 0 2.88 50 01:42 09.12.2019
6483 Rain 11 1009 60 0 2.82 66 00:51 09.12.2019
6484 Rain 11 1009 60 0 2.82 66 00:31 09.12.2019
6485 Rain 11 1009 60 0 2.82 66 23:43 08.12.2019
6486 Rain 11 1009 60 0 2.82 66 23:24 08.12.2019
6487 Rain 11 1009 60 0 2.82 66 23:24 08.12.2019
6488 Rain 15 1004 24 0 0.82 15 22:58 08.12.2019
6489 Rain 15 1004 24 0 0.82 15 22:39 08.12.2019
6490 Rain 15 1004 24 0 0.82 15 22:20 08.12.2019
6491 Rain 15 1004 24 0 0.82 15 21:58 08.12.2019
6492 Rain 15 1004 24 0 0.82 15 21:40 08.12.2019
6493 Rain 15 1004 24 0 0.82 15 21:40 08.12.2019
6494 Rain 15 1004 24 0 0.82 15 21:22 08.12.2019
6495 Rain 15 1004 24 0 0.82 15 20:57 08.12.2019
6496 Rain 15 1004 24 0 0.82 15 20:39 08.12.2019
6497 Clouds 16 1006 23 0 1.87 304 20:21 08.12.2019
6498 Clouds 16 1006 23 0 1.87 304 19:59 08.12.2019
6499 Clouds 16 1006 23 0 1.87 304 19:41 08.12.2019
6500 Clouds 16 1006 23 0 1.87 304 19:23 08.12.2019
6501 Clouds 16 1006 23 0 1.87 304 19:23 08.12.2019
6502 Clouds 16 1006 23 0 1.87 304 18:56 08.12.2019
6503 Clouds 16 1006 23 0 1.87 304 18:37 08.12.2019
6504 Clouds 16 1006 23 0 1.87 304 18:19 08.12.2019
6505 Clouds 16 1006 23 0 1.87 304 17:57 08.12.2019
6506 Clouds 16 1006 23 0 1.87 304 17:39 08.12.2019
6507 Clouds 13 1010 28 0 1.82 350 17:20 08.12.2019
6508 Clouds 13 1010 28 0 1.82 350 16:58 08.12.2019
6509 Clouds 13 1010 28 0 1.82 350 16:40 08.12.2019
6510 Clouds 9 1040 66 10000 1.82 350 16:22 08.12.2019
6511 Clouds 9 1040 66 10000 1.82 350 15:58 08.12.2019
6512 Clouds 9 1040 66 10000 1.82 350 15:37 08.12.2019
6513 Clouds 9 1040 66 10000 1.82 350 15:18 08.12.2019
6514 Clouds 9 1040 66 10000 1.82 350 14:46 08.12.2019
6515 Clouds 9 1040 66 10000 1.82 350 14:25 08.12.2019
6516 Clouds 9 1014 42 0 2 343 13:59 08.12.2019
6517 Clouds 9 1014 42 0 2 343 13:41 08.12.2019
6518 Clouds 8 1014 43 0 2.39 338 13:22 08.12.2019
6519 Clouds 8 1014 43 0 2.39 338 12:59 08.12.2019
6520 Clouds 8 1014 43 0 2.39 338 12:40 08.12.2019
6521 Clouds 8 1014 43 0 2.39 338 12:19 08.12.2019
6522 Clouds 8 1014 43 0 2.39 338 12:19 08.12.2019
6523 Clouds 8 1014 43 0 2.39 338 11:58 08.12.2019
6524 Clouds 8 1014 43 0 2.39 338 11:37 08.12.2019
6525 Clouds 6 1013 79 0 1.14 11 11:19 08.12.2019
6526 Clouds 6 1013 79 0 1.14 11 10:57 08.12.2019
6527 Clouds 6 1013 79 0 1.14 11 10:38 08.12.2019
6528 Clouds 6 1013 79 0 1.14 11 10:19 08.12.2019
6529 Clouds 6 1013 79 0 1.14 11 09:55 08.12.2019
6530 Clouds 6 1013 79 0 1.14 11 09:36 08.12.2019
6531 Clouds 6 1013 79 0 1.14 11 09:18 08.12.2019
6532 Clouds 6 1013 79 0 1.14 11 08:42 08.12.2019
6533 Clouds 6 1013 81 0 1.53 22 08:23 08.12.2019
6534 Clouds 8 1013 69 0 1.13 9 07:57 08.12.2019
6535 Clouds 8 1013 69 0 1.13 9 07:39 08.12.2019
6536 Clouds 8 1013 69 0 1.13 9 07:18 08.12.2019
6537 Clouds 8 1013 69 0 1.13 9 06:41 08.12.2019
6538 Clouds 8 1013 69 0 1.13 9 06:21 08.12.2019
6539 Clouds 8 1013 69 0 1.13 9 05:27 08.12.2019
6540 Rain 9 1012 67 0 2.01 17 04:54 08.12.2019
6541 Rain 9 1012 67 0 2.01 17 03:41 08.12.2019
6542 Rain 9 1012 67 0 2.01 17 02:52 08.12.2019
6543 Rain 9 1012 67 0 2.01 17 02:27 08.12.2019
6544 Rain 10 1009 67 0 2.62 11 01:48 08.12.2019
6545 Rain 9 1009 70 0 2.93 53 00:56 08.12.2019
6546 Rain 9 1009 70 0 2.93 53 00:37 08.12.2019
6547 Rain 9 1009 70 0 2.93 53 00:18 08.12.2019
6548 Rain 9 1009 70 0 2.93 53 23:39 07.12.2019
6549 Rain 11 1004 59 0 1.46 58 23:20 07.12.2019
6550 Rain 11 1004 59 0 1.46 58 22:56 07.12.2019
6551 Rain 11 1004 59 0 1.46 58 22:38 07.12.2019
6552 Rain 11 1004 59 0 1.46 58 22:19 07.12.2019
6553 Rain 11 1004 59 0 1.46 58 22:19 07.12.2019
6554 Rain 11 1004 59 0 1.46 58 21:56 07.12.2019
6555 Rain 11 1004 59 0 1.46 58 21:38 07.12.2019
6556 Rain 11 1004 59 0 1.46 58 21:19 07.12.2019
6557 Rain 11 1004 59 0 1.46 58 20:54 07.12.2019
6558 Rain 11 1004 59 0 1.46 58 20:36 07.12.2019
6559 Rain 13 1007 50 0 2.44 322 20:18 07.12.2019
6560 Rain 13 1007 50 0 2.44 322 19:55 07.12.2019
6561 Rain 13 1007 50 0 2.44 322 19:36 07.12.2019
6562 Rain 13 1007 50 0 2.44 322 19:18 07.12.2019
6563 Rain 13 1007 50 0 2.44 322 18:43 07.12.2019
6564 Rain 13 1007 50 0 2.44 322 18:19 07.12.2019
6565 Rain 13 1007 50 0 2.44 322 17:57 07.12.2019
6566 Rain 13 1007 50 0 2.44 322 17:38 07.12.2019
6567 Clear 13 1012 40 0 2.61 18 17:20 07.12.2019
6568 Clear 13 1012 40 0 2.61 18 16:56 07.12.2019
6569 Clear 13 1012 40 0 2.61 18 16:37 07.12.2019
6570 Clear 13 1012 40 0 2.61 18 16:18 07.12.2019
6571 Clear 13 1012 40 0 2.61 18 15:42 07.12.2019
6572 Clear 13 1012 40 0 2.61 18 15:23 07.12.2019
6573 Clear 13 1012 40 0 2.61 18 14:57 07.12.2019
6574 Clear 13 1012 40 0 2.61 18 14:39 07.12.2019
6575 Clouds 9 1015 55 0 1.66 4 14:18 07.12.2019
6576 Clouds 9 1015 55 0 1.66 4 13:41 07.12.2019
6577 Clouds 9 1015 55 0 1.66 4 13:21 07.12.2019
6578 Clouds 9 1015 55 0 1.64 9 12:58 07.12.2019
6579 Clouds 9 1015 55 0 1.64 9 12:40 07.12.2019
6580 Clouds 9 1015 55 0 1.64 9 12:22 07.12.2019
6581 Clouds 9 1015 55 0 1.64 9 11:57 07.12.2019
6582 Clouds 9 1015 55 0 1.64 9 11:39 07.12.2019
6583 Rain 8 1014 69 0 1.66 9 11:20 07.12.2019
6584 Rain 8 1014 69 0 1.66 9 10:38 07.12.2019
6585 Rain 8 1014 69 0 1.66 9 10:19 07.12.2019
6586 Rain 8 1014 69 0 1.66 9 09:56 07.12.2019
6587 Rain 8 1014 69 0 1.66 9 09:36 07.12.2019
6588 Rain 8 1014 69 0 1.66 9 09:18 07.12.2019
6589 Rain 8 1014 69 0 1.66 9 08:40 07.12.2019
6590 Rain 9 1014 67 0 1.55 9 08:21 07.12.2019
6591 Rain 9 1014 67 0 1.55 9 07:45 07.12.2019
6592 Rain 9 1014 67 0 1.55 9 07:26 07.12.2019
6593 Rain 9 1014 67 0 1.55 9 06:50 07.12.2019
6594 Rain 9 1014 67 0 1.55 9 06:25 07.12.2019
6595 Rain 9 1014 67 0 1.55 9 05:30 07.12.2019
6596 Rain 10 1014 63 0 1.87 6 03:59 07.12.2019
6597 Rain 10 1014 63 0 1.87 6 03:40 07.12.2019
6598 Rain 11 1011 58 0 3.96 25 02:21 07.12.2019
6599 Rain 11 1011 58 0 3.96 25 01:34 07.12.2019
6600 Rain 11 1011 58 0 3.96 25 01:34 07.12.2019
6601 Rain 8 1011 72 0 2.41 9 00:53 07.12.2019
6602 Rain 8 1011 72 0 2.41 9 00:20 07.12.2019
6603 Rain 8 1011 72 0 2.41 9 23:56 06.12.2019
6604 Rain 8 1011 72 0 2.41 9 23:38 06.12.2019
6605 Rain 13 1006 50 0 5.57 357 23:18 06.12.2019
6606 Rain 13 1006 50 0 5.57 357 22:38 06.12.2019
6607 Rain 13 1006 50 0 5.57 357 22:20 06.12.2019
6608 Rain 13 1006 50 0 5.57 357 21:57 06.12.2019
6609 Rain 13 1006 50 0 5.57 357 21:39 06.12.2019
6610 Rain 13 1006 50 0 5.57 357 21:19 06.12.2019
6611 Rain 13 1006 50 0 5.57 357 20:42 06.12.2019
6612 Rain 13 1006 50 0 5.57 357 20:42 06.12.2019
6613 Rain 13 1006 50 0 5.57 357 20:42 06.12.2019
6614 Rain 13 1006 50 0 5.57 357 20:42 06.12.2019
6615 Rain 13 1006 50 0 5.57 357 20:24 06.12.2019
6616 Clouds 15 1009 27 0 3.66 44 19:59 06.12.2019
6617 Clouds 15 1009 27 0 3.66 44 19:40 06.12.2019
6618 Clouds 15 1009 27 0 3.66 44 19:22 06.12.2019
6619 Clouds 15 1009 27 0 3.66 44 19:22 06.12.2019
6620 Clouds 15 1009 27 0 3.66 44 19:22 06.12.2019
6621 Clouds 15 1009 27 0 3.66 44 18:57 06.12.2019
6622 Clouds 15 1009 27 0 3.66 44 18:39 06.12.2019
6623 Clouds 15 1009 27 0 3.66 44 18:19 06.12.2019
6624 Clouds 15 1009 27 0 3.66 44 18:19 06.12.2019
6625 Clouds 15 1009 27 0 3.66 44 17:56 06.12.2019
6626 Clouds 15 1009 27 0 3.66 44 17:56 06.12.2019
6627 Clouds 15 1009 27 0 3.66 44 17:56 06.12.2019
6628 Clouds 15 1009 27 0 3.66 44 17:37 06.12.2019
6629 Clouds 12 1013 36 0 2.86 33 17:19 06.12.2019
6630 Clouds 12 1013 36 0 2.86 33 16:43 06.12.2019
6631 Clouds 12 1013 36 0 2.86 33 16:25 06.12.2019
6632 Clouds 12 1013 36 0 2.86 33 15:59 06.12.2019
6633 Clouds 12 1013 36 0 2.86 33 15:40 06.12.2019
6634 Clouds 12 1013 36 0 2.86 33 15:19 06.12.2019
6635 Clouds 12 1013 36 0 2.86 33 14:57 06.12.2019
6636 Clouds 12 1013 36 0 2.86 33 14:38 06.12.2019
6637 Clouds 12 1013 36 0 2.86 33 14:38 06.12.2019
6638 Clouds 9 1017 51 0 1.23 12 14:19 06.12.2019
6639 Clouds 9 1017 51 0 1.23 12 13:43 06.12.2019
6640 Clouds 9 1017 51 0 1.23 12 13:43 06.12.2019
6641 Clouds 9 1017 51 0 1.23 12 13:25 06.12.2019
6642 Clouds 8 1017 54 0 0.54 19 12:43 06.12.2019
6643 Clouds 8 1017 54 0 0.54 19 12:23 06.12.2019
6644 Clouds 8 1017 54 0 0.54 19 12:23 06.12.2019
6645 Clouds 8 1017 54 0 0.54 19 11:58 06.12.2019
6646 Clouds 8 1017 54 0 0.54 19 11:40 06.12.2019
6647 Clouds 7 1015 61 0 0.32 274 11:22 06.12.2019
6648 Clouds 7 1015 61 0 0.32 274 10:54 06.12.2019
6649 Clouds 7 1015 61 0 0.32 274 10:36 06.12.2019
6650 Clouds 7 1015 61 0 0.32 274 10:18 06.12.2019
6651 Clouds 7 1015 61 0 0.32 274 09:54 06.12.2019
6652 Clouds 7 1015 61 0 0.32 274 09:36 06.12.2019
6653 Clouds 7 1015 61 0 0.32 274 09:18 06.12.2019
6654 Clouds 7 1015 61 0 0.32 274 08:40 06.12.2019
6655 Clouds 9 1015 53 0 1.92 253 08:21 06.12.2019
6656 Clouds 9 1015 54 0 1.98 251 07:38 06.12.2019
6657 Clouds 9 1015 54 0 1.98 251 07:20 06.12.2019
6658 Clouds 9 1015 54 0 1.98 251 06:31 06.12.2019
6659 Clouds 9 1015 54 0 1.98 251 05:56 06.12.2019
6660 Clouds 9 1015 54 0 1.98 251 05:38 06.12.2019
6661 Rain 8 1013 74 0 2.39 47 02:20 06.12.2019
6662 Rain 8 1013 74 0 2.39 47 01:43 06.12.2019
6663 Rain 8 1013 80 0 3.24 32 00:49 06.12.2019
6664 Rain 8 1013 80 0 3.24 32 00:22 06.12.2019
6665 Rain 8 1013 80 0 3.24 32 23:51 05.12.2019
6666 Rain 10 1009 69 0 3.96 54 23:20 05.12.2019
6667 Rain 10 1009 69 0 3.96 54 22:58 05.12.2019
6668 Rain 10 1009 69 0 3.96 54 22:38 05.12.2019
6669 Rain 10 1009 69 0 3.96 54 22:19 05.12.2019
6670 Rain 10 1009 69 0 3.96 54 21:56 05.12.2019
6671 Rain 10 1009 69 0 3.96 54 21:37 05.12.2019
6672 Rain 10 1009 69 0 3.96 54 21:19 05.12.2019
6673 Rain 10 1009 69 0 3.96 54 20:56 05.12.2019
6674 Rain 10 1009 69 0 3.96 54 20:56 05.12.2019
6675 Rain 10 1009 69 0 3.96 54 20:37 05.12.2019
6676 Rain 10 1010 68 0 3.1 16 20:18 05.12.2019
6677 Rain 11 1011 61 0 2.88 25 19:40 05.12.2019
6678 Rain 11 1011 61 0 2.88 25 19:22 05.12.2019
6679 Rain 11 1011 61 0 2.88 25 18:58 05.12.2019
6680 Rain 11 1011 61 0 2.88 25 18:38 05.12.2019
6681 Rain 11 1011 61 0 2.88 25 18:20 05.12.2019
6682 Rain 11 1011 61 0 2.88 25 18:20 05.12.2019
6683 Rain 11 1011 61 0 2.88 25 17:55 05.12.2019
6684 Rain 11 1011 61 0 2.88 25 17:36 05.12.2019
6685 Rain 11 1015 54 0 3.9 24 17:18 05.12.2019
6686 Rain 11 1015 54 0 3.9 24 16:40 05.12.2019
6687 Rain 11 1015 54 0 3.9 24 16:22 05.12.2019
6688 Rain 11 1015 54 0 3.9 24 15:58 05.12.2019
6689 Rain 11 1015 54 0 3.9 24 15:40 05.12.2019
6690 Rain 11 1015 54 0 3.9 24 15:20 05.12.2019
6691 Rain 11 1015 54 0 3.9 24 14:56 05.12.2019
6692 Rain 11 1015 54 0 3.9 24 14:38 05.12.2019
6693 Rain 8 1016 69 0 2.68 19 14:20 05.12.2019
6694 Rain 8 1016 69 0 2.68 19 13:58 05.12.2019
6695 Rain 8 1016 69 0 2.68 19 13:39 05.12.2019
6696 Rain 8 1016 68 0 2.83 23 13:21 05.12.2019
6697 Rain 8 1016 68 0 2.83 23 12:58 05.12.2019
6698 Rain 8 1016 68 0 2.83 23 12:39 05.12.2019
6699 Rain 8 1016 68 0 2.83 23 12:21 05.12.2019
6700 Rain 8 1016 68 0 2.83 23 11:41 05.12.2019
6701 Rain 7 1015 79 0 2.82 51 11:22 05.12.2019
6702 Rain 7 1015 79 0 2.82 51 10:59 05.12.2019
6703 Rain 7 1015 79 0 2.82 51 10:41 05.12.2019
6704 Rain 7 1015 79 0 2.82 51 10:19 05.12.2019
6705 Rain 7 1015 79 0 2.82 51 09:57 05.12.2019
6706 Rain 7 1015 79 0 2.82 51 09:39 05.12.2019
6707 Rain 7 1015 79 0 2.82 51 09:20 05.12.2019
6708 Rain 7 1015 79 0 2.82 51 08:56 05.12.2019
6709 Rain 7 1015 79 0 2.82 51 08:37 05.12.2019
6710 Rain 8 1013 72 0 3.47 47 08:19 05.12.2019
6711 Rain 8 1013 72 0 3.47 47 08:19 05.12.2019
6712 Rain 8 1013 72 0 3.47 47 08:19 05.12.2019
6713 Rain 8 1013 72 0 3.47 47 07:41 05.12.2019
6714 Rain 8 1013 72 0 3.47 47 07:23 05.12.2019
6715 Rain 8 1013 72 0 3.47 47 06:48 05.12.2019
6716 Rain 8 1013 72 0 3.47 47 06:24 05.12.2019
6717 Rain 8 1013 72 0 3.47 47 05:58 05.12.2019
6718 Rain 8 1013 72 0 3.47 47 05:38 05.12.2019
6719 Rain 10 1014 60 0 3.8 64 05:18 05.12.2019
6720 Rain 10 1014 60 0 3.8 64 03:41 05.12.2019
6721 Rain 10 1014 60 0 3.8 64 02:42 05.12.2019
6722 Rain 10 1014 60 0 3.8 64 02:23 05.12.2019
6723 Rain 11 1009 57 0 3.66 43 01:51 05.12.2019
6724 Rain 11 1009 57 0 3.66 43 01:51 05.12.2019
6725 Rain 11 1009 56 0 4.55 41 01:24 05.12.2019
6726 Rain 11 1009 56 0 4.55 41 00:46 05.12.2019
6727 Rain 11 1009 56 0 4.55 41 00:21 05.12.2019
6728 Rain 11 1009 56 0 4.55 41 23:56 04.12.2019
6729 Rain 11 1009 56 0 4.55 41 23:37 04.12.2019
6730 Clouds 16 1004 22 0 1.21 270 23:18 04.12.2019
6731 Clouds 16 1004 22 0 1.21 270 22:39 04.12.2019
6732 Clouds 16 1004 22 0 1.21 270 22:20 04.12.2019
6733 Clouds 16 1004 22 0 1.21 270 21:58 04.12.2019
6734 Clouds 16 1004 22 0 1.21 270 21:39 04.12.2019
6735 Clouds 16 1004 22 0 1.21 270 21:20 04.12.2019
6736 Clouds 16 1004 22 0 1.21 270 20:58 04.12.2019
6737 Clouds 16 1004 22 0 1.21 270 20:40 04.12.2019
6738 Clear 16 1006 16 0 2.59 311 20:21 04.12.2019
6739 Clear 16 1006 16 0 2.59 311 19:58 04.12.2019
6740 Clear 16 1006 16 0 2.59 311 19:38 04.12.2019
6741 Clear 16 1006 16 0 2.59 311 19:20 04.12.2019
6742 Clear 16 1006 16 0 2.59 311 18:56 04.12.2019
6743 Clear 16 1006 16 0 2.59 311 18:38 04.12.2019
6744 Clear 16 1006 16 0 2.59 311 18:20 04.12.2019
6745 Clear 16 1006 16 0 2.59 311 17:40 04.12.2019
6746 Clear 14 1010 14 0 2.2 330 17:21 04.12.2019
6747 Clear 14 1010 14 0 2.2 330 16:59 04.12.2019
6748 Clear 14 1010 14 0 2.2 330 16:39 04.12.2019
6749 Clear 14 1010 14 0 2.2 330 16:20 04.12.2019
6750 Clear 14 1010 14 0 2.2 330 15:55 04.12.2019
6751 Clear 14 1010 14 0 2.2 330 15:37 04.12.2019
6752 Clear 14 1010 14 0 2.2 330 15:19 04.12.2019
6753 Clear 14 1010 14 0 2.2 330 14:44 04.12.2019
6754 Clear 14 1010 14 0 2.2 330 14:24 04.12.2019
6755 Clear 10 1013 13 0 1.5 258 13:59 04.12.2019
6756 Clear 10 1013 13 0 1.5 258 13:38 04.12.2019
6757 Clear 10 1013 13 0 1.5 258 13:20 04.12.2019
6758 Clear 10 1014 14 0 1.52 275 12:45 04.12.2019
6759 Clear 10 1014 14 0 1.52 275 12:25 04.12.2019
6760 Clear 10 1014 14 0 1.52 275 11:57 04.12.2019
6761 Clear 10 1014 14 0 1.52 275 11:39 04.12.2019
6762 Clear 6 1012 31 0 2.08 268 11:21 04.12.2019
6763 Clear 6 1012 31 0 2.08 268 11:21 04.12.2019
6764 Clear 6 1012 31 0 2.08 268 10:44 04.12.2019
6765 Clear 6 1012 31 0 2.08 268 10:44 04.12.2019
6766 Clear 6 1012 31 0 2.08 268 10:24 04.12.2019
6767 Clear 6 1012 31 0 2.08 268 10:24 04.12.2019
6768 Clear 6 1012 31 0 2.08 268 09:57 04.12.2019
6769 Clear 6 1012 31 0 2.08 268 09:39 04.12.2019
6770 Clear 6 1012 31 0 2.08 268 09:20 04.12.2019
6771 Clear 6 1012 31 0 2.08 268 08:42 04.12.2019
6772 Clouds 6 1012 34 0 2.12 269 08:23 04.12.2019
6773 Clouds 8 1011 57 0 1.46 322 07:51 04.12.2019
6774 Clouds 8 1011 57 0 1.46 322 07:30 04.12.2019
6775 Clouds 8 1011 57 0 1.46 322 06:51 04.12.2019
6776 Clouds 8 1011 57 0 1.46 322 06:31 04.12.2019
6777 Clouds 8 1011 57 0 1.46 322 05:43 04.12.2019
6778 Clouds 8 1011 57 0 1.46 322 05:43 04.12.2019
6779 Rain 9 1011 68 0 2.21 352 04:33 04.12.2019
6780 Rain 9 1011 68 0 2.21 352 03:25 04.12.2019
6781 Clear 12 1007 48 0 2.96 54 01:25 04.12.2019
6782 Clear 11 1007 55 0 3.31 55 00:40 04.12.2019
6783 Clear 11 1007 55 0 3.31 55 00:20 04.12.2019
6784 Clear 11 1007 55 0 3.31 55 23:41 03.12.2019
6785 Clear 16 1001 24 0 1.13 250 23:20 03.12.2019
6786 Clear 16 1001 24 0 1.13 250 22:57 03.12.2019
6787 Clear 16 1001 24 0 1.13 250 22:38 03.12.2019
6788 Clear 16 1001 24 0 1.13 250 22:18 03.12.2019
6789 Clear 16 1001 24 0 1.13 250 21:55 03.12.2019
6790 Clear 16 1001 24 0 1.13 250 21:36 03.12.2019
6791 Clear 16 1001 24 0 1.13 250 21:18 03.12.2019
6792 Clear 16 1001 24 0 1.13 250 20:41 03.12.2019
6793 Clouds 16 1004 27 0 3.48 281 20:19 03.12.2019
6794 Clouds 16 1004 27 0 3.48 281 19:57 03.12.2019
6795 Clouds 16 1004 27 0 3.48 281 19:38 03.12.2019
6796 Clouds 16 1004 27 0 3.48 281 19:20 03.12.2019
6797 Clouds 16 1004 27 0 3.48 281 18:59 03.12.2019
6798 Clouds 16 1004 27 0 3.48 281 18:41 03.12.2019
6799 Clouds 16 1004 27 0 3.48 281 18:21 03.12.2019
6800 Clouds 16 1004 27 0 3.48 281 17:58 03.12.2019
6801 Clouds 16 1004 27 0 3.48 281 17:38 03.12.2019
6802 Clouds 14 1009 34 0 3.12 298 17:18 03.12.2019
6803 Clouds 14 1009 34 0 3.12 298 16:58 03.12.2019
6804 Clouds 14 1009 34 0 3.12 298 16:39 03.12.2019
6805 Clouds 14 1009 34 0 3.12 298 16:20 03.12.2019
6806 Clouds 14 1009 34 0 3.12 298 15:58 03.12.2019
6807 Clouds 14 1009 34 0 3.12 298 15:38 03.12.2019
6808 Clouds 14 1009 34 0 3.12 298 15:19 03.12.2019
6809 Clouds 14 1009 34 0 3.12 298 14:44 03.12.2019
6810 Clouds 10 1013 54 0 2.2 299 14:21 03.12.2019
6811 Clouds 10 1013 54 0 2.2 299 13:59 03.12.2019
6812 Clouds 10 1013 54 0 2.2 299 13:38 03.12.2019
6813 Clouds 10 1012 55 0 2.23 309 13:19 03.12.2019
6814 Clouds 10 1012 55 0 2.23 309 12:57 03.12.2019
6815 Clouds 10 1012 55 0 2.23 309 12:37 03.12.2019
6816 Clouds 10 1012 55 0 2.23 309 12:18 03.12.2019
6817 Clouds 10 1012 55 0 2.23 309 11:55 03.12.2019
6818 Clouds 10 1012 55 0 2.23 309 11:37 03.12.2019
6819 Clouds 8 1012 72 0 0.77 352 11:18 03.12.2019
6820 Clouds 8 1012 72 0 0.77 352 10:43 03.12.2019
6821 Clouds 8 1012 72 0 0.77 352 10:21 03.12.2019
6822 Clouds 8 1012 72 0 0.77 352 09:59 03.12.2019
6823 Clouds 8 1012 72 0 0.77 352 09:40 03.12.2019
6824 Clouds 8 1012 72 0 0.77 352 09:22 03.12.2019
6825 Clouds 8 1012 72 0 0.77 352 08:56 03.12.2019
6826 Clouds 8 1012 72 0 0.77 352 08:38 03.12.2019
6827 Rain 8 1013 68 0 3.28 310 08:19 03.12.2019
6828 Rain 8 1013 68 0 3.28 310 07:50 03.12.2019
6829 Rain 8 1013 68 0 3.28 310 07:24 03.12.2019
6830 Rain 8 1013 68 0 3.28 310 06:24 03.12.2019
6831 Rain 8 1013 68 0 3.28 310 06:24 03.12.2019
6832 Rain 8 1013 68 0 3.28 310 05:59 03.12.2019
6833 Rain 8 1015 72 0 4.45 209 04:55 03.12.2019
6834 Rain 8 1015 72 0 4.45 209 03:41 03.12.2019
6835 Rain 8 1015 72 0 4.45 209 03:20 03.12.2019
6836 Rain 8 1015 72 0 4.45 209 03:20 03.12.2019
6837 Rain 8 1015 72 0 4.45 209 02:51 03.12.2019
6838 Rain 8 1015 72 0 4.45 209 02:31 03.12.2019
6839 Rain 10 1011 66 0 4.27 59 01:56 03.12.2019
6840 Rain 8 1011 74 0 3.63 44 01:37 03.12.2019
6841 Rain 8 1011 74 0 3.63 44 00:59 03.12.2019
6842 Rain 8 1011 74 0 3.63 44 00:40 03.12.2019
6843 Rain 8 1011 74 0 3.63 44 00:21 03.12.2019
6844 Rain 8 1011 74 0 3.63 44 23:43 02.12.2019
6845 Rain 8 1011 74 0 3.63 44 23:43 02.12.2019
6846 Rain 11 1007 61 0 4.23 34 23:21 02.12.2019
6847 Rain 11 1007 61 0 4.23 34 22:55 02.12.2019
6848 Rain 11 1007 61 0 4.23 34 22:37 02.12.2019
6849 Rain 11 1007 61 0 4.23 34 22:19 02.12.2019
6850 Rain 11 1007 61 0 4.23 34 21:39 02.12.2019
6851 Rain 11 1007 61 0 4.23 34 21:20 02.12.2019
6852 Rain 11 1007 61 0 4.23 34 20:57 02.12.2019
6853 Rain 11 1007 61 0 4.23 34 20:57 02.12.2019
6854 Rain 11 1007 61 0 4.23 34 20:39 02.12.2019
6855 Rain 12 1010 51 0 1.85 27 20:20 02.12.2019
6856 Rain 12 1010 51 0 1.85 27 19:56 02.12.2019
6857 Rain 12 1010 51 0 1.85 27 19:56 02.12.2019
6858 Rain 12 1010 51 0 1.85 27 19:56 02.12.2019
6859 Rain 12 1010 51 0 1.85 27 19:38 02.12.2019
6860 Rain 12 1010 51 0 1.85 27 19:20 02.12.2019
6861 Rain 12 1010 51 0 1.85 27 18:48 02.12.2019
6862 Rain 12 1010 51 0 1.85 27 18:24 02.12.2019
6863 Rain 12 1010 51 0 1.85 27 17:59 02.12.2019
6864 Rain 12 1010 51 0 1.85 27 17:41 02.12.2019
6865 Clouds 11 1015 59 0 3.53 24 17:20 02.12.2019
6866 Clouds 11 1015 59 0 3.53 24 16:57 02.12.2019
6867 Clouds 11 1015 59 0 3.53 24 16:39 02.12.2019
6868 Clouds 11